LH420 / D-ABVW 7700 Squawk Report (8th of August, 2022)

Aircraft B744 Reg No. D-ABVW Age 23 years old
Model 747 Jet engines 4 First flight 04-03-99
Registered 13-03-99 Rollout N/A Delivered 13-03-99
Construction No. 29493 Line No. 1205 Series 430
ADSHEX 3C4AD7 Airline name Lufthansa Owner N/A
Airfield based Frankfurt-Main~Hessen~D First tracked N/A

Flight history for D-ABVW

Route Flight No Date Playback
Chhatrapati Shivaji Intl (BOM) - Frankfurt Main (FRA) LH757 2022-10-06 05:41:00
Frankfurt Main (FRA) - Chhatrapati Shivaji Intl (BOM) LH756 2022-10-05 22:30:00
Kempegowda International Airport (BLR) - Frankfurt Main (FRA) LH755 2022-10-05 11:46:00
Frankfurt Main (FRA) - Kempegowda International Airport (BLR) LH754 2022-10-04 19:58:00
Logan International Airport (BOS) - Frankfurt Main (FRA) LH421 2022-10-03 04:20:00
Frankfurt Main (FRA) - Logan International Airport (BOS) LH420 2022-10-02 19:58:00
Kempegowda International Airport (BLR) - Frankfurt Main (FRA) LH755 2022-10-02 11:44:00
Frankfurt Main (FRA) - Kempegowda International Airport (BLR) LH754 2022-10-01 20:01:00
Chhatrapati Shivaji Intl (BOM) - Frankfurt Main (FRA) LH757 2022-10-01 06:23:00
Frankfurt Main (FRA) - Chhatrapati Shivaji Intl (BOM) LH756 2022-09-30 23:04:00
Chhatrapati Shivaji Intl (BOM) - Frankfurt Main (FRA) LH757 2022-09-30 02:53:00
Capital Intl (PEK) - Frankfurt Main (FRA) LH723 2022-09-30 12:34:00
Frankfurt Main (FRA) - Capital Intl (PEK) LH722 2022-09-28 05:10:00
Vancouver International (YVR) - Frankfurt Main (FRA) LH493 2022-09-27 19:59:00
Frankfurt Main (FRA) - Vancouver International (YVR) LH492 2022-09-26 21:38:00
Chhatrapati Shivaji Intl (BOM) - Frankfurt Main (FRA) LH757 2022-09-26 11:56:00
Frankfurt Main (FRA) - Chhatrapati Shivaji Intl (BOM) LH756 2022-09-25 19:20:00
Chhatrapati Shivaji Intl (BOM) - Frankfurt Main (FRA) LH757 2022-09-25 12:11:00
Frankfurt Main (FRA) - Chhatrapati Shivaji Intl (BOM) LH756 2022-09-24 23:34:00
Logan International Airport (BOS) - Frankfurt Main (FRA) LH423 2022-09-24 11:46:00
Time Lat Lon Altitude Heading Speed Vertical Rate
2022-08-08 22:32:46 GMT 42.371849 -71.020927 0 171 0 0
2022-08-08 22:32:37 GMT 42.371849 -71.020927 0 171 0 0
2022-08-08 22:32:34 GMT 42.371849 -71.020927 0 171 0 0
2022-08-08 22:32:21 GMT 42.371849 -71.020927 0 171 0 0
2022-08-08 22:32:18 GMT 42.371849 -71.020920 0 171 0 0
2022-08-08 22:32:15 GMT 42.371830 -71.020920 0 171 3 0
2022-08-08 22:32:14 GMT 42.371841 -71.020920 0 171 3 0
2022-08-08 22:32:13 GMT 42.371861 -71.020920 0 171 4 0
2022-08-08 22:32:11 GMT 42.371880 -71.020920 0 170 3 0
2022-08-08 22:32:09 GMT 42.371922 -71.020920 0 169 4 0
2022-08-08 22:32:07 GMT 42.371971 -71.020958 0 169 3 0
2022-08-08 22:32:05 GMT 42.372002 -71.020981 0 169 4 0
2022-08-08 22:32:04 GMT 42.372002 -71.020958 0 169 5 0
2022-08-08 22:32:00 GMT 42.371941 -71.020592 0 169 4 0
2022-08-08 22:31:59 GMT 42.371880 -71.020569 0 169 4 0
2022-08-08 22:31:57 GMT 42.371922 -71.020592 0 169 4 0
2022-08-08 22:31:56 GMT 42.371929 -71.020599 0 170 4 0
2022-08-08 22:31:55 GMT 42.371899 -71.020638 0 170 4 0
2022-08-08 22:31:54 GMT 42.371841 -71.020729 0 171 5 0
2022-08-08 22:31:52 GMT 42.371799 -71.020782 0 171 5 0
2022-08-08 22:31:51 GMT 42.371769 -71.020821 0 170 5 0
2022-08-08 22:31:50 GMT 42.371811 -71.020828 0 169 5 0
2022-08-08 22:31:48 GMT 42.371830 -71.020798 0 166 5 0
2022-08-08 22:31:47 GMT 42.371841 -71.020821 0 167 5 0
2022-08-08 22:31:46 GMT 42.371891 -71.020851 0 172 5 0
2022-08-08 22:31:44 GMT 42.371910 -71.020859 0 175 5 0
2022-08-08 22:31:43 GMT 42.371929 -71.020889 0 179 4 0
2022-08-08 22:31:41 GMT 42.371990 -71.020897 0 182 3 0
2022-08-08 22:31:40 GMT 42.371979 -71.020912 0 181 3 0
2022-08-08 22:31:38 GMT 42.371990 -71.020912 0 176 6 0
2022-08-08 22:31:37 GMT 42.371971 -71.020844 0 175 11 0
2022-08-08 22:31:36 GMT 42.372009 -71.020889 0 192 10 0
2022-08-08 22:31:34 GMT 42.372139 -71.020943 0 231 6 0
2022-08-08 22:31:33 GMT 42.372211 -71.020760 0 253 5 0
2022-08-08 22:31:32 GMT 42.372219 -71.020767 0 263 6 0
2022-08-08 22:31:31 GMT 42.372318 -71.020630 0 278 5 0
2022-08-08 22:31:29 GMT 42.372330 -71.020683 0 279 6 0
2022-08-08 22:31:28 GMT 42.372372 -71.020691 0 281 7 0
2022-08-08 22:31:27 GMT 42.372398 -71.020699 0 282 9 0
2022-08-08 22:31:25 GMT 42.372379 -71.020638 0 281 9 0
2022-08-08 22:31:24 GMT 42.372379 -71.020592 0 282 9 0
2022-08-08 22:31:22 GMT 42.372372 -71.020500 0 288 11 0
2022-08-08 22:31:21 GMT 42.372360 -71.020462 0 281 14 0
2022-08-08 22:31:20 GMT 42.372318 -71.020302 0 272 12 0
2022-08-08 22:31:18 GMT 42.372318 -71.020210 0 269 12 0
2022-08-08 22:31:17 GMT 42.372292 -71.020111 0 262 10 0
2022-08-08 22:31:15 GMT 42.372299 -71.019997 0 258 11 0
2022-08-08 22:31:14 GMT 42.372299 -71.019928 0 258 10 0
2022-08-08 22:31:12 GMT 42.372318 -71.019814 0 258 9 0
2022-08-08 22:31:11 GMT 42.372318 -71.019760 0 257 11 0
2022-08-08 22:31:09 GMT 42.372311 -71.019623 0 239 11 0
2022-08-08 22:31:08 GMT 42.372318 -71.019547 0 234 11 0
2022-08-08 22:31:06 GMT 42.372372 -71.019402 0 223 10 0
2022-08-08 22:31:05 GMT 42.372398 -71.019363 0 218 10 0
2022-08-08 22:31:04 GMT 42.372478 -71.019279 0 224 10 0
2022-08-08 22:31:02 GMT 42.372509 -71.019234 0 224 9 0
2022-08-08 22:31:00 GMT 42.372581 -71.019157 0 228 10 0
2022-08-08 22:30:59 GMT 42.372589 -71.019112 0 222 11 0
2022-08-08 22:30:58 GMT 42.372662 -71.018982 0 204 11 0
2022-08-08 22:30:56 GMT 42.372681 -71.018929 0 207 12 0
2022-08-08 22:30:54 GMT 42.372780 -71.018921 0 225 13 0
2022-08-08 22:30:53 GMT 42.372829 -71.018852 0 228 11 0
2022-08-08 22:30:52 GMT 42.372860 -71.018799 0 231 11 0
2022-08-08 22:30:50 GMT 42.372921 -71.018707 0 250 10 0
2022-08-08 22:30:49 GMT 42.372959 -71.018639 0 265 9 0
2022-08-08 22:30:47 GMT 42.373009 -71.018547 0 286 11 0
2022-08-08 22:30:46 GMT 42.373009 -71.018471 0 286 11 0
2022-08-08 22:30:45 GMT 42.372971 -71.018402 0 285 9 0
2022-08-08 22:30:44 GMT 42.372971 -71.018311 0 298 11 0
2022-08-08 22:30:42 GMT 42.372929 -71.018242 0 297 11 0
2022-08-08 22:30:41 GMT 42.372940 -71.018204 0 302 14 0
2022-08-08 22:30:39 GMT 42.372890 -71.018051 0 318 16 0
2022-08-08 22:30:37 GMT 42.372768 -71.017899 0 315 13 0
2022-08-08 22:30:36 GMT 42.372719 -71.017860 0 316 13 0
2022-08-08 22:30:35 GMT 42.372662 -71.017761 0 314 17 0
2022-08-08 22:30:33 GMT 42.372608 -71.017693 0 315 17 0
2022-08-08 22:30:32 GMT 42.372520 -71.017532 0 321 20 0
2022-08-08 22:30:30 GMT 42.372440 -71.017487 0 316 22 0
2022-08-08 22:30:29 GMT 42.372372 -71.017380 0 317 21 0
2022-08-08 22:30:28 GMT 42.372269 -71.017273 0 316 17 0
2022-08-08 22:30:26 GMT 42.372150 -71.017143 0 311 17 0
2022-08-08 22:30:25 GMT 42.372108 -71.017059 0 313 18 0
2022-08-08 22:30:23 GMT 42.372002 -71.016876 0 316 17 0
2022-08-08 22:30:22 GMT 42.371941 -71.016800 0 316 17 0
2022-08-08 22:30:21 GMT 42.371880 -71.016731 0 316 17 0
2022-08-08 22:30:20 GMT 42.371792 -71.016609 0 316 20 0
2022-08-08 22:30:18 GMT 42.371719 -71.016533 0 314 20 0
2022-08-08 22:30:17 GMT 42.371651 -71.016449 0 311 20 0
2022-08-08 22:30:15 GMT 42.371510 -71.016251 0 313 16 0
2022-08-08 22:30:14 GMT 42.371490 -71.016190 0 317 19 0
2022-08-08 22:30:12 GMT 42.371368 -71.016060 0 314 20 0
2022-08-08 22:30:11 GMT 42.371300 -71.015938 0 316 18 0
2022-08-08 22:30:09 GMT 42.371181 -71.015800 0 316 18 0
2022-08-08 22:30:08 GMT 42.371120 -71.015739 0 312 18 0
2022-08-08 22:30:07 GMT 42.371071 -71.015648 0 315 18 0
2022-08-08 22:30:05 GMT 42.370960 -71.015511 0 314 21 0
2022-08-08 22:30:04 GMT 42.370899 -71.015419 0 314 21 0
2022-08-08 22:30:03 GMT 42.370739 -71.015221 0 312 16 0
2022-08-08 22:30:01 GMT 42.370701 -71.015129 0 317 16 0
2022-08-08 22:30:00 GMT 42.370602 -71.015022 0 316 17 0
2022-08-08 22:29:58 GMT 42.370548 -71.014938 0 317 16 0
2022-08-08 22:29:57 GMT 42.370449 -71.014832 0 316 18 0
2022-08-08 22:29:55 GMT 42.370392 -71.014740 0 318 18 0
2022-08-08 22:29:54 GMT 42.370258 -71.014580 0 317 18 0
2022-08-08 22:29:52 GMT 42.370201 -71.014511 0 315 18 0
2022-08-08 22:29:51 GMT 42.370071 -71.014351 0 311 16 0
2022-08-08 22:29:49 GMT 42.370022 -71.014297 0 309 18 0
2022-08-08 22:29:47 GMT 42.369911 -71.014099 0 312 16 0
2022-08-08 22:29:46 GMT 42.369862 -71.014023 0 317 15 0
2022-08-08 22:29:45 GMT 42.369770 -71.013893 0 318 15 0
2022-08-08 22:29:43 GMT 42.369732 -71.013847 0 318 17 0
2022-08-08 22:29:42 GMT 42.369560 -71.013672 0 312 12 0
2022-08-08 22:29:40 GMT 42.369530 -71.013618 0 313 13 0
2022-08-08 22:29:39 GMT 42.369438 -71.013496 0 315 14 0
2022-08-08 22:29:37 GMT 42.369411 -71.013458 0 314 17 0
2022-08-08 22:29:36 GMT 42.369339 -71.013382 0 311 16 0
2022-08-08 22:29:35 GMT 42.369251 -71.013206 0 320 15 0
2022-08-08 22:29:33 GMT 42.369179 -71.013153 0 316 14 0
2022-08-08 22:29:32 GMT 42.369122 -71.013100 0 308 14 0
2022-08-08 22:29:30 GMT 42.369041 -71.012932 0 321 12 0
2022-08-08 22:29:28 GMT 42.368969 -71.012863 0 317 15 0
2022-08-08 22:29:27 GMT 42.368912 -71.012810 0 314 16 0
2022-08-08 22:29:26 GMT 42.368832 -71.012711 0 314 12 0
2022-08-08 22:29:25 GMT 42.368759 -71.012611 0 315 12 0
2022-08-08 22:29:23 GMT 42.368710 -71.012550 0 315 12 0
2022-08-08 22:29:21 GMT 42.368629 -71.012444 0 317 12 0
2022-08-08 22:29:20 GMT 42.368599 -71.012398 0 315 13 0
2022-08-08 22:29:19 GMT 42.368511 -71.012283 0 310 11 0
2022-08-08 22:29:17 GMT 42.368450 -71.012260 0 301 11 0
2022-08-08 22:29:16 GMT 42.368431 -71.012169 0 305 9 0
2022-08-08 22:29:14 GMT 42.368382 -71.012093 0 313 11 0
2022-08-08 22:29:13 GMT 42.368370 -71.012009 0 324 10 0
2022-08-08 22:29:12 GMT 42.368279 -71.011948 0 310 11 0
2022-08-08 22:29:10 GMT 42.368229 -71.011902 0 305 10 0
2022-08-08 22:29:09 GMT 42.368179 -71.011787 0 312 9 0
2022-08-08 22:29:07 GMT 42.368149 -71.011742 0 315 8 0
2022-08-08 22:29:05 GMT 42.368099 -71.011642 0 330 8 0
2022-08-08 22:29:04 GMT 42.368080 -71.011597 0 334 8 0
2022-08-08 22:29:03 GMT 42.368031 -71.011559 0 336 11 0
2022-08-08 22:29:01 GMT 42.367950 -71.011520 0 329 7 0
2022-08-08 22:29:00 GMT 42.367889 -71.011513 0 317 9 0
2022-08-08 22:28:58 GMT 42.367870 -71.011482 0 324 10 0
2022-08-08 22:28:57 GMT 42.367809 -71.011398 0 345 11 0
2022-08-08 22:28:55 GMT 42.367729 -71.011337 0 357 14 0
2022-08-08 22:28:54 GMT 42.367668 -71.011337 0 358 14 0
2022-08-08 22:28:52 GMT 42.367599 -71.011322 0 4 14 0
2022-08-08 22:28:50 GMT 42.367470 -71.011307 0 18 13 0
2022-08-08 22:28:49 GMT 42.367420 -71.011353 0 13 15 0
2022-08-08 22:28:48 GMT 42.367290 -71.011383 0 17 17 0
2022-08-08 22:28:46 GMT 42.367210 -71.011391 0 23 17 0
2022-08-08 22:28:45 GMT 42.367069 -71.011482 0 22 15 0
2022-08-08 22:28:43 GMT 42.367020 -71.011520 0 17 17 0
2022-08-08 22:28:42 GMT 42.366940 -71.011551 0 19 17 0
2022-08-08 22:28:41 GMT 42.366871 -71.011589 0 18 18 0
2022-08-08 22:28:39 GMT 42.366711 -71.011673 0 17 17 0
2022-08-08 22:28:38 GMT 42.366631 -71.011688 0 20 17 0
2022-08-08 22:28:36 GMT 42.366482 -71.011780 0 17 17 0
2022-08-08 22:28:35 GMT 42.366409 -71.011787 0 22 17 0
2022-08-08 22:28:34 GMT 42.366268 -71.011879 0 20 18 0
2022-08-08 22:28:32 GMT 42.366180 -71.011909 0 23 17 0
2022-08-08 22:28:31 GMT 42.366112 -71.011963 0 20 16 0
2022-08-08 22:28:30 GMT 42.365959 -71.012039 0 19 15 0
2022-08-08 22:28:28 GMT 42.365879 -71.012062 0 23 16 0
2022-08-08 22:28:27 GMT 42.365829 -71.012108 0 15 15 0
2022-08-08 22:28:26 GMT 42.365688 -71.012154 0 22 16 0
2022-08-08 22:28:24 GMT 42.365608 -71.012177 0 25 15 0
2022-08-08 22:28:23 GMT 42.365559 -71.012222 0 22 16 0
2022-08-08 22:28:21 GMT 42.365421 -71.012306 0 16 15 0
2022-08-08 22:28:20 GMT 42.365349 -71.012337 0 14 14 0
2022-08-08 22:28:19 GMT 42.365219 -71.012383 0 21 15 0
2022-08-08 22:28:17 GMT 42.365162 -71.012421 0 18 15 0
2022-08-08 22:28:16 GMT 42.365089 -71.012444 0 24 15 0
2022-08-08 22:28:14 GMT 42.364960 -71.012520 0 19 14 0
2022-08-08 22:28:13 GMT 42.364899 -71.012550 0 19 14 0
2022-08-08 22:28:11 GMT 42.364769 -71.012619 0 18 13 0
2022-08-08 22:28:10 GMT 42.364712 -71.012627 0 23 14 0
2022-08-08 22:28:09 GMT 42.364578 -71.012688 0 29 13 0
2022-08-08 22:28:07 GMT 42.364529 -71.012733 0 27 13 0
2022-08-08 22:28:06 GMT 42.364422 -71.012810 0 19 13 0
2022-08-08 22:28:04 GMT 42.364368 -71.012863 0 14 12 0
2022-08-08 22:28:03 GMT 42.364311 -71.012878 0 13 12 0
2022-08-08 22:28:01 GMT 42.364201 -71.012909 0 16 11 0
2022-08-08 22:28:00 GMT 42.364101 -71.012962 0 16 10 0
2022-08-08 22:27:58 GMT 42.364059 -71.012970 0 19 10 0
2022-08-08 22:27:57 GMT 42.364029 -71.012978 0 19 12 0
2022-08-08 22:27:55 GMT 42.363918 -71.013039 0 20 11 0
2022-08-08 22:27:54 GMT 42.363838 -71.013031 0 32 10 0
2022-08-08 22:27:53 GMT 42.363781 -71.013100 0 18 11 0
2022-08-08 22:27:51 GMT 42.363750 -71.013130 0 19 12 0
2022-08-08 22:27:50 GMT 42.363682 -71.013123 0 12 11 0
2022-08-08 22:27:48 GMT 42.363579 -71.013184 0 344 9 0
2022-08-08 22:27:47 GMT 42.363560 -71.013206 0 331 11 0
2022-08-08 22:27:46 GMT 42.363449 -71.013191 0 318 10 0
2022-08-08 22:27:44 GMT 42.363419 -71.013153 0 316 12 0
2022-08-08 22:27:42 GMT 42.363350 -71.013069 0 312 14 0
2022-08-08 22:27:41 GMT 42.363300 -71.013008 0 310 14 0
2022-08-08 22:27:40 GMT 42.363209 -71.012901 0 298 16 0
2022-08-08 22:27:38 GMT 42.363171 -71.012802 0 299 14 0
2022-08-08 22:27:37 GMT 42.363152 -71.012718 0 304 15 0
2022-08-08 22:27:36 GMT 42.363060 -71.012581 0 294 15 0
2022-08-08 22:27:34 GMT 42.363029 -71.012466 0 298 12 0
2022-08-08 22:27:32 GMT 42.362980 -71.012352 0 299 13 0
2022-08-08 22:27:31 GMT 42.362949 -71.012283 0 299 13 0
2022-08-08 22:27:30 GMT 42.362888 -71.012108 0 304 13 0
2022-08-08 22:27:28 GMT 42.362850 -71.012047 0 300 12 0
2022-08-08 22:27:26 GMT 42.362789 -71.011932 0 299 15 0
2022-08-08 22:27:25 GMT 42.362759 -71.011841 0 301 14 0
2022-08-08 22:27:24 GMT 42.362709 -71.011749 0 297 12 0
2022-08-08 22:27:22 GMT 42.362659 -71.011612 0 293 11 0
2022-08-08 22:27:21 GMT 42.362610 -71.011559 0 290 12 0
2022-08-08 22:27:19 GMT 42.362591 -71.011398 0 294 10 0
2022-08-08 22:27:18 GMT 42.362560 -71.011337 0 291 10 0
2022-08-08 22:27:17 GMT 42.362518 -71.011223 0 295 8 0
2022-08-08 22:27:15 GMT 42.362518 -71.011162 0 300 8 0
2022-08-08 22:27:14 GMT 42.362480 -71.011070 0 289 6 0
2022-08-08 22:27:12 GMT 42.362461 -71.011040 0 277 6 0
2022-08-08 22:27:11 GMT 42.362450 -71.010986 0 263 3 0
2022-08-08 22:27:09 GMT 42.362431 -71.010948 0 254 2 0
2022-08-08 22:27:08 GMT 42.362419 -71.010918 0 252 1 0
2022-08-08 22:27:06 GMT 42.362411 -71.010887 0 250 0 0
2022-08-08 22:27:01 GMT 42.362400 -71.010887 0 250 0 0
2022-08-08 22:26:51 GMT 42.362411 -71.010880 0 252 0 0
2022-08-08 22:26:45 GMT 42.362400 -71.010880 0 252 0 0
2022-08-08 22:26:44 GMT 42.362411 -71.010880 0 258 0 0
2022-08-08 22:26:42 GMT 42.362411 -71.010880 0 258 0 0
2022-08-08 22:26:37 GMT 42.362400 -71.010880 0 261 0 0
2022-08-08 22:26:34 GMT 42.362400 -71.010880 0 263 1 0
2022-08-08 22:26:32 GMT 42.362400 -71.010910 0 272 4 0
2022-08-08 22:26:31 GMT 42.362400 -71.010887 0 277 4 0
2022-08-08 22:26:30 GMT 42.362411 -71.010841 0 281 4 0
2022-08-08 22:26:28 GMT 42.362389 -71.010803 0 278 4 0
2022-08-08 22:26:27 GMT 42.362400 -71.010780 0 286 4 0
2022-08-08 22:26:25 GMT 42.362400 -71.010727 0 300 4 0
2022-08-08 22:26:24 GMT 42.362389 -71.010712 0 302 8 0
2022-08-08 22:26:23 GMT 42.362389 -71.010681 0 303 5 0
2022-08-08 22:26:21 GMT 42.362350 -71.010620 0 311 5 0
2022-08-08 22:26:20 GMT 42.362358 -71.010582 0 317 5 0
2022-08-08 22:26:19 GMT 42.362339 -71.010582 0 316 6 0
2022-08-08 22:26:17 GMT 42.362301 -71.010498 0 331 7 0
2022-08-08 22:26:16 GMT 42.362282 -71.010483 0 340 7 0
2022-08-08 22:26:14 GMT 42.362228 -71.010422 0 357 7 0
2022-08-08 22:26:13 GMT 42.362179 -71.010406 0 359 4 0
2022-08-08 22:26:12 GMT 42.362141 -71.010391 0 12 5 0
2022-08-08 22:26:10 GMT 42.362129 -71.010391 0 13 6 0
2022-08-08 22:26:08 GMT 42.362080 -71.010406 0 12 10 0
2022-08-08 22:26:07 GMT 42.362030 -71.010422 0 19 10 0
2022-08-08 22:26:06 GMT 42.361950 -71.010437 0 25 11 0
2022-08-08 22:26:04 GMT 42.361919 -71.010468 0 22 12 0
2022-08-08 22:26:03 GMT 42.361820 -71.010559 0 9 13 0
2022-08-08 22:26:01 GMT 42.361740 -71.010551 0 19 11 0
2022-08-08 22:26:00 GMT 42.361671 -71.010597 0 14 15 0
2022-08-08 22:25:58 GMT 42.361591 -71.010597 0 23 15 0
2022-08-08 22:25:57 GMT 42.361519 -71.010628 0 23 15 0
2022-08-08 22:25:56 GMT 42.361401 -71.010689 0 27 18 0
2022-08-08 22:25:54 GMT 42.361340 -71.010757 0 19 18 0
2022-08-08 22:25:52 GMT 42.361179 -71.010834 0 20 17 0
2022-08-08 22:25:51 GMT 42.361099 -71.010841 0 26 18 0
2022-08-08 22:25:50 GMT 42.361019 -71.010910 0 19 16 0
2022-08-08 22:25:48 GMT 42.360870 -71.010979 0 20 16 0
2022-08-08 22:25:47 GMT 42.360802 -71.010986 0 28 17 0
2022-08-08 22:25:45 GMT 42.360661 -71.011124 0 13 16 0
2022-08-08 22:25:44 GMT 42.360580 -71.011131 0 17 15 0
2022-08-08 22:25:42 GMT 42.360439 -71.011177 0 24 14 0
2022-08-08 22:25:41 GMT 42.360401 -71.011238 0 17 16 0
2022-08-08 22:25:39 GMT 42.360249 -71.011299 0 16 16 0
2022-08-08 22:25:38 GMT 42.360180 -71.011330 0 17 16 0
2022-08-08 22:25:37 GMT 42.360020 -71.011360 0 28 14 0
2022-08-08 22:25:35 GMT 42.359959 -71.011414 0 24 14 0
2022-08-08 22:25:34 GMT 42.359909 -71.011452 0 21 14 0
2022-08-08 22:25:33 GMT 42.359859 -71.011490 0 17 14 0
2022-08-08 22:25:31 GMT 42.359718 -71.011543 0 24 14 0
2022-08-08 22:25:29 GMT 42.359612 -71.011620 0 18 13 0
2022-08-08 22:25:27 GMT 42.359482 -71.011673 0 17 13 0
2022-08-08 22:25:26 GMT 42.359421 -71.011703 0 19 13 0
2022-08-08 22:25:25 GMT 42.359360 -71.011711 0 23 14 0
2022-08-08 22:25:24 GMT 42.359230 -71.011780 0 20 13 0
2022-08-08 22:25:22 GMT 42.359180 -71.011833 0 16 12 0
2022-08-08 22:25:21 GMT 42.359112 -71.011871 0 12 10 0
2022-08-08 22:25:19 GMT 42.359032 -71.011871 0 23 14 0
2022-08-08 22:25:18 GMT 42.358978 -71.011879 0 24 16 0
2022-08-08 22:25:17 GMT 42.358898 -71.011932 0 15 13 0
2022-08-08 22:25:15 GMT 42.358791 -71.011993 0 358 12 0
2022-08-08 22:25:14 GMT 42.358749 -71.012016 0 346 13 0
2022-08-08 22:25:12 GMT 42.358620 -71.011978 0 332 10 0
2022-08-08 22:25:11 GMT 42.358582 -71.011971 0 318 11 0
2022-08-08 22:25:09 GMT 42.358479 -71.011917 0 297 12 0
2022-08-08 22:25:08 GMT 42.358452 -71.011879 0 291 13 0
2022-08-08 22:25:07 GMT 42.358379 -71.011772 0 281 18 0
2022-08-08 22:25:05 GMT 42.358372 -71.011650 0 281 17 0
2022-08-08 22:25:03 GMT 42.358349 -71.011452 0 281 17 0
2022-08-08 22:25:02 GMT 42.358330 -71.011360 0 279 17 0
2022-08-08 22:25:01 GMT 42.358299 -71.011147 0 280 17 0
2022-08-08 22:24:59 GMT 42.358280 -71.011047 0 276 17 0
2022-08-08 22:24:58 GMT 42.358269 -71.010918 0 278 15 0
2022-08-08 22:24:56 GMT 42.358250 -71.010757 0 274 16 0
2022-08-08 22:24:55 GMT 42.358250 -71.010658 0 275 16 0
2022-08-08 22:24:53 GMT 42.358231 -71.010452 0 276 14 0
2022-08-08 22:24:52 GMT 42.358231 -71.010338 0 281 13 0
2022-08-08 22:24:51 GMT 42.358231 -71.010292 0 281 17 0
2022-08-08 22:24:49 GMT 42.358189 -71.010078 0 277 16 0
2022-08-08 22:24:48 GMT 42.358181 -71.009972 0 277 15 0
2022-08-08 22:24:46 GMT 42.358150 -71.009773 0 274 13 0
2022-08-08 22:24:45 GMT 42.358120 -71.009666 0 268 12 0
2022-08-08 22:24:44 GMT 42.358150 -71.009529 0 278 13 0
2022-08-08 22:24:42 GMT 42.358139 -71.009438 0 279 11 0
2022-08-08 22:24:41 GMT 42.358131 -71.009354 0 276 9 0
2022-08-08 22:24:39 GMT 42.358109 -71.009262 0 274 10 0
2022-08-08 22:24:38 GMT 42.358101 -71.009140 0 269 10 0
2022-08-08 22:24:36 GMT 42.358101 -71.009071 0 274 9 0
2022-08-08 22:24:35 GMT 42.358109 -71.008957 0 277 9 0
2022-08-08 22:24:33 GMT 42.358089 -71.008911 0 275 9 0
2022-08-08 22:24:32 GMT 42.358109 -71.008820 0 276 6 0
2022-08-08 22:24:30 GMT 42.358059 -71.008774 0 259 8 0
2022-08-08 22:24:29 GMT 42.358082 -71.008720 0 259 8 0
2022-08-08 22:24:27 GMT 42.358082 -71.008598 0 243 6 0
2022-08-08 22:24:26 GMT 42.358082 -71.008560 0 242 6 0
2022-08-08 22:24:25 GMT 42.358131 -71.008492 0 249 5 0
2022-08-08 22:24:23 GMT 42.358139 -71.008453 0 240 4 0
2022-08-08 22:24:22 GMT 42.358150 -71.008408 0 222 4 0
2022-08-08 22:24:21 GMT 42.358181 -71.008369 0 206 4 0
2022-08-08 22:24:19 GMT 42.358212 -71.008331 0 201 6 0
2022-08-08 22:24:18 GMT 42.358238 -71.008308 0 199 9 0
2022-08-08 22:24:17 GMT 42.358341 -71.008247 0 193 13 0
2022-08-08 22:24:15 GMT 42.358391 -71.008232 0 195 17 0
2022-08-08 22:24:14 GMT 42.358540 -71.008171 0 197 25 0
2022-08-08 22:24:12 GMT 42.358620 -71.008118 0 195 31 0
2022-08-08 22:24:11 GMT 42.358871 -71.008049 0 200 40 0
2022-08-08 22:24:09 GMT 42.359039 -71.007957 0 200 42 0
2022-08-08 22:24:08 GMT 42.359230 -71.007858 0 200 44 0
2022-08-08 22:24:06 GMT 42.359619 -71.007660 0 199 51 0
2022-08-08 22:24:04 GMT 42.360069 -71.007462 0 200 57 0
2022-08-08 22:24:03 GMT 42.360310 -71.007393 0 203 62 0
2022-08-08 22:24:02 GMT 42.360840 -71.007080 0 201 69 0
2022-08-08 22:24:00 GMT 42.361141 -71.006897 0 200 72 32
2022-08-08 22:23:58 GMT 42.361759 -71.006577 75 198 79 32
2022-08-08 22:23:57 GMT 42.362110 -71.006409 75 198 81 32
2022-08-08 22:23:56 GMT 42.362461 -71.006264 75 199 86 32
2022-08-08 22:23:55 GMT 42.363201 -71.005898 75 199 94 32
2022-08-08 22:23:53 GMT 42.363602 -71.005722 75 199 98 32
2022-08-08 22:23:51 GMT 42.364460 -71.005287 75 198 103 32
2022-08-08 22:23:50 GMT 42.364891 -71.005074 75 198 106 32
2022-08-08 22:23:49 GMT 42.365360 -71.004860 75 198 110 0
2022-08-08 22:23:48 GMT 42.365829 -71.004669 75 199 115 32
2022-08-08 22:23:47 GMT 42.366798 -71.004181 75 199 125 0
2022-08-08 22:23:45 GMT 42.367859 -71.003639 75 199 133 0
2022-08-08 22:23:43 GMT 42.368450 -71.003410 100 200 135 0
2022-08-08 22:23:42 GMT 42.368999 -71.003113 100 199 138 0
2022-08-08 22:23:41 GMT 42.369598 -71.002838 100 200 139 0
2022-08-08 22:23:39 GMT 42.370789 -71.002228 100 200 142 0
2022-08-08 22:23:38 GMT 42.371422 -71.001923 100 200 140 0
2022-08-08 22:23:36 GMT 42.372631 -71.001320 225 200 143 0
2022-08-08 22:23:35 GMT 42.373260 -71.001007 225 200 141 0
2022-08-08 22:23:34 GMT 42.374500 -71.000397 225 200 142 0
2022-08-08 22:23:32 GMT 42.375118 -71.000122 225 201 142 0
2022-08-08 22:23:31 GMT 42.375721 -70.999802 225 201 145 0
2022-08-08 22:23:30 GMT 42.376991 -70.999184 250 199 143 0
2022-08-08 22:23:28 GMT 42.377621 -70.998878 250 199 144 0
2022-08-08 22:23:27 GMT 42.378262 -70.998581 275 200 143 0
2022-08-08 22:23:25 GMT 42.379520 -70.998001 300 200 147 0
2022-08-08 22:23:24 GMT 42.380169 -70.997643 300 199 142 0
2022-08-08 22:23:23 GMT 42.381439 -70.997063 325 201 141 0
2022-08-08 22:23:21 GMT 42.381981 -70.996727 350 198 149 0
2022-08-08 22:23:20 GMT 42.383289 -70.996140 375 200 147 0
2022-08-08 22:23:18 GMT 42.383900 -70.995743 400 197 148 0
2022-08-08 22:23:16 GMT 42.385208 -70.995148 425 198 148 0
2022-08-08 22:23:15 GMT 42.385872 -70.994827 425 198 147 0
2022-08-08 22:23:14 GMT 42.386532 -70.994568 450 200 146 0
2022-08-08 22:23:12 GMT 42.387791 -70.993927 475 198 145 0
2022-08-08 22:23:11 GMT 42.388439 -70.993660 475 199 144 0
2022-08-08 22:23:10 GMT 42.389690 -70.993073 525 199 143 0
2022-08-08 22:23:08 GMT 42.390289 -70.992790 525 200 146 0
2022-08-08 22:23:06 GMT 42.391579 -70.992119 550 200 141 128
2022-08-08 22:23:05 GMT 42.392181 -70.991814 600 199 142 -1120
2022-08-08 22:23:04 GMT 42.393452 -70.991180 550 199 137 -1120
2022-08-08 22:23:02 GMT 42.394032 -70.990898 600 199 140 -1120
2022-08-08 22:23:01 GMT 42.395271 -70.990257 625 198 135 -576
2022-08-08 22:22:59 GMT 42.395851 -70.989998 625 198 137 -576
2022-08-08 22:22:58 GMT 42.396450 -70.989761 625 199 140 -576
2022-08-08 22:22:56 GMT 42.397690 -70.989143 700 198 139 -576
2022-08-08 22:22:55 GMT 42.398891 -70.988609 800 199 142 -576
2022-08-08 22:22:53 GMT 42.399540 -70.988289 800 199 139 -576
2022-08-08 22:22:52 GMT 42.400162 -70.987999 800 199 138 -576
2022-08-08 22:22:50 GMT 42.401360 -70.987473 800 201 139 -576
2022-08-08 22:22:49 GMT 42.401932 -70.987137 800 200 141 -576
2022-08-08 22:22:47 GMT 42.403210 -70.986519 800 200 135 -576
2022-08-08 22:22:46 GMT 42.403759 -70.986198 800 199 137 -576
2022-08-08 22:22:45 GMT 42.404949 -70.985603 800 197 137 -576
2022-08-08 22:22:43 GMT 42.405579 -70.985390 800 200 136 -576
2022-08-08 22:22:42 GMT 42.406200 -70.985069 800 199 133 -576
2022-08-08 22:22:40 GMT 42.407349 -70.984482 900 198 135 -576
2022-08-08 22:22:39 GMT 42.407990 -70.984253 900 200 132 -576
2022-08-08 22:22:38 GMT 42.408569 -70.983963 900 200 132 -576
2022-08-08 22:22:36 GMT 42.409698 -70.983414 900 200 134 -576
2022-08-08 22:22:35 GMT 42.410301 -70.983101 900 199 132 -576
2022-08-08 22:22:34 GMT 42.411442 -70.982521 900 199 131 -576
2022-08-08 22:22:32 GMT 42.411999 -70.982262 1,100 199 132 -576
2022-08-08 22:22:31 GMT 42.412560 -70.982002 1,100 199 134 -576
2022-08-08 22:22:29 GMT 42.413731 -70.981453 1,100 200 133 -576
2022-08-08 22:22:28 GMT 42.414291 -70.981148 1,100 199 134 -576
2022-08-08 22:22:27 GMT 42.414902 -70.980850 1,100 199 133 -576
2022-08-08 22:22:25 GMT 42.416069 -70.980324 1,100 200 132 -576
2022-08-08 22:22:24 GMT 42.416649 -70.980019 1,100 200 131 -576
2022-08-08 22:22:22 GMT 42.417770 -70.979431 1,100 199 133 -576
2022-08-08 22:22:20 GMT 42.418949 -70.978897 1,100 200 131 -576
2022-08-08 22:22:19 GMT 42.419540 -70.978607 1,100 200 130 -576
2022-08-08 22:22:17 GMT 42.420631 -70.978043 1,200 199 133 -576
2022-08-08 22:22:16 GMT 42.421211 -70.977737 1,200 199 132 -576
2022-08-08 22:22:15 GMT 42.422359 -70.977203 1,200 200 131 -576
2022-08-08 22:22:13 GMT 42.422932 -70.976929 1,200 200 131 -576
2022-08-08 22:22:11 GMT 42.424080 -70.976318 1,200 199 130 -576
2022-08-08 22:22:10 GMT 42.424648 -70.976067 1,200 199 130 -576
2022-08-08 22:22:09 GMT 42.425190 -70.975800 1,200 199 132 -576
2022-08-08 22:22:08 GMT 42.425770 -70.975533 1,200 199 131 -576
2022-08-08 22:22:06 GMT 42.426910 -70.974953 1,200 199 131 -576
2022-08-08 22:22:05 GMT 42.427490 -70.974670 1,200 199 130 -576
2022-08-08 22:22:04 GMT 42.428612 -70.974129 1,300 199 131 -576
2022-08-08 22:22:02 GMT 42.429161 -70.973831 1,300 198 132 -576
2022-08-08 22:22:01 GMT 42.429760 -70.973557 1,300 199 131 -576
2022-08-08 22:21:59 GMT 42.430889 -70.973061 1,300 199 132 -864
2022-08-08 22:21:58 GMT 42.431469 -70.972801 1,300 200 132 -864
2022-08-08 22:21:57 GMT 42.432640 -70.972214 1,300 199 130 -864
2022-08-08 22:21:55 GMT 42.433170 -70.971962 1,400 200 133 -864
2022-08-08 22:21:54 GMT 42.433739 -70.971703 1,400 200 134 -864
2022-08-08 22:21:52 GMT 42.434921 -70.971100 1,400 200 132 -864
2022-08-08 22:21:51 GMT 42.435509 -70.970810 1,400 200 131 -864
2022-08-08 22:21:49 GMT 42.436611 -70.970238 1,500 199 136 -864
2022-08-08 22:21:48 GMT 42.437191 -70.969940 1,500 199 136 -864
2022-08-08 22:21:47 GMT 42.437778 -70.969658 1,500 199 136 -864
2022-08-08 22:21:45 GMT 42.438969 -70.969101 1,500 199 136 -864
2022-08-08 22:21:44 GMT 42.439548 -70.968819 1,500 199 137 -864
2022-08-08 22:21:42 GMT 42.440762 -70.968246 1,500 199 136 -864
2022-08-08 22:21:41 GMT 42.441921 -70.967690 1,600 199 137 -864
2022-08-08 22:21:39 GMT 42.442520 -70.967422 1,600 199 138 -864
2022-08-08 22:21:38 GMT 42.443729 -70.966843 1,600 199 136 -864
2022-08-08 22:21:36 GMT 42.444309 -70.966537 1,600 199 137 -864
2022-08-08 22:21:35 GMT 42.444889 -70.966240 1,600 199 137 -864
2022-08-08 22:21:33 GMT 42.446098 -70.965660 1,600 199 137 -864
2022-08-08 22:21:32 GMT 42.446678 -70.965378 1,700 199 138 -864
2022-08-08 22:21:31 GMT 42.447311 -70.965103 1,700 199 137 -864
2022-08-08 22:21:30 GMT 42.448490 -70.964493 1,700 199 138 -864
2022-08-08 22:21:28 GMT 42.449089 -70.964211 1,700 199 138 -864
2022-08-08 22:21:26 GMT 42.450298 -70.963661 1,800 199 138 -864
2022-08-08 22:21:25 GMT 42.450901 -70.963379 1,800 200 139 -864
2022-08-08 22:21:24 GMT 42.451519 -70.963058 1,800 199 137 -864
2022-08-08 22:21:22 GMT 42.452679 -70.962448 1,800 199 139 -864
2022-08-08 22:21:21 GMT 42.453270 -70.962173 1,800 199 140 -864
2022-08-08 22:21:19 GMT 42.454510 -70.961594 1,800 199 139 -864
2022-08-08 22:21:18 GMT 42.455078 -70.961327 1,900 199 141 -864
2022-08-08 22:21:17 GMT 42.455688 -70.961052 1,900 199 142 -864
2022-08-08 22:21:15 GMT 42.456959 -70.960457 1,900 199 140 -864
2022-08-08 22:21:14 GMT 42.457569 -70.960152 1,900 199 140 -864
2022-08-08 22:21:12 GMT 42.458801 -70.959602 2,000 200 142 -864
2022-08-08 22:21:11 GMT 42.459412 -70.959267 2,000 199 142 -864
2022-08-08 22:21:10 GMT 42.460629 -70.958672 2,000 199 142 -864
2022-08-08 22:21:08 GMT 42.461250 -70.958366 2,000 199 142 -864
2022-08-08 22:21:06 GMT 42.462502 -70.957733 2,000 199 140 -864
2022-08-08 22:21:05 GMT 42.463100 -70.957451 2,000 199 141 -864
2022-08-08 22:21:03 GMT 42.464359 -70.956871 2,100 199 140 -864
2022-08-08 22:21:02 GMT 42.464970 -70.956551 2,100 199 140 -864
2022-08-08 22:21:01 GMT 42.465618 -70.956238 2,100 199 137 -864
2022-08-08 22:20:59 GMT 42.466801 -70.955688 2,100 199 137 -480
2022-08-08 22:20:58 GMT 42.467400 -70.955399 2,100 199 137 -480
2022-08-08 22:20:57 GMT 42.467991 -70.955132 2,100 200 138 -480
2022-08-08 22:20:56 GMT 42.469101 -70.954597 2,100 200 148 -480
2022-08-08 22:20:54 GMT 42.469681 -70.954353 2,100 200 153 -480
2022-08-08 22:20:50 GMT 42.473564 -70.952454 2,125 200 134 -704
2022-08-08 22:20:47 GMT 42.473564 -70.952454 2,150 200 135 -640
2022-08-08 22:20:45 GMT 42.475067 -70.951767 2,150 200 135 -640
2022-08-08 22:20:42 GMT 42.477081 -70.950768 2,200 201 135 -768
2022-08-08 22:20:39 GMT 42.478271 -70.950142 2,275 200 133 -832
2022-08-08 22:20:36 GMT 42.480331 -70.949142 2,275 200 132 -832
2022-08-08 22:20:33 GMT 42.482025 -70.948334 2,350 200 132 -704
2022-08-08 22:20:30 GMT 42.485527 -70.946640 2,375 200 132 -640
2022-08-08 22:20:27 GMT 42.486328 -70.946213 2,400 200 133 -576
2022-08-08 22:20:22 GMT 42.488415 -70.945236 2,425 200 133 -640
2022-08-08 22:20:19 GMT 42.489998 -70.944466 2,475 201 135 -704
2022-08-08 22:20:16 GMT 42.492325 -70.943321 2,500 201 135 -576
2022-08-08 22:20:13 GMT 42.493790 -70.942589 2,550 201 137 -640
2022-08-08 22:20:10 GMT 42.495209 -70.941841 2,575 201 137 -896
2022-08-08 22:20:07 GMT 42.497398 -70.940765 2,600 201 138 -832
2022-08-08 22:20:02 GMT 42.500610 -70.939171 2,725 201 139 -1216
2022-08-08 22:19:59 GMT 42.502716 -70.938156 2,750 201 139 -1152
2022-08-08 22:19:55 GMT 42.504101 -70.937447 2,800 201 143 -1152
2022-08-08 22:19:53 GMT 42.505920 -70.936539 2,850 201 145 -1280
2022-08-08 22:19:48 GMT 42.508850 -70.935036 2,950 200 149 -832
2022-08-08 22:19:45 GMT 42.510525 -70.934250 2,975 200 150 -576
2022-08-08 22:19:43 GMT 42.512527 -70.933228 3,000 201 155 -512
2022-08-08 22:19:39 GMT 42.514717 -70.932144 3,025 201 161 -192
2022-08-08 22:19:36 GMT 42.517227 -70.930916 3,050 200 167 -384
2022-08-08 22:19:34 GMT 42.519241 -70.929916 3,075 200 169 -640
2022-08-08 22:19:30 GMT 42.522308 -70.928482 3,125 200 171 -896
2022-08-08 22:19:26 GMT 42.525051 -70.927162 3,175 200 172 -704
2022-08-08 22:19:22 GMT 42.527843 -70.925819 3,225 200 173 -1152
2022-08-08 22:19:19 GMT 42.530029 -70.924728 3,275 200 172 -1024
2022-08-08 22:19:15 GMT 42.532593 -70.923515 3,325 200 172 -960
2022-08-08 22:19:12 GMT 42.535309 -70.922241 3,375 199 172 -1024
2022-08-08 22:19:08 GMT 42.538689 -70.920708 3,450 199 172 -1024
2022-08-08 22:19:05 GMT 42.540253 -70.919991 3,500 199 171 -896
2022-08-08 22:19:03 GMT 42.541763 -70.919304 3,550 198 172 -704
2022-08-08 22:19:00 GMT 42.544369 -70.918221 3,550 198 172 -576
2022-08-08 22:18:57 GMT 42.546661 -70.917183 3,600 199 171 -640
2022-08-08 22:18:54 GMT 42.548931 -70.916176 3,625 199 172 -256
2022-08-08 22:18:52 GMT 42.550369 -70.915497 3,625 200 173 -192
2022-08-08 22:18:49 GMT 42.552658 -70.914436 3,650 200 173 -384
2022-08-08 22:18:44 GMT 42.556194 -70.912788 3,675 200 173 -384
2022-08-08 22:18:41 GMT 42.558334 -70.911751 3,700 199 173 -512
2022-08-08 22:18:38 GMT 42.561455 -70.910172 3,725 203 171 -704
2022-08-08 22:18:34 GMT 42.563690 -70.908958 3,775 203 171 -768
2022-08-08 22:18:32 GMT 42.565922 -70.907616 3,800 203 172 -960
2022-08-08 22:18:28 GMT 42.568176 -70.906326 3,875 204 172 -1088
2022-08-08 22:18:24 GMT 42.571976 -70.903908 3,975 207 172 -1216
2022-08-08 22:18:21 GMT 42.573120 -70.903076 4,000 210 172 -1216
2022-08-08 22:18:17 GMT 42.575546 -70.901207 4,100 212 172 -1216
2022-08-08 22:18:14 GMT 42.580124 -70.897461 4,175 212 172 -1280
2022-08-08 22:18:11 GMT 42.580124 -70.897461 4,200 212 172 -1280
2022-08-08 22:18:07 GMT 42.583382 -70.894585 4,300 215 173 -1216
2022-08-08 22:18:03 GMT 42.585297 -70.892776 4,350 221 173 -1152
2022-08-08 22:18:01 GMT 42.586578 -70.891281 4,400 226 173 -1088
2022-08-08 22:17:57 GMT 42.590130 -70.885384 4,475 236 176 -832
2022-08-08 22:17:54 GMT 42.590130 -70.885384 4,525 238 178 -768
2022-08-08 22:17:51 GMT 42.591854 -70.881683 4,550 239 179 -704
2022-08-08 22:17:46 GMT 42.593628 -70.876984 4,600 254 184 -832
2022-08-08 22:17:42 GMT 42.594555 -70.873375 4,650 256 185 -896
2022-08-08 22:17:40 GMT 42.594971 -70.870758 4,675 263 187 -960
2022-08-08 22:17:35 GMT 42.595249 -70.865326 4,775 274 192 -832
2022-08-08 22:17:32 GMT 42.595093 -70.860321 4,800 276 193 -704
2022-08-08 22:17:29 GMT 42.594971 -70.858429 4,825 277 196 -576
2022-08-08 22:17:25 GMT 42.594505 -70.852554 4,875 277 200 -768
2022-08-08 22:17:22 GMT 42.593994 -70.846214 4,925 277 203 -768
2022-08-08 22:17:19 GMT 42.593994 -70.846214 4,925 277 203 -768
2022-08-08 22:17:15 GMT 42.593445 -70.839340 5,000 277 207 -768
2022-08-08 22:17:11 GMT 42.593124 -70.835411 5,050 277 209 -640
2022-08-08 22:17:09 GMT 42.592941 -70.832977 5,050 277 211 -576
2022-08-08 22:17:05 GMT 42.592529 -70.827667 5,075 277 214 -192
2022-08-08 22:17:01 GMT 42.592037 -70.822281 5,075 277 218 0
2022-08-08 22:16:59 GMT 42.591751 -70.818932 5,075 277 219 64
2022-08-08 22:16:56 GMT 42.591385 -70.814812 5,075 278 229 0
2022-08-08 22:16:51 GMT 42.590881 -70.808632 5,075 277 223 128
2022-08-08 22:16:49 GMT 42.590515 -70.805016 5,075 278 228 128
2022-08-08 22:16:46 GMT 42.590103 -70.800140 5,050 278 229 0
2022-08-08 22:16:42 GMT 42.589600 -70.794586 5,075 277 233 0
2022-08-08 22:16:39 GMT 42.589188 -70.790031 5,075 277 233 64
2022-08-08 22:16:35 GMT 42.588776 -70.785408 5,050 277 233 128
2022-08-08 22:16:31 GMT 42.588268 -70.778969 5,075 277 234 -384
2022-08-08 22:16:28 GMT 42.587952 -70.775238 5,075 277 234 -512
2022-08-08 22:16:23 GMT 42.587219 -70.766495 5,150 277 233 -640
2022-08-08 22:16:19 GMT 42.586685 -70.760063 5,200 277 232 -768
2022-08-08 22:16:14 GMT 42.586220 -70.754379 5,475 275 261 -768
2022-08-08 22:16:10 GMT 42.585846 -70.749832 5,300 277 232 -768
2022-08-08 22:16:07 GMT 42.585480 -70.745522 5,300 277 233 -768
2022-08-08 22:16:03 GMT 42.584869 -70.738029 5,375 277 232 -640
2022-08-08 22:16:00 GMT 42.584564 -70.734352 5,400 277 236 -704
2022-08-08 22:15:57 GMT 42.584290 -70.730980 5,400 277 236 -704
2022-08-08 22:15:53 GMT 42.583786 -70.725113 5,450 277 237 -640
2022-08-08 22:15:50 GMT 42.583328 -70.718872 5,500 276 241 -640
2022-08-08 22:15:47 GMT 42.583099 -70.715874 5,525 276 241 -640
2022-08-08 22:15:43 GMT 42.582504 -70.708572 5,575 277 243 -640
2022-08-08 22:15:39 GMT 42.582138 -70.703888 5,600 277 245 -640
2022-08-08 22:15:36 GMT 42.581726 -70.698456 5,650 277 249 -640
2022-08-08 22:15:32 GMT 42.581039 -70.690468 5,700 277 251 -576
2022-08-08 22:15:29 GMT 42.580818 -70.687439 5,725 277 251 -640
2022-08-08 22:15:27 GMT 42.580536 -70.684227 5,900 276 261 -832
2022-08-08 22:15:23 GMT 42.580124 -70.678543 5,800 275 261 -768
2022-08-08 22:15:19 GMT 42.579529 -70.671051 5,825 276 256 -768
2022-08-08 22:15:17 GMT 42.579254 -70.667557 5,900 276 261 -832
2022-08-08 22:15:08 GMT 42.578293 -70.654137 5,975 276 260 -768
2022-08-08 22:15:05 GMT 42.577934 -70.649055 6,025 276 261 -832
2022-08-08 22:15:01 GMT 42.577560 -70.642662 6,075 266 269 -1344
2022-08-08 22:14:58 GMT 42.577286 -70.637779 6,100 274 264 -896
2022-08-08 22:14:55 GMT 42.577103 -70.632668 6,150 273 265 -960
2022-08-08 22:14:52 GMT 42.577003 -70.627785 6,200 271 265 -960
2022-08-08 22:14:48 GMT 42.577103 -70.619370 6,300 267 266 -960
2022-08-08 22:14:45 GMT 42.577286 -70.615997 6,325 266 267 -960
2022-08-08 22:14:41 GMT 42.577702 -70.609261 6,400 265 269 -960
2022-08-08 22:14:37 GMT 42.578167 -70.602676 6,525 265 271 -1088
2022-08-08 22:14:34 GMT 42.578400 -70.598656 6,500 265 271 -1088
2022-08-08 22:14:31 GMT 42.578751 -70.593529 6,550 265 271 -1024
2022-08-08 22:14:25 GMT 42.579563 -70.580902 6,650 266 271 -960
2022-08-08 22:14:22 GMT 42.579849 -70.576363 6,700 266 271 -1024
2022-08-08 22:14:17 GMT 42.580353 -70.567680 6,800 266 270 -1024
2022-08-08 22:14:14 GMT 42.580585 -70.563400 6,825 266 270 -1088
2022-08-08 22:14:11 GMT 42.580914 -70.558350 6,900 266 269 -960
2022-08-08 22:14:08 GMT 42.581635 -70.546829 6,975 266 268 -1088
2022-08-08 22:14:04 GMT 42.581635 -70.546829 7,050 266 268 -1472
2022-08-08 22:13:57 GMT 42.582401 -70.533951 7,200 266 269 -1472
2022-08-08 22:13:54 GMT 42.582733 -70.528671 7,275 266 269 -1344
2022-08-08 22:13:51 GMT 42.583054 -70.523613 7,325 266 269 -1216
2022-08-08 22:13:46 GMT 42.583797 -70.511917 7,500 266 269 -1344
2022-08-08 22:13:43 GMT 42.583797 -70.511917 7,500 266 269 -1408
2022-08-08 22:13:40 GMT 42.584106 -70.506760 7,550 266 269 -1408
2022-08-08 22:13:35 GMT 42.584610 -70.498520 7,675 266 269 -1408
2022-08-08 22:13:32 GMT 42.584915 -70.493584 7,725 266 269 -1472
2022-08-08 22:13:29 GMT 42.585148 -70.489174 7,800 266 269 -1536
2022-08-08 22:13:23 GMT 42.586220 -70.471992 8,000 266 269 -1536
2022-08-08 22:13:20 GMT 42.586220 -70.471992 8,050 266 269 -1408
2022-08-08 22:13:14 GMT 42.586853 -70.461624 8,200 266 271 -1216
2022-08-08 22:13:11 GMT 42.587082 -70.457260 8,250 266 270 -1216
2022-08-08 22:13:09 GMT 42.587265 -70.454323 8,275 266 271 -1216
2022-08-08 22:13:05 GMT 42.587711 -70.447334 8,375 266 271 -1280
2022-08-08 22:13:01 GMT 42.588036 -70.441208 8,425 266 272 -1216
2022-08-08 22:12:58 GMT 42.588318 -70.436531 8,500 266 273 -1216
2022-08-08 22:12:54 GMT 42.588730 -70.429665 8,575 266 273 -1216
2022-08-08 22:12:51 GMT 42.589012 -70.423958 8,650 266 274 -1216
2022-08-08 22:12:44 GMT 42.589664 -70.412590 9,000 266 276 -1600
2022-08-08 22:12:40 GMT 42.590038 -70.405693 8,875 266 276 -1216
2022-08-08 22:12:33 GMT 42.590691 -70.393623 9,100 266 276 -1600
2022-08-08 22:12:30 GMT 42.591015 -70.387550 9,175 266 276 -1536
2022-08-08 22:12:27 GMT 42.591248 -70.383400 9,175 266 276 -1600
2022-08-08 22:12:24 GMT 42.591621 -70.376503 9,275 267 276 -1600
2022-08-08 22:12:21 GMT 42.591900 -70.371140 9,350 266 276 -1408
2022-08-08 22:12:18 GMT 42.592209 -70.365685 9,425 266 277 -1344
2022-08-08 22:12:12 GMT 42.592785 -70.354462 9,650 266 277 -1344
2022-08-08 22:12:09 GMT 42.592972 -70.351913 9,625 266 277 -1344
2022-08-08 22:12:05 GMT 42.593388 -70.343925 9,725 266 277 -1344
2022-08-08 22:12:02 GMT 42.593628 -70.338783 9,775 266 278 -1344
2022-08-08 22:11:59 GMT 42.593903 -70.333908 9,825 266 278 -1344
2022-08-08 22:11:54 GMT 42.594360 -70.324860 9,950 266 278 -1280
2022-08-08 22:11:50 GMT 42.594727 -70.317871 10,050 266 278 -1344
2022-08-08 22:11:47 GMT 42.595066 -70.311539 10,175 266 278 -1344
2022-08-08 22:11:43 GMT 42.595459 -70.304512 10,225 266 278 -1408
2022-08-08 22:11:39 GMT 42.595734 -70.298576 10,300 266 278 -1472
2022-08-08 22:11:36 GMT 42.595997 -70.293404 10,375 266 278 -1472
2022-08-08 22:11:32 GMT 42.596375 -70.286156 10,475 267 278 -1344
2022-08-08 22:11:28 GMT 42.596741 -70.279671 10,575 266 278 -1408
2022-08-08 22:11:26 GMT 42.596924 -70.276047 10,600 267 278 -1344
2022-08-08 22:11:22 GMT 42.597382 -70.267181 10,725 266 278 -1408
2022-08-08 22:11:18 GMT 42.597702 -70.262123 10,800 266 279 -1408
2022-08-08 22:11:13 GMT 42.598278 -70.253860 10,900 257 281 -768
2022-08-08 22:11:09 GMT 42.598984 -70.246834 11,050 260 281 -1024
2022-08-08 22:11:06 GMT 42.599907 -70.240517 11,025 256 282 -704
2022-08-08 22:11:01 GMT 42.601627 -70.232338 11,075 250 283 -320
2022-08-08 22:10:57 GMT 42.603352 -70.226395 11,075 246 285 -64
2022-08-08 22:10:54 GMT 42.604702 -70.222313 11,075 246 285 -64
2022-08-08 22:10:48 GMT 42.608334 -70.211838 11,075 245 289 64
2022-08-08 22:10:45 GMT 42.610332 -70.206085 11,075 245 291 0
2022-08-08 22:10:38 GMT 42.616665 -70.187752 11,075 246 306 -64
2022-08-08 22:10:35 GMT 42.616665 -70.187752 11,075 245 302 -64
2022-08-08 22:10:30 GMT 42.618759 -70.181664 11,075 246 305 -64
2022-08-08 22:10:26 GMT 42.620575 -70.176323 11,075 246 308 64
2022-08-08 22:10:24 GMT 42.622391 -70.171021 11,075 246 312 0
2022-08-08 22:10:20 GMT 42.624763 -70.164055 11,075 246 316 -64
2022-08-08 22:10:17 GMT 42.626534 -70.158821 11,075 246 319 -64
2022-08-08 22:10:14 GMT 42.628769 -70.152176 11,075 246 328 -128
2022-08-08 22:10:10 GMT 42.631702 -70.143486 11,075 246 328 -128
2022-08-08 22:10:07 GMT 42.633099 -70.139336 11,075 246 331 -128
2022-08-08 22:10:03 GMT 42.635834 -70.131287 11,075 245 334 0
2022-08-08 22:09:59 GMT 42.637848 -70.125481 11,075 246 339 -128
2022-08-08 22:09:56 GMT 42.641850 -70.112892 11,075 250 348 0
2022-08-08 22:09:53 GMT 42.641850 -70.112892 11,075 250 348 0
2022-08-08 22:09:50 GMT 42.644039 -70.104912 11,075 252 352 64
2022-08-08 22:09:46 GMT 42.645676 -70.098267 11,075 253 354 128
2022-08-08 22:09:42 GMT 42.647324 -70.090523 11,075 256 360 -64
2022-08-08 22:09:36 GMT 42.649624 -70.075722 11,075 261 367 64
2022-08-08 22:09:32 GMT 42.650322 -70.068115 11,075 263 369 128
2022-08-08 22:09:28 GMT 42.650928 -70.055214 11,075 269 379 0
2022-08-08 22:09:25 GMT 42.651031 -70.051079 11,075 270 380 64
2022-08-08 22:09:23 GMT 42.651066 -70.044037 11,075 270 383 64
2022-08-08 22:09:19 GMT 42.651169 -70.034782 11,075 270 383 64
2022-08-08 22:09:16 GMT 42.651207 -70.027687 11,075 270 383 -64
2022-08-08 22:09:14 GMT 42.651260 -70.023735 11,075 270 382 -64
2022-08-08 22:09:11 GMT 42.651299 -70.017853 11,075 270 382 -64
2022-08-08 22:09:08 GMT 42.651398 -70.003136 11,075 270 382 -640
2022-08-08 22:09:05 GMT 42.651398 -70.003136 11,100 270 382 -640
2022-08-08 22:09:02 GMT 42.651440 -69.994659 11,125 270 383 -1024
2022-08-08 22:08:59 GMT 42.651485 -69.987190 11,175 270 383 -1024
2022-08-08 22:08:55 GMT 42.651531 -69.978569 11,250 270 383 -960
2022-08-08 22:08:52 GMT 42.651581 -69.969437 11,300 270 383 -896
2022-08-08 22:08:49 GMT 42.651672 -69.962021 11,350 270 382 -1024
2022-08-08 22:08:44 GMT 42.651764 -69.952072 11,425 270 382 -1024
2022-08-08 22:08:42 GMT 42.651764 -69.948265 11,450 270 382 -1024
2022-08-08 22:08:39 GMT 42.651810 -69.939651 11,500 270 381 -1024
2022-08-08 22:08:35 GMT 42.651905 -69.929253 11,575 270 381 -960
2022-08-08 22:08:31 GMT 42.651951 -69.920380 11,625 270 381 -960
2022-08-08 22:08:28 GMT 42.651997 -69.913483 11,675 270 381 -960
2022-08-08 22:08:24 GMT 42.652046 -69.905365 11,725 270 380 -1024
2022-08-08 22:08:21 GMT 42.652138 -69.895592 11,800 270 380 -1088
2022-08-08 22:08:18 GMT 42.652176 -69.888527 11,850 270 380 -1088
2022-08-08 22:08:14 GMT 42.652222 -69.877792 11,950 270 381 -1152
2022-08-08 22:08:11 GMT 42.652267 -69.874229 11,975 270 382 -1152
2022-08-08 22:08:08 GMT 42.652313 -69.866058 12,025 270 383 -1024
2022-08-08 22:08:03 GMT 42.652416 -69.846413 12,875 270 386 -1280
2022-08-08 22:08:00 GMT 42.652416 -69.846413 12,175 270 387 -1472
2022-08-08 22:07:56 GMT 42.652496 -69.835342 12,325 270 390 -1920
2022-08-08 22:07:52 GMT 42.652512 -69.827888 12,425 270 391 -2048
2022-08-08 22:07:48 GMT 42.652634 -69.815247 12,600 270 394 -2048
2022-08-08 22:07:43 GMT 42.652725 -69.804634 12,750 270 395 -2048
2022-08-08 22:07:39 GMT 42.652790 -69.795822 12,875 270 398 -1984
2022-08-08 22:07:36 GMT 42.652790 -69.787071 13,275 270 401 -1920
2022-08-08 22:07:32 GMT 42.652836 -69.778259 13,100 270 402 -2112
2022-08-08 22:07:29 GMT 42.652882 -69.770210 13,225 270 403 -2432
2022-08-08 22:07:26 GMT 42.652927 -69.763695 13,475 270 404 -2624
2022-08-08 22:07:23 GMT 42.652954 -69.753944 13,800 270 407 -2688
2022-08-08 22:07:21 GMT 42.652977 -69.750473 13,675 270 405 -2688
2022-08-08 22:07:17 GMT 42.653000 -69.737152 13,800 270 407 -2688
2022-08-08 22:07:12 GMT 42.653000 -69.727478 15,450 270 409 -2880
2022-08-08 22:07:09 GMT 42.653000 -69.717491 14,150 270 408 -2816
2022-08-08 22:07:05 GMT 42.653023 -69.710487 14,275 270 409 -2944
2022-08-08 22:07:02 GMT 42.653046 -69.701637 14,450 270 409 -3136
2022-08-08 22:06:58 GMT 42.653091 -69.691086 14,675 270 409 -3264
2022-08-08 22:06:55 GMT 42.653114 -69.683022 15,275 270 409 -3264
2022-08-08 22:06:52 GMT 42.653160 -69.675613 15,000 270 409 -3200
2022-08-08 22:06:48 GMT 42.653210 -69.666161 15,250 270 410 -2752
2022-08-08 22:06:45 GMT 42.653320 -69.646950 15,825 270 418 -2560
2022-08-08 22:06:41 GMT 42.653320 -69.646950 15,500 270 412 -2304
2022-08-08 22:06:38 GMT 42.653366 -69.637901 15,625 270 413 -2304
2022-08-08 22:06:35 GMT 42.653397 -69.632370 15,725 270 414 -2368
2022-08-08 22:06:31 GMT 42.653458 -69.611122 15,900 270 417 -2560
2022-08-08 22:06:27 GMT 42.653458 -69.611122 16,050 270 417 -2560
2022-08-08 22:06:24 GMT 42.653488 -69.604713 16,200 270 418 -2688
2022-08-08 22:06:21 GMT 42.653503 -69.594086 16,350 270 419 -2688
2022-08-08 22:06:15 GMT 42.653641 -69.576981 16,650 270 421 -2752
2022-08-08 22:06:11 GMT 42.653675 -69.567665 16,825 270 421 -2816
2022-08-08 22:06:07 GMT 42.653687 -69.557190 17,000 270 422 -3008
2022-08-08 22:06:03 GMT 42.653721 -69.549400 19,800 270 422 -3200
2022-08-08 22:05:59 GMT 42.653721 -69.539116 17,375 270 421 -3328
2022-08-08 22:05:56 GMT 42.653732 -69.529472 17,575 270 421 -3520
2022-08-08 22:05:53 GMT 42.653721 -69.522507 17,750 270 420 -3712
2022-08-08 22:05:50 GMT 42.653778 -69.511810 18,000 270 420 -3840
2022-08-08 22:05:44 GMT 42.653812 -69.496193 18,375 270 418 -3712
2022-08-08 22:05:39 GMT 42.653858 -69.484184 18,575 270 417 -3456
2022-08-08 22:05:35 GMT 42.653870 -69.474106 18,850 270 417 -3392
2022-08-08 22:05:32 GMT 42.653908 -69.467957 19,000 270 417 -3392
2022-08-08 22:05:28 GMT 42.653954 -69.455696 19,250 270 416 -3456
2022-08-08 22:05:26 GMT 42.653954 -69.447838 19,425 270 415 -3584
2022-08-08 22:05:22 GMT 42.653999 -69.441132 19,575 270 415 -3584
2022-08-08 22:05:19 GMT 42.654007 -69.430351 19,825 270 414 -3584
2022-08-08 22:05:13 GMT 42.654045 -69.414108 20,175 270 413 -3072
2022-08-08 22:05:08 GMT 42.654095 -69.403252 20,425 270 416 -2048
2022-08-08 22:05:05 GMT 42.654099 -69.395576 20,425 270 417 -1728
2022-08-08 22:05:02 GMT 42.654099 -69.387962 20,525 270 418 -1536
2022-08-08 22:04:55 GMT 42.654140 -69.368057 20,675 270 424 -1088
2022-08-08 22:04:51 GMT 42.654140 -69.360649 20,750 270 427 -1088
2022-08-08 22:04:45 GMT 42.654140 -69.343407 20,850 270 432 -1024
2022-08-08 22:04:42 GMT 42.654140 -69.331970 20,900 270 436 -960
2022-08-08 22:04:33 GMT 42.654140 -69.311592 21,075 270 468 -2816
2022-08-08 22:04:30 GMT 42.654190 -69.303070 21,150 270 446 -1728
2022-08-08 22:04:24 GMT 42.654232 -69.284126 21,350 270 450 -1984
2022-08-08 22:04:20 GMT 42.654236 -69.275543 21,475 270 452 -2048
2022-08-08 22:04:15 GMT 42.654282 -69.260185 21,650 270 455 -1984
2022-08-08 22:04:11 GMT 42.654327 -69.245888 21,825 270 458 -2112
2022-08-08 22:04:05 GMT 42.654327 -69.231369 22,025 270 459 -2624
2022-08-08 22:04:02 GMT 42.654327 -69.222603 22,175 271 460 -3008
2022-08-08 22:03:59 GMT 42.654327 -69.215431 22,325 271 460 -3456
2022-08-08 22:03:53 GMT 42.654282 -69.195824 22,750 271 459 -3584
2022-08-08 22:03:50 GMT 42.654232 -69.187042 22,900 271 459 -3392
2022-08-08 22:03:45 GMT 42.654236 -69.173355 23,150 271 460 -2944
2022-08-08 22:03:42 GMT 42.654232 -69.165451 23,300 270 461 -2816
2022-08-08 22:03:39 GMT 42.654190 -69.154877 23,450 270 462 -2688
2022-08-08 22:03:34 GMT 42.654190 -69.143021 23,625 271 465 -2560
2022-08-08 22:03:29 GMT 42.654186 -69.126808 23,875 270 467 -2688
2022-08-08 22:03:23 GMT 42.654186 -69.111282 24,125 270 468 -2816
2022-08-08 22:03:21 GMT 42.654232 -69.103683 24,250 270 469 -2880
2022-08-08 22:03:18 GMT 42.654232 -69.096336 24,375 270 470 -3072
2022-08-08 22:03:12 GMT 42.654278 -69.066254 24,825 270 471 -3456
2022-08-08 22:03:09 GMT 42.654278 -69.066254 24,925 271 471 -3584
2022-08-08 22:03:01 GMT 42.654190 -69.044014 25,400 271 470 -3904
2022-08-08 22:02:58 GMT 42.654144 -69.035149 25,600 271 470 -3968
2022-08-08 22:02:50 GMT 42.654144 -69.012184 26,075 270 470 -3328
2022-08-08 22:02:47 GMT 42.654144 -69.004562 26,200 270 471 -2880
2022-08-08 22:02:42 GMT 42.654140 -68.990181 26,425 270 473 -2560
2022-08-08 22:02:38 GMT 42.654099 -68.972855 26,675 271 475 -2496
2022-08-08 22:02:29 GMT 42.654007 -68.948074 27,125 271 479 -2816
2022-08-08 22:02:26 GMT 42.654007 -68.941460 27,125 271 479 -2816
2022-08-08 22:02:17 GMT 42.653954 -68.913017 27,600 271 481 -3072
2022-08-08 22:02:07 GMT 42.653858 -68.881340 28,125 271 484 -2816
2022-08-08 22:02:00 GMT 42.653824 -68.858681 28,450 271 486 -2688
2022-08-08 22:01:56 GMT 42.653812 -68.849403 28,600 271 487 -2496
2022-08-08 22:01:48 GMT 42.653778 -68.826599 28,900 271 491 -2432
2022-08-08 22:01:45 GMT 42.653767 -68.817787 29,025 271 492 -2624
2022-08-08 22:01:41 GMT 42.653721 -68.803604 29,250 271 493 -3136
2022-08-08 22:01:38 GMT 42.653687 -68.794205 29,425 271 493 -3392
2022-08-08 22:01:36 GMT 42.653641 -68.784904 29,600 271 493 -3648
2022-08-08 22:01:29 GMT 42.653549 -68.764549 30,025 271 492 -3904
2022-08-08 22:01:25 GMT 42.653488 -68.755127 30,225 271 492 -3904
2022-08-08 22:01:17 GMT 42.653397 -68.729576 30,750 271 491 -3904
2022-08-08 22:01:14 GMT 42.653397 -68.720055 30,950 271 491 -3904
2022-08-08 22:01:05 GMT 42.653229 -68.691643 31,525 271 490 -3328
2022-08-08 22:00:54 GMT 42.653023 -68.659508 32,050 271 493 -2688
2022-08-08 22:00:46 GMT 42.652927 -68.635040 32,425 271 496 -3008
2022-08-08 22:00:43 GMT 42.652908 -68.625908 32,575 271 496 -3392
2022-08-08 22:00:37 GMT 42.652790 -68.606812 33,100 271 495 -3904
2022-08-08 22:00:34 GMT 42.652771 -68.595139 33,225 271 495 -3904
2022-08-08 22:00:26 GMT 42.652634 -68.573479 33,600 271 494 -3840
2022-08-08 22:00:23 GMT 42.652603 -68.563759 33,875 271 493 -3968
2022-08-08 22:00:16 GMT 42.652466 -68.542488 34,350 271 492 -4096
2022-08-08 22:00:12 GMT 42.652416 -68.530159 34,625 271 490 -4096
2022-08-08 22:00:06 GMT 42.652313 -68.512177 35,550 271 490 -3648
2022-08-08 22:00:03 GMT 42.652229 -68.500076 35,225 271 489 -3392
2022-08-08 21:59:54 GMT 42.652084 -68.474098 35,625 271 491 -2368
2022-08-08 21:59:51 GMT 42.652039 -68.466484 35,700 271 491 -1984
2022-08-08 21:59:45 GMT 42.651859 -68.447510 35,850 271 492 -1280
2022-08-08 21:59:41 GMT 42.651764 -68.435501 35,925 271 493 -768
2022-08-08 21:59:33 GMT 42.651627 -68.411102 36,000 271 493 -192
2022-08-08 21:59:29 GMT 42.651531 -68.398453 36,000 271 493 -64
2022-08-08 21:59:26 GMT 42.651398 -68.383774 36,000 271 493 -64
2022-08-08 21:59:23 GMT 42.651394 -68.378395 36,000 271 493 0
2022-08-08 21:59:20 GMT 42.651299 -68.368813 36,000 271 493 0
2022-08-08 21:59:15 GMT 42.651161 -68.353104 36,000 271 493 0
2022-08-08 21:59:12 GMT 42.651123 -68.346756 36,000 271 492 0
2022-08-08 21:59:04 GMT 42.650986 -68.319351 36,000 271 492 0
2022-08-08 21:59:01 GMT 42.650883 -68.308067 36,000 271 492 0
2022-08-08 21:58:53 GMT 42.650711 -68.287895 36,000 271 492 0
2022-08-08 21:58:49 GMT 42.650620 -68.274345 36,000 271 492 0
2022-08-08 21:58:43 GMT 42.650463 -68.256905 36,000 271 493 0
2022-08-08 21:58:39 GMT 42.650368 -68.244896 36,000 271 493 0
2022-08-08 21:58:30 GMT 42.650070 -68.211113 36,000 271 493 64
2022-08-08 21:58:23 GMT 42.649948 -68.193672 36,000 271 493 0
2022-08-08 21:58:18 GMT 42.649811 -68.177956 36,000 271 493 0
2022-08-08 21:58:11 GMT 42.649624 -68.158539 36,000 271 492 0
2022-08-08 21:58:08 GMT 42.649567 -68.148506 36,000 271 492 0
2022-08-08 21:58:02 GMT 42.649345 -68.126160 36,000 271 492 0
2022-08-08 21:57:59 GMT 42.649254 -68.116577 36,000 271 492 0
2022-08-08 21:57:52 GMT 42.649113 -68.098434 36,000 271 492 0
2022-08-08 21:57:48 GMT 42.648972 -68.085785 36,000 271 492 0
2022-08-08 21:57:40 GMT 42.648739 -68.061195 36,000 271 492 0
2022-08-08 21:57:37 GMT 42.648651 -68.051750 36,000 271 492 0
2022-08-08 21:57:28 GMT 42.648319 -68.021790 36,000 271 491 0
2022-08-08 21:57:22 GMT 42.648148 -68.002876 36,000 271 491 0
2022-08-08 21:57:19 GMT 42.648087 -67.996239 36,000 271 491 0
2022-08-08 21:57:16 GMT 42.647964 -67.988083 36,000 271 491 0
2022-08-08 21:57:10 GMT 42.647781 -67.970230 36,000 271 491 0
2022-08-08 21:57:06 GMT 42.647621 -67.955933 36,000 271 491 0
2022-08-08 21:56:56 GMT 42.646912 -67.893944 36,000 271 491 0
2022-08-08 21:56:46 GMT 42.646912 -67.893944 36,000 271 491 0
2022-08-08 21:56:37 GMT 42.646645 -67.868294 36,000 271 491 0
2022-08-08 21:56:29 GMT 42.646366 -67.844025 36,000 271 491 0
2022-08-08 21:56:26 GMT 42.646179 -67.830025 36,000 271 491 0
2022-08-08 21:56:15 GMT 42.645805 -67.798546 36,000 271 491 64
2022-08-08 21:56:08 GMT 42.645527 -67.776443 36,000 271 491 0
2022-08-08 21:56:04 GMT 42.645435 -67.766930 36,000 271 491 0
2022-08-08 21:55:55 GMT 42.644669 -67.706490 36,000 272 491 0
2022-08-08 21:55:43 GMT 42.644577 -67.700691 36,000 272 491 0
2022-08-08 21:55:35 GMT 42.644257 -67.676094 36,000 272 491 -64
2022-08-08 21:55:29 GMT 42.644073 -67.660423 36,000 272 491 0
2022-08-08 21:55:24 GMT 42.643806 -67.639053 36,000 272 491 0
2022-08-08 21:55:17 GMT 42.643574 -67.623978 36,000 272 491 0
2022-08-08 21:55:15 GMT 42.643478 -67.614464 36,000 272 491 0
2022-08-08 21:55:08 GMT 42.643200 -67.596390 36,000 272 491 0
2022-08-08 21:55:04 GMT 42.643021 -67.581772 36,000 272 491 0
2022-08-08 21:55:01 GMT 42.642876 -67.572433 36,000 272 491 0
2022-08-08 21:54:58 GMT 42.642746 -67.563049 36,000 272 491 0
2022-08-08 21:54:45 GMT 42.642178 -67.523567 36,000 272 491 0
2022-08-08 21:54:35 GMT 42.641739 -67.492012 36,000 272 491 0
2022-08-08 21:54:32 GMT 42.641602 -67.483147 36,000 272 491 0
2022-08-08 21:54:23 GMT 42.641190 -67.455116 36,000 272 491 0
2022-08-08 21:54:11 GMT 42.640640 -67.418686 36,000 272 491 0
2022-08-08 21:53:17 GMT 42.637848 -67.253372 36,000 272 492 0
2022-08-08 21:53:10 GMT 42.637482 -67.232460 36,000 272 491 0
2022-08-08 21:52:58 GMT 42.636383 -67.171593 36,000 272 491 0
2022-08-08 21:52:50 GMT 42.636383 -67.171593 36,000 272 491 0
2022-08-08 21:52:35 GMT 42.635612 -67.125381 36,000 272 491 0
2022-08-08 21:52:28 GMT 42.635239 -67.103371 36,000 272 491 0
2022-08-08 21:52:18 GMT 42.634727 -67.072495 36,000 271 492 0
2022-08-08 21:51:58 GMT 42.635147 -67.009323 36,000 268 493 0
2022-08-08 21:51:37 GMT 42.638172 -66.945251 36,000 265 494 0
2022-08-08 21:48:00 GMT 42.692963 -66.277451 36,000 264 491 0
2022-08-08 21:47:54 GMT 42.694107 -66.262917 36,000 264 490 0
2022-08-08 21:47:45 GMT 42.696533 -66.232574 36,000 264 491 0
2022-08-08 21:47:34 GMT 42.699203 -66.198761 36,000 265 491 0
2022-08-08 21:47:22 GMT 42.701889 -66.163727 36,000 264 491 0
2022-08-08 21:47:13 GMT 42.703995 -66.136757 36,000 264 491 0
2022-08-08 21:47:04 GMT 42.706371 -66.106270 36,000 264 491 0
2022-08-08 21:46:54 GMT 42.708939 -66.073647 36,000 265 491 0
2022-08-08 21:46:42 GMT 42.711491 -66.040352 36,000 264 491 0
2022-08-08 21:46:32 GMT 42.713791 -66.011101 36,000 265 491 0
2022-08-08 21:46:21 GMT 42.716614 -65.973923 36,000 265 491 0
2022-08-08 21:46:10 GMT 42.718964 -65.942810 36,000 265 491 0
2022-08-08 21:46:01 GMT 42.721081 -65.915413 36,000 265 491 0
2022-08-08 21:45:52 GMT 42.723450 -65.884323 36,000 265 491 0
2022-08-08 21:45:41 GMT 42.725876 -65.852486 36,000 265 491 0
2022-08-08 21:45:37 GMT 42.726852 -65.839470 36,000 265 491 0
2022-08-08 21:45:31 GMT 42.728119 -65.822777 36,000 265 491 0
2022-08-08 21:45:25 GMT 42.729401 -65.805611 36,000 265 491 0
2022-08-08 21:45:21 GMT 42.730534 -65.790733 36,000 265 491 0
2022-08-08 21:45:16 GMT 42.731598 -65.776459 36,000 265 491 0
2022-08-08 21:45:07 GMT 42.733463 -65.750877 36,000 265 491 0
2022-08-08 21:45:04 GMT 42.734161 -65.741737 36,000 265 491 0
2022-08-08 21:45:00 GMT 42.735306 -65.726517 36,000 265 491 0
2022-08-08 21:44:56 GMT 42.736118 -65.715996 36,000 265 490 0
2022-08-08 21:44:49 GMT 42.737915 -65.691315 36,000 265 490 0
2022-08-08 21:44:39 GMT 42.739929 -65.664101 36,000 265 490 0
2022-08-08 21:44:28 GMT 42.742310 -65.631493 36,000 265 490 0
2022-08-08 21:44:18 GMT 42.744591 -65.600578 36,000 265 490 0
2022-08-08 21:44:07 GMT 42.747070 -65.567032 36,000 265 490 0
2022-08-08 21:43:57 GMT 42.749313 -65.535881 36,000 265 490 0
2022-08-08 21:43:47 GMT 42.751621 -65.504196 36,000 265 490 -64
2022-08-08 21:43:43 GMT 42.752335 -65.494247 36,000 265 490 0
2022-08-08 21:43:38 GMT 42.753799 -65.473709 36,000 265 490 0
2022-08-08 21:43:31 GMT 42.755066 -65.456482 36,000 265 490 0
2022-08-08 21:43:27 GMT 42.755997 -65.443260 36,000 265 490 0
2022-08-08 21:43:22 GMT 42.757095 -65.428139 36,000 265 490 0
2022-08-08 21:43:14 GMT 42.758881 -65.403206 36,000 265 490 0
2022-08-08 21:43:12 GMT 42.759350 -65.396500 36,000 265 490 0
2022-08-08 21:43:07 GMT 42.760620 -65.379204 36,000 265 490 0
2022-08-08 21:43:04 GMT 42.763260 -65.341698 36,000 265 490 0
2022-08-08 21:42:54 GMT 42.763260 -65.341698 36,000 265 490 0
2022-08-08 21:42:45 GMT 42.765213 -65.314171 36,000 265 490 0
2022-08-08 21:42:42 GMT 42.765793 -65.306358 36,000 265 490 0
2022-08-08 21:42:36 GMT 42.767303 -65.284630 36,000 265 490 0
2022-08-08 21:42:33 GMT 42.767715 -65.278824 36,000 265 490 0
2022-08-08 21:42:23 GMT 42.769867 -65.248055 36,000 265 490 0
2022-08-08 21:42:18 GMT 42.771011 -65.232010 36,000 265 489 0
2022-08-08 21:42:13 GMT 42.772018 -65.217339 36,000 265 489 0
2022-08-08 21:42:10 GMT 42.772888 -65.204796 36,000 265 489 0
2022-08-08 21:42:03 GMT 42.774170 -65.186752 36,000 265 489 0
2022-08-08 21:41:59 GMT 42.775127 -65.173195 36,000 265 489 0
2022-08-08 21:41:53 GMT 42.776321 -65.155914 36,000 265 489 0
2022-08-08 21:41:49 GMT 42.777409 -65.140175 36,000 265 489 0
2022-08-08 21:41:42 GMT 42.778564 -65.123520 36,000 265 489 0
2022-08-08 21:41:38 GMT 42.779526 -65.109726 36,000 265 489 0
2022-08-08 21:41:33 GMT 42.780621 -65.093102 36,000 265 489 -64
2022-08-08 21:41:27 GMT 42.781998 -65.073082 36,000 265 489 0
2022-08-08 21:41:23 GMT 42.782776 -65.062347 36,000 265 489 0
2022-08-08 21:41:13 GMT 42.784859 -65.031334 36,000 265 489 0
2022-08-08 21:41:06 GMT 42.786629 -65.005341 36,000 265 489 0
2022-08-08 21:41:01 GMT 42.787079 -64.998741 36,000 265 489 0
2022-08-08 21:40:52 GMT 42.789001 -64.970139 36,000 265 488 0
2022-08-08 21:40:42 GMT 42.791245 -64.936691 36,000 265 489 0
2022-08-08 21:40:31 GMT 42.793442 -64.904541 36,000 265 489 0
2022-08-08 21:40:21 GMT 42.795425 -64.874397 36,000 265 488 0
2022-08-08 21:40:11 GMT 42.797565 -64.842270 36,000 265 489 0
2022-08-08 21:40:00 GMT 42.799664 -64.810776 36,000 265 489 0
2022-08-08 21:39:51 GMT 42.801804 -64.778908 36,000 265 489 0
2022-08-08 21:39:40 GMT 42.803879 -64.747551 36,000 265 489 0
2022-08-08 21:39:29 GMT 42.805984 -64.715401 36,000 265 489 0
2022-08-08 21:39:20 GMT 42.808086 -64.683670 36,000 265 489 0
2022-08-08 21:39:09 GMT 42.809998 -64.653694 36,000 265 489 0
2022-08-08 21:39:00 GMT 42.812210 -64.619217 36,000 265 489 0
2022-08-08 21:38:49 GMT 42.814087 -64.590477 36,000 265 489 0
2022-08-08 21:38:40 GMT 42.815826 -64.563522 36,000 266 488 0
2022-08-08 21:38:38 GMT 42.816093 -64.559067 36,000 266 488 0
2022-08-08 21:38:29 GMT 42.817749 -64.533501 36,000 266 488 0
2022-08-08 21:38:18 GMT 42.820145 -64.495110 36,000 266 488 0
2022-08-08 21:38:09 GMT 42.821686 -64.470520 36,000 266 488 0
2022-08-08 21:38:07 GMT 42.822102 -64.464241 36,000 265 488 0
2022-08-08 21:37:57 GMT 42.824158 -64.431938 36,000 266 488 0
2022-08-08 21:37:49 GMT 42.825623 -64.408691 36,000 266 488 0
2022-08-08 21:37:47 GMT 42.826080 -64.401344 36,000 266 488 0
2022-08-08 21:37:39 GMT 42.827454 -64.379623 36,000 266 488 0
2022-08-08 21:37:36 GMT 42.828003 -64.370430 36,000 266 488 0
2022-08-08 21:37:29 GMT 42.829411 -64.348228 36,000 266 488 0
2022-08-08 21:37:26 GMT 42.830063 -64.337982 36,000 266 488 0
2022-08-08 21:37:18 GMT 42.831409 -64.316124 36,000 266 488 0
2022-08-08 21:37:16 GMT 42.831924 -64.307556 36,000 266 488 0
2022-08-08 21:37:09 GMT 42.833275 -64.285843 36,000 266 488 0
2022-08-08 21:37:05 GMT 42.833878 -64.275444 36,000 266 488 0
2022-08-08 21:36:59 GMT 42.835041 -64.256485 36,000 266 488 0
2022-08-08 21:36:55 GMT 42.835876 -64.242554 36,000 266 488 0
2022-08-08 21:36:49 GMT 42.836929 -64.225113 36,000 266 488 0
2022-08-08 21:36:44 GMT 42.837753 -64.211639 36,000 266 488 0
2022-08-08 21:36:38 GMT 42.838905 -64.192856 36,000 266 488 0
2022-08-08 21:36:35 GMT 42.839722 -64.179832 36,000 266 488 0
2022-08-08 21:36:29 GMT 42.840683 -64.163605 36,000 266 488 0
2022-08-08 21:36:24 GMT 42.841644 -64.148018 36,000 266 488 0
2022-08-08 21:36:19 GMT 42.842560 -64.132751 36,000 266 488 0
2022-08-08 21:36:13 GMT 42.843567 -64.115891 36,000 266 488 0
2022-08-08 21:36:08 GMT 42.844494 -64.100777 36,000 266 488 0
2022-08-08 21:36:04 GMT 42.845329 -64.086067 36,000 266 488 0
2022-08-08 21:35:57 GMT 42.846313 -64.070030 36,000 266 488 0
2022-08-08 21:35:53 GMT 42.847191 -64.055199 36,000 266 488 0
2022-08-08 21:35:47 GMT 42.848236 -64.037582 36,000 266 488 0
2022-08-08 21:35:42 GMT 42.849152 -64.021996 36,000 266 488 0
2022-08-08 21:35:37 GMT 42.850124 -64.005959 36,000 266 488 0
2022-08-08 21:35:33 GMT 42.851055 -63.990063 36,000 266 488 -64
2022-08-08 21:35:30 GMT 42.851379 -63.984245 36,000 266 488 0
2022-08-08 21:35:27 GMT 42.851940 -63.975090 36,000 266 488 0
2022-08-08 21:35:20 GMT 42.853271 -63.952885 36,000 266 488 0
2022-08-08 21:35:17 GMT 42.853710 -63.945400 36,000 266 488 0
2022-08-08 21:35:10 GMT 42.855152 -63.920681 36,000 266 488 0
2022-08-08 21:35:07 GMT 42.855652 -63.911942 36,000 266 488 0
2022-08-08 21:35:02 GMT 42.856548 -63.896812 36,000 266 488 0
2022-08-08 21:34:57 GMT 42.857437 -63.881348 36,000 266 488 0
2022-08-08 21:34:51 GMT 42.858444 -63.863972 36,000 266 488 0
2022-08-08 21:34:46 GMT 42.859249 -63.850056 36,000 266 488 0
2022-08-08 21:34:41 GMT 42.860271 -63.832596 36,000 266 488 0
2022-08-08 21:34:38 GMT 42.860737 -63.824028 36,000 266 488 0
2022-08-08 21:34:35 GMT 42.861191 -63.816257 36,000 266 488 0
2022-08-08 21:34:31 GMT 42.862015 -63.801888 36,000 266 488 0
2022-08-08 21:34:26 GMT 42.862831 -63.787338 36,000 266 488 0
2022-08-08 21:34:20 GMT 42.863766 -63.771122 36,000 266 488 0
2022-08-08 21:34:16 GMT 42.864651 -63.755558 36,000 266 487 0
2022-08-08 21:34:09 GMT 42.865768 -63.735840 36,000 266 487 0
2022-08-08 21:34:05 GMT 42.866409 -63.724854 36,000 266 487 0
2022-08-08 21:33:57 GMT 42.867954 -63.697815 36,000 266 487 0
2022-08-08 21:33:54 GMT 42.868286 -63.691833 36,000 266 487 0
2022-08-08 21:33:49 GMT 42.869156 -63.676247 36,000 266 487 0
2022-08-08 21:33:45 GMT 42.869888 -63.662834 36,000 266 487 0
2022-08-08 21:33:39 GMT 42.870941 -63.643864 36,000 266 487 0
2022-08-08 21:33:34 GMT 42.871677 -63.631180 36,000 266 487 0
2022-08-08 21:33:31 GMT 42.872330 -63.619274 36,000 266 487 0
2022-08-08 21:33:28 GMT 42.872704 -63.612213 36,000 266 487 0
2022-08-08 21:33:25 GMT 42.873367 -63.601067 36,000 266 487 0
2022-08-08 21:33:19 GMT 42.874470 -63.581020 36,000 266 487 0
2022-08-08 21:33:14 GMT 42.875122 -63.569771 36,000 266 488 0
2022-08-08 21:33:09 GMT 42.876102 -63.551723 36,000 266 488 0
2022-08-08 21:33:05 GMT 42.876755 -63.539303 36,000 266 488 0
2022-08-08 21:32:58 GMT 42.877914 -63.518372 36,000 266 488 0
2022-08-08 21:32:54 GMT 42.878586 -63.505959 36,000 266 488 0
2022-08-08 21:32:48 GMT 42.879730 -63.484879 36,000 266 488 0
2022-08-08 21:32:43 GMT 42.880569 -63.470043 36,000 266 488 0
2022-08-08 21:32:37 GMT 42.881409 -63.454414 36,000 266 488 0
2022-08-08 21:32:34 GMT 42.881836 -63.446301 36,000 266 488 0
2022-08-08 21:32:31 GMT 42.882477 -63.434860 36,000 266 488 0
2022-08-08 21:32:26 GMT 42.883163 -63.422157 36,000 266 488 0
2022-08-08 21:32:21 GMT 42.884109 -63.404518 36,000 266 488 0
2022-08-08 21:32:17 GMT 42.884853 -63.390457 36,000 266 488 64
2022-08-08 21:32:14 GMT 42.885178 -63.384640 36,000 266 488 64
2022-08-08 21:32:10 GMT 42.885830 -63.372345 36,000 266 488 0
2022-08-08 21:32:04 GMT 42.886826 -63.354130 36,000 266 488 0
2022-08-08 21:32:00 GMT 42.887741 -63.336948 36,000 266 488 0
2022-08-08 21:31:54 GMT 42.888435 -63.323036 36,000 266 488 0
2022-08-08 21:31:47 GMT 42.889603 -63.300999 36,000 266 489 0
2022-08-08 21:31:44 GMT 42.890064 -63.292694 36,000 266 489 0
2022-08-08 21:31:34 GMT 42.891697 -63.262024 36,000 266 489 0
2022-08-08 21:31:24 GMT 42.893555 -63.226318 36,000 267 489 0
2022-08-08 21:31:14 GMT 42.895000 -63.198853 36,000 267 489 0
2022-08-08 21:31:04 GMT 42.896538 -63.168835 36,000 266 489 0
2022-08-08 21:30:53 GMT 42.898132 -63.137981 36,000 266 489 64
2022-08-08 21:30:43 GMT 42.899937 -63.103115 36,000 267 489 0
2022-08-08 21:30:32 GMT 42.901566 -63.071617 36,000 267 489 0
2022-08-08 21:30:22 GMT 42.903149 -63.039879 36,000 267 489 0
2022-08-08 21:30:11 GMT 42.904778 -63.007313 36,000 267 489 0
2022-08-08 21:30:02 GMT 42.906189 -62.978615 36,000 267 489 0
2022-08-08 21:30:00 GMT 42.906372 -62.975292 36,000 267 489 0
2022-08-08 21:29:51 GMT 42.907928 -62.944569 36,000 267 489 0
2022-08-08 21:29:39 GMT 42.909573 -62.911312 36,000 267 489 0
2022-08-08 21:29:30 GMT 42.911087 -62.880505 36,000 267 489 0
2022-08-08 21:29:22 GMT 42.912231 -62.857189 36,000 267 488 0
2022-08-08 21:29:18 GMT 42.912876 -62.844479 36,000 267 488 0
2022-08-08 21:29:12 GMT 42.914227 -62.817207 36,000 267 488 0
2022-08-08 21:29:01 GMT 42.915573 -62.789165 36,000 267 487 0
2022-08-08 21:28:53 GMT 42.916626 -62.766171 36,000 267 488 0
2022-08-08 21:28:50 GMT 42.916992 -62.758823 36,000 267 488 0
2022-08-08 21:28:40 GMT 42.918465 -62.728008 36,000 267 487 0
2022-08-08 21:28:32 GMT 42.919785 -62.700569 36,000 267 487 0
2022-08-08 21:28:21 GMT 42.921204 -62.670551 36,000 267 489 0
2022-08-08 21:28:11 GMT 42.922760 -62.638039 36,000 267 489 0
2022-08-08 21:28:01 GMT 42.924095 -62.609318 36,000 267 488 0
2022-08-08 21:27:59 GMT 42.924500 -62.600288 36,000 267 488 0
2022-08-08 21:27:51 GMT 42.925587 -62.577408 36,000 267 488 0
2022-08-08 21:27:46 GMT 42.926239 -62.563751 36,000 267 488 0
2022-08-08 21:27:40 GMT 42.927261 -62.542156 36,000 267 488 0
2022-08-08 21:27:37 GMT 42.927448 -62.537254 36,000 267 488 0
2022-08-08 21:27:26 GMT 42.929031 -62.503773 36,000 267 488 0
2022-08-08 21:27:17 GMT 42.930569 -62.470943 36,000 267 488 0
2022-08-08 21:27:11 GMT 42.931313 -62.454071 36,000 267 488 0
2022-08-08 21:27:05 GMT 42.932007 -62.438881 36,000 267 488 0
2022-08-08 21:26:56 GMT 42.933380 -62.407902 36,000 267 488 0
2022-08-08 21:26:45 GMT 42.934845 -62.375645 36,000 267 488 64
2022-08-08 21:26:39 GMT 42.935760 -62.355076 36,000 267 488 0
2022-08-08 21:26:35 GMT 42.936264 -62.344601 36,000 267 488 0
2022-08-08 21:26:28 GMT 42.937271 -62.321777 36,000 267 488 64
2022-08-08 21:26:25 GMT 42.937641 -62.312557 36,000 267 488 0
2022-08-08 21:26:17 GMT 42.938553 -62.292095 36,000 267 488 0
2022-08-08 21:26:13 GMT 42.939037 -62.279663 36,000 267 488 0
2022-08-08 21:26:05 GMT 42.940109 -62.255402 36,000 267 488 0
2022-08-08 21:26:03 GMT 42.940388 -62.248993 36,000 267 488 0
2022-08-08 21:25:58 GMT 42.941181 -62.231468 36,000 267 488 0
2022-08-08 21:25:52 GMT 42.941895 -62.215321 36,000 267 488 0
2022-08-08 21:25:47 GMT 42.942577 -62.200142 36,000 267 488 0
2022-08-08 21:25:43 GMT 42.943222 -62.184662 36,000 267 488 0
2022-08-08 21:25:37 GMT 42.943863 -62.169586 36,000 267 488 0
2022-08-08 21:25:33 GMT 42.944672 -62.150703 36,000 267 488 0
2022-08-08 21:25:28 GMT 42.945145 -62.140141 36,000 267 488 0
2022-08-08 21:25:22 GMT 42.945923 -62.120789 36,000 267 488 0
2022-08-08 21:25:17 GMT 42.946442 -62.108067 36,000 267 488 0
2022-08-08 21:25:07 GMT 42.947754 -62.076904 36,000 267 488 0
2022-08-08 21:24:58 GMT 42.949047 -62.046333 36,000 267 488 0
2022-08-08 21:24:51 GMT 42.950089 -62.021656 36,000 267 488 0
2022-08-08 21:24:48 GMT 42.950352 -62.015663 36,000 267 488 0
2022-08-08 21:24:43 GMT 42.951050 -61.998138 36,000 267 488 0
2022-08-08 21:24:38 GMT 42.951599 -61.984543 36,000 267 488 0
2022-08-08 21:24:32 GMT 42.952309 -61.967796 36,000 267 487 0
2022-08-08 21:24:27 GMT 42.952881 -61.953564 36,000 267 487 0
2022-08-08 21:24:21 GMT 42.953609 -61.934380 36,000 267 487 0
2022-08-08 21:24:17 GMT 42.954117 -61.921627 36,000 267 487 0
2022-08-08 21:24:07 GMT 42.955399 -61.890076 36,000 267 487 0
2022-08-08 21:23:57 GMT 42.956635 -61.859894 36,000 267 487 0
2022-08-08 21:23:46 GMT 42.957893 -61.827785 36,000 267 486 0
2022-08-08 21:23:37 GMT 42.959106 -61.797329 36,000 267 486 0
2022-08-08 21:23:27 GMT 42.960342 -61.766735 36,000 267 486 0
2022-08-08 21:23:16 GMT 42.961617 -61.734730 36,000 268 486 0
2022-08-08 21:23:06 GMT 42.962830 -61.703274 36,000 267 485 0
2022-08-08 21:22:53 GMT 42.964508 -61.660381 36,000 267 485 0
2022-08-08 21:22:45 GMT 42.965378 -61.638092 36,000 267 485 0
2022-08-08 21:22:37 GMT 42.966293 -61.615223 36,000 267 484 0
2022-08-08 21:22:33 GMT 42.966660 -61.605453 36,000 267 484 64
2022-08-08 21:22:24 GMT 42.967949 -61.572159 36,000 268 484 0
2022-08-08 21:22:14 GMT 42.968971 -61.545017 36,000 268 484 0
2022-08-08 21:22:06 GMT 42.969902 -61.520691 36,000 268 484 64
2022-08-08 21:22:03 GMT 42.970322 -61.509117 36,000 268 484 -192
2022-08-08 21:21:54 GMT 42.971252 -61.484200 36,000 268 483 -64
2022-08-08 21:21:46 GMT 42.972046 -61.461704 36,000 268 482 128
2022-08-08 21:21:34 GMT 42.973434 -61.424240 36,000 268 482 -64
2022-08-08 21:21:32 GMT 42.973766 -61.415276 36,000 268 482 0
2022-08-08 21:21:20 GMT 42.974979 -61.381924 36,025 268 482 0
2022-08-08 21:21:07 GMT 42.976501 -61.339672 36,000 268 481 64
2022-08-08 21:20:59 GMT 42.977234 -61.319614 36,000 268 481 -64
2022-08-08 21:20:55 GMT 42.977676 -61.306458 36,000 268 482 64
2022-08-08 21:20:21 GMT 42.981216 -61.203720 36,000 268 481 0
2022-08-08 21:20:11 GMT 42.982269 -61.173279 36,000 268 481 0
2022-08-08 21:19:53 GMT 42.984196 -61.117142 36,000 268 481 0
2022-08-08 21:19:36 GMT 42.985966 -61.063580 36,000 268 481 0
2022-08-08 21:19:30 GMT 42.986382 -61.050896 36,000 268 481 64
2022-08-08 21:19:20 GMT 42.987408 -61.020618 36,000 268 481 0
2022-08-08 21:19:14 GMT 42.988060 -60.999428 36,000 268 481 0
2022-08-08 21:19:05 GMT 42.989044 -60.968693 36,000 268 481 0
2022-08-08 21:19:01 GMT 42.989361 -60.960129 36,000 268 481 0
We lost coverage of the aircraft here for a total of 249 minutes
2022-08-08 17:10:25 GMT 49.997475 -12.636133 35,000 272 507 -64
2022-08-08 17:10:17 GMT 49.997150 -12.609558 35,000 272 507 0
2022-08-08 17:10:08 GMT 49.996765 -12.576021 35,000 272 507 0
2022-08-08 17:10:01 GMT 49.996452 -12.548985 35,000 272 507 0
2022-08-08 17:09:51 GMT 49.995987 -12.510830 35,000 272 507 0
2022-08-08 17:09:40 GMT 49.995567 -12.474604 35,000 272 507 0
2022-08-08 17:09:30 GMT 49.995071 -12.437391 35,000 272 507 0
2022-08-08 17:09:20 GMT 49.994541 -12.400892 35,000 272 507 0
2022-08-08 17:09:09 GMT 49.994080 -12.363182 35,000 272 506 0
2022-08-08 17:08:59 GMT 49.993561 -12.327455 35,000 272 506 0
2022-08-08 17:08:46 GMT 49.992912 -12.279820 35,000 272 506 0
2022-08-08 17:08:39 GMT 49.992508 -12.253587 35,000 272 505 0
2022-08-08 17:08:29 GMT 49.991959 -12.218821 35,000 272 505 0
2022-08-08 17:08:20 GMT 49.991470 -12.183912 35,000 272 505 0
2022-08-08 17:08:10 GMT 49.990913 -12.147687 35,000 272 506 0
2022-08-08 17:07:59 GMT 49.989716 -12.072963 35,000 272 506 0
2022-08-08 17:07:49 GMT 49.989716 -12.072963 35,000 272 506 0
2022-08-08 17:07:39 GMT 49.989166 -12.037040 35,000 272 506 0
2022-08-08 17:07:29 GMT 49.988583 -12.001005 35,000 272 506 0
2022-08-08 17:07:19 GMT 49.987885 -11.960931 35,000 272 507 0
2022-08-08 17:07:08 GMT 49.987198 -11.923202 35,000 272 507 0
2022-08-08 17:06:58 GMT 49.986603 -11.887279 35,000 272 507 0
2022-08-08 17:06:48 GMT 49.985886 -11.849720 35,000 272 507 0
2022-08-08 17:06:37 GMT 49.985229 -11.812832 35,000 272 507 0
2022-08-08 17:06:27 GMT 49.984581 -11.777047 35,000 272 508 0
2022-08-08 17:06:18 GMT 49.983856 -11.740482 35,000 272 508 0
2022-08-08 17:06:08 GMT 49.983170 -11.703403 35,000 272 508 0
2022-08-08 17:05:57 GMT 49.982437 -11.665601 35,000 272 508 0
2022-08-08 17:05:48 GMT 49.981796 -11.633582 35,000 272 509 0
2022-08-08 17:05:38 GMT 49.981091 -11.597331 35,000 272 509 0
2022-08-08 17:05:28 GMT 49.980297 -11.559325 35,000 272 510 0
2022-08-08 17:05:17 GMT 49.979553 -11.522134 35,000 272 510 0
2022-08-08 17:05:08 GMT 49.978809 -11.486355 35,000 272 510 0
2022-08-08 17:04:56 GMT 49.977905 -11.444212 35,000 272 510 0
2022-08-08 17:04:51 GMT 49.977505 -11.425336 35,000 272 510 0
2022-08-08 17:04:42 GMT 49.976761 -11.390670 35,000 272 510 0
2022-08-08 17:04:36 GMT 49.976295 -11.369068 35,000 272 511 0
2022-08-08 17:04:31 GMT 49.975922 -11.352663 35,000 273 511 0
2022-08-08 17:04:26 GMT 49.975502 -11.334402 35,000 273 511 0
2022-08-08 17:04:12 GMT 49.974339 -11.283553 35,000 273 511 64
2022-08-08 17:04:02 GMT 49.973499 -11.247773 35,000 273 511 -64
2022-08-08 17:03:55 GMT 49.972870 -11.219426 35,000 273 511 0
2022-08-08 17:03:47 GMT 49.972198 -11.190763 35,000 273 511 0
2022-08-08 17:03:37 GMT 49.971313 -11.154376 35,000 273 510 64
2022-08-08 17:03:27 GMT 49.970444 -11.117441 35,000 273 510 0
2022-08-08 17:03:16 GMT 49.969452 -11.079341 35,000 273 510 0
2022-08-08 17:03:06 GMT 49.968475 -11.040465 35,000 273 510 0
2022-08-08 17:02:56 GMT 49.967636 -11.005628 35,000 273 509 0
2022-08-08 17:02:49 GMT 49.967030 -10.981206 35,000 273 509 0
2022-08-08 17:02:46 GMT 49.966705 -10.969181 35,000 273 509 0
2022-08-08 17:02:40 GMT 49.966099 -10.945872 35,000 273 509 0
2022-08-08 17:02:36 GMT 49.965775 -10.933178 35,000 273 509 0
2022-08-08 17:02:26 GMT 49.964767 -10.894751 35,000 273 508 0
2022-08-08 17:02:19 GMT 49.964100 -10.869858 35,000 273 508 0
2022-08-08 17:02:15 GMT 49.963760 -10.857311 35,000 273 508 0
2022-08-08 17:02:09 GMT 49.963074 -10.833113 35,000 273 508 0
2022-08-08 17:02:06 GMT 49.962795 -10.821830 35,000 273 508 0
2022-08-08 17:01:59 GMT 49.962143 -10.798224 35,000 273 508 0
2022-08-08 17:01:55 GMT 49.961769 -10.785085 35,000 273 508 0
2022-08-08 17:01:50 GMT 49.961166 -10.761776 35,000 273 508 0
2022-08-08 17:01:45 GMT 49.960793 -10.747598 35,000 273 508 0
2022-08-08 17:01:39 GMT 49.960098 -10.723018 35,000 273 508 0
2022-08-08 17:01:35 GMT 49.959721 -10.710111 35,000 273 509 0
2022-08-08 17:01:28 GMT 49.959023 -10.685021 35,000 273 509 0
2022-08-08 17:01:25 GMT 49.958633 -10.672423 35,000 273 509 0
2022-08-08 17:01:19 GMT 49.958000 -10.650057 35,000 273 509 0
2022-08-08 17:01:15 GMT 49.957626 -10.637661 35,000 273 509 0
2022-08-08 17:01:09 GMT 49.956974 -10.613981 35,000 273 509 64
2022-08-08 17:01:05 GMT 49.956604 -10.601584 35,000 273 510 64
2022-08-08 17:00:55 GMT 49.955566 -10.565306 35,000 273 510 0
2022-08-08 17:00:49 GMT 49.954742 -10.538274 35,000 273 510 0
2022-08-08 17:00:44 GMT 49.954369 -10.524977 35,000 273 510 0
2022-08-08 17:00:35 GMT 49.953392 -10.491350 35,000 273 511 64
2022-08-08 17:00:28 GMT 49.952599 -10.465368 35,000 273 511 0
2022-08-08 17:00:25 GMT 49.952274 -10.454382 35,000 273 512 0
2022-08-08 17:00:17 GMT 49.951435 -10.426916 35,000 273 513 -64
2022-08-08 17:00:14 GMT 49.951061 -10.414445 35,000 273 513 -128
2022-08-08 17:00:08 GMT 49.950302 -10.390753 35,000 273 514 128
2022-08-08 17:00:04 GMT 49.949993 -10.379853 35,000 273 514 512
2022-08-08 16:59:57 GMT 49.949200 -10.352981 34,925 273 515 640
2022-08-08 16:59:54 GMT 49.948837 -10.341749 34,875 273 516 640
2022-08-08 16:59:47 GMT 49.947990 -10.314232 34,800 273 516 640
2022-08-08 16:59:44 GMT 49.947693 -10.304814 34,775 273 517 576
2022-08-08 16:59:38 GMT 49.946823 -10.277782 34,725 273 518 576
2022-08-08 16:59:34 GMT 49.946503 -10.268060 34,700 273 518 576
2022-08-08 16:59:27 GMT 49.945709 -10.241707 34,625 273 518 576
2022-08-08 16:59:23 GMT 49.945290 -10.228346 34,575 273 518 576
2022-08-08 16:59:16 GMT 49.944454 -10.201325 34,500 273 518 576
2022-08-08 16:59:13 GMT 49.944035 -10.189448 34,475 273 519 576
2022-08-08 16:59:03 GMT 49.942886 -10.152885 34,375 273 519 576
2022-08-08 16:58:57 GMT 49.942108 -10.129105 34,325 273 520 640
2022-08-08 16:58:54 GMT 49.941753 -10.118482 34,275 273 520 640
2022-08-08 16:58:44 GMT 49.940506 -10.080390 34,175 273 520 576
2022-08-08 16:58:36 GMT 49.939590 -10.052852 34,125 274 520 512
2022-08-08 16:58:33 GMT 49.939194 -10.041504 34,100 274 520 512
2022-08-08 16:58:27 GMT 49.938263 -10.014544 34,025 273 520 576
2022-08-08 16:58:23 GMT 49.937935 -10.005427 34,000 273 520 576
2022-08-08 16:58:16 GMT 49.937004 -9.977516 33,925 274 520 576
2022-08-08 16:58:13 GMT 49.936661 -9.966551 33,900 274 520 576
2022-08-08 16:58:06 GMT 49.935749 -9.940326 33,825 274 520 512
2022-08-08 16:58:03 GMT 49.935329 -9.929117 33,800 274 520 512
2022-08-08 16:57:56 GMT 49.934372 -9.901790 33,725 274 520 768
2022-08-08 16:57:53 GMT 49.934025 -9.891927 33,675 274 521 512
2022-08-08 16:57:46 GMT 49.933094 -9.865129 33,625 274 520 576
2022-08-08 16:57:42 GMT 49.932632 -9.852279 33,600 274 520 576
2022-08-08 16:57:33 GMT 49.931324 -9.817175 33,500 274 519 576
2022-08-08 16:57:23 GMT 49.929974 -9.780133 33,400 274 516 512
2022-08-08 16:57:16 GMT 49.928970 -9.751595 33,350 274 514 512
2022-08-08 16:57:13 GMT 49.928650 -9.742705 33,325 274 514 512
2022-08-08 16:57:03 GMT 49.927277 -9.705530 33,250 274 511 448
2022-08-08 16:56:55 GMT 49.926250 -9.677025 33,175 274 510 448
2022-08-08 16:56:52 GMT 49.925926 -9.667523 33,175 274 510 448
2022-08-08 16:56:45 GMT 49.924900 -9.639835 33,125 274 510 448
2022-08-08 16:56:42 GMT 49.924622 -9.632189 33,100 274 510 448
2022-08-08 16:56:32 GMT 49.923203 -9.593956 33,025 274 513 384
2022-08-08 16:56:22 GMT 49.921875 -9.557809 33,000 274 513 0
2022-08-08 16:56:12 GMT 49.920479 -9.520767 33,000 274 513 0
2022-08-08 16:56:05 GMT 49.919361 -9.491816 33,000 274 514 0
2022-08-08 16:56:02 GMT 49.919037 -9.482240 33,000 274 514 0
2022-08-08 16:55:52 GMT 49.917641 -9.445867 33,000 274 514 0
2022-08-08 16:55:41 GMT 49.916149 -9.408305 33,000 274 515 -64
2022-08-08 16:55:37 GMT 49.915466 -9.391937 33,000 274 515 -64
2022-08-08 16:55:34 GMT 49.915031 -9.380765 33,000 274 515 -64
2022-08-08 16:55:31 GMT 49.914597 -9.369531 33,000 274 515 0
2022-08-08 16:55:24 GMT 49.913498 -9.341921 33,000 274 515 0
2022-08-08 16:55:19 GMT 49.912949 -9.327537 33,000 274 515 0
2022-08-08 16:55:13 GMT 49.912033 -9.304697 33,000 274 516 0
2022-08-08 16:55:10 GMT 49.911484 -9.291832 33,000 274 516 64
2022-08-08 16:55:02 GMT 49.910202 -9.260896 33,000 274 515 0
2022-08-08 16:54:52 GMT 49.908749 -9.223913 33,000 274 515 0
2022-08-08 16:54:50 GMT 49.908600 -9.220420 33,000 274 515 0
2022-08-08 16:54:43 GMT 49.907455 -9.192449 33,000 274 515 0
2022-08-08 16:54:40 GMT 49.907089 -9.183631 33,000 274 516 0
2022-08-08 16:54:33 GMT 49.905945 -9.156815 33,000 274 515 0
2022-08-08 16:54:29 GMT 49.905300 -9.141516 33,000 274 515 0
2022-08-08 16:54:23 GMT 49.904324 -9.118355 33,000 274 516 0
2022-08-08 16:54:20 GMT 49.903931 -9.108967 33,000 274 516 -64
2022-08-08 16:54:13 GMT 49.902786 -9.081357 33,000 274 516 0
2022-08-08 16:54:10 GMT 49.902416 -9.072406 33,000 274 516 0
2022-08-08 16:54:00 GMT 49.900787 -9.033731 33,000 274 516 0
2022-08-08 16:53:50 GMT 49.899170 -8.997152 33,000 274 516 0
2022-08-08 16:53:41 GMT 49.897762 -8.964547 33,000 274 516 0
2022-08-08 16:53:39 GMT 49.897530 -8.959054 33,000 274 516 0
2022-08-08 16:53:32 GMT 49.896378 -8.932318 33,000 274 516 0
2022-08-08 16:53:29 GMT 49.895992 -8.922532 33,000 274 516 0
2022-08-08 16:53:20 GMT 49.894363 -8.886084 33,000 274 517 0
2022-08-08 16:53:14 GMT 49.893433 -8.864705 33,000 274 517 0
2022-08-08 16:53:12 GMT 49.893105 -8.857356 33,000 274 517 0
2022-08-08 16:53:09 GMT 49.892670 -8.847608 33,000 274 517 0
2022-08-08 16:53:04 GMT 49.891895 -8.828925 33,000 274 517 0
2022-08-08 16:53:02 GMT 49.891476 -8.819349 33,000 274 517 0
2022-08-08 16:52:59 GMT 49.891159 -8.811830 33,000 274 517 0
2022-08-08 16:52:54 GMT 49.890381 -8.793761 33,000 274 517 0
2022-08-08 16:52:49 GMT 49.889465 -8.773089 33,000 274 517 0
2022-08-08 16:52:41 GMT 49.888092 -8.742515 33,000 275 517 -64
2022-08-08 16:52:39 GMT 49.887844 -8.737174 33,000 275 517 0
2022-08-08 16:52:31 GMT 49.886311 -8.703993 33,000 274 517 0
2022-08-08 16:52:21 GMT 49.884399 -8.661235 33,000 274 517 0
2022-08-08 16:52:19 GMT 49.883049 -8.630206 33,000 275 517 0
2022-08-08 16:52:10 GMT 49.883049 -8.630206 33,000 275 517 0
2022-08-08 16:52:07 GMT 49.882507 -8.618630 33,000 275 517 0
2022-08-08 16:52:00 GMT 49.881374 -8.594055 33,000 275 517 0
2022-08-08 16:51:58 GMT 49.880909 -8.584850 33,000 275 517 0
2022-08-08 16:51:50 GMT 49.879559 -8.555751 33,000 275 517 0
2022-08-08 16:51:48 GMT 49.879189 -8.548403 33,000 275 517 0
2022-08-08 16:51:39 GMT 49.877426 -8.511369 33,000 275 517 0
2022-08-08 16:51:29 GMT 49.875973 -8.480183 33,000 275 517 0
2022-08-08 16:51:27 GMT 49.875557 -8.470607 33,000 275 517 0
2022-08-08 16:51:20 GMT 49.874298 -8.444849 33,000 275 516 0
2022-08-08 16:51:17 GMT 49.873833 -8.435273 33,000 275 516 0
2022-08-08 16:51:09 GMT 49.872391 -8.405432 33,000 275 517 0
2022-08-08 16:51:07 GMT 49.871979 -8.396374 33,000 275 516 0
2022-08-08 16:51:00 GMT 49.870762 -8.370840 33,000 275 517 0
2022-08-08 16:50:57 GMT 49.870331 -8.361463 33,000 275 516 0
2022-08-08 16:50:50 GMT 49.868958 -8.333058 33,000 275 516 0
2022-08-08 16:50:47 GMT 49.868435 -8.322589 33,000 275 516 0
2022-08-08 16:50:40 GMT 49.867130 -8.296459 33,000 275 517 64
2022-08-08 16:50:37 GMT 49.866570 -8.285399 33,000 275 517 64
2022-08-08 16:50:29 GMT 49.865219 -8.258156 33,000 275 517 0
2022-08-08 16:50:27 GMT 49.864803 -8.248951 33,000 275 517 0
2022-08-08 16:50:19 GMT 49.863312 -8.218738 33,000 275 517 0
2022-08-08 16:50:16 GMT 49.862961 -8.211196 33,000 275 517 0
2022-08-08 16:50:09 GMT 49.861637 -8.184518 33,000 275 516 -64
2022-08-08 16:50:07 GMT 49.861130 -8.174695 33,000 275 516 -64
2022-08-08 16:49:59 GMT 49.859543 -8.143987 33,000 275 516 0
2022-08-08 16:49:57 GMT 49.859028 -8.134040 33,000 275 516 0
2022-08-08 16:49:46 GMT 49.857285 -8.099309 33,000 275 517 0
2022-08-08 16:49:39 GMT 49.856049 -8.073867 33,000 275 517 0
2022-08-08 16:49:37 GMT 49.855633 -8.066340 33,000 275 517 0
2022-08-08 16:49:34 GMT 49.855087 -8.055147 33,000 275 517 0
2022-08-08 16:49:29 GMT 49.854126 -8.037077 33,000 275 517 0
2022-08-08 16:49:27 GMT 49.853676 -8.027665 33,000 275 517 0
2022-08-08 16:49:19 GMT 49.852280 -8.000051 33,000 275 516 0
2022-08-08 16:49:16 GMT 49.851791 -7.990313 33,000 275 516 0
2022-08-08 16:49:11 GMT 49.850697 -7.968799 33,000 275 516 0
2022-08-08 16:49:08 GMT 49.850185 -7.959224 33,000 275 516 0
2022-08-08 16:49:05 GMT 49.849686 -7.949476 33,000 275 516 -64
2022-08-08 16:49:02 GMT 49.849022 -7.936434 33,000 275 516 0
2022-08-08 16:48:59 GMT 49.848450 -7.925985 33,000 275 516 0
2022-08-08 16:48:57 GMT 49.847992 -7.917456 33,000 275 516 0
2022-08-08 16:48:54 GMT 49.847576 -7.909562 33,000 275 516 0
2022-08-08 16:48:51 GMT 49.847031 -7.898375 33,000 275 516 0
2022-08-08 16:48:49 GMT 49.846508 -7.889000 33,000 275 516 0
2022-08-08 16:48:44 GMT 49.845623 -7.872075 33,000 275 517 0
2022-08-08 16:48:38 GMT 49.844467 -7.850165 33,000 275 517 0
2022-08-08 16:48:35 GMT 49.843807 -7.837409 33,000 275 517 -64
2022-08-08 16:48:29 GMT 49.842598 -7.814546 33,000 275 517 0
2022-08-08 16:48:25 GMT 49.841858 -7.800365 33,000 275 517 0
2022-08-08 16:48:21 GMT 49.841080 -7.785620 33,000 275 517 0
2022-08-08 16:48:18 GMT 49.840454 -7.774386 33,000 275 517 0
2022-08-08 16:48:15 GMT 49.839943 -7.764142 33,000 275 517 0
2022-08-08 16:48:09 GMT 49.838654 -7.740302 33,000 275 517 64
2022-08-08 16:48:04 GMT 49.837784 -7.723389 33,000 275 517 0
2022-08-08 16:47:59 GMT 49.836590 -7.702158 33,000 275 517 0
2022-08-08 16:47:54 GMT 49.835846 -7.688574 33,000 275 517 0
2022-08-08 16:47:51 GMT 49.835266 -7.677275 33,000 275 517 0
2022-08-08 16:47:48 GMT 49.834396 -7.661446 33,000 275 517 0
2022-08-08 16:47:46 GMT 49.834217 -7.657990 33,000 275 517 0
2022-08-08 16:47:44 GMT 49.833706 -7.648786 33,000 275 517 0
2022-08-08 16:47:38 GMT 49.832611 -7.628704 33,000 276 515 0
2022-08-08 16:47:35 GMT 49.831787 -7.613959 33,000 275 516 0
2022-08-08 16:47:31 GMT 49.831097 -7.601277 33,000 275 516 0
2022-08-08 16:47:28 GMT 49.830540 -7.591701 33,000 275 516 0
2022-08-08 16:47:24 GMT 49.829655 -7.575519 33,000 275 516 0
2022-08-08 16:47:18 GMT 49.827652 -7.539145 33,000 275 516 0
2022-08-08 16:47:14 GMT 49.827652 -7.539145 33,000 275 516 0
2022-08-08 16:47:08 GMT 49.826488 -7.517840 33,000 275 516 0
2022-08-08 16:47:04 GMT 49.825653 -7.502939 33,000 275 516 0
2022-08-08 16:46:58 GMT 49.824440 -7.481096 33,000 276 515 0
2022-08-08 16:46:54 GMT 49.822857 -7.453556 33,000 276 515 0
2022-08-08 16:46:51 GMT 49.822857 -7.453556 33,000 276 515 0
2022-08-08 16:46:48 GMT 49.822300 -7.443312 33,000 276 515 0
2022-08-08 16:46:45 GMT 49.821648 -7.431880 33,000 276 515 0
2022-08-08 16:46:42 GMT 49.821091 -7.422378 33,000 276 515 0
2022-08-08 16:46:39 GMT 49.820480 -7.411218 33,000 276 515 0
2022-08-08 16:46:35 GMT 49.819412 -7.392314 33,000 276 515 0
2022-08-08 16:46:28 GMT 49.818111 -7.369154 33,000 276 516 -64
2022-08-08 16:46:23 GMT 49.817085 -7.351932 33,000 276 516 -64
2022-08-08 16:46:18 GMT 49.815132 -7.317785 33,000 276 516 0
2022-08-08 16:46:14 GMT 49.815132 -7.317785 33,000 276 516 0
2022-08-08 16:46:10 GMT 49.814384 -7.304572 33,000 275 516 0
2022-08-08 16:46:07 GMT 49.812897 -7.278145 33,000 276 516 0
2022-08-08 16:46:04 GMT 49.812897 -7.278145 33,000 275 516 0
2022-08-08 16:45:58 GMT 49.811737 -7.257771 33,000 276 517 0
2022-08-08 16:45:54 GMT 49.810913 -7.244182 33,000 276 517 0
2022-08-08 16:45:48 GMT 49.809589 -7.220838 33,000 276 517 0
2022-08-08 16:45:43 GMT 49.808708 -7.205769 33,000 276 516 0
2022-08-08 16:45:38 GMT 49.807404 -7.184539 33,000 276 516 -64
2022-08-08 16:45:35 GMT 49.806976 -7.177325 33,000 276 516 0
2022-08-08 16:45:33 GMT 49.806564 -7.170212 33,000 276 516 0
2022-08-08 16:45:27 GMT 49.805283 -7.148341 33,000 276 516 0
2022-08-08 16:45:24 GMT 49.804642 -7.137716 33,000 276 516 0
2022-08-08 16:45:17 GMT 49.802536 -7.102083 33,000 276 516 0
2022-08-08 16:45:12 GMT 49.802032 -7.093337 33,000 276 516 0
2022-08-08 16:45:07 GMT 49.800842 -7.073533 33,000 276 516 0
2022-08-08 16:45:05 GMT 49.800419 -7.065991 33,000 276 516 0
2022-08-08 16:45:03 GMT 49.799862 -7.056415 33,000 276 516 0
2022-08-08 16:44:59 GMT 49.799103 -7.044549 33,000 276 516 0
2022-08-08 16:44:55 GMT 49.798092 -7.027093 33,000 276 516 0
2022-08-08 16:44:52 GMT 49.797485 -7.017517 33,000 276 516 0
2022-08-08 16:44:47 GMT 49.796509 -7.000666 33,000 276 516 0
2022-08-08 16:44:45 GMT 49.795952 -6.991165 33,000 276 516 0
2022-08-08 16:44:42 GMT 49.795300 -6.980475 33,000 276 516 0
2022-08-08 16:44:37 GMT 49.794250 -6.962730 33,000 276 516 0
2022-08-08 16:44:32 GMT 49.793064 -6.943434 33,000 276 516 0
2022-08-08 16:44:27 GMT 49.792088 -6.926954 33,000 276 516 0
2022-08-08 16:44:25 GMT 49.790909 -6.907003 33,000 276 516 0
2022-08-08 16:44:22 GMT 49.790909 -6.907003 33,000 276 516 0
2022-08-08 16:44:19 GMT 49.790272 -6.896148 33,000 276 516 0
2022-08-08 16:44:16 GMT 49.789536 -6.884669 33,000 276 516 0
2022-08-08 16:44:12 GMT 49.788666 -6.869997 33,000 276 515 0
2022-08-08 16:44:07 GMT 49.787567 -6.852433 33,000 276 515 0
2022-08-08 16:44:03 GMT 49.786697 -6.838845 33,000 276 515 0
2022-08-08 16:44:01 GMT 49.786221 -6.831715 33,000 276 515 0
2022-08-08 16:43:57 GMT 49.785244 -6.815977 33,000 276 515 0
2022-08-08 16:43:52 GMT 49.783905 -6.794249 33,000 276 515 0
2022-08-08 16:43:47 GMT 49.782852 -6.777408 33,000 276 515 -64
2022-08-08 16:43:43 GMT 49.782124 -6.765871 33,000 276 515 0
2022-08-08 16:43:41 GMT 49.781616 -6.758037 33,000 276 515 -64
2022-08-08 16:43:37 GMT 49.780682 -6.742785 33,000 276 515 0
2022-08-08 16:43:34 GMT 49.779922 -6.731294 33,000 276 515 0
2022-08-08 16:43:31 GMT 49.779331 -6.721257 33,000 276 515 0
2022-08-08 16:43:27 GMT 49.778366 -6.705346 33,000 276 515 0
2022-08-08 16:43:21 GMT 49.777100 -6.685032 33,000 276 515 0
2022-08-08 16:43:16 GMT 49.775841 -6.665287 33,000 276 515 0
2022-08-08 16:43:13 GMT 49.775097 -6.653929 33,000 276 514 0
2022-08-08 16:43:10 GMT 49.774612 -6.646439 33,000 276 514 0
2022-08-08 16:43:07 GMT 49.773701 -6.632031 33,000 276 514 0
2022-08-08 16:43:04 GMT 49.773048 -6.621490 33,000 276 514 64
2022-08-08 16:43:01 GMT 49.772350 -6.610503 33,000 276 514 64
2022-08-08 16:42:57 GMT 49.771324 -6.594098 33,000 276 514 0
2022-08-08 16:42:54 GMT 49.770252 -6.576950 33,000 276 514 0
2022-08-08 16:42:51 GMT 49.769623 -6.566933 33,000 276 514 0
2022-08-08 16:42:49 GMT 49.769623 -6.566933 33,000 276 514 0
2022-08-08 16:42:46 GMT 49.769093 -6.559061 33,000 276 513 0
2022-08-08 16:42:44 GMT 49.768387 -6.547924 33,000 276 513 0
2022-08-08 16:42:41 GMT 49.767792 -6.538455 33,000 276 513 0
2022-08-08 16:42:39 GMT 49.767460 -6.533228 33,000 276 513 0
2022-08-08 16:42:36 GMT 49.766739 -6.521759 33,000 276 513 0
2022-08-08 16:42:33 GMT 49.766052 -6.511134 33,000 276 513 0
2022-08-08 16:42:30 GMT 49.765228 -6.499136 33,000 276 513 0
2022-08-08 16:42:26 GMT 49.764389 -6.485868 33,000 276 513 0
2022-08-08 16:42:23 GMT 49.763626 -6.474417 33,000 276 513 0
2022-08-08 16:42:20 GMT 49.762802 -6.461623 33,000 276 512 0
2022-08-08 16:42:16 GMT 49.761978 -6.448541 33,000 276 512 0
2022-08-08 16:42:12 GMT 49.760944 -6.432718 33,000 276 512 0
2022-08-08 16:42:08 GMT 49.759460 -6.410378 33,000 276 512 0
2022-08-08 16:42:05 GMT 49.759460 -6.410378 33,000 276 512 0
2022-08-08 16:42:02 GMT 49.758663 -6.398200 33,000 276 512 0
2022-08-08 16:42:00 GMT 49.758057 -6.389069 33,000 276 512 0
2022-08-08 16:41:56 GMT 49.757126 -6.374520 33,000 276 512 0
2022-08-08 16:41:52 GMT 49.755638 -6.351657 33,000 276 512 0
2022-08-08 16:41:50 GMT 49.755638 -6.351657 33,000 276 512 0
2022-08-08 16:41:46 GMT 49.754707 -6.337478 33,000 276 512 0
2022-08-08 16:41:41 GMT 49.753357 -6.317139 33,000 276 512 0
2022-08-08 16:41:36 GMT 49.752331 -6.301847 33,000 276 511 0
2022-08-08 16:41:32 GMT 49.750946 -6.280999 33,000 276 511 0
2022-08-08 16:41:28 GMT 49.750443 -6.273772 33,000 276 511 0
2022-08-08 16:41:25 GMT 49.749771 -6.263766 33,000 276 511 0
2022-08-08 16:41:21 GMT 49.748749 -6.248691 33,000 276 511 0
2022-08-08 16:41:18 GMT 49.747910 -6.235855 33,000 276 511 64
2022-08-08 16:41:15 GMT 49.747330 -6.227297 33,000 276 511 0
2022-08-08 16:41:12 GMT 49.746323 -6.212479 33,000 276 511 0
2022-08-08 16:41:08 GMT 49.745499 -6.200481 33,000 276 510 0
2022-08-08 16:41:05 GMT 49.744884 -6.190870 33,000 276 510 0
2022-08-08 16:41:03 GMT 49.744263 -6.181617 33,000 277 510 0
2022-08-08 16:40:59 GMT 49.743301 -6.167522 33,000 277 510 0
2022-08-08 16:40:56 GMT 49.742432 -6.154873 33,000 277 510 0
2022-08-08 16:40:52 GMT 49.741699 -6.144032 33,000 277 510 0
2022-08-08 16:40:49 GMT 49.740829 -6.131672 33,000 276 510 0
2022-08-08 16:40:46 GMT 49.739960 -6.118301 33,000 276 510 0
2022-08-08 16:40:43 GMT 49.739273 -6.108543 33,000 276 510 0
2022-08-08 16:40:40 GMT 49.738552 -6.097486 33,000 276 510 0
2022-08-08 16:40:38 GMT 49.738129 -6.091124 33,000 276 510 64
2022-08-08 16:40:35 GMT 49.737480 -6.081972 33,000 277 510 64
2022-08-08 16:40:32 GMT 49.736710 -6.070525 33,000 277 510 0
2022-08-08 16:40:28 GMT 49.735851 -6.057698 33,000 276 510 0
2022-08-08 16:40:25 GMT 49.735016 -6.045450 33,000 277 510 0
2022-08-08 16:40:22 GMT 49.734146 -6.033301 33,000 277 510 0
2022-08-08 16:40:18 GMT 49.732498 -6.008853 33,000 276 510 0
2022-08-08 16:40:15 GMT 49.732498 -6.008853 33,000 276 510 0
2022-08-08 16:40:12 GMT 49.731766 -5.998246 33,000 277 509 64
2022-08-08 16:40:09 GMT 49.731125 -5.988850 33,000 277 509 0
2022-08-08 16:40:07 GMT 49.730576 -5.981261 33,000 277 509 0
2022-08-08 16:40:04 GMT 49.729755 -5.969139 33,000 277 509 0
2022-08-08 16:40:01 GMT 49.728077 -5.945311 33,000 277 509 0
2022-08-08 16:39:58 GMT 49.727234 -5.933195 33,000 277 509 0
2022-08-08 16:39:55 GMT 49.727234 -5.933195 33,000 277 509 0
2022-08-08 16:39:52 GMT 49.726727 -5.926159 33,000 277 509 0
2022-08-08 16:39:48 GMT 49.724945 -5.900742 33,000 277 509 -64
2022-08-08 16:39:45 GMT 49.724030 -5.887009 33,000 277 509 0
2022-08-08 16:39:41 GMT 49.724030 -5.887009 33,000 277 509 0
2022-08-08 16:39:38 GMT 49.722401 -5.863730 33,000 277 509 -64
2022-08-08 16:39:35 GMT 49.722401 -5.863730 33,000 277 509 0
2022-08-08 16:39:32 GMT 49.721741 -5.854556 33,000 277 508 0
2022-08-08 16:39:29 GMT 49.720398 -5.835967 33,000 277 508 0
2022-08-08 16:39:24 GMT 49.719700 -5.825872 33,000 277 508 0
2022-08-08 16:39:21 GMT 49.718815 -5.812881 33,000 277 508 0
2022-08-08 16:39:17 GMT 49.717850 -5.799769 33,000 277 508 0
2022-08-08 16:39:14 GMT 49.717186 -5.789795 33,000 277 508 0
2022-08-08 16:39:11 GMT 49.715324 -5.763517 33,000 277 509 0
2022-08-08 16:39:07 GMT 49.715324 -5.763517 33,000 277 509 0
2022-08-08 16:39:05 GMT 49.714622 -5.754164 33,000 277 509 0
2022-08-08 16:39:01 GMT 49.713867 -5.743175 33,000 277 509 0
2022-08-08 16:38:58 GMT 49.712063 -5.718087 33,000 277 509 0
2022-08-08 16:38:55 GMT 49.712063 -5.718087 33,000 277 509 0
2022-08-08 16:38:52 GMT 49.711273 -5.707323 33,000 277 509 0
2022-08-08 16:38:47 GMT 49.709885 -5.687665 33,000 277 509 0
2022-08-08 16:38:44 GMT 49.709503 -5.682456 33,000 277 509 0
2022-08-08 16:38:42 GMT 49.708900 -5.673770 33,000 277 509 0
2022-08-08 16:38:37 GMT 49.706848 -5.645340 33,000 277 509 0
2022-08-08 16:38:31 GMT 49.706039 -5.634324 33,000 277 509 0
2022-08-08 16:38:27 GMT 49.704941 -5.618856 33,000 277 509 0
2022-08-08 16:38:24 GMT 49.704254 -5.609532 33,000 277 509 0
2022-08-08 16:38:21 GMT 49.703453 -5.598499 33,000 277 509 -64
2022-08-08 16:38:17 GMT 49.702286 -5.582500 33,000 277 508 0
2022-08-08 16:38:14 GMT 49.701553 -5.572454 33,000 277 508 0
2022-08-08 16:38:11 GMT 49.700752 -5.561086 33,000 277 508 0
2022-08-08 16:38:07 GMT 49.699631 -5.546144 33,000 277 508 0
2022-08-08 16:38:04 GMT 49.698990 -5.537543 33,000 277 508 0
2022-08-08 16:38:01 GMT 49.696980 -5.510386 33,000 277 508 0
2022-08-08 16:37:57 GMT 49.696980 -5.510386 33,025 277 507 0
2022-08-08 16:37:54 GMT 49.696377 -5.501775 33,025 277 508 0
2022-08-08 16:37:51 GMT 49.694595 -5.477552 33,000 277 507 0
2022-08-08 16:37:48 GMT 49.694595 -5.477552 33,000 277 507 -64
2022-08-08 16:37:46 GMT 49.694096 -5.470894 33,000 277 507 -64
2022-08-08 16:37:43 GMT 49.693443 -5.461987 33,000 277 507 0
2022-08-08 16:37:41 GMT 49.692810 -5.453483 33,000 277 507 64
2022-08-08 16:37:37 GMT 49.690933 -5.428041 33,000 277 507 0
2022-08-08 16:37:34 GMT 49.690933 -5.428041 33,000 277 507 0
2022-08-08 16:37:31 GMT 49.690247 -5.418356 33,000 277 507 -64
2022-08-08 16:37:26 GMT 49.689011 -5.401876 33,000 277 507 0
2022-08-08 16:37:24 GMT 49.688320 -5.392728 33,000 277 507 0
2022-08-08 16:37:21 GMT 49.687500 -5.381422 33,000 277 507 0
2022-08-08 16:37:16 GMT 49.686459 -5.368009 33,000 277 507 64
2022-08-08 16:37:14 GMT 49.685017 -5.347892 33,000 277 506 0
2022-08-08 16:37:12 GMT 49.685017 -5.347892 33,000 277 506 0
2022-08-08 16:37:10 GMT 49.684708 -5.344198 32,975 277 506 0
2022-08-08 16:37:07 GMT 49.682877 -5.319610 33,000 277 506 0
2022-08-08 16:37:04 GMT 49.682877 -5.319610 33,000 277 506 0
2022-08-08 16:37:02 GMT 49.682365 -5.312855 33,000 277 506 0
2022-08-08 16:36:56 GMT 49.680862 -5.292953 33,000 277 506 0
2022-08-08 16:36:53 GMT 49.680035 -5.282048 33,000 277 506 0
2022-08-08 16:36:51 GMT 49.679398 -5.273654 33,000 277 506 -64
2022-08-08 16:36:46 GMT 49.678116 -5.257175 33,000 277 506 0
2022-08-08 16:36:43 GMT 49.676498 -5.235505 33,000 277 505 0
2022-08-08 16:36:40 GMT 49.676498 -5.235505 33,000 277 506 -64
2022-08-08 16:36:36 GMT 49.675568 -5.223405 33,000 277 506 64
2022-08-08 16:36:34 GMT 49.674820 -5.213157 33,000 277 506 0
2022-08-08 16:36:31 GMT 49.673798 -5.200171 33,000 277 506 0
2022-08-08 16:36:27 GMT 49.672958 -5.189036 33,000 277 505 0
2022-08-08 16:36:24 GMT 49.671936 -5.175451 33,000 277 505 0
2022-08-08 16:36:20 GMT 49.671051 -5.164020 33,000 277 505 0
2022-08-08 16:36:16 GMT 49.669933 -5.149396 33,000 277 505 0
2022-08-08 16:36:13 GMT 49.669098 -5.138494 33,000 277 505 64
2022-08-08 16:36:10 GMT 49.668446 -5.129724 33,000 277 505 0
2022-08-08 16:36:06 GMT 49.667141 -5.112577 33,000 277 505 0
2022-08-08 16:36:03 GMT 49.666580 -5.105318 33,000 277 505 0
2022-08-08 16:36:00 GMT 49.665604 -5.092608 33,000 277 503 0
2022-08-08 16:35:56 GMT 49.664291 -5.076045 33,000 277 504 0
2022-08-08 16:35:53 GMT 49.663605 -5.066793 33,000 277 504 64
2022-08-08 16:35:50 GMT 49.662907 -5.057719 33,000 277 504 0
2022-08-08 16:35:46 GMT 49.660995 -5.033520 33,000 277 504 -64
2022-08-08 16:35:43 GMT 49.660995 -5.033520 33,000 277 503 -64
2022-08-08 16:35:41 GMT 49.660400 -5.025811 33,000 277 503 0
2022-08-08 16:35:39 GMT 49.659695 -5.016743 33,000 277 503 0
2022-08-08 16:35:36 GMT 49.659073 -5.008392 33,000 277 503 0
2022-08-08 16:35:33 GMT 49.658112 -4.996478 33,000 278 501 0
2022-08-08 16:35:30 GMT 49.657242 -4.984902 33,000 277 503 0
2022-08-08 16:35:26 GMT 49.656281 -4.972831 33,000 277 503 0
2022-08-08 16:35:23 GMT 49.655411 -4.961292 33,000 277 503 0
2022-08-08 16:35:21 GMT 49.654861 -4.954400 33,000 277 503 0
2022-08-08 16:35:19 GMT 49.654404 -4.948690 33,000 277 503 0
2022-08-08 16:35:16 GMT 49.653454 -4.936424 33,000 277 503 0
2022-08-08 16:35:13 GMT 49.652573 -4.925200 33,000 277 502 0
2022-08-08 16:35:10 GMT 49.651688 -4.914006 33,000 277 503 0
2022-08-08 16:35:06 GMT 49.649780 -4.890072 33,000 277 503 0
2022-08-08 16:35:03 GMT 49.649780 -4.890072 33,000 277 502 0
2022-08-08 16:35:00 GMT 49.648590 -4.874749 33,000 277 503 0
2022-08-08 16:34:55 GMT 49.647583 -4.862028 33,000 277 503 0
2022-08-08 16:34:53 GMT 49.646896 -4.853066 33,000 277 503 0
2022-08-08 16:34:51 GMT 49.646473 -4.847940 33,000 277 503 0
2022-08-08 16:34:48 GMT 49.645340 -4.833551 33,000 277 503 0
2022-08-08 16:34:45 GMT 49.644794 -4.826635 33,000 277 503 0
2022-08-08 16:34:43 GMT 49.644150 -4.818300 33,000 277 502 0
2022-08-08 16:34:41 GMT 49.643120 -4.805331 33,000 277 503 0
2022-08-08 16:34:35 GMT 49.641266 -4.782088 33,000 277 502 0
2022-08-08 16:34:33 GMT 49.641266 -4.782088 33,000 277 502 0
2022-08-08 16:34:31 GMT 49.640884 -4.776900 33,000 277 502 0
2022-08-08 16:34:29 GMT 49.640350 -4.770018 33,000 277 502 0
2022-08-08 16:34:26 GMT 49.639114 -4.754767 33,000 277 502 0
2022-08-08 16:34:23 GMT 49.638512 -4.747133 33,000 277 502 0
2022-08-08 16:34:21 GMT 49.637924 -4.739878 33,000 278 501 0
2022-08-08 16:34:19 GMT 49.637512 -4.734529 33,000 278 501 0
2022-08-08 16:34:16 GMT 49.635624 -4.711353 33,000 278 501 0
2022-08-08 16:34:13 GMT 49.635624 -4.711353 33,000 278 501 0
2022-08-08 16:34:11 GMT 49.635021 -4.703930 33,000 278 501 0
2022-08-08 16:34:08 GMT 49.634308 -4.694921 33,000 278 501 0
2022-08-08 16:34:05 GMT 49.633438 -4.684296 33,000 278 501 0
2022-08-08 16:34:03 GMT 49.632690 -4.675276 33,000 278 501 0
2022-08-08 16:34:00 GMT 49.632133 -4.668521 33,000 277 501 0
2022-08-08 16:33:58 GMT 49.631481 -4.660430 33,000 277 501 0
2022-08-08 16:33:55 GMT 49.630463 -4.647434 33,000 277 501 0
2022-08-08 16:33:52 GMT 49.629868 -4.640061 33,000 277 501 0
2022-08-08 16:33:50 GMT 49.629318 -4.632978 33,000 277 501 0
2022-08-08 16:33:48 GMT 49.628643 -4.624279 33,000 278 501 0
2022-08-08 16:33:45 GMT 49.627441 -4.609271 33,000 278 501 0
2022-08-08 16:33:42 GMT 49.626968 -4.603791 33,000 278 501 0
2022-08-08 16:33:40 GMT 49.626175 -4.593844 33,000 278 501 0
2022-08-08 16:33:37 GMT 49.624695 -4.576022 33,000 278 500 0
2022-08-08 16:33:34 GMT 49.624695 -4.576022 33,000 278 500 0
2022-08-08 16:33:32 GMT 49.624100 -4.568578 33,000 278 501 0
2022-08-08 16:33:30 GMT 49.623383 -4.559920 33,000 278 500 0
2022-08-08 16:33:27 GMT 49.622543 -4.549858 33,000 278 500 0
2022-08-08 16:33:25 GMT 49.621986 -4.542995 33,000 278 501 0
2022-08-08 16:33:23 GMT 49.620300 -4.522970 33,000 278 501 0
2022-08-08 16:33:20 GMT 49.620300 -4.522970 33,000 278 501 0
2022-08-08 16:33:17 GMT 49.619377 -4.511521 33,000 278 501 0
2022-08-08 16:33:14 GMT 49.618652 -4.502804 33,000 278 501 0
2022-08-08 16:33:11 GMT 49.617611 -4.490290 33,000 278 501 0
2022-08-08 16:33:08 GMT 49.616867 -4.481627 33,000 278 501 0
2022-08-08 16:33:04 GMT 49.614853 -4.457197 33,000 278 501 0
2022-08-08 16:33:01 GMT 49.614853 -4.457197 33,000 278 501 0
2022-08-08 16:32:58 GMT 49.614075 -4.447656 33,000 278 500 0
2022-08-08 16:32:54 GMT 49.612747 -4.431755 33,000 278 500 0
2022-08-08 16:32:51 GMT 49.611969 -4.422214 33,000 278 501 0
2022-08-08 16:32:49 GMT 49.610023 -4.398762 33,000 278 501 0
2022-08-08 16:32:44 GMT 49.610023 -4.398762 33,000 278 501 0
2022-08-08 16:32:42 GMT 49.609314 -4.390411 33,000 278 501 0
2022-08-08 16:32:39 GMT 49.608536 -4.381232 33,000 278 501 0
2022-08-08 16:32:37 GMT 49.606808 -4.360236 33,000 278 501 0
2022-08-08 16:32:34 GMT 49.606808 -4.360236 33,000 278 501 0
2022-08-08 16:32:31 GMT 49.606064 -4.351236 33,000 278 501 0
2022-08-08 16:32:28 GMT 49.603970 -4.326312 33,000 278 501 0
2022-08-08 16:32:24 GMT 49.602993 -4.314658 33,000 278 501 0
2022-08-08 16:32:21 GMT 49.602993 -4.314658 33,000 278 501 0
2022-08-08 16:32:19 GMT 49.602676 -4.310977 33,000 278 501 0
2022-08-08 16:32:17 GMT 49.601036 -4.291349 33,000 278 501 0
2022-08-08 16:32:14 GMT 49.601036 -4.291349 33,000 278 501 0
2022-08-08 16:32:12 GMT 49.600388 -4.284162 33,000 278 501 0
2022-08-08 16:32:09 GMT 49.599609 -4.274621 33,000 278 502 0
2022-08-08 16:32:06 GMT 49.598801 -4.265293 33,000 278 501 0
2022-08-08 16:32:03 GMT 49.597637 -4.251857 33,000 278 501 0
2022-08-08 16:32:01 GMT 49.597046 -4.244987 33,000 278 501 0
2022-08-08 16:31:57 GMT 49.596008 -4.232409 33,000 278 501 0
2022-08-08 16:31:54 GMT 49.594940 -4.220086 33,000 278 501 0
2022-08-08 16:31:51 GMT 49.593960 -4.208432 33,000 278 501 0
2022-08-08 16:31:47 GMT 49.592705 -4.193957 33,000 278 501 0
2022-08-08 16:31:44 GMT 49.590935 -4.172726 33,000 278 502 0
2022-08-08 16:31:41 GMT 49.590935 -4.172726 33,000 278 502 0
2022-08-08 16:31:38 GMT 49.589951 -4.161289 33,000 278 501 0
2022-08-08 16:31:35 GMT 49.589214 -4.152238 33,000 278 501 0
2022-08-08 16:31:32 GMT 49.588348 -4.142135 33,000 278 501 64
2022-08-08 16:31:30 GMT 49.588001 -4.138431 33,000 278 501 64
2022-08-08 16:31:28 GMT 49.587116 -4.128187 33,000 278 501 64
2022-08-08 16:31:25 GMT 49.586151 -4.117126 33,000 277 501 0
2022-08-08 16:31:22 GMT 49.584839 -4.101760 33,000 278 500 0
2022-08-08 16:31:18 GMT 49.583256 -4.082312 33,000 277 500 0
2022-08-08 16:31:15 GMT 49.583256 -4.082312 33,000 277 501 0
2022-08-08 16:31:12 GMT 49.582397 -4.071519 33,000 277 501 0
2022-08-08 16:31:10 GMT 49.582031 -4.066242 33,000 277 501 0
2022-08-08 16:31:08 GMT 49.581390 -4.058075 33,000 277 501 0
2022-08-08 16:31:05 GMT 49.579880 -4.036897 33,000 277 500 0
2022-08-08 16:31:02 GMT 49.579880 -4.036897 33,000 276 500 0
2022-08-08 16:30:59 GMT 49.579147 -4.026272 33,000 276 500 0
2022-08-08 16:30:57 GMT 49.577854 -4.005927 33,000 276 500 0
2022-08-08 16:30:54 GMT 49.577248 -3.996425 33,000 276 501 0
2022-08-08 16:30:51 GMT 49.577248 -3.996425 33,000 276 500 0
2022-08-08 16:30:48 GMT 49.576691 -3.987146 33,000 276 500 0
2022-08-08 16:30:45 GMT 49.575481 -3.964877 33,000 275 500 0
2022-08-08 16:30:42 GMT 49.574936 -3.954066 33,000 275 500 0
2022-08-08 16:30:39 GMT 49.574936 -3.954066 33,000 275 501 0
2022-08-08 16:30:35 GMT 49.574268 -3.940009 33,000 274 501 0
2022-08-08 16:30:31 GMT 49.573570 -3.924049 33,000 274 501 0
2022-08-08 16:30:27 GMT 49.573242 -3.916771 33,000 274 501 0
2022-08-08 16:30:25 GMT 49.572784 -3.906507 33,000 274 501 0
2022-08-08 16:30:22 GMT 49.572327 -3.895882 33,000 274 501 0
2022-08-08 16:30:18 GMT 49.571365 -3.872464 33,000 274 501 0
2022-08-08 16:30:16 GMT 49.571365 -3.872464 33,000 274 501 0
2022-08-08 16:30:13 GMT 49.570591 -3.855162 33,000 274 501 0
2022-08-08 16:30:11 GMT 49.570591 -3.855162 33,000 274 501 0
2022-08-08 16:30:08 GMT 49.570267 -3.846877 33,000 274 501 -64
2022-08-08 16:30:05 GMT 49.569763 -3.835530 33,000 274 503 0
2022-08-08 16:30:02 GMT 49.568573 -3.809509 33,000 274 502 0
2022-08-08 16:29:58 GMT 49.568573 -3.809509 33,000 274 502 0
2022-08-08 16:29:55 GMT 49.568024 -3.797439 33,000 274 503 0
2022-08-08 16:29:50 GMT 49.567242 -3.779816 33,000 274 502 0
2022-08-08 16:29:45 GMT 49.566402 -3.760219 33,000 274 503 0
2022-08-08 16:29:42 GMT 49.566029 -3.752054 33,000 274 503 0
2022-08-08 16:29:39 GMT 49.565659 -3.742404 33,000 274 503 0
2022-08-08 16:29:36 GMT 49.565140 -3.731593 33,000 274 503 0
2022-08-08 16:29:33 GMT 49.564682 -3.720896 33,000 274 503 0
2022-08-08 16:29:30 GMT 49.564224 -3.709837 33,000 274 503 0
2022-08-08 16:29:27 GMT 49.563812 -3.700586 33,000 274 503 0
2022-08-08 16:29:24 GMT 49.563263 -3.688804 33,000 274 503 0
2022-08-08 16:29:20 GMT 49.562531 -3.672831 33,000 274 503 0
2022-08-08 16:29:18 GMT 49.562302 -3.667121 33,000 275 503 0
2022-08-08 16:29:15 GMT 49.561794 -3.656220 33,000 275 503 0
2022-08-08 16:29:12 GMT 49.561234 -3.644120 33,000 275 503 0
2022-08-08 16:29:09 GMT 49.560837 -3.635390 33,000 274 503 0
2022-08-08 16:29:05 GMT 49.560211 -3.622445 33,000 274 503 0
2022-08-08 16:29:02 GMT 49.559605 -3.608563 33,000 274 502 0
2022-08-08 16:28:59 GMT 49.559143 -3.598384 33,000 274 502 0
2022-08-08 16:28:56 GMT 49.558769 -3.590005 33,000 274 502 0
2022-08-08 16:28:54 GMT 49.558411 -3.582772 33,000 274 502 0
2022-08-08 16:28:51 GMT 49.558022 -3.574046 33,000 274 502 0
2022-08-08 16:28:48 GMT 49.557541 -3.562823 33,000 275 502 0
2022-08-08 16:28:45 GMT 49.556900 -3.549668 33,000 275 501 0
2022-08-08 16:28:42 GMT 49.556351 -3.537959 33,000 275 502 0
2022-08-08 16:28:39 GMT 49.555508 -3.520005 33,000 275 502 0
2022-08-08 16:28:37 GMT 49.555508 -3.520005 33,000 275 502 0
2022-08-08 16:28:34 GMT 49.555092 -3.510429 33,000 275 501 0
2022-08-08 16:28:31 GMT 49.554672 -3.501150 33,000 275 501 0
2022-08-08 16:28:27 GMT 49.553787 -3.482160 33,000 275 501 0
2022-08-08 16:28:24 GMT 49.553558 -3.476811 33,000 275 501 0
2022-08-08 16:28:21 GMT 49.552414 -3.452020 33,000 275 501 0
2022-08-08 16:28:18 GMT 49.552414 -3.452020 33,000 275 501 0
2022-08-08 16:28:15 GMT 49.551956 -3.442768 33,000 275 501 0
2022-08-08 16:28:12 GMT 49.551453 -3.432143 33,000 275 501 0
2022-08-08 16:28:10 GMT 49.551182 -3.426621 33,000 275 501 0
2022-08-08 16:28:07 GMT 49.550667 -3.416006 33,000 275 501 0
2022-08-08 16:28:04 GMT 49.550110 -3.404277 33,000 275 501 0
2022-08-08 16:28:00 GMT 49.549458 -3.390470 33,000 275 501 0
2022-08-08 16:27:57 GMT 49.548897 -3.379112 33,000 275 501 0
2022-08-08 16:27:55 GMT 49.548660 -3.373598 33,000 275 501 0
2022-08-08 16:27:52 GMT 49.548061 -3.361000 33,000 275 500 0
2022-08-08 16:27:49 GMT 49.547642 -3.351795 33,000 275 500 0
2022-08-08 16:27:47 GMT 49.547222 -3.343258 33,000 275 500 0
2022-08-08 16:27:44 GMT 49.546280 -3.323653 33,000 275 500 0
2022-08-08 16:27:41 GMT 49.545914 -3.316209 33,000 275 500 0
2022-08-08 16:27:39 GMT 49.545593 -3.309260 33,000 275 500 0
2022-08-08 16:27:37 GMT 49.545593 -3.309260 33,000 275 500 0
2022-08-08 16:27:34 GMT 49.545036 -3.297606 33,000 275 500 0
2022-08-08 16:27:31 GMT 49.544449 -3.286430 33,000 275 500 0
2022-08-08 16:27:28 GMT 49.544106 -3.279196 33,000 275 500 0
2022-08-08 16:27:26 GMT 49.543671 -3.270529 33,000 275 500 0
2022-08-08 16:27:24 GMT 49.542801 -3.252324 33,000 275 499 0
2022-08-08 16:27:21 GMT 49.542801 -3.252324 33,000 275 499 0
2022-08-08 16:27:18 GMT 49.542290 -3.241338 33,000 275 499 0
2022-08-08 16:27:16 GMT 49.542023 -3.236196 33,000 275 499 0
2022-08-08 16:27:13 GMT 49.541428 -3.224198 33,000 275 499 0
2022-08-08 16:27:10 GMT 49.540375 -3.202298 33,000 275 499 0
2022-08-08 16:27:07 GMT 49.540375 -3.202298 33,000 275 499 0
2022-08-08 16:27:04 GMT 49.539871 -3.192396 33,000 275 499 0
2022-08-08 16:27:01 GMT 49.539261 -3.180171 33,000 275 499 0
2022-08-08 16:26:58 GMT 49.538795 -3.171337 33,000 275 499 0
2022-08-08 16:26:56 GMT 49.538425 -3.163914 33,000 275 499 0
2022-08-08 16:26:53 GMT 49.537819 -3.151888 33,000 275 499 0
2022-08-08 16:26:50 GMT 49.537399 -3.143426 33,000 275 499 0
2022-08-08 16:26:48 GMT 49.536987 -3.135079 33,000 275 499 0
2022-08-08 16:26:46 GMT 49.536610 -3.127837 33,000 275 499 0
2022-08-08 16:26:43 GMT 49.536098 -3.117222 33,000 275 499 0
2022-08-08 16:26:40 GMT 49.535751 -3.109637 33,000 275 499 0
2022-08-08 16:26:37 GMT 49.534931 -3.092800 33,000 275 499 0
2022-08-08 16:26:33 GMT 49.533909 -3.072683 33,000 275 499 0
2022-08-08 16:26:30 GMT 49.533371 -3.061572 33,000 275 499 0
2022-08-08 16:26:28 GMT 49.533371 -3.061572 33,000 275 499 0
2022-08-08 16:26:25 GMT 49.533051 -3.055934 33,000 275 499 0
2022-08-08 16:26:22 GMT 49.532410 -3.043141 33,000 275 499 0
2022-08-08 16:26:19 GMT 49.531906 -3.032949 33,000 275 499 0
2022-08-08 16:26:16 GMT 49.531174 -3.018783 33,000 275 499 0
2022-08-08 16:26:13 GMT 49.530743 -3.010180 33,000 275 498 0
2022-08-08 16:26:10 GMT 49.530258 -3.001147 33,000 275 498 0
2022-08-08 16:26:07 GMT 49.529160 -2.979608 33,000 275 498 0
2022-08-08 16:26:04 GMT 49.529160 -2.979608 33,000 275 498 0
2022-08-08 16:26:01 GMT 49.528656 -2.969417 33,000 275 498 0
2022-08-08 16:25:58 GMT 49.528091 -2.958663 33,000 275 498 0
2022-08-08 16:25:56 GMT 49.527557 -2.948239 33,000 275 498 0
2022-08-08 16:25:53 GMT 49.526646 -2.930751 33,000 275 498 0
2022-08-08 16:25:50 GMT 49.526646 -2.930751 33,000 275 498 0
2022-08-08 16:25:47 GMT 49.526184 -2.921785 33,000 275 498 0
2022-08-08 16:25:45 GMT 49.525818 -2.914413 33,000 275 498 0
2022-08-08 16:25:43 GMT 49.524738 -2.893413 33,000 275 498 0
2022-08-08 16:25:40 GMT 49.524738 -2.893413 33,000 275 498 0
2022-08-08 16:25:38 GMT 49.524536 -2.889693 33,000 275 498 0
2022-08-08 16:25:35 GMT 49.524033 -2.879141 33,000 275 498 0
2022-08-08 16:25:32 GMT 49.523071 -2.860782 33,000 275 498 0
2022-08-08 16:25:30 GMT 49.523071 -2.860782 33,000 275 498 0
2022-08-08 16:25:27 GMT 49.522476 -2.848784 33,000 275 498 0
2022-08-08 16:25:24 GMT 49.521744 -2.835051 33,000 275 498 0
2022-08-08 16:25:21 GMT 49.521469 -2.829775 33,000 275 498 0
2022-08-08 16:25:19 GMT 49.520920 -2.819222 33,000 275 498 0
2022-08-08 16:25:16 GMT 49.519711 -2.797208 33,000 275 498 0
2022-08-08 16:25:13 GMT 49.519318 -2.789949 33,000 275 498 0
2022-08-08 16:25:10 GMT 49.519318 -2.789949 33,000 275 498 0
2022-08-08 16:25:07 GMT 49.518684 -2.778205 33,000 275 498 0
2022-08-08 16:25:04 GMT 49.518173 -2.767760 33,000 275 498 0
2022-08-08 16:25:01 GMT 49.517670 -2.758653 33,000 275 498 0
2022-08-08 16:24:58 GMT 49.517151 -2.747844 33,000 275 498 0
2022-08-08 16:24:55 GMT 49.516617 -2.737836 33,000 275 498 0
2022-08-08 16:24:53 GMT 49.516220 -2.730622 33,000 275 498 0
2022-08-08 16:24:50 GMT 49.514923 -2.705817 33,000 275 498 0
2022-08-08 16:24:47 GMT 49.514923 -2.705817 33,000 275 498 0
2022-08-08 16:24:44 GMT 49.514465 -2.697360 33,000 275 498 0
2022-08-08 16:24:41 GMT 49.513916 -2.687820 33,000 275 498 0
2022-08-08 16:24:38 GMT 49.513474 -2.678882 33,000 275 498 0
2022-08-08 16:24:36 GMT 49.513046 -2.671629 33,000 275 498 0
2022-08-08 16:24:33 GMT 49.512306 -2.657058 33,000 275 498 0
2022-08-08 16:24:30 GMT 49.511284 -2.638352 33,000 275 498 0
2022-08-08 16:24:27 GMT 49.510666 -2.627250 33,000 275 498 0
2022-08-08 16:24:24 GMT 49.510666 -2.627250 33,000 275 498 0
2022-08-08 16:24:22 GMT 49.510300 -2.620239 33,000 275 498 0
2022-08-08 16:24:20 GMT 49.509888 -2.612965 33,000 275 498 0
2022-08-08 16:24:18 GMT 49.509609 -2.607397 33,000 275 498 0
2022-08-08 16:24:16 GMT 49.509247 -2.601519 33,000 275 498 0
2022-08-08 16:24:14 GMT 49.508678 -2.590769 33,000 275 498 0
2022-08-08 16:24:12 GMT 49.508305 -2.584088 33,000 275 498 0
2022-08-08 16:24:10 GMT 49.507416 -2.568054 33,000 275 498 0
2022-08-08 16:24:07 GMT 49.507416 -2.568054 33,000 275 498 0
2022-08-08 16:24:05 GMT 49.507050 -2.561043 33,000 275 498 0
2022-08-08 16:24:03 GMT 49.506546 -2.552225 33,000 275 498 0
2022-08-08 16:24:00 GMT 49.505997 -2.541962 33,000 275 498 0
2022-08-08 16:23:57 GMT 49.505630 -2.534589 33,000 275 498 0
2022-08-08 16:23:55 GMT 49.504761 -2.518688 33,000 275 498 0
2022-08-08 16:23:51 GMT 49.504349 -2.511489 33,000 275 499 0
2022-08-08 16:23:47 GMT 49.502998 -2.487513 33,000 275 499 0
2022-08-08 16:23:44 GMT 49.502998 -2.487513 33,000 275 499 0
2022-08-08 16:23:41 GMT 49.501694 -2.464204 33,000 275 499 0
2022-08-08 16:23:38 GMT 49.501328 -2.458046 33,000 275 499 0
2022-08-08 16:23:36 GMT 49.500763 -2.447279 33,000 275 500 0
2022-08-08 16:23:33 GMT 49.500206 -2.437332 33,000 275 500 0
2022-08-08 16:23:30 GMT 49.500206 -2.437332 33,000 275 500 0
2022-08-08 16:23:27 GMT 49.499725 -2.428340 33,000 275 500 0
2022-08-08 16:23:25 GMT 49.499226 -2.419293 33,000 275 500 0
2022-08-08 16:23:22 GMT 49.498718 -2.410343 33,000 275 500 0
2022-08-08 16:23:19 GMT 49.497364 -2.386409 33,000 275 500 0
2022-08-08 16:23:16 GMT 49.496853 -2.377204 33,000 276 500 0
2022-08-08 16:23:11 GMT 49.496246 -2.366589 33,000 276 501 0
2022-08-08 16:23:08 GMT 49.495876 -2.360650 33,000 276 501 0
2022-08-08 16:23:05 GMT 49.495178 -2.348253 33,000 276 501 0
2022-08-08 16:23:01 GMT 49.494431 -2.335486 33,000 276 501 0
2022-08-08 16:22:58 GMT 49.493641 -2.321678 33,000 276 501 0
2022-08-08 16:22:55 GMT 49.493034 -2.311434 33,000 276 501 0
2022-08-08 16:22:53 GMT 49.492710 -2.305718 33,000 276 501 0
2022-08-08 16:22:51 GMT 49.492290 -2.298295 33,000 276 501 0
2022-08-08 16:22:49 GMT 49.491920 -2.291243 33,000 276 501 0
2022-08-08 16:22:47 GMT 49.491623 -2.286457 33,000 276 501 0
2022-08-08 16:22:44 GMT 49.491028 -2.276194 33,000 276 501 0
2022-08-08 16:22:42 GMT 49.490067 -2.259497 33,000 276 502 0
2022-08-08 16:22:40 GMT 49.490067 -2.259497 33,000 276 502 0
2022-08-08 16:22:37 GMT 49.489471 -2.249234 33,000 276 502 0
2022-08-08 16:22:35 GMT 49.489014 -2.241066 33,000 276 502 0
2022-08-08 16:22:33 GMT 49.488613 -2.234530 33,000 276 503 0
2022-08-08 16:22:31 GMT 49.488281 -2.228996 33,000 276 502 0
2022-08-08 16:22:29 GMT 49.487869 -2.221688 33,000 276 502 0
2022-08-08 16:22:26 GMT 49.487137 -2.209119 33,000 276 502 0
2022-08-08 16:22:24 GMT 49.486286 -2.194371 33,000 276 502 0
2022-08-08 16:22:21 GMT 49.486286 -2.194371 33,000 276 502 0
2022-08-08 16:22:19 GMT 49.485718 -2.184617 33,000 276 502 0
2022-08-08 16:22:15 GMT 49.485123 -2.173437 33,000 276 502 0
2022-08-08 16:22:13 GMT 49.484619 -2.164740 33,000 276 503 0
2022-08-08 16:22:10 GMT 49.484070 -2.155127 33,000 276 504 0
2022-08-08 16:22:07 GMT 49.483383 -2.143780 33,000 276 504 0
2022-08-08 16:22:04 GMT 49.482651 -2.131275 33,000 276 504 0
2022-08-08 16:22:02 GMT 49.482235 -2.124370 33,000 276 504 0
2022-08-08 16:21:59 GMT 49.481506 -2.112122 33,000 276 506 0
2022-08-08 16:21:56 GMT 49.481071 -2.104773 33,000 276 504 0
2022-08-08 16:21:53 GMT 49.479816 -2.083468 33,000 276 505 0
2022-08-08 16:21:51 GMT 49.479172 -2.072585 33,000 276 505 0
2022-08-08 16:21:47 GMT 49.478325 -2.058526 33,000 276 505 0
2022-08-08 16:21:44 GMT 49.478325 -2.058526 33,000 276 505 0
2022-08-08 16:21:41 GMT 49.477844 -2.049745 33,000 276 505 0
2022-08-08 16:21:39 GMT 49.477295 -2.040855 33,000 276 506 0
2022-08-08 16:21:35 GMT 49.476185 -2.021410 33,000 276 506 0
2022-08-08 16:21:30 GMT 49.475624 -2.012131 33,000 276 506 0
2022-08-08 16:21:28 GMT 49.475143 -2.004427 33,000 276 506 0
2022-08-08 16:21:25 GMT 49.474274 -1.990010 33,000 276 506 0
2022-08-08 16:21:22 GMT 49.473907 -1.983755 33,000 276 506 0
2022-08-08 16:21:20 GMT 49.473450 -1.976238 33,000 276 506 0
2022-08-08 16:21:18 GMT 49.472992 -1.968721 33,000 276 506 0
2022-08-08 16:21:15 GMT 49.472225 -1.956086 33,000 276 506 0
2022-08-08 16:21:13 GMT 49.471901 -1.950370 33,000 276 506 0
2022-08-08 16:21:10 GMT 49.471203 -1.938567 33,000 276 506 0
2022-08-08 16:21:07 GMT 49.470551 -1.928249 33,000 276 506 0
2022-08-08 16:21:04 GMT 49.469879 -1.916970 33,000 276 506 0
2022-08-08 16:21:02 GMT 49.469574 -1.911770 33,000 276 506 0
2022-08-08 16:21:00 GMT 49.469101 -1.904104 33,000 276 506 0
2022-08-08 16:20:57 GMT 49.468597 -1.895575 33,000 276 506 0
2022-08-08 16:20:54 GMT 49.467682 -1.880614 33,000 276 506 0
2022-08-08 16:20:52 GMT 49.467361 -1.875193 33,000 276 506 0
2022-08-08 16:20:50 GMT 49.466969 -1.868567 33,000 276 506 0
2022-08-08 16:20:48 GMT 49.466549 -1.861440 33,000 276 506 0
2022-08-08 16:20:45 GMT 49.465431 -1.843253 33,000 276 506 0
2022-08-08 16:20:43 GMT 49.465431 -1.843253 33,000 276 506 0
2022-08-08 16:20:40 GMT 49.464523 -1.827706 33,000 276 506 0
2022-08-08 16:20:37 GMT 49.463985 -1.818980 33,000 276 506 0
2022-08-08 16:20:34 GMT 49.463055 -1.803985 33,000 276 506 0
2022-08-08 16:20:32 GMT 49.462555 -1.795253 33,000 276 506 0
2022-08-08 16:20:30 GMT 49.462555 -1.795253 33,000 276 506 0
2022-08-08 16:20:28 GMT 49.462097 -1.788459 33,000 276 506 0
2022-08-08 16:20:24 GMT 49.461411 -1.777039 33,000 276 506 0
2022-08-08 16:20:22 GMT 49.460815 -1.767787 33,000 276 505 0
2022-08-08 16:20:20 GMT 49.459900 -1.753548 33,000 276 505 0
2022-08-08 16:20:18 GMT 49.459900 -1.753548 33,000 276 505 0
2022-08-08 16:20:16 GMT 49.459534 -1.747838 33,000 276 505 0
2022-08-08 16:20:13 GMT 49.458984 -1.738514 33,000 276 505 0
2022-08-08 16:20:11 GMT 49.458344 -1.728901 33,000 276 505 0
2022-08-08 16:20:09 GMT 49.458023 -1.723191 33,000 276 505 0
2022-08-08 16:20:07 GMT 49.457520 -1.715746 33,000 276 505 0
2022-08-08 16:20:04 GMT 49.456631 -1.701248 33,000 276 505 0
2022-08-08 16:20:02 GMT 49.456306 -1.695606 33,000 276 505 0
2022-08-08 16:19:59 GMT 49.455780 -1.687558 33,000 276 505 0
2022-08-08 16:19:56 GMT 49.455143 -1.677419 33,000 276 505 0
2022-08-08 16:19:53 GMT 49.454269 -1.663345 33,000 276 505 0
2022-08-08 16:19:51 GMT 49.454071 -1.659975 33,000 276 505 0
2022-08-08 16:19:49 GMT 49.453140 -1.645351 33,000 276 505 0
2022-08-08 16:19:47 GMT 49.453140 -1.645351 33,000 276 505 0
2022-08-08 16:19:45 GMT 49.452629 -1.636443 33,000 276 505 0
2022-08-08 16:19:43 GMT 49.452072 -1.627711 33,000 276 505 0
2022-08-08 16:19:41 GMT 49.451706 -1.622001 33,000 276 505 0
2022-08-08 16:19:39 GMT 49.451370 -1.616549 33,000 276 505 0
2022-08-08 16:19:37 GMT 49.450024 -1.595170 33,000 276 504 0
2022-08-08 16:19:34 GMT 49.449738 -1.590343 33,000 276 505 0
2022-08-08 16:19:32 GMT 49.449051 -1.579646 33,000 276 504 0
2022-08-08 16:19:29 GMT 49.449051 -1.579646 33,000 276 505 0
2022-08-08 16:19:27 GMT 49.448578 -1.572752 33,000 276 504 0
2022-08-08 16:19:23 GMT 49.447632 -1.557963 33,000 276 504 0
2022-08-08 16:19:21 GMT 49.447174 -1.550879 33,000 276 505 0
2022-08-08 16:19:19 GMT 49.446064 -1.533929 33,000 276 504 0
2022-08-08 16:19:16 GMT 49.446064 -1.533929 33,000 276 505 0
2022-08-08 16:19:14 GMT 49.445599 -1.526135 33,000 276 504 0
2022-08-08 16:19:12 GMT 49.445087 -1.518637 33,000 276 504 0
2022-08-08 16:19:09 GMT 49.444389 -1.507280 33,000 276 504 0
2022-08-08 16:19:06 GMT 49.443970 -1.500450 33,000 276 504 0
2022-08-08 16:19:03 GMT 49.442963 -1.484672 33,000 276 504 0
2022-08-08 16:19:01 GMT 49.442619 -1.479517 33,000 276 504 0
2022-08-08 16:18:58 GMT 49.442093 -1.470795 33,000 276 504 0
2022-08-08 16:18:55 GMT 49.441498 -1.461543 33,000 276 503 0
2022-08-08 16:18:53 GMT 49.440811 -1.450846 33,000 276 504 0
2022-08-08 16:18:51 GMT 49.440308 -1.443401 33,000 276 504 0
2022-08-08 16:18:49 GMT 49.439827 -1.436165 33,000 276 504 0
2022-08-08 16:18:45 GMT 49.438988 -1.423323 33,000 276 504 0
2022-08-08 16:18:43 GMT 49.438431 -1.414861 33,000 276 503 0
2022-08-08 16:18:40 GMT 49.437870 -1.405953 33,000 276 503 0
2022-08-08 16:18:38 GMT 49.437313 -1.397416 33,000 276 503 0
2022-08-08 16:18:36 GMT 49.436939 -1.391775 33,000 276 503 0
2022-08-08 16:18:34 GMT 49.436325 -1.382326 33,000 276 503 0
2022-08-08 16:18:32 GMT 49.436008 -1.377225 33,000 276 503 0
2022-08-08 16:18:30 GMT 49.435589 -1.370841 33,000 276 503 0
2022-08-08 16:18:27 GMT 49.434891 -1.360152 33,000 276 503 0
2022-08-08 16:18:25 GMT 49.434425 -1.353100 33,000 276 503 0
2022-08-08 16:18:22 GMT 49.433727 -1.342039 33,000 276 503 0
2022-08-08 16:18:20 GMT 49.433167 -1.333393 33,000 276 503 0
2022-08-08 16:18:18 GMT 49.432751 -1.326822 33,000 276 503 0
2022-08-08 16:18:15 GMT 49.431931 -1.314962 33,000 276 503 0
2022-08-08 16:18:12 GMT 49.431335 -1.305711 33,000 276 503 0
2022-08-08 16:18:09 GMT 49.430603 -1.295086 33,000 276 503 0
2022-08-08 16:18:06 GMT 49.429863 -1.283916 33,000 276 503 0
2022-08-08 16:18:02 GMT 49.428886 -1.268995 33,000 276 503 0
2022-08-08 16:18:00 GMT 49.428375 -1.261201 33,000 276 503 0
2022-08-08 16:17:57 GMT 49.427765 -1.252152 33,000 276 503 0
2022-08-08 16:17:55 GMT 49.427444 -1.247021 33,000 276 503 0
2022-08-08 16:17:52 GMT 49.426186 -1.228156 33,000 276 503 0
2022-08-08 16:17:48 GMT 49.425797 -1.222722 33,000 276 503 0
2022-08-08 16:17:46 GMT 49.425201 -1.213848 33,000 276 503 0
2022-08-08 16:17:44 GMT 49.424744 -1.207267 33,000 276 503 0
2022-08-08 16:17:41 GMT 49.424149 -1.198214 33,000 276 503 0
2022-08-08 16:17:39 GMT 49.422867 -1.179058 33,000 276 504 0
2022-08-08 16:17:36 GMT 49.422276 -1.169610 33,000 276 504 0
2022-08-08 16:17:33 GMT 49.421539 -1.158776 33,000 276 504 0
2022-08-08 16:17:31 GMT 49.421539 -1.158776 33,000 276 504 0
2022-08-08 16:17:28 GMT 49.420975 -1.150095 33,000 276 504 0
2022-08-08 16:17:25 GMT 49.420349 -1.141029 33,000 277 504 0
2022-08-08 16:17:23 GMT 49.419662 -1.130747 33,000 277 504 0
2022-08-08 16:17:20 GMT 49.418930 -1.120042 33,000 277 505 0
2022-08-08 16:17:17 GMT 49.418365 -1.111715 33,000 277 505 0
2022-08-08 16:17:14 GMT 49.417713 -1.102102 33,000 277 505 0
2022-08-08 16:17:12 GMT 49.417099 -1.092999 33,000 276 505 0
2022-08-08 16:17:10 GMT 49.416595 -1.085886 33,000 276 505 0
2022-08-08 16:17:07 GMT 49.415852 -1.074998 33,000 276 505 0
2022-08-08 16:17:05 GMT 49.415405 -1.068068 33,000 276 505 0
2022-08-08 16:17:03 GMT 49.414921 -1.060759 33,000 276 505 0
2022-08-08 16:17:01 GMT 49.414398 -1.053490 33,000 276 505 0
2022-08-08 16:16:59 GMT 49.413292 -1.036979 33,000 277 506 0
2022-08-08 16:16:56 GMT 49.413292 -1.036979 33,000 276 505 0
2022-08-08 16:16:54 GMT 49.412888 -1.030743 33,000 276 505 0
2022-08-08 16:16:51 GMT 49.412083 -1.018765 33,000 277 505 0
2022-08-08 16:16:49 GMT 49.411522 -1.010959 33,000 277 505 0
2022-08-08 16:16:47 GMT 49.410919 -1.001869 33,000 277 505 0
2022-08-08 16:16:44 GMT 49.410267 -0.992745 33,000 277 505 0
2022-08-08 16:16:41 GMT 49.409546 -0.982290 33,000 277 506 0
2022-08-08 16:16:38 GMT 49.408722 -0.970882 33,000 277 506 0
2022-08-08 16:16:34 GMT 49.407806 -0.957360 33,000 277 506 0
2022-08-08 16:16:31 GMT 49.407101 -0.946776 33,000 277 506 0
2022-08-08 16:16:29 GMT 49.406590 -0.939331 33,000 277 506 64
2022-08-08 16:16:27 GMT 49.406029 -0.931453 33,000 277 506 0
2022-08-08 16:16:24 GMT 49.405426 -0.922781 33,000 277 506 0
2022-08-08 16:16:21 GMT 49.404724 -0.912588 33,000 277 506 0
2022-08-08 16:16:19 GMT 49.404007 -0.902076 33,000 277 506 0
2022-08-08 16:16:16 GMT 49.403412 -0.892780 33,000 277 506 0
2022-08-08 16:16:14 GMT 49.402908 -0.885667 33,000 277 506 0
2022-08-08 16:16:10 GMT 49.401627 -0.866793 33,000 277 506 0
2022-08-08 16:16:08 GMT 49.401627 -0.866793 33,000 277 506 0
2022-08-08 16:16:06 GMT 49.401051 -0.858379 33,000 277 506 0
2022-08-08 16:16:03 GMT 49.400398 -0.849128 33,000 277 505 0
2022-08-08 16:16:01 GMT 49.399246 -0.832566 33,000 277 505 0
2022-08-08 16:15:59 GMT 49.398487 -0.821734 33,000 277 505 0
2022-08-08 16:15:56 GMT 49.398487 -0.821734 33,000 277 506 0
2022-08-08 16:15:54 GMT 49.397827 -0.812284 33,000 277 505 0
2022-08-08 16:15:51 GMT 49.396721 -0.797159 33,000 277 506 0
2022-08-08 16:15:49 GMT 49.396721 -0.797159 33,000 277 506 0
2022-08-08 16:15:46 GMT 49.396069 -0.788269 33,000 277 506 0
2022-08-08 16:15:44 GMT 49.395416 -0.778584 33,000 277 506 0
2022-08-08 16:15:41 GMT 49.394577 -0.767423 33,000 277 506 0
2022-08-08 16:15:38 GMT 49.393833 -0.756900 33,000 277 506 0
2022-08-08 16:15:36 GMT 49.393478 -0.751718 33,000 277 506 0
2022-08-08 16:15:34 GMT 49.391968 -0.730309 33,000 277 506 0
2022-08-08 16:15:31 GMT 49.391968 -0.730309 33,000 277 506 0
2022-08-08 16:15:29 GMT 49.391506 -0.723363 33,000 277 506 0
2022-08-08 16:15:24 GMT 49.390366 -0.707139 33,000 277 506 0
2022-08-08 16:15:21 GMT 49.389587 -0.696435 33,000 277 506 0
2022-08-08 16:15:18 GMT 49.387966 -0.673419 33,000 277 508 0
2022-08-08 16:15:15 GMT 49.387966 -0.673419 33,000 277 507 0
2022-08-08 16:15:12 GMT 49.387177 -0.662721 33,000 277 507 0
2022-08-08 16:15:08 GMT 49.386429 -0.652208 33,000 277 508 0
2022-08-08 16:15:05 GMT 49.385605 -0.641151 33,000 277 508 0
2022-08-08 16:15:02 GMT 49.384804 -0.629907 33,000 277 508 0
2022-08-08 16:15:00 GMT 49.384323 -0.623615 33,000 277 508 0
2022-08-08 16:14:58 GMT 49.383820 -0.616150 33,000 277 510 0
2022-08-08 16:14:55 GMT 49.382858 -0.603262 33,000 277 508 0
2022-08-08 16:14:53 GMT 49.382336 -0.595936 33,000 277 510 0
2022-08-08 16:14:50 GMT 49.381821 -0.588780 33,000 277 507 0
2022-08-08 16:14:48 GMT 49.381073 -0.577909 33,000 277 507 0
2022-08-08 16:14:45 GMT 49.380295 -0.567557 33,000 277 508 0
2022-08-08 16:14:43 GMT 49.379974 -0.562908 33,000 277 508 0
2022-08-08 16:14:40 GMT 49.379028 -0.549822 33,000 277 509 0
2022-08-08 16:14:38 GMT 49.378609 -0.544112 33,000 277 509 0
2022-08-08 16:14:36 GMT 49.377960 -0.535020 33,000 277 509 0
2022-08-08 16:14:32 GMT 49.376770 -0.518541 33,000 277 509 0
2022-08-08 16:14:29 GMT 49.375946 -0.507484 33,000 277 509 0
2022-08-08 16:14:24 GMT 49.374466 -0.486868 33,000 277 509 0
2022-08-08 16:14:22 GMT 49.374466 -0.486868 33,000 277 509 0
2022-08-08 16:14:19 GMT 49.373955 -0.479712 33,000 277 510 0
2022-08-08 16:14:17 GMT 49.373257 -0.470027 33,000 277 510 0
2022-08-08 16:14:15 GMT 49.371689 -0.449101 33,000 277 510 64
2022-08-08 16:14:12 GMT 49.371689 -0.449101 33,000 277 510 0
2022-08-08 16:14:10 GMT 49.371208 -0.442489 33,000 277 510 0
2022-08-08 16:14:07 GMT 49.370602 -0.434610 33,000 277 510 0
2022-08-08 16:14:04 GMT 49.369671 -0.422034 33,000 277 510 0
2022-08-08 16:14:01 GMT 49.368805 -0.410015 33,000 277 510 0
2022-08-08 16:13:58 GMT 49.368027 -0.400015 33,000 277 510 0
2022-08-08 16:13:56 GMT 49.366562 -0.379944 33,000 277 510 0
2022-08-08 16:13:52 GMT 49.366562 -0.379944 33,000 277 510 0
2022-08-08 16:13:50 GMT 49.365875 -0.370648 33,000 277 510 0
2022-08-08 16:13:48 GMT 49.365189 -0.361281 33,000 277 510 0
2022-08-08 16:13:45 GMT 49.364597 -0.353586 33,000 277 510 0
2022-08-08 16:13:43 GMT 49.364040 -0.345708 33,000 277 510 0
2022-08-08 16:13:40 GMT 49.363358 -0.336562 33,000 277 510 0
2022-08-08 16:13:38 GMT 49.362644 -0.327421 33,000 277 510 0
2022-08-08 16:13:35 GMT 49.361938 -0.317618 33,000 277 510 0
2022-08-08 16:13:32 GMT 49.361115 -0.306843 33,000 277 510 0
2022-08-08 16:13:29 GMT 49.360336 -0.296490 33,000 277 510 0
2022-08-08 16:13:25 GMT 49.359283 -0.282123 33,000 277 510 0
2022-08-08 16:13:22 GMT 49.358501 -0.271189 33,000 277 510 0
2022-08-08 16:13:20 GMT 49.357864 -0.262827 33,000 277 510 0
2022-08-08 16:13:18 GMT 49.357430 -0.257239 33,000 277 510 0
2022-08-08 16:13:15 GMT 49.356731 -0.247915 33,000 277 510 0
2022-08-08 16:13:13 GMT 49.356079 -0.238953 33,000 277 510 0
2022-08-08 16:13:11 GMT 49.355530 -0.231981 33,000 277 510 0
2022-08-08 16:13:09 GMT 49.354309 -0.215679 33,000 277 510 0
2022-08-08 16:13:07 GMT 49.354309 -0.215679 33,000 277 510 0
2022-08-08 16:13:04 GMT 49.353657 -0.207078 33,000 277 510 0
2022-08-08 16:13:02 GMT 49.352875 -0.196486 33,000 277 510 0
2022-08-08 16:12:59 GMT 49.352280 -0.188951 33,000 277 510 0
2022-08-08 16:12:56 GMT 49.351471 -0.178022 33,000 277 510 0
2022-08-08 16:12:52 GMT 49.350266 -0.162471 33,000 277 510 0
2022-08-08 16:12:49 GMT 49.349396 -0.150992 33,000 277 510 0
2022-08-08 16:12:46 GMT 49.348866 -0.143617 33,000 277 510 0
2022-08-08 16:12:44 GMT 49.348297 -0.136273 33,000 277 510 0
2022-08-08 16:12:41 GMT 49.347610 -0.127329 33,000 277 510 0
2022-08-08 16:12:39 GMT 49.346909 -0.118175 33,000 277 511 0
2022-08-08 16:12:36 GMT 49.346115 -0.107767 33,000 277 511 0
2022-08-08 16:12:33 GMT 49.345371 -0.097359 33,000 277 511 0
2022-08-08 16:12:30 GMT 49.344498 -0.086060 33,000 277 510 0
2022-08-08 16:12:28 GMT 49.343651 -0.075097 33,000 277 510 0
2022-08-08 16:12:25 GMT 49.342487 -0.060425 33,000 277 510 0
2022-08-08 16:12:21 GMT 49.341934 -0.053101 33,000 277 510 0
2022-08-08 16:12:19 GMT 49.341370 -0.045752 33,000 277 510 0
2022-08-08 16:12:17 GMT 49.340881 -0.039438 33,000 277 510 0
2022-08-08 16:12:14 GMT 49.340019 -0.028911 33,000 277 510 0
2022-08-08 16:12:11 GMT 49.338856 -0.013444 33,000 277 510 0
2022-08-08 16:12:07 GMT 49.338043 -0.002887 33,000 277 510 0
2022-08-08 16:12:05 GMT 49.337364 0.005493 33,000 277 510 0
2022-08-08 16:12:02 GMT 49.336716 0.014296 33,000 277 510 0
2022-08-08 16:12:00 GMT 49.336029 0.023240 33,000 277 510 0
2022-08-08 16:11:58 GMT 49.335434 0.030776 33,000 277 510 0
2022-08-08 16:11:56 GMT 49.334248 0.046331 33,000 277 510 0
2022-08-08 16:11:53 GMT 49.334248 0.046331 33,000 277 510 0
2022-08-08 16:11:50 GMT 49.332870 0.063735 33,000 277 510 0
2022-08-08 16:11:48 GMT 49.332870 0.063735 33,000 277 510 0
2022-08-08 16:11:46 GMT 49.332138 0.073031 33,000 277 510 0
2022-08-08 16:11:44 GMT 49.331406 0.081975 33,000 277 510 0
2022-08-08 16:11:41 GMT 49.330673 0.091271 33,000 277 510 0
2022-08-08 16:11:36 GMT 49.329346 0.108525 33,000 277 510 0
2022-08-08 16:11:33 GMT 49.328335 0.121572 33,000 277 510 0
2022-08-08 16:11:30 GMT 49.327789 0.128526 33,000 277 510 0
2022-08-08 16:11:28 GMT 49.327011 0.138245 33,000 277 510 0
2022-08-08 16:11:26 GMT 49.326424 0.145930 33,000 277 510 0
2022-08-08 16:11:23 GMT 49.325775 0.154531 33,000 277 510 0
2022-08-08 16:11:20 GMT 49.325073 0.163494 33,000 277 510 0
2022-08-08 16:11:17 GMT 49.323486 0.183387 33,000 277 510 0
2022-08-08 16:11:15 GMT 49.323486 0.183387 33,000 277 510 0
2022-08-08 16:11:13 GMT 49.323074 0.188739 33,000 277 510 0
2022-08-08 16:11:11 GMT 49.321976 0.202684 33,000 277 510 0
2022-08-08 16:11:06 GMT 49.320747 0.217486 33,000 277 509 0
2022-08-08 16:11:03 GMT 49.319954 0.227894 33,000 277 509 0
2022-08-08 16:11:00 GMT 49.319347 0.235411 33,000 277 509 0
2022-08-08 16:10:58 GMT 49.318512 0.245747 33,000 277 509 0
2022-08-08 16:10:56 GMT 49.317947 0.252756 33,000 277 509 0
2022-08-08 16:10:53 GMT 49.317116 0.263310 33,000 277 509 0
2022-08-08 16:10:49 GMT 49.315933 0.278109 33,000 277 509 0
2022-08-08 16:10:45 GMT 49.314194 0.300293 33,000 277 509 0
2022-08-08 16:10:43 GMT 49.314194 0.300293 33,000 277 509 0
2022-08-08 16:10:40 GMT 49.313530 0.308701 33,000 277 509 0
2022-08-08 16:10:37 GMT 49.312637 0.319589 33,000 277 509 0
2022-08-08 16:10:35 GMT 49.312042 0.326916 33,000 278 508 0
2022-08-08 16:10:32 GMT 49.311493 0.334167 33,000 278 508 0
2022-08-08 16:10:30 GMT 49.310596 0.344696 33,000 278 508 0
2022-08-08 16:10:27 GMT 49.309525 0.358112 33,000 278 508 0
2022-08-08 16:10:25 GMT 49.308598 0.369343 33,000 278 508 0
2022-08-08 16:10:23 GMT 49.308598 0.369343 33,000 278 508 0
2022-08-08 16:10:20 GMT 49.307739 0.380226 33,000 278 508 0
2022-08-08 16:10:17 GMT 49.306961 0.389522 33,000 277 508 0
2022-08-08 16:10:14 GMT 49.306091 0.400578 33,000 277 508 0
2022-08-08 16:10:09 GMT 49.304638 0.418203 33,000 277 508 0
2022-08-08 16:10:07 GMT 49.303802 0.428748 33,000 278 509 0
2022-08-08 16:10:03 GMT 49.303070 0.437622 33,000 278 508 0
2022-08-08 16:10:00 GMT 49.301613 0.456005 33,000 278 509 0
2022-08-08 16:09:56 GMT 49.300919 0.464384 33,000 278 509 0
2022-08-08 16:09:54 GMT 49.300461 0.469736 33,000 278 508 0
2022-08-08 16:09:52 GMT 49.298820 0.489470 33,000 278 508 0
2022-08-08 16:09:49 GMT 49.298820 0.489470 33,000 278 508 0
2022-08-08 16:09:46 GMT 49.297794 0.501613 33,000 278 508 0
2022-08-08 16:09:43 GMT 49.297005 0.511587 33,000 278 508 0
2022-08-08 16:09:41 GMT 49.296432 0.518541 33,000 278 507 0
2022-08-08 16:09:39 GMT 49.295795 0.525826 33,000 278 507 0
2022-08-08 16:09:37 GMT 49.295235 0.532981 33,000 278 507 0
2022-08-08 16:09:34 GMT 49.293411 0.555162 33,000 278 507 0
2022-08-08 16:09:31 GMT 49.293411 0.555162 33,000 278 507 0
2022-08-08 16:09:28 GMT 49.292629 0.564639 33,000 278 507 0
2022-08-08 16:09:26 GMT 49.292023 0.572446 33,000 278 507 0
2022-08-08 16:09:23 GMT 49.291122 0.582980 33,000 278 507 0
2022-08-08 16:09:21 GMT 49.290535 0.590660 33,000 278 508 0
2022-08-08 16:09:18 GMT 49.289703 0.600445 33,000 278 508 0
2022-08-08 16:09:15 GMT 49.288834 0.611079 33,000 278 508 0
2022-08-08 16:09:12 GMT 49.287964 0.621361 33,000 278 508 0
2022-08-08 16:09:10 GMT 49.287369 0.628317 33,000 278 508 0
2022-08-08 16:09:07 GMT 49.286438 0.639737 33,000 278 508 0
2022-08-08 16:09:04 GMT 49.285172 0.654884 33,000 278 508 0
2022-08-08 16:09:01 GMT 49.284714 0.660336 33,000 278 507 0
2022-08-08 16:08:59 GMT 49.284061 0.667853 33,000 278 508 0
2022-08-08 16:08:57 GMT 49.283318 0.676743 33,000 278 507 0
2022-08-08 16:08:54 GMT 49.282608 0.685448 33,000 278 507 0
2022-08-08 16:08:51 GMT 49.281876 0.694674 33,000 278 508 0
2022-08-08 16:08:48 GMT 49.280869 0.706787 33,000 278 508 0
2022-08-08 16:08:46 GMT 49.280273 0.713900 33,000 278 508 0
2022-08-08 16:08:43 GMT 49.279266 0.726182 33,000 278 508 0
2022-08-08 16:08:41 GMT 49.278522 0.735433 33,000 278 508 0
2022-08-08 16:08:38 GMT 49.277847 0.743056 33,000 278 508 0
2022-08-08 16:08:35 GMT 49.276886 0.754395 33,000 278 508 0
2022-08-08 16:08:32 GMT 49.276241 0.762032 33,000 278 508 0
2022-08-08 16:08:30 GMT 49.274872 0.778621 33,000 278 508 0
2022-08-08 16:08:28 GMT 49.274872 0.778621 33,000 278 508 0
2022-08-08 16:08:25 GMT 49.274094 0.787494 33,000 278 508 0
2022-08-08 16:08:23 GMT 49.273453 0.794959 33,000 278 508 0
2022-08-08 16:08:21 GMT 49.272610 0.805038 33,000 278 508 0
2022-08-08 16:08:18 GMT 49.270477 0.830172 33,000 278 508 0
2022-08-08 16:08:14 GMT 49.270477 0.830172 33,000 278 508 0
2022-08-08 16:08:11 GMT 49.269772 0.838864 33,000 278 508 0
2022-08-08 16:08:08 GMT 49.267731 0.862849 33,000 278 508 0
2022-08-08 16:08:05 GMT 49.267731 0.862849 33,000 278 508 0
2022-08-08 16:08:02 GMT 49.266232 0.880135 33,000 278 508 0
2022-08-08 16:08:00 GMT 49.265675 0.886857 33,000 278 508 0
2022-08-08 16:07:57 GMT 49.264709 0.898062 33,000 278 509 0
2022-08-08 16:07:55 GMT 49.264709 0.898062 33,000 278 509 0
2022-08-08 16:07:53 GMT 49.264233 0.903625 33,000 278 509 0
2022-08-08 16:07:49 GMT 49.263206 0.916057 33,000 278 509 0
2022-08-08 16:07:46 GMT 49.262321 0.926393 33,000 278 509 0
2022-08-08 16:07:43 GMT 49.260925 0.942800 33,000 278 509 0
2022-08-08 16:07:40 GMT 49.259857 0.955036 33,000 278 509 0
2022-08-08 16:07:36 GMT 49.258759 0.968276 33,000 278 509 0
2022-08-08 16:07:34 GMT 49.257980 0.977149 33,000 278 509 0
2022-08-08 16:07:32 GMT 49.257980 0.977149 33,000 278 509 0
2022-08-08 16:07:29 GMT 49.256882 0.989615 33,000 278 509 0
2022-08-08 16:07:27 GMT 49.256413 0.995130 33,000 278 509 0
2022-08-08 16:07:24 GMT 49.255463 1.006376 33,000 278 509 0
2022-08-08 16:07:21 GMT 49.254269 1.019705 33,000 278 509 0
2022-08-08 16:07:18 GMT 49.253632 1.027433 33,000 278 509 0
2022-08-08 16:07:16 GMT 49.253036 1.034546 33,000 278 510 0
2022-08-08 16:07:14 GMT 49.252407 1.041461 33,000 278 510 0
2022-08-08 16:07:12 GMT 49.251755 1.049339 33,000 278 510 0
2022-08-08 16:07:10 GMT 49.251057 1.057145 33,000 278 510 0
2022-08-08 16:07:07 GMT 49.250126 1.067842 33,000 278 510 0
2022-08-08 16:07:05 GMT 49.249512 1.074829 33,000 278 510 0
2022-08-08 16:07:02 GMT 49.247986 1.092489 33,000 278 511 0
2022-08-08 16:07:00 GMT 49.247986 1.092489 33,000 278 510 0
2022-08-08 16:06:57 GMT 49.246994 1.103422 33,000 278 511 0
2022-08-08 16:06:54 GMT 49.246124 1.113774 33,000 278 511 0
2022-08-08 16:06:51 GMT 49.245117 1.124831 33,000 278 511 0
2022-08-08 16:06:48 GMT 49.244156 1.135536 33,000 278 511 0
2022-08-08 16:06:45 GMT 49.243378 1.144313 33,000 278 511 0
2022-08-08 16:06:42 GMT 49.242279 1.156663 33,000 278 511 0
2022-08-08 16:06:40 GMT 49.241653 1.163973 33,000 278 512 0
2022-08-08 16:06:37 GMT 49.241001 1.171128 33,000 278 516 0
2022-08-08 16:06:35 GMT 49.240082 1.181735 33,000 278 512 0
2022-08-08 16:06:32 GMT 49.239120 1.192791 33,000 278 512 0
2022-08-08 16:06:27 GMT 49.236786 1.219694 33,000 278 513 0
2022-08-08 16:06:24 GMT 49.236099 1.227229 33,000 278 513 0
2022-08-08 16:06:22 GMT 49.236099 1.227229 33,000 278 513 0
2022-08-08 16:06:19 GMT 49.235184 1.238203 33,000 278 513 0
2022-08-08 16:06:17 GMT 49.234531 1.245358 33,000 278 513 0
2022-08-08 16:06:14 GMT 49.233536 1.256315 33,000 278 514 0
2022-08-08 16:06:11 GMT 49.231876 1.275209 33,000 278 514 64
2022-08-08 16:06:09 GMT 49.231876 1.275209 33,000 278 514 64
2022-08-08 16:06:07 GMT 49.231201 1.282583 33,000 278 514 64
2022-08-08 16:06:05 GMT 49.230530 1.290315 33,000 278 515 0
2022-08-08 16:06:01 GMT 49.229504 1.301518 33,000 278 516 0
2022-08-08 16:05:59 GMT 49.228760 1.310192 33,000 278 516 0
2022-08-08 16:05:57 GMT 49.227264 1.327303 33,000 278 517 0
2022-08-08 16:05:55 GMT 49.227264 1.327303 33,000 278 517 0
2022-08-08 16:05:53 GMT 49.226852 1.332374 33,000 278 517 0
2022-08-08 16:05:50 GMT 49.225662 1.346107 33,000 278 517 0
2022-08-08 16:05:47 GMT 49.224976 1.353713 33,000 278 517 0
2022-08-08 16:05:45 GMT 49.224289 1.361671 33,000 278 517 0
2022-08-08 16:05:42 GMT 49.223007 1.375756 33,000 278 518 0
2022-08-08 16:05:39 GMT 49.222412 1.382305 33,000 278 519 0
2022-08-08 16:05:37 GMT 49.221542 1.391505 33,000 278 518 0
2022-08-08 16:05:34 GMT 49.220581 1.402940 33,000 275 517 0
2022-08-08 16:05:30 GMT 49.219589 1.415429 33,000 277 518 0
2022-08-08 16:05:27 GMT 49.218609 1.428873 33,000 276 518 0
2022-08-08 16:05:25 GMT 49.218052 1.437980 33,000 276 518 0
2022-08-08 16:05:22 GMT 49.217728 1.443401 33,000 276 518 0
2022-08-08 16:05:20 GMT 49.216934 1.458363 33,000 275 517 0
2022-08-08 16:05:18 GMT 49.216934 1.458363 33,000 274 518 0
2022-08-08 16:05:16 GMT 49.216469 1.467831 33,000 274 517 0
2022-08-08 16:05:14 GMT 49.216278 1.473506 33,000 273 517 0
2022-08-08 16:05:11 GMT 49.215862 1.485323 33,000 273 517 0
2022-08-08 16:05:09 GMT 49.215630 1.492984 33,000 272 517 0
2022-08-08 16:05:06 GMT 49.215408 1.501887 33,000 272 517 0
2022-08-08 16:05:03 GMT 49.215179 1.513578 33,000 270 517 64
2022-08-08 16:05:01 GMT 49.215042 1.523367 33,000 271 517 0
2022-08-08 16:04:58 GMT 49.214996 1.530691 33,000 271 517 64
2022-08-08 16:04:55 GMT 49.214951 1.541255 33,000 270 517 64
2022-08-08 16:04:52 GMT 49.215042 1.555833 33,000 269 517 -64
2022-08-08 16:04:48 GMT 49.215584 1.582971 33,000 268 517 0
2022-08-08 16:04:44 GMT 49.215584 1.582971 33,000 268 517 -64
2022-08-08 16:04:42 GMT 49.216190 1.599739 33,000 267 516 0
2022-08-08 16:04:39 GMT 49.216190 1.599739 33,000 267 516 0
2022-08-08 16:04:37 GMT 49.216507 1.608652 33,000 268 517 0
2022-08-08 16:04:34 GMT 49.217102 1.625061 33,000 267 516 0
2022-08-08 16:04:32 GMT 49.217102 1.625061 33,000 267 517 0
2022-08-08 16:04:29 GMT 49.217468 1.635977 33,000 268 516 0
2022-08-08 16:04:27 GMT 49.217697 1.642879 33,000 268 517 0
2022-08-08 16:04:24 GMT 49.218098 1.654310 33,000 268 517 0
2022-08-08 16:04:21 GMT 49.218475 1.665837 33,000 268 517 0
2022-08-08 16:04:19 GMT 49.218750 1.674042 33,000 268 517 0
2022-08-08 16:04:16 GMT 49.219028 1.682065 33,000 267 517 0
2022-08-08 16:04:14 GMT 49.219254 1.689148 33,000 267 517 0
2022-08-08 16:04:12 GMT 49.219681 1.700279 33,000 267 517 0
2022-08-08 16:04:09 GMT 49.220009 1.709386 33,000 267 517 0
2022-08-08 16:04:07 GMT 49.220581 1.725910 33,000 267 517 0
2022-08-08 16:04:05 GMT 49.220581 1.725910 33,000 267 517 0
2022-08-08 16:04:02 GMT 49.220947 1.736122 33,000 267 517 0
2022-08-08 16:04:00 GMT 49.221218 1.743646 33,000 267 517 0
2022-08-08 16:03:56 GMT 49.221680 1.756897 33,000 267 517 0
2022-08-08 16:03:54 GMT 49.222195 1.771690 33,000 267 517 0
2022-08-08 16:03:50 GMT 49.222523 1.781158 33,000 267 517 0
2022-08-08 16:03:47 GMT 49.222916 1.792250 33,000 268 517 64
2022-08-08 16:03:45 GMT 49.223099 1.797744 33,000 268 517 64
2022-08-08 16:03:43 GMT 49.223740 1.817040 33,000 268 517 0
2022-08-08 16:03:40 GMT 49.223740 1.817040 33,000 268 517 64
2022-08-08 16:03:37 GMT 49.224152 1.828862 33,000 268 517 0
2022-08-08 16:03:33 GMT 49.224617 1.843101 33,000 268 517 0
2022-08-08 16:03:30 GMT 49.224941 1.853654 33,000 268 517 0
2022-08-08 16:03:26 GMT 49.225433 1.868380 33,000 268 517 0
2022-08-08 16:03:23 GMT 49.225735 1.877289 33,000 268 517 0
2022-08-08 16:03:19 GMT 49.226349 1.895001 33,000 268 517 0
2022-08-08 16:03:16 GMT 49.226665 1.903598 33,000 268 517 0
2022-08-08 16:03:14 GMT 49.226898 1.911058 33,000 268 518 0
2022-08-08 16:03:09 GMT 49.227493 1.927819 33,000 268 518 0
2022-08-08 16:03:06 GMT 49.227768 1.937326 33,000 268 518 0
2022-08-08 16:03:04 GMT 49.228455 1.958876 33,000 268 518 0
2022-08-08 16:03:01 GMT 49.228455 1.958876 33,000 268 518 0
2022-08-08 16:02:58 GMT 49.228806 1.969661 33,000 268 518 0
2022-08-08 16:02:55 GMT 49.229504 1.991200 33,000 268 518 0
2022-08-08 16:02:52 GMT 49.229504 1.991200 33,000 268 518 0
2022-08-08 16:02:49 GMT 49.229828 2.002114 33,000 268 518 0
2022-08-08 16:02:46 GMT 49.230576 2.023653 33,000 268 518 0
2022-08-08 16:02:41 GMT 49.230743 2.029302 33,000 268 518 0
2022-08-08 16:02:38 GMT 49.231293 2.045359 33,000 268 517 0
2022-08-08 16:02:35 GMT 49.231476 2.050852 33,000 268 517 0
2022-08-08 16:02:32 GMT 49.231876 2.064201 33,000 268 517 0
2022-08-08 16:02:29 GMT 49.232296 2.076561 33,000 268 517 0
2022-08-08 16:02:27 GMT 49.232620 2.085853 33,000 268 517 0
2022-08-08 16:02:24 GMT 49.232857 2.094413 33,000 268 517 0
2022-08-08 16:02:22 GMT 49.233601 2.118482 33,000 268 517 64
2022-08-08 16:02:18 GMT 49.233601 2.118482 33,000 268 517 0
2022-08-08 16:02:14 GMT 49.233925 2.127951 33,000 268 517 0
2022-08-08 16:02:12 GMT 49.234253 2.138937 33,000 268 517 0
2022-08-08 16:02:08 GMT 49.234634 2.151489 33,000 268 517 64
2022-08-08 16:02:05 GMT 49.234951 2.162644 33,000 268 517 0
2022-08-08 16:02:02 GMT 49.235371 2.175727 33,000 268 517 0
2022-08-08 16:02:00 GMT 49.235462 2.179413 33,000 268 517 0
2022-08-08 16:01:57 GMT 49.235779 2.190505 33,000 268 517 0
2022-08-08 16:01:55 GMT 49.236069 2.199506 33,000 268 518 0
2022-08-08 16:01:51 GMT 49.236420 2.211703 33,000 268 518 0
2022-08-08 16:01:49 GMT 49.236694 2.221210 33,000 268 518 0
2022-08-08 16:01:47 GMT 49.236923 2.228534 33,000 268 518 0
2022-08-08 16:01:44 GMT 49.237289 2.239802 33,000 268 518 0
2022-08-08 16:01:41 GMT 49.237564 2.249310 33,000 268 518 0
2022-08-08 16:01:38 GMT 49.238163 2.269255 33,000 268 518 0
2022-08-08 16:01:36 GMT 49.238163 2.269255 33,000 268 518 0
2022-08-08 16:01:33 GMT 49.238525 2.280015 33,000 268 518 0
2022-08-08 16:01:29 GMT 49.238998 2.295131 33,000 268 518 0
2022-08-08 16:01:27 GMT 49.239212 2.302622 33,000 268 518 0
2022-08-08 16:01:24 GMT 49.239761 2.321989 33,000 268 518 0
2022-08-08 16:01:21 GMT 49.239761 2.321989 33,000 268 518 0
2022-08-08 16:01:19 GMT 49.240116 2.332788 33,000 268 518 0
2022-08-08 16:01:16 GMT 49.240398 2.344063 33,000 268 518 0
2022-08-08 16:01:13 GMT 49.240677 2.353046 33,000 268 518 0
2022-08-08 16:01:09 GMT 49.241096 2.368566 33,000 268 518 0
2022-08-08 16:01:07 GMT 49.241329 2.375866 33,000 268 518 0
2022-08-08 16:01:04 GMT 49.241608 2.385334 33,000 268 518 0
2022-08-08 16:01:01 GMT 49.241982 2.398489 33,000 268 518 0
2022-08-08 16:00:59 GMT 49.242096 2.401921 33,000 268 518 0
2022-08-08 16:00:56 GMT 49.242397 2.413451 33,000 268 518 0
2022-08-08 16:00:54 GMT 49.242630 2.421473 33,000 268 518 0
2022-08-08 16:00:52 GMT 49.242863 2.429135 33,000 268 518 0
2022-08-08 16:00:49 GMT 49.243195 2.439951 33,000 268 518 0
2022-08-08 16:00:46 GMT 49.243561 2.451758 33,000 268 518 0
2022-08-08 16:00:44 GMT 49.244213 2.474092 33,000 268 518 0
2022-08-08 16:00:40 GMT 49.244213 2.474092 33,000 268 518 0
2022-08-08 16:00:37 GMT 49.244820 2.496354 33,000 268 518 0
2022-08-08 16:00:34 GMT 49.244820 2.496354 33,000 268 518 0
2022-08-08 16:00:30 GMT 49.245209 2.510446 33,000 268 518 0
2022-08-08 16:00:27 GMT 49.245422 2.519339 33,000 268 518 0
2022-08-08 16:00:25 GMT 49.245659 2.527000 33,000 268 518 0
2022-08-08 16:00:23 GMT 49.245892 2.536179 33,000 268 518 0
2022-08-08 16:00:21 GMT 49.246078 2.543335 33,000 268 518 0
2022-08-08 16:00:18 GMT 49.246307 2.552772 33,000 268 518 0
2022-08-08 16:00:16 GMT 49.246582 2.563054 33,000 268 518 0
2022-08-08 16:00:13 GMT 49.246857 2.572561 33,000 268 518 0
2022-08-08 16:00:10 GMT 49.247147 2.583305 33,000 268 518 0
2022-08-08 16:00:08 GMT 49.247334 2.590966 33,000 268 518 0
2022-08-08 16:00:06 GMT 49.247635 2.602492 33,000 268 517 0
2022-08-08 16:00:04 GMT 49.247635 2.602492 33,000 268 517 0
2022-08-08 16:00:02 GMT 49.247845 2.610698 33,000 260 517 0
2022-08-08 15:59:59 GMT 49.248173 2.621974 33,000 268 517 0
2022-08-08 15:59:57 GMT 49.248451 2.633322 33,000 268 517 0
2022-08-08 15:59:54 GMT 49.248734 2.644466 33,000 268 517 0
2022-08-08 15:59:51 GMT 49.248917 2.651897 33,000 268 517 0
2022-08-08 15:59:49 GMT 49.249104 2.659197 33,000 268 517 0
2022-08-08 15:59:47 GMT 49.249241 2.664329 33,000 268 517 0
2022-08-08 15:59:45 GMT 49.249466 2.672847 33,000 268 517 0
2022-08-08 15:59:43 GMT 49.249660 2.680303 33,000 268 517 0
2022-08-08 15:59:41 GMT 49.249893 2.689843 33,000 268 517 0
2022-08-08 15:59:38 GMT 49.250126 2.698951 33,000 268 516 0
2022-08-08 15:59:35 GMT 49.250450 2.709865 33,000 268 516 0
2022-08-08 15:59:33 GMT 49.250687 2.719694 33,000 268 516 0
2022-08-08 15:59:31 GMT 49.250839 2.725384 33,000 268 516 0
2022-08-08 15:59:28 GMT 49.251148 2.736102 33,000 268 516 0
2022-08-08 15:59:25 GMT 49.251389 2.746864 33,000 268 516 0
2022-08-08 15:59:22 GMT 49.251663 2.757568 33,000 268 516 0
2022-08-08 15:59:20 GMT 49.251896 2.765591 33,000 268 516 0
2022-08-08 15:59:18 GMT 49.252075 2.772710 33,000 268 517 0
2022-08-08 15:59:16 GMT 49.252304 2.781442 33,000 268 516 0
2022-08-08 15:59:14 GMT 49.252453 2.786407 33,000 268 516 0
2022-08-08 15:59:12 GMT 49.252625 2.793837 33,000 268 516 0
2022-08-08 15:59:09 GMT 49.252945 2.805105 33,000 268 516 0
2022-08-08 15:59:07 GMT 49.253128 2.810599 33,000 268 516 0
2022-08-08 15:59:04 GMT 49.253357 2.819683 33,000 269 516 0
2022-08-08 15:59:02 GMT 49.253662 2.830064 33,000 268 516 0
2022-08-08 15:58:59 GMT 49.253944 2.840255 33,000 268 516 0
2022-08-08 15:58:57 GMT 49.254131 2.847916 33,000 268 516 0
2022-08-08 15:58:54 GMT 49.254360 2.858831 33,000 269 516 0
2022-08-08 15:58:52 GMT 49.254547 2.866727 33,000 269 516 0
2022-08-08 15:58:50 GMT 49.254688 2.872347 33,000 268 516 0
2022-08-08 15:58:48 GMT 49.254921 2.881815 33,000 268 516 0
2022-08-08 15:58:45 GMT 49.255325 2.893630 33,000 267 516 0
2022-08-08 15:58:42 GMT 49.255806 2.904727 33,000 266 516 0
2022-08-08 15:58:40 GMT 49.256058 2.909968 33,000 266 516 0
2022-08-08 15:58:37 GMT 49.256596 2.919978 33,000 266 516 0
2022-08-08 15:58:35 GMT 49.257015 2.927567 33,000 265 516 0
2022-08-08 15:58:32 GMT 49.258804 2.952435 33,000 264 516 0
2022-08-08 15:58:29 GMT 49.258804 2.952435 33,000 263 516 0
2022-08-08 15:58:27 GMT 49.259109 2.956190 33,000 263 517 0
2022-08-08 15:58:25 GMT 49.259766 2.963985 33,000 262 516 0
2022-08-08 15:58:22 GMT 49.260727 2.974407 33,000 262 517 0
2022-08-08 15:58:20 GMT 49.261391 2.981487 33,000 262 517 0
2022-08-08 15:58:18 GMT 49.263718 3.003460 33,000 258 517 -64
2022-08-08 15:58:14 GMT 49.263718 3.003460 33,000 261 516 0
2022-08-08 15:58:12 GMT 49.264698 3.012061 33,000 259 516 0
2022-08-08 15:58:10 GMT 49.265396 3.018001 33,000 260 516 0
2022-08-08 15:58:08 GMT 49.266701 3.028179 33,000 258 516 0
2022-08-08 15:58:04 GMT 49.268143 3.038876 33,000 258 517 0
2022-08-08 15:58:02 GMT 49.269379 3.047298 33,000 256 517 0
2022-08-08 15:58:00 GMT 49.272285 3.065908 33,000 256 516 0
2022-08-08 15:57:57 GMT 49.272285 3.065908 33,000 256 517 0
2022-08-08 15:57:54 GMT 49.275742 3.086947 33,000 256 516 0
2022-08-08 15:57:51 GMT 49.275742 3.086947 33,000 256 517 0
2022-08-08 15:57:49 GMT 49.278763 3.105398 33,000 256 517 0
2022-08-08 15:57:46 GMT 49.278763 3.105398 33,000 256 517 0
2022-08-08 15:57:43 GMT 49.280502 3.115962 33,000 256 517 0
2022-08-08 15:57:41 GMT 49.281693 3.123075 33,000 256 517 0
2022-08-08 15:57:39 GMT 49.283890 3.136526 33,000 256 516 0
2022-08-08 15:57:37 GMT 49.283890 3.136526 33,000 256 516 0
2022-08-08 15:57:33 GMT 49.286297 3.150908 33,000 256 516 0
2022-08-08 15:57:30 GMT 49.288055 3.161668 33,000 256 516 0
2022-08-08 15:57:28 GMT 49.289291 3.169063 33,000 256 516 0
2022-08-08 15:57:26 GMT 49.290161 3.174181 33,000 256 516 0
2022-08-08 15:57:24 GMT 49.291718 3.183570 33,000 256 516 0
2022-08-08 15:57:22 GMT 49.292351 3.187336 33,000 256 516 0
2022-08-08 15:57:20 GMT 49.295151 3.204487 33,000 256 516 0
2022-08-08 15:57:18 GMT 49.295151 3.204487 33,000 256 516 0
2022-08-08 15:57:14 GMT 49.297146 3.216681 33,000 256 516 0
2022-08-08 15:57:11 GMT 49.298767 3.226389 33,000 256 516 0
2022-08-08 15:57:08 GMT 49.301010 3.240192 33,000 256 516 0
2022-08-08 15:57:04 GMT 49.302963 3.252025 33,000 256 516 0
2022-08-08 15:57:01 GMT 49.304764 3.262869 33,000 256 516 0
2022-08-08 15:56:59 GMT 49.305710 3.268722 33,000 256 516 0
2022-08-08 15:56:56 GMT 49.308243 3.284067 33,000 256 516 0
2022-08-08 15:56:53 GMT 49.309570 3.292236 33,000 256 516 0
2022-08-08 15:56:50 GMT 49.311295 3.302620 33,000 256 515 0
2022-08-08 15:56:47 GMT 49.312786 3.311800 33,000 256 515 0
2022-08-08 15:56:43 GMT 49.315487 3.328062 33,000 256 515 0
2022-08-08 15:56:40 GMT 49.317307 3.339210 33,000 257 516 0
2022-08-08 15:56:38 GMT 49.317951 3.343241 33,000 256 515 0
2022-08-08 15:56:36 GMT 49.321491 3.364852 33,000 257 516 0
2022-08-08 15:56:33 GMT 49.321491 3.364852 33,000 257 516 0
2022-08-08 15:56:30 GMT 49.322708 3.372451 33,000 257 517 0
2022-08-08 15:56:27 GMT 49.324539 3.383789 33,000 257 516 0
2022-08-08 15:56:25 GMT 49.325684 3.390902 33,000 257 516 0
2022-08-08 15:56:22 GMT 49.327404 3.401353 33,000 257 517 0
2022-08-08 15:56:19 GMT 49.329071 3.411748 33,000 257 516 0
2022-08-08 15:56:17 GMT 49.330338 3.419350 33,000 257 516 0
2022-08-08 15:56:15 GMT 49.331406 3.426072 33,000 257 517 0
2022-08-08 15:56:12 GMT 49.333099 3.436538 33,000 257 517 0
2022-08-08 15:56:09 GMT 49.334839 3.447524 33,000 257 517 0
2022-08-08 15:56:07 GMT 49.336014 3.454839 33,000 257 517 0
2022-08-08 15:56:05 GMT 49.337177 3.461922 33,000 257 517 0
2022-08-08 15:56:02 GMT 49.338902 3.472547 33,000 257 517 0
2022-08-08 15:55:59 GMT 49.340561 3.482666 33,000 257 517 0
2022-08-08 15:55:56 GMT 49.342255 3.493300 33,000 257 517 0
2022-08-08 15:55:54 GMT 49.343353 3.499991 33,000 257 517 0
2022-08-08 15:55:51 GMT 49.345184 3.511216 33,000 257 516 0
2022-08-08 15:55:49 GMT 49.348026 3.528924 33,000 257 516 0
2022-08-08 15:55:46 GMT 49.348026 3.528924 33,000 257 516 0
2022-08-08 15:55:44 GMT 49.350632 3.545063 33,000 257 516 0
2022-08-08 15:55:41 GMT 49.350632 3.545063 33,000 257 517 0
2022-08-08 15:55:39 GMT 49.352356 3.555884 33,000 257 516 0
2022-08-08 15:55:36 GMT 49.353516 3.563162 33,000 257 517 0
2022-08-08 15:55:34 GMT 49.354404 3.568677 33,000 257 517 0
2022-08-08 15:55:32 GMT 49.357178 3.586261 33,000 257 517 0
2022-08-08 15:55:30 GMT 49.359104 3.598167 33,000 257 517 0
2022-08-08 15:55:27 GMT 49.359787 3.602248 33,000 257 517 0
2022-08-08 15:55:22 GMT 49.363247 3.623754 33,000 257 517 0
2022-08-08 15:55:19 GMT 49.363247 3.623754 33,000 257 517 0
2022-08-08 15:55:16 GMT 49.365017 3.634740 33,000 257 517 0
2022-08-08 15:55:14 GMT 49.366196 3.642038 33,000 257 517 0
2022-08-08 15:55:10 GMT 49.368973 3.659242 33,000 257 517 0
2022-08-08 15:55:07 GMT 49.370361 3.667955 33,000 257 517 0
2022-08-08 15:55:02 GMT 49.373611 3.688237 33,000 257 517 0
2022-08-08 15:54:59 GMT 49.374939 3.696759 33,000 257 517 0
2022-08-08 15:54:56 GMT 49.376328 3.705501 33,000 257 517 0
2022-08-08 15:54:54 GMT 49.377399 3.712222 33,000 257 517 0
2022-08-08 15:54:51 GMT 49.379242 3.723802 33,000 257 517 0
2022-08-08 15:54:49 GMT 49.380341 3.730563 33,000 257 518 0
2022-08-08 15:54:47 GMT 49.381393 3.737323 33,000 257 517 0
2022-08-08 15:54:45 GMT 49.382523 3.744242 33,000 257 518 0
2022-08-08 15:54:41 GMT 49.384735 3.757958 33,000 257 518 0
2022-08-08 15:54:38 GMT 49.387035 3.772358 33,000 257 518 0
2022-08-08 15:54:36 GMT 49.387619 3.776128 33,000 257 518 0
2022-08-08 15:54:34 GMT 49.389458 3.787320 33,000 257 517 0
2022-08-08 15:54:31 GMT 49.390621 3.794837 33,000 257 518 0
2022-08-08 15:54:26 GMT 49.393646 3.813701 33,000 257 518 0
2022-08-08 15:54:24 GMT 49.394203 3.817243 33,000 257 518 0
2022-08-08 15:54:22 GMT 49.395927 3.828302 33,000 257 518 0
2022-08-08 15:54:18 GMT 49.398300 3.843336 33,000 257 518 0
2022-08-08 15:54:15 GMT 49.399418 3.850419 33,000 257 518 0
2022-08-08 15:54:13 GMT 49.400482 3.857398 33,000 257 518 0
2022-08-08 15:54:10 GMT 49.402164 3.867910 33,000 257 518 0
2022-08-08 15:54:06 GMT 49.405796 3.890750 33,000 257 518 0
2022-08-08 15:54:04 GMT 49.405796 3.890750 33,000 257 518 0
2022-08-08 15:54:02 GMT 49.407578 3.901978 33,000 257 518 0
2022-08-08 15:53:57 GMT 49.409847 3.916409 33,000 257 518 0
2022-08-08 15:53:54 GMT 49.411880 3.929021 33,000 257 518 0
2022-08-08 15:53:51 GMT 49.413479 3.939249 33,000 257 518 0
2022-08-08 15:53:47 GMT 49.415665 3.953127 33,000 257 518 0
2022-08-08 15:53:45 GMT 49.416824 3.960430 33,000 257 518 0
2022-08-08 15:53:41 GMT 49.418831 3.973509 33,000 257 518 0
2022-08-08 15:53:39 GMT 49.420090 3.981315 33,000 257 518 0
2022-08-08 15:53:37 GMT 49.421265 3.989023 33,000 257 518 0
2022-08-08 15:53:34 GMT 49.422729 3.998319 33,000 257 518 0
2022-08-08 15:53:31 GMT 49.424423 4.009376 33,000 257 518 0
2022-08-08 15:53:28 GMT 49.426163 4.020433 33,000 257 518 0
2022-08-08 15:53:25 GMT 49.427902 4.031476 33,000 257 518 0
2022-08-08 15:53:23 GMT 49.428955 4.038271 33,000 257 518 0
2022-08-08 15:53:21 GMT 49.430054 4.045065 33,000 257 518 0
2022-08-08 15:53:19 GMT 49.431656 4.055401 33,000 257 518 0
2022-08-08 15:53:16 GMT 49.434540 4.073615 33,000 257 518 0
2022-08-08 15:53:13 GMT 49.434540 4.073615 33,000 257 518 0
2022-08-08 15:53:11 GMT 49.439175 4.103022 33,000 257 518 0
2022-08-08 15:53:06 GMT 49.439175 4.103022 33,000 257 519 0
2022-08-08 15:53:03 GMT 49.440033 4.108598 33,000 257 518 0
2022-08-08 15:53:01 GMT 49.441364 4.116978 33,000 257 518 0
2022-08-08 15:52:58 GMT 49.443283 4.129269 33,000 257 518 0
2022-08-08 15:52:55 GMT 49.446167 4.147845 33,000 257 519 0
2022-08-08 15:52:52 GMT 49.446167 4.147845 33,000 257 519 0
2022-08-08 15:52:49 GMT 49.449043 4.166639 33,000 257 519 0
2022-08-08 15:52:44 GMT 49.452484 4.188610 33,000 257 519 0
2022-08-08 15:52:41 GMT 49.452484 4.188610 33,000 257 519 0
2022-08-08 15:52:39 GMT 49.453281 4.193808 33,000 257 519 0
2022-08-08 15:52:36 GMT 49.455322 4.206824 33,000 257 519 0
2022-08-08 15:52:33 GMT 49.456726 4.215929 33,000 257 519 0
2022-08-08 15:52:29 GMT 49.458984 4.230459 33,000 257 519 0
2022-08-08 15:52:27 GMT 49.460217 4.238125 33,000 257 519 0
2022-08-08 15:52:23 GMT 49.462509 4.252938 33,000 257 518 0
2022-08-08 15:52:19 GMT 49.465073 4.269779 33,000 257 518 0
2022-08-08 15:52:16 GMT 49.466499 4.278878 33,000 257 518 0
2022-08-08 15:52:13 GMT 49.467991 4.288528 33,000 257 518 0
2022-08-08 15:52:10 GMT 49.469479 4.298178 33,000 257 518 0
2022-08-08 15:52:08 GMT 49.470551 4.305379 33,000 257 518 0
2022-08-08 15:52:05 GMT 49.473770 4.326300 33,000 257 518 0
2022-08-08 15:52:02 GMT 49.473770 4.326300 33,000 257 518 0
2022-08-08 15:52:00 GMT 49.474926 4.333958 33,000 257 518 0
2022-08-08 15:51:58 GMT 49.476555 4.344350 33,000 257 518 0
2022-08-08 15:51:55 GMT 49.477615 4.351381 33,000 257 518 0
2022-08-08 15:51:52 GMT 49.479584 4.364096 33,000 257 519 0
2022-08-08 15:51:48 GMT 49.481583 4.376938 33,000 257 519 0
2022-08-08 15:51:45 GMT 49.483212 4.387702 33,000 257 519 0
2022-08-08 15:51:42 GMT 49.484802 4.397856 33,000 257 518 0
2022-08-08 15:51:39 GMT 49.486954 4.411878 33,000 257 519 0
2022-08-08 15:51:35 GMT 49.490288 4.433874 33,000 257 519 0
2022-08-08 15:51:32 GMT 49.490288 4.433874 33,000 257 519 0
2022-08-08 15:51:30 GMT 49.491486 4.441657 33,000 257 519 0
2022-08-08 15:51:28 GMT 49.492710 4.449686 33,000 257 519 0
2022-08-08 15:51:25 GMT 49.494431 4.461192 33,000 257 519 0
2022-08-08 15:51:22 GMT 49.495834 4.470351 33,000 257 519 0
2022-08-08 15:51:20 GMT 49.497227 4.479453 33,000 257 519 0
2022-08-08 15:51:18 GMT 49.498344 4.486579 33,000 257 519 0
2022-08-08 15:51:15 GMT 49.499973 4.497342 33,000 257 519 0
2022-08-08 15:51:12 GMT 49.503250 4.518706 33,000 257 519 0
2022-08-08 15:51:09 GMT 49.503250 4.518706 33,000 257 519 0
2022-08-08 15:51:07 GMT 49.504074 4.524127 33,000 257 519 0
2022-08-08 15:51:04 GMT 49.506023 4.536834 33,000 257 519 0
2022-08-08 15:51:02 GMT 49.506863 4.542253 33,000 257 519 0
2022-08-08 15:50:59 GMT 49.508816 4.555095 33,000 257 519 0
2022-08-08 15:50:57 GMT 49.509659 4.560699 33,000 257 519 0
2022-08-08 15:50:53 GMT 49.511471 4.572688 33,000 257 519 0
2022-08-08 15:50:50 GMT 49.513611 4.587089 33,000 257 519 0
2022-08-08 15:50:48 GMT 49.514774 4.594586 33,000 258 520 -64
2022-08-08 15:50:45 GMT 49.517475 4.612550 33,000 257 519 0
2022-08-08 15:50:43 GMT 49.517475 4.612550 33,000 257 519 0
2022-08-08 15:50:40 GMT 49.519089 4.623148 33,000 257 520 -64
2022-08-08 15:50:37 GMT 49.520691 4.633556 33,000 258 520 0
2022-08-08 15:50:34 GMT 49.523712 4.653722 33,000 258 520 0
2022-08-08 15:50:31 GMT 49.523712 4.653722 33,000 258 520 0
2022-08-08 15:50:29 GMT 49.525993 4.669041 33,000 258 520 0
2022-08-08 15:50:27 GMT 49.525993 4.669041 33,000 258 520 0
2022-08-08 15:50:24 GMT 49.527622 4.679805 33,000 258 520 0
2022-08-08 15:50:22 GMT 49.529205 4.690568 33,000 257 520 0
2022-08-08 15:50:17 GMT 49.531769 4.707493 33,000 257 520 0
2022-08-08 15:50:12 GMT 49.534420 4.725086 33,000 257 520 0
2022-08-08 15:50:09 GMT 49.535492 4.732287 33,000 258 519 0
2022-08-08 15:50:06 GMT 49.537170 4.743275 33,000 258 520 0
2022-08-08 15:50:03 GMT 49.538937 4.754927 33,000 258 519 0
2022-08-08 15:50:00 GMT 49.540558 4.765898 33,000 258 519 0
2022-08-08 15:49:57 GMT 49.542660 4.780092 33,000 258 519 0
2022-08-08 15:49:54 GMT 49.544220 4.790690 33,000 258 519 0
2022-08-08 15:49:51 GMT 49.545872 4.801693 33,000 258 519 0
2022-08-08 15:49:48 GMT 49.546875 4.808687 33,000 258 519 0
2022-08-08 15:49:42 GMT 49.551956 4.842802 33,000 258 519 0
2022-08-08 15:49:36 GMT 49.553558 4.853572 33,000 258 519 0
2022-08-08 15:49:33 GMT 49.554886 4.862607 33,000 258 519 0
2022-08-08 15:49:31 GMT 49.556393 4.872882 33,000 258 519 0
2022-08-08 15:49:28 GMT 49.557232 4.878227 33,000 258 519 0
2022-08-08 15:49:25 GMT 49.559189 4.891588 33,000 258 519 0
2022-08-08 15:49:22 GMT 49.560581 4.901239 33,000 258 519 0
2022-08-08 15:49:19 GMT 49.562393 4.913708 33,000 258 518 0
2022-08-08 15:49:16 GMT 49.563995 4.924477 33,000 258 518 0
2022-08-08 15:49:13 GMT 49.565826 4.937053 33,000 258 519 0
2022-08-08 15:49:10 GMT 49.569260 4.960038 33,000 258 519 0
2022-08-08 15:49:07 GMT 49.570312 4.967266 33,000 258 518 0
2022-08-08 15:49:01 GMT 49.571915 4.978035 33,000 258 518 0
2022-08-08 15:48:58 GMT 49.573524 4.988981 33,000 258 518 0
2022-08-08 15:48:55 GMT 49.576447 5.008898 33,000 258 518 0
2022-08-08 15:48:52 GMT 49.576447 5.008898 33,000 258 518 0
2022-08-08 15:48:50 GMT 49.578087 5.020232 33,000 258 518 0
2022-08-08 15:48:47 GMT 49.579205 5.027804 33,000 258 518 0
2022-08-08 15:48:44 GMT 49.580692 5.037825 33,000 258 518 0
2022-08-08 15:48:41 GMT 49.583954 5.060169 33,000 258 518 0
2022-08-08 15:48:38 GMT 49.583954 5.060169 33,000 258 518 0
2022-08-08 15:48:35 GMT 49.587536 5.084591 33,000 258 518 0
2022-08-08 15:48:32 GMT 49.587536 5.084591 33,000 258 518 0
2022-08-08 15:48:29 GMT 49.588806 5.093030 33,000 258 518 0
2022-08-08 15:48:27 GMT 49.590237 5.102927 33,000 258 518 0
2022-08-08 15:48:24 GMT 49.590981 5.107900 33,000 258 518 0
2022-08-08 15:48:21 GMT 49.592983 5.121559 33,000 258 518 0
2022-08-08 15:48:18 GMT 49.596359 5.144782 33,000 258 518 0
2022-08-08 15:48:15 GMT 49.598236 5.157720 33,000 258 518 0
2022-08-08 15:48:11 GMT 49.598236 5.157720 33,000 258 518 0
2022-08-08 15:48:08 GMT 49.600151 5.170849 33,000 258 518 0
2022-08-08 15:48:05 GMT 49.601315 5.178718 33,000 258 518 0
2022-08-08 15:48:02 GMT 49.604015 5.197424 33,000 258 518 0
2022-08-08 15:48:00 GMT 49.604015 5.197424 33,000 258 518 0
2022-08-08 15:47:57 GMT 49.605644 5.208559 33,000 258 518 0
2022-08-08 15:47:55 GMT 49.606483 5.214349 33,000 258 518 0
2022-08-08 15:47:52 GMT 49.611465 5.248421 33,000 258 518 0
2022-08-08 15:47:48 GMT 49.611465 5.248421 33,000 258 518 0
2022-08-08 15:47:44 GMT 49.612793 5.257609 33,000 258 518 0
2022-08-08 15:47:40 GMT 49.616409 5.282761 33,000 258 518 0
2022-08-08 15:47:36 GMT 49.616409 5.282761 33,000 258 518 0
2022-08-08 15:47:33 GMT 49.618240 5.295338 33,000 258 518 0
2022-08-08 15:47:30 GMT 49.620029 5.308178 33,000 258 518 0
2022-08-08 15:47:26 GMT 49.623569 5.332600 33,000 258 518 0
2022-08-08 15:47:23 GMT 49.624313 5.338019 33,000 258 518 0
2022-08-08 15:47:20 GMT 49.624313 5.338019 33,000 258 518 0
2022-08-08 15:47:18 GMT 49.625431 5.345517 33,000 258 518 0
2022-08-08 15:47:16 GMT 49.626984 5.356485 33,000 258 518 0
2022-08-08 15:47:13 GMT 49.628132 5.364223 33,000 258 518 64
2022-08-08 15:47:10 GMT 49.629913 5.376651 33,000 258 518 64
2022-08-08 15:47:07 GMT 49.631424 5.387421 33,000 258 518 0
2022-08-08 15:47:04 GMT 49.632786 5.396588 33,000 258 518 0
2022-08-08 15:47:01 GMT 49.634583 5.409321 33,000 258 518 0
2022-08-08 15:46:58 GMT 49.635864 5.418356 33,000 258 518 0
2022-08-08 15:46:56 GMT 49.636883 5.425316 33,000 258 518 0
2022-08-08 15:46:53 GMT 49.638611 5.437365 33,000 258 518 0
2022-08-08 15:46:50 GMT 49.640469 5.450481 33,000 258 518 0
2022-08-08 15:46:47 GMT 49.643307 5.470301 33,000 258 518 0
2022-08-08 15:46:44 GMT 49.643307 5.470301 33,000 258 518 0
2022-08-08 15:46:41 GMT 49.644657 5.480025 33,000 258 518 0
2022-08-08 15:46:39 GMT 49.645706 5.487382 33,000 258 518 0
2022-08-08 15:46:36 GMT 49.647682 5.501181 33,000 258 518 0
2022-08-08 15:46:31 GMT 49.652573 5.535519 33,000 258 517 0
2022-08-08 15:46:27 GMT 49.652573 5.535519 33,000 258 517 0
2022-08-08 15:46:24 GMT 49.653782 5.544013 33,000 258 517 0
2022-08-08 15:46:20 GMT 49.655598 5.556558 33,000 258 517 0
2022-08-08 15:46:17 GMT 49.657379 5.569346 33,000 258 517 0
2022-08-08 15:46:14 GMT 49.658855 5.579941 33,000 258 517 0
2022-08-08 15:46:11 GMT 49.660019 5.588255 33,000 258 517 0
2022-08-08 15:46:08 GMT 49.661556 5.599019 33,000 258 517 0
2022-08-08 15:46:05 GMT 49.663605 5.613580 33,000 258 516 0
2022-08-08 15:46:01 GMT 49.665482 5.626879 33,000 258 516 0
2022-08-08 15:45:59 GMT 49.666260 5.632300 33,000 258 517 0
2022-08-08 15:45:56 GMT 49.667606 5.641776 33,000 258 516 0
2022-08-08 15:45:53 GMT 49.669189 5.653116 33,000 258 516 0
2022-08-08 15:45:50 GMT 49.670727 5.664120 33,000 258 517 0
2022-08-08 15:45:47 GMT 49.672119 5.674005 33,000 258 516 0
2022-08-08 15:45:44 GMT 49.673676 5.685136 33,000 258 516 0
2022-08-08 15:45:41 GMT 49.675426 5.697896 33,000 258 516 0
2022-08-08 15:45:39 GMT 49.677155 5.709927 33,000 258 516 0
2022-08-08 15:45:37 GMT 49.677155 5.709927 33,000 258 516 0
2022-08-08 15:45:34 GMT 49.679199 5.724471 33,000 258 516 0
2022-08-08 15:45:30 GMT 49.680965 5.737090 33,000 258 516 0
2022-08-08 15:45:27 GMT 49.682739 5.749897 33,000 258 515 0
2022-08-08 15:45:23 GMT 49.684319 5.760844 31,900 258 515 0
2022-08-08 15:45:20 GMT 49.685577 5.769827 33,000 258 516 0
2022-08-08 15:45:18 GMT 49.687019 5.780219 33,000 258 516 0
2022-08-08 15:45:15 GMT 49.688511 5.790686 33,000 258 516 0
2022-08-08 15:45:12 GMT 49.690231 5.803231 33,000 258 515 0
2022-08-08 15:45:09 GMT 49.691303 5.810728 33,000 258 516 0
2022-08-08 15:45:07 GMT 49.692280 5.817929 33,000 258 515 0
2022-08-08 15:45:04 GMT 49.693817 5.828692 33,000 258 515 0
2022-08-08 15:45:02 GMT 49.694935 5.836635 33,000 258 515 0
2022-08-08 15:44:59 GMT 49.696426 5.847256 33,000 258 515 0
2022-08-08 15:44:56 GMT 49.698193 5.859944 33,000 258 515 -64
2022-08-08 15:44:53 GMT 49.699997 5.872698 33,000 258 515 -64
2022-08-08 15:44:50 GMT 49.701187 5.881299 33,000 258 515 -64
2022-08-08 15:44:48 GMT 49.701965 5.886720 33,000 258 515 -64
2022-08-08 15:44:45 GMT 49.705215 5.909994 32,400 258 516 64
2022-08-08 15:44:42 GMT 49.705215 5.909994 32,400 258 516 64
2022-08-08 15:44:39 GMT 49.706711 5.920963 33,000 258 516 0
2022-08-08 15:44:36 GMT 49.707962 5.929798 33,000 258 516 -64
2022-08-08 15:44:33 GMT 49.709793 5.943025 30,350 269 513 1792
2022-08-08 15:44:30 GMT 49.711990 5.958927 32,925 258 516 960
2022-08-08 15:44:28 GMT 49.711990 5.958927 32,925 258 516 960
2022-08-08 15:44:25 GMT 49.713455 5.969335 32,950 258 516 960
2022-08-08 15:44:22 GMT 49.715057 5.980827 32,825 258 515 960
2022-08-08 15:44:19 GMT 49.716797 5.993403 32,825 258 516 960
2022-08-08 15:44:16 GMT 49.717987 6.002005 32,775 258 516 960
2022-08-08 15:44:13 GMT 49.721054 6.023905 32,650 258 516 960
2022-08-08 15:44:10 GMT 49.721054 6.023905 32,725 259 516 960
2022-08-08 15:44:08 GMT 49.722538 6.034538 32,675 259 516 960
2022-08-08 15:44:05 GMT 49.723656 6.042777 32,600 259 516 960
2022-08-08 15:44:02 GMT 49.726044 6.060261 32,550 259 516 960
2022-08-08 15:44:00 GMT 49.726044 6.060261 32,550 259 516 960
2022-08-08 15:43:57 GMT 49.727509 6.071030 32,500 259 516 960
2022-08-08 15:43:54 GMT 49.730358 6.091770 32,400 258 515 960
2022-08-08 15:43:51 GMT 49.730358 6.091770 32,350 258 515 1024
2022-08-08 15:43:48 GMT 49.731903 6.103050 32,350 258 515 1024
2022-08-08 15:43:45 GMT 49.733479 6.114411 32,225 259 514 1344
2022-08-08 15:43:41 GMT 49.735336 6.127480 32,250 260 514 1344
2022-08-08 15:43:38 GMT 49.738785 6.153531 32,150 260 514 1344
2022-08-08 15:43:35 GMT 49.738785 6.153531 32,025 260 514 1344
2022-08-08 15:43:32 GMT 49.740051 6.164197 32,025 260 513 1344
2022-08-08 15:43:29 GMT 49.740879 6.171199 32,000 261 513 1344
2022-08-08 15:43:26 GMT 49.743160 6.192874 31,850 262 513 1344
2022-08-08 15:43:23 GMT 49.743160 6.192874 31,800 262 513 1408
2022-08-08 15:43:20 GMT 49.744217 6.203951 31,775 265 512 1216
2022-08-08 15:43:18 GMT 49.745071 6.213140 31,700 263 513 1408
2022-08-08 15:43:15 GMT 49.745865 6.222382 31,600 263 512 1280
2022-08-08 15:43:12 GMT 49.746735 6.233296 31,575 264 513 1216
2022-08-08 15:43:09 GMT 49.748466 6.257827 31,475 265 512 1216
2022-08-08 15:43:05 GMT 49.748466 6.257827 31,325 265 512 1280
2022-08-08 15:43:02 GMT 49.749298 6.272904 31,250 266 511 1472
2022-08-08 15:42:59 GMT 49.750214 6.294371 31,075 268 510 1664
2022-08-08 15:42:56 GMT 49.750214 6.294371 31,200 268 510 1664
2022-08-08 15:42:53 GMT 49.750423 6.302144 31,075 269 511 1792
2022-08-08 15:42:50 GMT 49.750671 6.313236 31,025 269 511 1792
2022-08-08 15:42:47 GMT 49.750854 6.322704 30,725 269 511 1856
2022-08-08 15:42:44 GMT 49.751038 6.333690 30,825 269 511 1856
2022-08-08 15:42:41 GMT 49.751213 6.344382 30,500 269 513 1792
2022-08-08 15:42:38 GMT 49.751446 6.356407 30,725 269 512 1920
2022-08-08 15:42:35 GMT 49.751816 6.377419 30,550 269 513 1856
2022-08-08 15:42:32 GMT 49.751816 6.377419 30,475 269 513 1792
2022-08-08 15:42:29 GMT 49.752090 6.391658 30,350 269 513 1856
2022-08-08 15:42:26 GMT 49.752319 6.403367 30,250 269 514 1792
2022-08-08 15:42:23 GMT 49.752548 6.418039 30,150 269 514 1792
2022-08-08 15:42:21 GMT 49.752548 6.418039 30,100 269 514 1792
2022-08-08 15:42:18 GMT 49.752892 6.439770 30,050 269 514 1792
2022-08-08 15:42:15 GMT 49.752892 6.439770 29,975 269 514 1792
2022-08-08 15:42:12 GMT 49.753281 6.461912 29,750 269 514 1664
2022-08-08 15:42:09 GMT 49.753281 6.461912 29,800 269 514 1792
2022-08-08 15:42:07 GMT 49.753464 6.472537 29,725 269 513 1728
2022-08-08 15:42:04 GMT 49.753601 6.481355 29,625 269 514 1664
2022-08-08 15:42:01 GMT 49.753777 6.491435 29,550 269 514 1600
2022-08-08 15:41:58 GMT 49.754009 6.503906 29,475 269 514 1664
2022-08-08 15:41:56 GMT 49.754196 6.514314 29,325 269 513 2048
2022-08-08 15:41:53 GMT 49.754288 6.519272 29,375 269 514 1664
2022-08-08 15:41:50 GMT 49.754471 6.530432 29,300 269 513 1728
2022-08-08 15:41:48 GMT 49.754658 6.539389 29,250 269 513 1728
2022-08-08 15:41:45 GMT 49.755066 6.564476 29,075 269 513 1728
2022-08-08 15:41:42 GMT 49.755219 6.572348 28,900 269 513 0
2022-08-08 15:41:39 GMT 49.755219 6.572348 28,850 269 513 0
2022-08-08 15:41:37 GMT 49.755310 6.578138 28,850 269 513 1792
2022-08-08 15:41:35 GMT 49.755386 6.585653 28,750 269 513 1728
2022-08-08 15:41:32 GMT 49.755589 6.598997 28,750 269 513 1728
2022-08-08 15:41:29 GMT 49.755753 6.609071 28,450 269 513 2048
2022-08-08 15:41:26 GMT 49.755917 6.618001 28,475 269 513 2048
2022-08-08 15:41:23 GMT 49.756290 6.643240 28,400 269 513 2176
2022-08-08 15:41:20 GMT 49.756485 6.654390 28,275 269 516 2240
2022-08-08 15:41:16 GMT 49.756485 6.654390 28,200 269 514 2176
2022-08-08 15:41:14 GMT 49.756577 6.661329 27,925 269 514 2368
2022-08-08 15:41:11 GMT 49.756802 6.674343 28,000 269 515 2368
2022-08-08 15:41:08 GMT 49.756989 6.685542 27,875 269 515 2368
2022-08-08 15:41:05 GMT 49.757217 6.698335 27,550 269 515 2304
2022-08-08 15:41:02 GMT 49.757355 6.707153 27,550 269 516 2240
2022-08-08 15:40:59 GMT 49.757538 6.718212 26,425 269 516 2304
2022-08-08 15:40:55 GMT 49.757824 6.734545 27,350 269 517 2432
2022-08-08 15:40:52 GMT 49.757965 6.744121 27,225 269 517 2432
2022-08-08 15:40:49 GMT 49.758133 6.757604 27,150 269 517 2624
2022-08-08 15:40:46 GMT 49.758244 6.767355 26,900 269 518 2624
2022-08-08 15:40:43 GMT 49.758385 6.777674 26,800 269 518 2688
2022-08-08 15:40:40 GMT 49.758522 6.788734 26,650 269 520 2368
2022-08-08 15:40:37 GMT 49.758709 6.800240 26,300 269 520 1728
2022-08-08 15:40:34 GMT 49.758850 6.809816 26,250 269 520 1728
2022-08-08 15:40:31 GMT 49.759083 6.825479 26,300 269 520 1920
2022-08-08 15:40:28 GMT 49.759277 6.837110 26,250 269 520 1792
2022-08-08 15:40:25 GMT 49.759369 6.842675 26,200 269 520 1728
2022-08-08 15:40:22 GMT 49.759781 6.868985 26,050 269 519 1536
2022-08-08 15:40:19 GMT 49.759781 6.868985 26,025 269 519 1600
2022-08-08 15:40:16 GMT 49.759918 6.878598 25,875 270 517 1728
2022-08-08 15:40:12 GMT 49.760105 6.892807 25,850 270 517 1728
2022-08-08 15:40:09 GMT 49.760201 6.902012 25,775 270 517 1728
2022-08-08 15:40:06 GMT 49.760338 6.915300 25,500 269 515 1600
2022-08-08 15:40:03 GMT 49.760468 6.925073 25,575 269 515 1600
2022-08-08 15:40:00 GMT 49.760651 6.940541 25,475 269 513 1792
2022-08-08 15:39:57 GMT 49.760757 6.951302 25,375 269 512 2048
2022-08-08 15:39:54 GMT 49.760880 6.961429 25,300 269 510 1600
2022-08-08 15:39:51 GMT 49.760990 6.970380 25,075 269 512 2048
2022-08-08 15:39:49 GMT 49.761131 6.979139 25,175 269 513 1984
2022-08-08 15:39:46 GMT 49.761223 6.987527 24,975 269 512 1984
2022-08-08 15:39:44 GMT 49.761337 6.994677 24,900 269 512 1920
2022-08-08 15:39:41 GMT 49.761612 7.016939 24,700 269 501 2304
2022-08-08 15:39:38 GMT 49.761612 7.016939 24,700 269 501 2304
2022-08-08 15:39:35 GMT 49.761734 7.028355 24,625 269 508 1728
2022-08-08 15:39:32 GMT 49.761978 7.047802 24,325 269 506 2048
2022-08-08 15:39:29 GMT 49.761978 7.047802 24,550 269 508 1856
2022-08-08 15:39:24 GMT 49.762199 7.068218 24,300 269 504 1792
2022-08-08 15:39:21 GMT 49.762295 7.078016 24,150 269 506 2112
2022-08-08 15:39:18 GMT 49.762436 7.089001 24,250 269 506 2112
2022-08-08 15:39:15 GMT 49.762619 7.103255 24,000 269 505 1792
2022-08-08 15:39:11 GMT 49.762756 7.113864 23,975 269 503 1792
2022-08-08 15:39:08 GMT 49.762897 7.124782 23,750 269 503 1792
2022-08-08 15:39:04 GMT 49.763031 7.137138 23,725 269 501 2240
2022-08-08 15:39:01 GMT 49.763180 7.149873 23,650 270 501 2432
2022-08-08 15:38:59 GMT 49.763351 7.163953 23,550 269 501 2496
2022-08-08 15:38:54 GMT 49.763504 7.178081 23,275 270 501 2432
2022-08-08 15:38:51 GMT 49.763580 7.185420 23,175 270 501 2368
2022-08-08 15:38:48 GMT 49.763672 7.197201 23,150 270 501 2240
2022-08-08 15:38:44 GMT 49.763878 7.214158 22,950 270 499 1984
2022-08-08 15:38:41 GMT 49.763924 7.221581 22,925 270 499 1984
2022-08-08 15:38:39 GMT 49.764015 7.229746 22,800 270 498 2048
2022-08-08 15:38:33 GMT 49.764359 7.258999 22,575 269 496 2368
2022-08-08 15:38:31 GMT 49.764359 7.258999 22,275 269 496 2432
2022-08-08 15:38:28 GMT 49.764450 7.266083 22,425 269 496 2368
2022-08-08 15:38:25 GMT 49.764587 7.280249 22,250 269 496 2368
2022-08-08 15:38:21 GMT 49.764713 7.291730 22,150 270 495 2304
2022-08-08 15:38:18 GMT 49.764908 7.308510 21,950 270 494 2240
2022-08-08 15:38:13 GMT 49.765087 7.331592 21,575 270 493 2240
2022-08-08 15:38:11 GMT 49.765087 7.331592 21,675 270 492 2240
2022-08-08 15:38:08 GMT 49.765137 7.336988 21,575 270 492 2240
2022-08-08 15:38:05 GMT 49.765228 7.349637 21,500 270 492 2240
2022-08-08 15:38:02 GMT 49.765320 7.359652 21,325 270 490 2176
2022-08-08 15:37:59 GMT 49.765411 7.371900 21,225 270 489 2304
2022-08-08 15:37:56 GMT 49.765507 7.380957 21,175 270 489 2304
2022-08-08 15:37:53 GMT 49.765686 7.401388 20,700 270 488 2368
2022-08-08 15:37:50 GMT 49.765686 7.401388 20,950 270 488 2368
2022-08-08 15:37:48 GMT 49.765739 7.406418 20,675 270 488 2368
2022-08-08 15:37:45 GMT 49.765877 7.419260 20,750 270 486 2112
2022-08-08 15:37:42 GMT 49.765961 7.427770 20,675 270 486 2176
2022-08-08 15:37:40 GMT 49.766052 7.434347 20,600 270 486 2112
2022-08-08 15:37:37 GMT 49.766281 7.457838 20,400 270 484 2176
2022-08-08 15:37:34 GMT 49.766281 7.457838 20,050 270 483 2240
2022-08-08 15:37:32 GMT 49.766296 7.463206 20,225 270 483 2304
2022-08-08 15:37:29 GMT 49.766373 7.473739 20,225 270 483 2304
2022-08-08 15:37:26 GMT 49.766464 7.482629 20,025 270 482 2176
2022-08-08 15:37:23 GMT 49.766529 7.493789 19,975 270 481 1920
2022-08-08 15:37:20 GMT 49.766579 7.502697 19,900 270 479 1792
2022-08-08 15:37:18 GMT 49.766647 7.512769 19,500 270 477 1856
2022-08-08 15:37:12 GMT 49.766808 7.532984 19,625 270 475 2176
2022-08-08 15:37:09 GMT 49.766903 7.541149 19,350 270 472 2240
2022-08-08 15:37:06 GMT 49.766994 7.551319 19,400 270 473 2304
2022-08-08 15:37:03 GMT 49.767181 7.575222 19,175 270 472 2240
2022-08-08 15:36:59 GMT 49.767181 7.575222 19,200 270 472 2240
2022-08-08 15:36:56 GMT 49.767288 7.586493 18,275 270 469 2048
2022-08-08 15:36:52 GMT 49.767334 7.596901 18,900 270 470 2112
2022-08-08 15:36:50 GMT 49.767414 7.607141 18,750 270 468 2048
2022-08-08 15:36:47 GMT 49.767460 7.615455 18,625 270 466 2240
2022-08-08 15:36:44 GMT 49.767563 7.626608 18,375 270 464 3008
2022-08-08 15:36:41 GMT 49.767693 7.646410 18,400 270 465 2560
2022-08-08 15:36:38 GMT 49.767693 7.646410 18,275 270 465 2624
2022-08-08 15:36:36 GMT 49.767693 7.651681 18,275 270 464 2816
2022-08-08 15:36:33 GMT 49.767792 7.663759 18,075 270 464 3008
2022-08-08 15:36:30 GMT 49.767879 7.672911 17,950 270 464 3072
2022-08-08 15:36:27 GMT 49.767975 7.683155 17,750 270 464 3072
2022-08-08 15:36:25 GMT 49.768021 7.690059 17,525 270 464 3072
2022-08-08 15:36:22 GMT 49.768066 7.698669 17,575 270 464 3008
2022-08-08 15:36:19 GMT 49.768158 7.710379 17,375 270 463 2816
2022-08-08 15:36:16 GMT 49.768208 7.716856 17,275 270 463 2752
2022-08-08 15:36:13 GMT 49.768250 7.730906 17,075 270 462 2816
2022-08-08 15:36:10 GMT 49.768295 7.739434 16,975 270 462 2816
2022-08-08 15:36:08 GMT 49.768345 7.748182 16,850 270 461 2816
2022-08-08 15:36:04 GMT 49.768391 7.758055 16,625 270 460 2752
2022-08-08 15:36:01 GMT 49.768440 7.768225 16,550 270 460 2688
2022-08-08 15:35:59 GMT 49.768486 7.773495 16,475 270 459 2688
2022-08-08 15:35:57 GMT 49.768486 7.780028 16,125 270 459 2688
2022-08-08 15:35:54 GMT 49.768623 7.800664 16,150 270 458 2624
2022-08-08 15:35:51 GMT 49.768623 7.800664 16,125 270 457 2624
2022-08-08 15:35:49 GMT 49.768673 7.811057 15,975 270 456 2560
2022-08-08 15:35:46 GMT 49.768707 7.816122 15,925 270 455 2560
2022-08-08 15:35:44 GMT 49.768764 7.823750 15,800 270 455 2560
2022-08-08 15:35:41 GMT 49.768845 7.833324 15,675 270 454 2688
2022-08-08 15:35:39 GMT 49.768860 7.839265 15,525 270 453 2752
2022-08-08 15:35:37 GMT 49.768936 7.846262 15,325 270 453 2752
2022-08-08 15:35:34 GMT 49.768982 7.854357 15,325 270 453 2752
2022-08-08 15:35:32 GMT 49.768997 7.863836 15,250 270 450 2624
2022-08-08 15:35:29 GMT 49.769043 7.872595 15,150 270 451 2688
2022-08-08 15:35:24 GMT 49.769119 7.892014 14,900 270 448 2496
2022-08-08 15:35:21 GMT 49.769184 7.898873 14,775 270 448 2496
2022-08-08 15:35:18 GMT 49.769230 7.905628 14,600 270 447 2432
2022-08-08 15:35:16 GMT 49.769348 7.927431 14,525 270 446 2368
2022-08-08 15:35:12 GMT 49.769348 7.927431 14,400 270 444 2432
2022-08-08 15:35:09 GMT 49.769417 7.942150 14,225 270 443 2432
2022-08-08 15:35:04 GMT 49.769463 7.952543 13,950 270 440 2304
2022-08-08 15:35:00 GMT 49.769531 7.963425 13,925 270 440 2304
2022-08-08 15:34:58 GMT 49.769531 7.970942 13,875 270 439 2176
2022-08-08 15:34:55 GMT 49.769604 7.980528 13,775 270 437 1920
2022-08-08 15:34:52 GMT 49.769623 7.993132 13,650 270 434 1664
2022-08-08 15:34:49 GMT 49.769650 8.000348 13,575 270 433 1472
2022-08-08 15:34:47 GMT 49.769650 8.005025 13,550 270 430 1408
2022-08-08 15:34:44 GMT 49.769695 8.012967 13,525 270 429 1344
2022-08-08 15:34:41 GMT 49.769760 8.032885 13,375 270 425 1344
2022-08-08 15:34:38 GMT 49.769760 8.032885 13,350 270 421 1344
2022-08-08 15:34:35 GMT 49.769806 8.041342 13,275 270 418 1344
2022-08-08 15:34:30 GMT 49.769882 8.056096 13,175 270 415 1408
2022-08-08 15:34:28 GMT 49.769882 8.060847 13,125 270 414 1408
2022-08-08 15:34:26 GMT 49.769928 8.067008 13,100 270 411 1472
2022-08-08 15:34:23 GMT 49.769989 8.078565 12,950 270 407 1536
2022-08-08 15:34:20 GMT 49.770035 8.090130 12,850 270 404 1600
2022-08-08 15:34:18 GMT 49.770035 8.090130 12,875 270 404 1600
2022-08-08 15:34:16 GMT 49.770081 8.097647 12,825 270 402 1536
2022-08-08 15:34:14 GMT 49.770069 8.102046 12,775 270 400 1536
2022-08-08 15:34:11 GMT 49.770126 8.112175 12,675 270 397 1664
2022-08-08 15:34:08 GMT 49.770172 8.119258 12,625 270 395 1664
2022-08-08 15:34:06 GMT 49.770172 8.126052 12,600 270 394 1664
2022-08-08 15:34:03 GMT 49.770218 8.134147 12,475 270 390 1600
2022-08-08 15:34:00 GMT 49.770264 8.143037 12,400 270 387 1600
2022-08-08 15:33:57 GMT 49.770309 8.152940 12,300 270 383 1664
2022-08-08 15:33:54 GMT 49.770309 8.159517 12,175 270 381 1600
2022-08-08 15:33:50 GMT 49.770401 8.174985 12,100 270 377 1536
2022-08-08 15:33:48 GMT 49.770401 8.174985 12,075 270 376 1536
2022-08-08 15:33:45 GMT 49.770393 8.179915 12,025 270 375 1536
2022-08-08 15:33:43 GMT 49.770447 8.197535 11,875 270 371 1536
2022-08-08 15:33:40 GMT 49.770447 8.197535 11,850 270 369 1472
2022-08-08 15:33:38 GMT 49.770439 8.201665 11,775 271 353 1600
2022-08-08 15:33:36 GMT 49.770439 8.206639 11,800 270 366 1408
2022-08-08 15:33:33 GMT 49.770439 8.216437 11,675 271 360 1408
2022-08-08 15:33:30 GMT 49.770439 8.222895 11,600 271 350 1600
2022-08-08 15:33:28 GMT 49.770393 8.228537 11,575 271 356 1472
2022-08-08 15:33:26 GMT 49.770355 8.233458 11,525 271 353 1600
2022-08-08 15:33:23 GMT 49.770309 8.240541 11,475 271 352 1664
2022-08-08 15:33:20 GMT 49.770302 8.252588 11,375 271 348 1536
2022-08-08 15:33:18 GMT 49.770264 8.257671 11,325 270 346 1408
2022-08-08 15:33:13 GMT 49.770302 8.265133 11,200 270 339 1280
2022-08-08 15:33:10 GMT 49.770264 8.277837 11,150 271 338 1152
2022-08-08 15:33:08 GMT 49.770264 8.277837 11,125 272 336 1024
2022-08-08 15:33:04 GMT 49.770023 8.286809 11,050 276 327 384
2022-08-08 15:33:01 GMT 49.769554 8.294975 11,050 277 324 320
2022-08-08 15:32:58 GMT 49.768753 8.304941 11,000 279 319 384
2022-08-08 15:32:54 GMT 49.768250 8.309350 11,000 281 314 512
2022-08-08 15:32:51 GMT 49.767227 8.317096 10,925 288 304 1088
2022-08-08 15:32:48 GMT 49.766418 8.322144 10,800 288 304 1088
2022-08-08 15:32:45 GMT 49.763783 8.334615 10,825 290 300 1664
2022-08-08 15:32:42 GMT 49.763783 8.334615 10,775 291 299 2240
2022-08-08 15:32:39 GMT 49.762299 8.340502 10,625 293 298 3072
2022-08-08 15:32:37 GMT 49.761154 8.344622 10,550 294 297 3392
2022-08-08 15:32:34 GMT 49.759460 8.350404 10,250 295 299 3648
2022-08-08 15:32:32 GMT 49.758335 8.354212 10,150 296 300 3584
2022-08-08 15:32:29 GMT 49.756569 8.360076 10,050 296 301 3456
2022-08-08 15:32:27 GMT 49.755432 8.363848 9,925 296 301 3456
2022-08-08 15:32:24 GMT 49.753307 8.370543 9,725 295 302 3648
2022-08-08 15:32:22 GMT 49.752472 8.373438 9,600 294 303 3648
2022-08-08 15:32:19 GMT 49.750515 8.380638 9,400 291 304 3904
2022-08-08 15:32:16 GMT 49.749298 8.386110 9,225 283 307 3840
2022-08-08 15:32:14 GMT 49.747833 8.395651 8,950 280 309 3648
2022-08-08 15:32:11 GMT 49.747284 8.402228 8,925 278 309 3584
2022-08-08 15:32:09 GMT 49.747284 8.402228 8,775 271 311 2752
2022-08-08 15:32:07 GMT 49.747257 8.413375 8,575 268 311 2304
2022-08-08 15:32:04 GMT 49.747257 8.413375 8,550 266 310 2176
2022-08-08 15:32:01 GMT 49.747677 8.419090 8,375 260 309 2048
2022-08-08 15:31:58 GMT 49.748512 8.425326 8,375 252 306 1984
2022-08-08 15:31:56 GMT 49.749958 8.432155 8,250 248 305 2368
2022-08-08 15:31:53 GMT 49.750580 8.434464 8,150 243 305 2688
2022-08-08 15:31:50 GMT 49.752518 8.440395 7,975 237 304 2816
2022-08-08 15:31:47 GMT 49.755123 8.446853 7,900 234 304 2560
2022-08-08 15:31:45 GMT 49.758244 8.453014 7,625 225 300 2240
2022-08-08 15:31:43 GMT 49.758244 8.453014 7,625 225 300 2240
2022-08-08 15:31:39 GMT 49.762070 8.459400 7,650 224 298 2304
2022-08-08 15:31:36 GMT 49.765411 8.464298 7,525 221 296 2176
2022-08-08 15:31:34 GMT 49.771465 8.471869 7,400 217 294 2368
2022-08-08 15:31:31 GMT 49.771465 8.471869 7,275 217 294 2368
2022-08-08 15:31:28 GMT 49.774200 8.474796 7,175 214 291 2624
2022-08-08 15:31:26 GMT 49.778046 8.478626 6,900 211 290 2816
2022-08-08 15:31:21 GMT 49.783401 8.483252 6,800 207 289 2304
2022-08-08 15:31:18 GMT 49.785152 8.484563 6,700 203 286 2240
2022-08-08 15:31:16 GMT 49.788116 8.486649 6,700 203 286 2240
2022-08-08 15:31:13 GMT 49.791622 8.488794 6,375 201 282 2432
2022-08-08 15:31:10 GMT 49.795120 8.490842 6,425 201 282 2368
2022-08-08 15:31:07 GMT 49.798920 8.493010 6,325 201 282 2560
2022-08-08 15:31:05 GMT 49.801304 8.494362 6,225 201 282 2368
2022-08-08 15:31:03 GMT 49.805214 8.496589 6,025 201 280 1984
2022-08-08 15:31:00 GMT 49.807682 8.497999 6,025 201 280 1728
2022-08-08 15:30:57 GMT 49.811687 8.500226 5,925 200 278 1664
2022-08-08 15:30:55 GMT 49.812927 8.500961 5,925 200 277 1664
2022-08-08 15:30:53 GMT 49.816483 8.502898 5,825 201 273 1600
2022-08-08 15:30:50 GMT 49.819748 8.504791 5,725 201 268 1472
2022-08-08 15:30:47 GMT 49.825241 8.507899 5,650 201 267 1408
2022-08-08 15:30:43 GMT 49.828674 8.509923 5,550 201 262 1600
2022-08-08 15:30:40 GMT 49.830772 8.511138 5,500 201 262 1408
2022-08-08 15:30:37 GMT 49.833664 8.512742 5,300 201 251 1728
2022-08-08 15:30:35 GMT 49.835987 8.514033 5,400 201 255 1664
2022-08-08 15:30:33 GMT 49.841946 8.517448 5,175 201 252 1728
2022-08-08 15:30:30 GMT 49.841946 8.517448 5,175 201 252 1792
2022-08-08 15:30:28 GMT 49.844193 8.518741 4,850 201 250 1728
2022-08-08 15:30:25 GMT 49.847485 8.520714 5,075 201 250 1728
2022-08-08 15:30:22 GMT 49.850185 8.522273 4,875 201 249 1728
2022-08-08 15:30:19 GMT 49.854374 8.524723 4,875 201 247 1664
2022-08-08 15:30:16 GMT 49.857586 8.526578 4,800 200 245 1152
2022-08-08 15:30:13 GMT 49.860764 8.528209 4,525 197 242 1600
2022-08-08 15:30:09 GMT 49.865799 8.530378 4,575 195 239 2432
2022-08-08 15:30:06 GMT 49.869919 8.531751 4,400 191 240 2624
2022-08-08 15:30:02 GMT 49.872208 8.532329 4,275 189 239 2432
2022-08-08 15:29:58 GMT 49.877277 8.533408 4,075 184 237 2368
2022-08-08 15:29:55 GMT 49.880630 8.533847 4,025 183 238 2368
2022-08-08 15:29:53 GMT 49.882965 8.533992 3,650 177 237 2944
2022-08-08 15:29:49 GMT 49.886581 8.534064 3,375 177 237 2944
2022-08-08 15:29:46 GMT 49.890381 8.533775 3,575 177 238 2944
2022-08-08 15:29:44 GMT 49.893757 8.533482 3,450 177 238 2816
2022-08-08 15:29:41 GMT 49.894875 8.533408 3,400 177 238 3008
2022-08-08 15:29:36 GMT 49.900459 8.532962 3,050 177 239 3200
2022-08-08 15:29:34 GMT 49.902878 8.532763 2,900 177 240 3328
2022-08-08 15:29:32 GMT 49.906219 8.532546 2,800 177 243 3072
2022-08-08 15:29:29 GMT 49.908840 8.532368 2,725 178 244 2432
2022-08-08 15:29:24 GMT 49.913818 8.532113 2,525 178 244 2176
2022-08-08 15:29:22 GMT 49.916885 8.531968 2,225 177 235 960
2022-08-08 15:29:19 GMT 49.920135 8.531751 2,225 177 235 960
2022-08-08 15:29:16 GMT 49.923828 8.531552 2,350 177 235 960
2022-08-08 15:29:14 GMT 49.925446 8.531462 2,325 177 233 1216
2022-08-08 15:29:12 GMT 49.928391 8.531255 2,275 177 230 2176
2022-08-08 15:29:09 GMT 49.931030 8.531028 2,200 177 230 2176
2022-08-08 15:29:06 GMT 49.934444 8.530810 2,075 177 229 2112
2022-08-08 15:29:04 GMT 49.936432 8.530595 2,000 177 229 2048
2022-08-08 15:29:03 GMT 49.937485 8.530522 1,975 177 229 1792
2022-08-08 15:29:01 GMT 49.939682 8.530378 1,925 177 227 1600
2022-08-08 15:29:00 GMT 49.940823 8.530290 1,900 177 227 1664
2022-08-08 15:28:58 GMT 49.942776 8.530141 1,850 177 225 1728
2022-08-08 15:28:57 GMT 49.943893 8.530089 1,825 177 225 1728
2022-08-08 15:28:54 GMT 49.947189 8.529800 1,725 177 223 1856
2022-08-08 15:28:52 GMT 49.949249 8.529655 1,650 176 223 1856
2022-08-08 15:28:51 GMT 49.950459 8.529548 1,625 176 222 1536
2022-08-08 15:28:48 GMT 49.952637 8.529366 1,575 176 221 1280
2022-08-08 15:28:47 GMT 49.954227 8.529176 1,550 176 219 960
2022-08-08 15:28:46 GMT 49.955292 8.529077 1,525 176 218 1024
2022-08-08 15:28:44 GMT 49.957256 8.528880 1,475 176 215 1088
2022-08-08 15:28:42 GMT 49.959442 8.528657 1,450 176 214 960
2022-08-08 15:28:40 GMT 49.960968 8.528571 1,450 176 211 640
2022-08-08 15:28:39 GMT 49.962112 8.528426 1,425 176 208 704
2022-08-08 15:28:38 GMT 49.964005 8.528286 1,400 176 205 768
2022-08-08 15:28:35 GMT 49.965820 8.528065 1,375 176 200 704
2022-08-08 15:28:34 GMT 49.968979 8.527776 1,350 176 199 640
2022-08-08 15:28:32 GMT 49.968979 8.527776 1,325 176 196 576
2022-08-08 15:28:31 GMT 49.970848 8.527618 1,300 175 194 704
2022-08-08 15:28:28 GMT 49.972229 8.527414 1,300 176 193 896
2022-08-08 15:28:27 GMT 49.973053 8.527342 1,275 175 191 1280
2022-08-08 15:28:24 GMT 49.975571 8.527053 1,200 176 190 1600
2022-08-08 15:28:23 GMT 49.976620 8.526949 1,150 176 190 1728
2022-08-08 15:28:22 GMT 49.977448 8.526908 1,125 176 191 1728
2022-08-08 15:28:20 GMT 49.979225 8.526727 1,075 176 191 1664
2022-08-08 15:28:18 GMT 49.981064 8.526619 1,025 177 189 1600
2022-08-08 15:28:16 GMT 49.982803 8.526475 950 177 189 1600
2022-08-08 15:28:14 GMT 49.984581 8.526356 900 179 187 1408
2022-08-08 15:28:13 GMT 49.985466 8.526281 875 179 187 1408
2022-08-08 15:28:11 GMT 49.987095 8.526207 825 179 186 1536
2022-08-08 15:28:10 GMT 49.988400 8.526207 750 179 186 1536
2022-08-08 15:28:09 GMT 49.990444 8.526207 750 181 185 1728
2022-08-08 15:28:07 GMT 49.990444 8.526207 725 181 185 1920
2022-08-08 15:28:04 GMT 49.993469 8.526258 625 181 185 2176
2022-08-08 15:28:02 GMT 49.994404 8.526281 575 180 185 2304
2022-08-08 15:28:00 GMT 49.996078 8.526281 500 179 186 2112
2022-08-08 15:27:57 GMT 49.998314 8.526207 425 179 187 1984
2022-08-08 15:27:56 GMT 49.999897 8.526207 375 179 187 1984
2022-08-08 15:27:52 GMT 50.032345 8.525910 225 179 167 64
2022-08-08 15:26:43 GMT 50.032345 8.525910 0 205 6
2022-08-08 15:26:27 GMT 50.032681 8.526764 0 255 14
2022-08-08 15:26:25 GMT 50.032711 8.526945 0 253 15
2022-08-08 15:26:22 GMT 50.032776 8.527284 0 250 18
2022-08-08 15:26:05 GMT 50.033470 8.530123 0 250 30
2022-08-08 15:25:37 GMT 50.034718 8.535356 0 250 27
2022-08-08 15:25:31 GMT 50.034966 8.536341 0 250 27
2022-08-08 15:25:00 GMT 50.036232 8.541685 0 250 24
2022-08-08 15:24:50 GMT 50.036613 8.543318 0 250 23
2022-08-08 15:24:44 GMT 50.036831 8.544183 0 250 23
2022-08-08 15:24:18 GMT 50.037609 8.547652 0 250 19
2022-08-08 15:24:06 GMT 50.037998 8.549163 0 247 17
2022-08-08 15:24:00 GMT 50.038174 8.549850 0 250 16
2022-08-08 15:23:54 GMT 50.038307 8.550417 0 247 14
2022-08-08 15:23:52 GMT 50.038372 8.550629 0 241 13
2022-08-08 15:23:39 GMT 50.038708 8.551372 0 191 9
2022-08-08 15:23:37 GMT 50.038792 8.551427 0 180 9
2022-08-08 15:23:34 GMT 50.038925 8.551447 0 165 8
2022-08-08 15:23:28 GMT 50.039131 8.551357 0 160 7
We lost coverage of the aircraft here for a total of 72 minutes
2022-08-08 14:11:16 GMT 50.039452 8.551176 0 160 0 0
2022-08-08 14:11:14 GMT 50.039455 8.551168 0 160 0 0
2022-08-08 14:11:10 GMT 50.039452 8.551176 0 160 0 0
2022-08-08 14:11:07 GMT 50.039455 8.551168 0 160 0 0
2022-08-08 14:11:05 GMT 50.039452 8.551176 0 160 0 0
2022-08-08 14:11:04 GMT 50.039455 8.551168 0 160 0 0
2022-08-08 14:11:01 GMT 50.039452 8.551176 0 160 0 0
2022-08-08 14:10:58 GMT 50.039455 8.551168 0 160 0 0
2022-08-08 14:10:54 GMT 50.039452 8.551176 0 160 0 0
2022-08-08 14:10:46 GMT 50.039474 8.551158 0 160 4 0
2022-08-08 14:10:45 GMT 50.039501 8.551149 0 160 5 0
2022-08-08 14:10:38 GMT 50.039658 8.551068 0 160 5 0
2022-08-08 14:10:36 GMT 50.039772 8.550995 0 157 6 0
2022-08-08 14:10:32 GMT 50.039772 8.550995 0 157 6 0
2022-08-08 14:10:26 GMT 50.039944 8.550889 0 154 5 0
2022-08-08 14:10:20 GMT 50.040035 8.550852 0 143 7 0
2022-08-08 14:10:18 GMT 50.040092 8.550815 0 129 7 0
2022-08-08 14:10:16 GMT 50.040150 8.550760 0 115 7 0
2022-08-08 14:10:13 GMT 50.040218 8.550652 0 92 8 0
2022-08-08 14:10:11 GMT 50.040245 8.550537 0 81 8 0
2022-08-08 14:09:56 GMT 50.040035 8.549875 0 22 7 0
2022-08-08 14:09:53 GMT 50.039955 8.549813 0 11 7 0
2022-08-08 14:09:52 GMT 50.039921 8.549776 0 5 7 0
2022-08-08 14:09:50 GMT 50.039841 8.549748 0 357 7 0
2022-08-08 14:09:46 GMT 50.039722 8.549739 0 345 8 0
2022-08-08 14:09:32 GMT 50.039291 8.549947 0 340 8 0
2022-08-08 14:09:29 GMT 50.039150 8.550036 0 340 8 0
2022-08-08 14:09:27 GMT 50.039150 8.550036 0 340 8 0
2022-08-08 14:09:16 GMT 50.038780 8.550240 0 326 8 0
2022-08-08 14:08:56 GMT 50.038628 8.551718 0 250 22 0
2022-08-08 14:08:36 GMT 50.039406 8.554953 0 250 26 0
2022-08-08 14:08:28 GMT 50.039749 8.556380 0 250 25 0
2022-08-08 14:08:23 GMT 50.039932 8.557157 0 250 24 0
2022-08-08 14:08:22 GMT 50.039967 8.557329 0 250 25 0
2022-08-08 14:08:17 GMT 50.040207 8.558332 0 250 33 0
2022-08-08 14:08:15 GMT 50.040318 8.558776 0 250 33 0
2022-08-08 14:08:07 GMT 50.040722 8.560446 0 250 32 0
2022-08-08 14:08:06 GMT 50.040779 8.560681 0 250 32 0
2022-08-08 14:08:04 GMT 50.040874 8.561078 0 250 31 0
2022-08-08 14:08:00 GMT 50.041065 8.561873 0 250 31 0
2022-08-08 14:07:55 GMT 50.042049 8.566011 0 250 28 0
2022-08-08 14:07:39 GMT 50.042049 8.566011 0 250 28 0
2022-08-08 14:07:38 GMT 50.042118 8.566300 0 250 28 0
2022-08-08 14:07:36 GMT 50.042202 8.566645 0 250 27 0
2022-08-08 14:07:33 GMT 50.042290 8.567023 0 250 27 0
2022-08-08 14:07:29 GMT 50.042446 8.567666 0 250 26 0
2022-08-08 14:07:27 GMT 50.042538 8.568037 0 250 25 0
2022-08-08 14:07:25 GMT 50.042645 8.568482 0 250 25 0
2022-08-08 14:07:19 GMT 50.042866 8.569447 0 250 25 0
2022-08-08 14:07:17 GMT 50.042931 8.569715 0 250 25 0
2022-08-08 14:07:16 GMT 50.042980 8.569948 0 250 25 0
2022-08-08 14:07:11 GMT 50.043159 8.570691 0 250 24 0
2022-08-08 14:07:10 GMT 50.043217 8.570926 0 250 24 0
2022-08-08 14:07:08 GMT 50.043308 8.571285 0 250 24 0
2022-08-08 14:07:06 GMT 50.043388 8.571619 0 250 23 0
2022-08-08 14:07:03 GMT 50.043552 8.572305 0 250 23 0
2022-08-08 14:06:57 GMT 50.043709 8.572986 0 250 22 0
2022-08-08 14:06:55 GMT 50.043785 8.573270 0 250 21 0
2022-08-08 14:06:51 GMT 50.043915 8.573817 0 250 21 0
2022-08-08 14:06:49 GMT 50.043983 8.574105 0 250 21 0
2022-08-08 14:05:54 GMT 50.045341 8.579821 0 264 11 0
2022-08-08 14:05:49 GMT 50.045368 8.580268 0 295 11 0
2022-08-08 14:05:06 GMT 50.042561 8.582122 0 22 18 0
2022-08-08 14:04:51 GMT 50.041328 8.581269 0 47 20 0
2022-08-08 14:04:29 GMT 50.027527 8.534209 0 70 25 0
2022-08-08 14:02:37 GMT 50.027527 8.534209 150 69 161 -704
2022-08-08 14:02:33 GMT 50.026245 8.528880 225 69 159 -832
2022-08-08 14:02:31 GMT 50.026016 8.527776 225 69 159 -832
2022-08-08 14:02:30 GMT 50.025513 8.525680 275 69 159 -768
2022-08-08 14:02:28 GMT 50.025223 8.524574 300 69 159 -768
2022-08-08 14:02:26 GMT 50.024708 8.522347 300 69 158 -832
2022-08-08 14:02:25 GMT 50.024429 8.521159 350 69 159 -960
2022-08-08 14:02:23 GMT 50.023918 8.519007 350 70 158 -768
2022-08-08 14:02:22 GMT 50.023636 8.517729 375 69 158 -704
2022-08-08 14:02:20 GMT 50.023224 8.516067 450 69 158 -896
2022-08-08 14:02:17 GMT 50.022289 8.512177 450 69 157 -960
2022-08-08 14:02:16 GMT 50.021496 8.508911 475 69 157 -768
2022-08-08 14:02:12 GMT 50.020939 8.506610 500 69 157 -704
2022-08-08 14:02:11 GMT 50.020660 8.505348 525 69 159 -704
2022-08-08 14:02:09 GMT 50.020157 8.503273 550 69 158 -896
2022-08-08 14:02:08 GMT 50.019928 8.502334 550 69 158 -896
2022-08-08 14:02:06 GMT 50.019516 8.500744 625 69 158 -896
2022-08-08 14:02:04 GMT 50.019032 8.498519 625 69 158 -896
2022-08-08 14:02:03 GMT 50.017960 8.494239 675 69 158 -896
2022-08-08 14:02:00 GMT 50.017727 8.493174 725 69 158 -768
2022-08-08 14:01:57 GMT 50.016747 8.489017 750 69 160 -832
2022-08-08 14:01:54 GMT 50.016468 8.487978 750 69 160 -832
2022-08-08 14:01:53 GMT 50.015678 8.484563 800 70 161 -832
2022-08-08 14:01:50 GMT 50.014893 8.481301 825 69 161 -896
2022-08-08 14:01:48 GMT 50.014374 8.479144 875 69 164 -704
2022-08-08 14:01:46 GMT 50.014374 8.479144 875 69 164 -704
2022-08-08 14:01:44 GMT 50.013840 8.476964 900 69 164 -576
2022-08-08 14:01:42 GMT 50.013351 8.474839 925 69 165 -960
2022-08-08 14:01:41 GMT 50.013062 8.473712 950 70 167 -960
2022-08-08 14:01:39 GMT 50.012512 8.471498 975 69 167 -1088
2022-08-08 14:01:38 GMT 50.012280 8.470533 1,000 69 167 -1088
2022-08-08 14:01:36 GMT 50.011734 8.468146 1,025 69 167 -960
2022-08-08 14:01:35 GMT 50.011440 8.466970 1,025 69 167 -832
2022-08-08 14:01:33 GMT 50.010883 8.464669 1,050 69 166 -704
2022-08-08 14:01:32 GMT 50.010323 8.462293 1,075 69 166 -768
2022-08-08 14:01:30 GMT 50.010044 8.461180 1,100 69 165 -832
2022-08-08 14:01:29 GMT 50.009583 8.459184 1,125 69 165 -896
2022-08-08 14:01:27 GMT 50.009022 8.456800 1,175 69 164 -896
2022-08-08 14:01:24 GMT 50.008575 8.455136 1,175 69 164 -896
2022-08-08 14:01:23 GMT 50.008163 8.453474 1,250 69 163 -960
2022-08-08 14:01:21 GMT 50.007477 8.450582 1,250 69 163 -896
2022-08-08 14:01:20 GMT 50.007343 8.449971 1,250 69 162 -768
2022-08-08 14:01:19 GMT 50.006973 8.448414 1,275 69 162 0
2022-08-08 14:01:16 GMT 50.006180 8.445072 1,300 69 161 -640
2022-08-08 14:01:14 GMT 50.005344 8.441509 1,325 69 159 -896
2022-08-08 14:01:12 GMT 50.004829 8.439504 1,375 69 162 -1024
2022-08-08 14:01:10 GMT 50.004547 8.438223 1,400 69 162 -1152
2022-08-08 14:01:08 GMT 50.004131 8.436609 1,425 69 165 -896
2022-08-08 14:01:06 GMT 50.003716 8.434828 1,450 69 165 -768
2022-08-08 14:01:04 GMT 50.003357 8.433236 1,450 69 165 -768
2022-08-08 14:01:03 GMT 50.002853 8.431356 1,475 69 166 -896
2022-08-08 14:01:02 GMT 50.002213 8.428682 1,525 69 169 -896
2022-08-08 14:01:00 GMT 50.002087 8.427998 1,525 69 169 -832
2022-08-08 14:00:59 GMT 50.001801 8.426803 1,550 69 169 -832
2022-08-08 14:00:57 GMT 50.001247 8.424509 1,575 69 171 -1088
2022-08-08 14:00:56 GMT 50.000656 8.422105 1,600 69 171 -1088
2022-08-08 14:00:54 GMT 50.000454 8.421169 1,625 69 173 -1024
2022-08-08 14:00:52 GMT 49.999897 8.418794 1,650 69 172 -960
2022-08-08 14:00:50 GMT 49.999329 8.416539 1,675 69 173 -896
2022-08-08 14:00:49 GMT 49.999054 8.415383 1,700 69 172 -896
2022-08-08 14:00:48 GMT 49.998451 8.412929 1,725 69 172 -896
2022-08-08 14:00:46 GMT 49.998173 8.411742 1,750 69 172 -896
2022-08-08 14:00:45 GMT 49.997589 8.409311 1,750 69 174 -896
2022-08-08 14:00:43 GMT 49.997337 8.408253 1,775 69 174 -896
2022-08-08 14:00:42 GMT 49.997105 8.407139 1,800 69 174 -832
2022-08-08 14:00:40 GMT 49.995987 8.402537 1,825 69 175 -704
2022-08-08 14:00:38 GMT 49.995987 8.402537 1,825 69 177 -768
2022-08-08 14:00:37 GMT 49.995712 8.401433 1,875 69 179 -960
2022-08-08 14:00:35 GMT 49.995239 8.399419 2,075 69 181 -896
2022-08-08 14:00:31 GMT 49.994080 8.394520 1,975 70 185 -832
2022-08-08 14:00:28 GMT 49.992168 8.386725 2,075 68 189 -1216
2022-08-08 14:00:25 GMT 49.992168 8.386725 2,075 68 189 -1088
2022-08-08 14:00:22 GMT 49.991364 8.383580 2,150 69 189 -704
2022-08-08 14:00:19 GMT 49.990540 8.380400 2,150 70 191 -1024
2022-08-08 14:00:17 GMT 49.989578 8.376280 2,200 70 191 -1216
2022-08-08 14:00:13 GMT 49.988491 8.371434 2,300 70 193 -1216
2022-08-08 14:00:10 GMT 49.987514 8.367351 2,375 69 193 -896
2022-08-08 14:00:07 GMT 49.986740 8.364210 2,425 69 195 -960
2022-08-08 14:00:05 GMT 49.985229 8.357849 2,425 69 194 -1152
2022-08-08 14:00:02 GMT 49.985229 8.357849 2,500 69 193 -1088
2022-08-08 14:00:00 GMT 49.984440 8.354509 2,500 69 195 -1024
2022-08-08 13:59:57 GMT 49.982712 8.347441 2,575 68 197 -1024
2022-08-08 13:59:55 GMT 49.982712 8.347441 2,600 68 197 -1024
2022-08-08 13:59:52 GMT 49.981247 8.341514 2,675 68 201 -1088
2022-08-08 13:59:50 GMT 49.980057 8.336816 2,675 68 200 -1088
2022-08-08 13:59:47 GMT 49.980057 8.336816 2,725 68 202 -1088
2022-08-08 13:59:45 GMT 49.979366 8.334021 2,775 68 202 -960
2022-08-08 13:59:42 GMT 49.978294 8.329789 2,800 70 205 -1280
2022-08-08 13:59:40 GMT 49.977539 8.326408 2,875 71 207 -1216
2022-08-08 13:59:37 GMT 49.976898 8.323554 2,900 70 208 -704
2022-08-08 13:59:35 GMT 49.976166 8.320264 2,925 70 210 -1152
2022-08-08 13:59:32 GMT 49.975342 8.316723 3,000 69 209 -1216
2022-08-08 13:59:28 GMT 49.974014 8.311230 3,075 69 208 -1152
2022-08-08 13:59:25 GMT 49.972733 8.306025 3,150 68 207 -1088
2022-08-08 13:59:22 GMT 49.971771 8.302267 3,175 68 208 -960
2022-08-08 13:59:19 GMT 49.970757 8.298018 3,250 69 211 -1216
2022-08-08 13:59:16 GMT 49.968754 8.289704 3,350 69 214 -896
2022-08-08 13:59:13 GMT 49.968754 8.289704 3,350 69 214 -1472
2022-08-08 13:59:11 GMT 49.967682 8.285250 3,350 69 214 -1088
2022-08-08 13:59:07 GMT 49.966599 8.280800 3,500 69 215 -1472
2022-08-08 13:59:05 GMT 49.966099 8.278866 3,525 68 215 -1152
2022-08-08 13:59:03 GMT 49.965263 8.275452 3,575 69 217 -1280
2022-08-08 13:58:59 GMT 49.963623 8.268657 3,650 70 218 -1152
2022-08-08 13:58:56 GMT 49.962795 8.265059 3,700 70 220 -832
2022-08-08 13:58:54 GMT 49.962189 8.262535 3,700 70 220 -768
2022-08-08 13:58:52 GMT 49.960560 8.255780 3,750 69 227 -192
2022-08-08 13:58:47 GMT 49.958496 8.247408 3,775 68 231 64
2022-08-08 13:58:44 GMT 49.958496 8.247408 3,775 68 235 -128
2022-08-08 13:58:42 GMT 49.957581 8.243649 3,775 68 234 -192
2022-08-08 13:58:38 GMT 49.955906 8.236925 3,775 69 241 320
2022-08-08 13:58:35 GMT 49.954926 8.232917 3,750 69 242 320
2022-08-08 13:58:33 GMT 49.954193 8.229844 3,750 69 251 -192
2022-08-08 13:58:31 GMT 49.953438 8.226681 3,725 69 247 128
2022-08-08 13:58:29 GMT 49.952461 8.222673 3,750 69 251 -320
2022-08-08 13:58:26 GMT 49.950363 8.213839 3,750 69 254 64
2022-08-08 13:58:24 GMT 49.950363 8.213839 3,750 70 253 64
2022-08-08 13:58:21 GMT 49.949249 8.209088 3,750 69 254 128
2022-08-08 13:58:19 GMT 49.947849 8.203447 3,750 68 264 -64
2022-08-08 13:58:16 GMT 49.946968 8.199809 3,750 69 259 0
2022-08-08 13:58:14 GMT 49.946362 8.197211 3,750 69 260 64
2022-08-08 13:58:10 GMT 49.944824 8.190901 3,750 69 263 64
2022-08-08 13:58:08 GMT 49.943661 8.186299 3,775 68 264 -256
2022-08-08 13:58:05 GMT 49.941788 8.178815 3,775 69 263 0
2022-08-08 13:58:01 GMT 49.940681 8.174274 3,775 69 262 128
2022-08-08 13:57:58 GMT 49.939087 8.167901 3,800 69 264 -512
2022-08-08 13:57:55 GMT 49.937935 8.163213 3,800 69 264 -512
2022-08-08 13:57:52 GMT 49.936817 8.158536 3,825 69 266 -1024
2022-08-08 13:57:50 GMT 49.935974 8.154891 3,825 69 266 -896
2022-08-08 13:57:46 GMT 49.934097 8.147157 3,925 69 268 -704
2022-08-08 13:57:44 GMT 49.933186 8.143245 3,925 69 268 -832
2022-08-08 13:57:41 GMT 49.931854 8.137761 3,975 69 269 -960
2022-08-08 13:57:39 GMT 49.931232 8.135302 4,000 69 270 -1088
2022-08-08 13:57:36 GMT 49.929657 8.128871 4,075 69 272 -704
2022-08-08 13:57:34 GMT 49.928764 8.125132 4,075 69 272 -512
2022-08-08 13:57:30 GMT 49.926994 8.118006 4,100 69 275 -640
2022-08-08 13:57:26 GMT 49.925217 8.110512 4,150 69 277 -704
2022-08-08 13:57:24 GMT 49.923225 8.102343 4,225 69 280 -704
2022-08-08 13:57:21 GMT 49.923225 8.102343 4,300 69 280 -704
2022-08-08 13:57:16 GMT 49.919872 8.088610 4,300 68 285 -768
2022-08-08 13:57:12 GMT 49.917732 8.079999 4,375 69 286 -960
2022-08-08 13:57:09 GMT 49.917732 8.079999 4,350 68 286 -832
2022-08-08 13:57:06 GMT 49.914825 8.068374 4,450 69 287 -448
2022-08-08 13:57:03 GMT 49.914825 8.068374 4,450 69 288 -512
2022-08-08 13:57:01 GMT 49.913681 8.063531 4,475 69 287 -640
2022-08-08 13:56:59 GMT 49.912674 8.059484 4,500 69 286 -576
2022-08-08 13:56:56 GMT 49.911118 8.053195 4,525 69 285 -320
2022-08-08 13:56:53 GMT 49.910019 8.048570 4,525 69 284 -320
2022-08-08 13:56:50 GMT 49.908562 8.042586 4,575 69 283 -1344
2022-08-08 13:56:47 GMT 49.907211 8.036870 4,650 69 283 -960
2022-08-08 13:56:43 GMT 49.905350 8.029076 4,700 70 282 -320
2022-08-08 13:56:41 GMT 49.904652 8.026032 4,700 70 282 -384
2022-08-08 13:56:39 GMT 49.903519 8.021176 4,750 69 282 -768
2022-08-08 13:56:36 GMT 49.900955 8.010190 4,775 69 282 -768
2022-08-08 13:56:33 GMT 49.900955 8.010190 4,800 69 282 -704
2022-08-08 13:56:31 GMT 49.899063 8.002278 4,850 69 282 -704
2022-08-08 13:56:26 GMT 49.897934 7.997469 4,925 69 283 -1152
2022-08-08 13:56:23 GMT 49.896469 7.991180 4,925 69 283 -1152
2022-08-08 13:56:20 GMT 49.895187 7.985615 5,025 74 282 -1792
2022-08-08 13:56:18 GMT 49.892872 7.973699 5,150 74 282 -1792
2022-08-08 13:56:15 GMT 49.892872 7.973699 5,175 78 283 -1728
2022-08-08 13:56:12 GMT 49.892212 7.969063 5,175 78 283 -1728
2022-08-08 13:56:10 GMT 49.891800 7.965305 5,300 83 284 -1664
2022-08-08 13:56:08 GMT 49.891617 7.962341 5,325 85 284 -1600
2022-08-08 13:56:05 GMT 49.891850 7.948683 5,475 96 286 -1408
2022-08-08 13:56:02 GMT 49.892532 7.941453 5,550 98 287 -1408
2022-08-08 13:55:59 GMT 49.892532 7.941453 5,600 99 286 -1536
2022-08-08 13:55:56 GMT 49.893082 7.935815 5,700 99 287 -1600
2022-08-08 13:55:52 GMT 49.893860 7.928515 5,750 99 288 -2176
2022-08-08 13:55:50 GMT 49.894272 7.924467 5,900 99 287 -2304
2022-08-08 13:55:48 GMT 49.894642 7.921068 5,975 99 287 -2240
2022-08-08 13:55:45 GMT 49.895187 7.915505 6,325 99 289 -1920
2022-08-08 13:55:42 GMT 49.895805 7.909711 6,125 99 288 -2048
2022-08-08 13:55:40 GMT 49.896362 7.904589 6,175 99 289 -1856
2022-08-08 13:55:35 GMT 49.897434 7.894122 6,350 99 291 -1984
2022-08-08 13:55:32 GMT 49.897995 7.889000 6,425 99 292 -1984
2022-08-08 13:55:29 GMT 49.898666 7.882040 6,600 98 293 -1856
2022-08-08 13:55:25 GMT 49.900089 7.867324 6,775 97 298 -1408
2022-08-08 13:55:22 GMT 49.900089 7.867324 6,775 98 298 -1152
2022-08-08 13:55:19 GMT 49.900681 7.860862 6,800 98 299 -896
2022-08-08 13:55:16 GMT 49.901253 7.854631 6,900 98 302 -1024
2022-08-08 13:55:13 GMT 49.901825 7.848503 6,925 98 306 -576
2022-08-08 13:55:11 GMT 49.902283 7.844021 6,925 98 306 -576
2022-08-08 13:55:07 GMT 49.903061 7.836143 7,025 98 311 -1024
2022-08-08 13:55:03 GMT 49.904140 7.825532 7,175 98 312 -2112
2022-08-08 13:55:00 GMT 49.904617 7.820748 7,150 98 312 -2816
2022-08-08 13:54:58 GMT 49.905628 7.810463 7,475 98 312 -2368
2022-08-08 13:54:56 GMT 49.905628 7.810463 7,400 98 311 -2816
2022-08-08 13:54:52 GMT 49.906403 7.802606 7,600 98 311 -2688
2022-08-08 13:54:48 GMT 49.907581 7.790791 7,700 99 312 -2240
2022-08-08 13:54:44 GMT 49.908371 7.783018 7,975 98 313 -2240
2022-08-08 13:54:41 GMT 49.908840 7.778469 7,975 98 313 -2240
2022-08-08 13:54:39 GMT 49.909378 7.773044 8,075 99 316 -2112
2022-08-08 13:54:36 GMT 49.910019 7.766394 8,175 98 314 -2240
2022-08-08 13:54:32 GMT 49.911076 7.755754 8,400 98 315 -2112
2022-08-08 13:54:29 GMT 49.911633 7.750409 8,450 99 315 -2112
2022-08-08 13:54:27 GMT 49.911850 7.748325 8,700 99 316 -2112
2022-08-08 13:54:24 GMT 49.912609 7.740610 8,625 99 316 -2112
2022-08-08 13:54:21 GMT 49.913452 7.732423 8,725 98 318 -2176
2022-08-08 13:54:17 GMT 49.914871 7.717968 8,950 98 318 -2176
2022-08-08 13:54:14 GMT 49.914871 7.717968 8,950 98 319 -2304
2022-08-08 13:54:11 GMT 49.916428 7.702010 9,175 98 320 -2304
2022-08-08 13:54:08 GMT 49.916428 7.702010 9,275 98 321 -2304
2022-08-08 13:54:06 GMT 49.916939 7.696517 9,325 98 321 -2304
2022-08-08 13:54:02 GMT 49.917686 7.689019 9,425 98 322 -2176
2022-08-08 13:53:59 GMT 49.918671 7.678576 9,850 98 323 -2176
2022-08-08 13:53:57 GMT 49.919315 7.671575 9,725 98 325 -1664
2022-08-08 13:53:54 GMT 49.919315 7.671575 9,725 98 325 -1664
2022-08-08 13:53:51 GMT 49.920525 7.659401 9,850 98 325 -1728
2022-08-08 13:53:49 GMT 49.920525 7.659401 9,850 98 325 -1600
2022-08-08 13:53:47 GMT 49.921131 7.653165 9,900 98 326 -1344
2022-08-08 13:53:44 GMT 49.921463 7.649809 9,975 98 329 -832
2022-08-08 13:53:41 GMT 49.922287 7.641425 9,975 98 330 -512
2022-08-08 13:53:39 GMT 49.922760 7.636315 10,000 98 333 -256
2022-08-08 13:53:37 GMT 49.923248 7.631234 10,000 98 337 0
2022-08-08 13:53:33 GMT 49.923981 7.624078 10,000 98 339 64
2022-08-08 13:53:30 GMT 49.925354 7.609767 10,000 100 351 0
2022-08-08 13:53:25 GMT 49.926018 7.603801 10,000 100 349 -64
2022-08-08 13:53:21 GMT 49.928207 7.585095 10,000 100 351 0
2022-08-08 13:53:16 GMT 49.928673 7.581383 10,000 101 351 -64
2022-08-08 13:53:12 GMT 49.930161 7.570158 10,000 102 352 0
2022-08-08 13:53:09 GMT 49.930813 7.565646 10,000 102 352 0
2022-08-08 13:53:07 GMT 49.931931 7.558223 10,000 103 352 0
2022-08-08 13:53:05 GMT 49.932629 7.553620 10,000 107 352 -320
2022-08-08 13:53:01 GMT 49.934326 7.543415 10,000 105 353 -64
2022-08-08 13:52:59 GMT 49.934769 7.540852 10,000 105 352 -64
2022-08-08 13:52:57 GMT 49.935699 7.535609 10,000 106 353 0
2022-08-08 13:52:54 GMT 49.937393 7.526863 10,000 107 353 64
2022-08-08 13:52:51 GMT 49.938721 7.520142 10,000 107 353 -192
2022-08-08 13:52:48 GMT 49.940231 7.512841 10,000 107 353 -64
2022-08-08 13:52:46 GMT 49.941788 7.505397 10,000 107 352 -256
2022-08-08 13:52:42 GMT 49.944763 7.491158 10,025 107 352 -320
2022-08-08 13:52:39 GMT 49.944763 7.491158 10,025 107 352 -320
2022-08-08 13:52:36 GMT 49.947479 7.477829 10,050 107 351 -512
2022-08-08 13:52:33 GMT 49.948700 7.471932 10,075 107 350 -704
2022-08-08 13:52:30 GMT 49.948700 7.471932 10,150 107 351 -1088
2022-08-08 13:52:28 GMT 49.950459 7.463428 10,175 107 352 -1536
2022-08-08 13:52:24 GMT 49.952774 7.451983 10,300 107 353 -1344
2022-08-08 13:52:21 GMT 49.953297 7.449473 10,500 107 358 -1088
2022-08-08 13:52:18 GMT 49.955158 7.440268 10,400 107 355 -1152
2022-08-08 13:52:16 GMT 49.956116 7.435504 10,450 107 356 -1152
2022-08-08 13:52:13 GMT 49.958954 7.421626 10,500 107 362 -960
2022-08-08 13:52:10 GMT 49.958954 7.421626 10,575 107 359 -1088
2022-08-08 13:52:08 GMT 49.960560 7.413619 10,625 107 360 -1088
2022-08-08 13:52:05 GMT 49.963165 7.400882 10,650 106 368 -896
2022-08-08 13:52:02 GMT 49.964424 7.394764 10,725 106 368 -896
2022-08-08 13:51:59 GMT 49.964424 7.394764 10,750 105 370 -960
2022-08-08 13:51:57 GMT 49.965637 7.388595 10,775 105 370 -960
2022-08-08 13:51:54 GMT 49.966965 7.381511 10,850 104 372 -1088
2022-08-08 13:51:50 GMT 49.968796 7.371320 10,875 104 372 -1024
2022-08-08 13:51:47 GMT 49.970123 7.363586 10,950 104 373 -1152
2022-08-08 13:51:45 GMT 49.970989 7.357945 10,975 103 374 -1280
2022-08-08 13:51:43 GMT 49.972198 7.349854 11,075 102 376 -1472
2022-08-08 13:51:40 GMT 49.972824 7.345517 11,100 101 377 -1728
2022-08-08 13:51:36 GMT 49.974564 7.333085 11,225 101 377 -1792
2022-08-08 13:51:33 GMT 49.975224 7.327881 11,850 93 400 -1600
2022-08-08 13:51:30 GMT 49.976624 7.316316 11,400 100 378 -1856
2022-08-08 13:51:26 GMT 49.977459 7.308061 11,500 98 382 -2048
2022-08-08 13:51:24 GMT 49.978111 7.301306 11,575 97 383 -2176
2022-08-08 13:51:19 GMT 49.979088 7.289280 11,925 95 388 -1920
2022-08-08 13:51:17 GMT 49.979874 7.276925 11,850 94 392 -1536
2022-08-08 13:51:15 GMT 49.980331 7.266806 11,900 93 402 -1664
2022-08-08 13:51:12 GMT 49.980331 7.266806 11,950 93 394 -1472
2022-08-08 13:51:09 GMT 49.980606 7.259722 12,050 93 403 -1728
2022-08-08 13:51:06 GMT 49.980881 7.251121 12,050 93 400 -1600
2022-08-08 13:51:03 GMT 49.981506 7.234200 12,250 93 406 -2304
2022-08-08 13:51:00 GMT 49.981926 7.222843 12,400 93 408 -2752
2022-08-08 13:50:56 GMT 49.982162 7.216500 12,525 93 409 -3136
2022-08-08 13:50:54 GMT 49.982162 7.216500 12,600 93 410 -3392
2022-08-08 13:50:50 GMT 49.982628 7.204285 12,850 93 411 -3840
2022-08-08 13:50:48 GMT 49.982803 7.199731 12,925 93 411 -3840
2022-08-08 13:50:46 GMT 49.983089 7.191962 13,025 93 411 -3776
2022-08-08 13:50:43 GMT 49.983788 7.174740 13,350 93 416 -2432
2022-08-08 13:50:40 GMT 49.983788 7.174740 13,475 93 416 -2432
2022-08-08 13:50:37 GMT 49.984161 7.165536 13,500 93 416 -2432
2022-08-08 13:50:35 GMT 49.984581 7.155069 13,625 93 417 -2432
2022-08-08 13:50:33 GMT 49.984581 7.155069 13,650 93 417 -2432
2022-08-08 13:50:29 GMT 49.985138 7.142342 13,875 93 418 -2368
2022-08-08 13:50:26 GMT 49.985512 7.132948 13,900 93 418 -2368
2022-08-08 13:50:23 GMT 49.985825 7.125284 14,250 93 420 -2304
2022-08-08 13:50:20 GMT 49.986210 7.114909 14,300 93 420 -2304
2022-08-08 13:50:17 GMT 49.986557 7.105191 14,300 93 420 -2304
2022-08-08 13:50:15 GMT 49.987003 7.094421 14,425 93 422 -2240
2022-08-08 13:50:13 GMT 49.987003 7.094421 14,550 93 423 -2240
2022-08-08 13:50:10 GMT 49.987427 7.082785 14,600 93 422 -2240
2022-08-08 13:50:07 GMT 49.987976 7.068618 14,725 93 423 -2176
2022-08-08 13:50:02 GMT 49.988159 7.062836 14,825 93 424 -2176
2022-08-08 13:49:59 GMT 49.988491 7.054113 15,125 93 427 -2048
2022-08-08 13:49:56 GMT 49.988911 7.042236 15,125 93 427 -2048
2022-08-08 13:49:53 GMT 49.989258 7.032334 15,175 93 428 -2112
2022-08-08 13:49:50 GMT 49.989563 7.024792 15,250 93 428 -2112
2022-08-08 13:49:47 GMT 49.989853 7.016361 15,400 93 429 -2176
2022-08-08 13:49:44 GMT 49.990631 6.996435 15,550 93 431 -2240
2022-08-08 13:49:41 GMT 49.990631 6.996435 15,650 93 431 -2240
2022-08-08 13:49:38 GMT 49.990997 6.987016 15,825 93 432 -2240
2022-08-08 13:49:35 GMT 49.991329 6.978842 15,800 93 433 -2176
2022-08-08 13:49:32 GMT 49.991749 6.968895 16,000 93 437 -1984
2022-08-08 13:49:29 GMT 49.992599 6.948202 16,300 93 443 -3392
2022-08-08 13:49:26 GMT 49.992599 6.948202 16,525 93 439 -1984
2022-08-08 13:49:23 GMT 49.992874 6.941263 16,275 93 439 -1984
2022-08-08 13:49:20 GMT 49.993332 6.929849 16,375 93 439 -1984
2022-08-08 13:49:17 GMT 49.994030 6.912479 16,550 93 441 -2048
2022-08-08 13:49:14 GMT 49.994030 6.912479 17,400 93 438 -4352
2022-08-08 13:49:11 GMT 49.994431 6.903173 16,700 93 442 -2304
2022-08-08 13:49:08 GMT 49.994843 6.891825 16,825 93 443 -2624
2022-08-08 13:49:05 GMT 49.995613 6.871280 16,975 93 443 -2688
2022-08-08 13:49:02 GMT 49.995892 6.864896 17,750 93 444 -2944
2022-08-08 13:48:59 GMT 49.995892 6.864896 17,450 93 440 -4160
2022-08-08 13:48:56 GMT 49.996220 6.855395 17,575 93 443 -3520
2022-08-08 13:48:52 GMT 49.996765 6.841591 18,025 93 438 -4352
2022-08-08 13:48:47 GMT 49.997360 6.827425 17,900 93 438 -4352
2022-08-08 13:48:45 GMT 49.997589 6.820847 18,250 93 438 -4352
2022-08-08 13:48:43 GMT 49.997955 6.811451 18,400 93 431 -4416
2022-08-08 13:48:40 GMT 49.998505 6.797791 18,525 93 431 -4416
2022-08-08 13:48:37 GMT 49.998825 6.789695 18,825 93 431 -4416
2022-08-08 13:48:35 GMT 49.998825 6.789695 18,825 93 429 -3520
2022-08-08 13:48:33 GMT 49.999012 6.784651 18,950 93 429 -3840
2022-08-08 13:48:31 GMT 49.999420 6.775240 19,275 93 430 -2112
2022-08-08 13:48:28 GMT 49.999802 6.765871 19,325 93 430 -2112
2022-08-08 13:48:25 GMT 50.000107 6.758326 19,350 93 431 -1664
2022-08-08 13:48:22 GMT 50.000782 6.741820 19,450 93 432 -1216
2022-08-08 13:48:16 GMT 50.001247 6.730536 19,500 93 436 -1024
2022-08-08 13:48:13 GMT 50.001663 6.720742 19,600 93 440 -1152
2022-08-08 13:48:10 GMT 50.002087 6.711385 19,600 93 440 -1152
2022-08-08 13:48:07 GMT 50.002411 6.703145 19,700 93 444 -1152
2022-08-08 13:48:04 GMT 50.002735 6.693643 19,725 92 448 -1152
2022-08-08 13:48:02 GMT 50.002968 6.687556 19,775 92 447 -1152
2022-08-08 13:47:59 GMT 50.003220 6.678097 19,850 91 452 -960
2022-08-08 13:47:56 GMT 50.003403 6.664437 19,925 89 455 -960
2022-08-08 13:47:52 GMT 50.003387 6.653558 19,950 87 458 -1152
2022-08-08 13:47:49 GMT 50.003201 6.645392 20,000 87 458 -1152
2022-08-08 13:47:47 GMT 50.002991 6.639284 20,025 84 460 -1920
2022-08-08 13:47:44 GMT 50.002502 6.630249 20,125 83 461 -1984
2022-08-08 13:47:41 GMT 50.001617 6.618974 20,400 77 464 -2048
2022-08-08 13:47:38 GMT 50.000687 6.609613 20,400 77 464 -2048
2022-08-08 13:47:35 GMT 49.997864 6.588617 20,475 77 464 -2048
2022-08-08 13:47:32 GMT 49.997864 6.588617 20,525 76 466 -2048
2022-08-08 13:47:29 GMT 49.995804 6.576980 20,675 69 470 -2048
2022-08-08 13:47:26 GMT 49.994568 6.570619 20,750 67 471 -2112
2022-08-08 13:47:23 GMT 49.991959 6.558838 20,875 68 470 -2112
2022-08-08 13:47:20 GMT 49.989513 6.548891 20,975 68 471 -2112
2022-08-08 13:47:17 GMT 49.987373 6.541096 21,125 65 472 -2368
2022-08-08 13:47:14 GMT 49.985001 6.532708 21,225 65 474 -2624
2022-08-08 13:47:12 GMT 49.983463 6.527512 21,275 65 474 -2624
2022-08-08 13:47:10 GMT 49.981064 6.519663 21,450 64 475 -2688
2022-08-08 13:47:07 GMT 49.978867 6.512291 21,450 64 475 -2688
2022-08-08 13:47:04 GMT 49.975735 6.501902 21,775 65 477 -3072
2022-08-08 13:47:02 GMT 49.970894 6.485794 21,825 64 477 -3008
2022-08-08 13:46:59 GMT 49.970894 6.485794 22,050 65 477 -3264
2022-08-08 13:46:55 GMT 49.967285 6.473838 22,100 65 477 -3200
2022-08-08 13:46:52 GMT 49.961700 6.454901 22,375 65 478 -3264
2022-08-08 13:46:49 GMT 49.961700 6.454901 22,575 65 477 -3264
2022-08-08 13:46:46 GMT 49.956696 6.437914 22,900 65 478 -3200
2022-08-08 13:46:44 GMT 49.956696 6.437914 22,800 65 477 -3264
2022-08-08 13:46:41 GMT 49.953949 6.428561 23,000 65 478 -3200
2022-08-08 13:46:38 GMT 49.950760 6.417750 23,200 65 478 -3264
2022-08-08 13:46:35 GMT 49.948837 6.411245 23,200 65 478 -3392
2022-08-08 13:46:32 GMT 49.945522 6.399907 23,500 65 477 -3712
2022-08-08 13:46:29 GMT 49.940540 6.383131 24,075 65 476 -3840
2022-08-08 13:46:26 GMT 49.940540 6.383131 23,900 65 476 -3840
2022-08-08 13:46:23 GMT 49.937805 6.373660 23,975 65 473 -3904
2022-08-08 13:46:20 GMT 49.934586 6.362643 24,175 65 473 -3968
2022-08-08 13:46:17 GMT 49.931419 6.351805 24,500 65 473 -3712
2022-08-08 13:46:14 GMT 49.929657 6.345761 24,575 65 473 -3392
2022-08-08 13:46:12 GMT 49.925720 6.332173 24,775 65 473 -3072
2022-08-08 13:46:09 GMT 49.925720 6.332173 24,900 65 474 -2432
2022-08-08 13:46:06 GMT 49.920135 6.313019 25,100 65 492 0
2022-08-08 13:46:03 GMT 49.920135 6.313019 25,100 65 480 -1088
2022-08-08 13:46:00 GMT 49.917297 6.303333 25,125 65 479 -1152
2022-08-08 13:45:57 GMT 49.914047 6.292130 25,125 65 482 -1088
2022-08-08 13:45:54 GMT 49.910515 6.279948 25,625 65 485 -1408
2022-08-08 13:45:51 GMT 49.908283 6.272377 25,275 65 486 -1664
2022-08-08 13:45:48 GMT 49.906837 6.267329 25,475 74 507 -2176
2022-08-08 13:45:45 GMT 49.902603 6.252811 25,475 65 490 -2048
2022-08-08 13:45:42 GMT 49.897713 6.236077 25,625 65 493 -2112
2022-08-08 13:45:39 GMT 49.897713 6.236077 25,625 65 491 -2048
2022-08-08 13:45:36 GMT 49.893757 6.222567 25,700 65 492 -2048
2022-08-08 13:45:33 GMT 49.891895 6.216109 25,875 66 497 -2048
2022-08-08 13:45:30 GMT 49.885658 6.194433 26,025 66 497 -2048
2022-08-08 13:45:26 GMT 49.881981 6.181294 26,150 66 499 -2112
2022-08-08 13:45:23 GMT 49.881981 6.181294 26,250 68 502 -2112
2022-08-08 13:45:20 GMT 49.879669 6.172582 26,350 68 502 -2112
2022-08-08 13:45:17 GMT 49.876022 6.158357 26,400 69 503 -2048
2022-08-08 13:45:12 GMT 49.873508 6.147519 26,600 73 505 -2240
2022-08-08 13:45:09 GMT 49.871658 6.138828 26,925 74 507 0
2022-08-08 13:45:06 GMT 49.868900 6.124433 26,875 75 509 -2112
2022-08-08 13:45:03 GMT 49.865799 6.106302 26,975 75 509 -2112
2022-08-08 13:45:00 GMT 49.865799 6.106302 27,200 75 512 -1920
2022-08-08 13:44:58 GMT 49.864700 6.099653 27,125 75 511 -1920
2022-08-08 13:44:55 GMT 49.862614 6.087020 27,175 75 511 -1920
2022-08-08 13:44:51 GMT 49.858051 6.059034 27,350 75 512 -2048
2022-08-08 13:44:48 GMT 49.858051 6.059034 27,475 75 512 -2048
2022-08-08 13:44:45 GMT 49.856842 6.051537 27,700 75 512 0
2022-08-08 13:44:42 GMT 49.855396 6.042629 27,700 75 512 -2048
2022-08-08 13:44:39 GMT 49.853027 6.028242 27,750 75 512 -2048
2022-08-08 13:44:36 GMT 49.851955 6.021696 27,875 75 513 -2048
2022-08-08 13:44:34 GMT 49.850185 6.011080 27,925 75 513 -2048
2022-08-08 13:44:31 GMT 49.848816 6.002655 30,875 75 512 -1600
2022-08-08 13:44:28 GMT 49.842728 5.965359 28,350 75 512 -2048
2022-08-08 13:44:23 GMT 49.842728 5.965359 28,350 75 512 -2048
2022-08-08 13:44:19 GMT 49.841446 5.957553 28,450 75 512 -2048
2022-08-08 13:44:15 GMT 49.839573 5.946424 28,600 75 509 -2112
2022-08-08 13:44:12 GMT 49.837509 5.933846 28,625 75 511 -2048
2022-08-08 13:44:09 GMT 49.835941 5.924452 28,800 75 513 -2048
2022-08-08 13:44:06 GMT 49.834030 5.912797 28,875 75 509 -2048
2022-08-08 13:44:04 GMT 49.833241 5.908269 29,025 75 509 -2112
2022-08-08 13:44:01 GMT 49.830818 5.893423 29,075 75 509 -2112
2022-08-08 13:43:58 GMT 49.829910 5.887949 29,325 75 509 -2112
2022-08-08 13:43:55 GMT 49.827328 5.872267 29,250 75 509 -2112
2022-08-08 13:43:52 GMT 49.826351 5.866328 29,500 75 509 -2112
2022-08-08 13:43:49 GMT 49.824554 5.855568 29,500 75 510 -2112
2022-08-08 13:43:47 GMT 49.823418 5.848661 29,500 75 510 -2048
2022-08-08 13:43:43 GMT 49.820572 5.831572 29,875 75 512 -2112
2022-08-08 13:43:40 GMT 49.817783 5.814737 30,050 75 512 -2048
2022-08-08 13:43:38 GMT 49.817783 5.814737 29,825 75 512 -2112
2022-08-08 13:43:35 GMT 49.816341 5.806274 30,150 75 513 -1984
2022-08-08 13:43:33 GMT 49.814617 5.795956 30,150 75 513 -1984
2022-08-08 13:43:30 GMT 49.809639 5.765818 30,175 75 513 -2048
2022-08-08 13:43:26 GMT 49.807709 5.754234 30,450 75 513 -2112
2022-08-08 13:43:22 GMT 49.807709 5.754234 30,450 75 513 -2112
2022-08-08 13:43:19 GMT 49.805031 5.738055 30,525 75 513 -2112
2022-08-08 13:43:16 GMT 49.803261 5.727440 30,650 75 512 -2048
2022-08-08 13:43:13 GMT 49.801392 5.716288 30,750 75 512 -1600
2022-08-08 13:43:10 GMT 49.801392 5.716288 30,850 75 512 -1152
2022-08-08 13:43:07 GMT 49.798874 5.701471 30,850 75 512 -1152
2022-08-08 13:43:04 GMT 49.795811 5.683198 30,925 75 513 -960
2022-08-08 13:43:01 GMT 49.795811 5.683198 30,925 75 513 -960
2022-08-08 13:42:58 GMT 49.793610 5.669885 31,000 75 513 -960
2022-08-08 13:42:55 GMT 49.792366 5.662264 31,225 75 513 -960
2022-08-08 13:42:52 GMT 49.790272 5.649868 31,125 75 513 -960
2022-08-08 13:42:49 GMT 49.788620 5.639817 31,150 75 513 -960
2022-08-08 13:42:46 GMT 49.784126 5.613049 31,200 75 513 -960
2022-08-08 13:42:42 GMT 49.782944 5.606135 31,275 75 513 -960
2022-08-08 13:42:39 GMT 49.782944 5.606135 31,300 75 513 -960
2022-08-08 13:42:37 GMT 49.781708 5.598691 31,325 75 513 -960
2022-08-08 13:42:34 GMT 49.779877 5.588066 31,450 75 513 -960
2022-08-08 13:42:31 GMT 49.777470 5.573706 31,450 75 513 -960
2022-08-08 13:42:28 GMT 49.775749 5.563462 31,475 75 513 -960
2022-08-08 13:42:25 GMT 49.774303 5.554925 31,525 75 513 -960
2022-08-08 13:42:22 GMT 49.772816 5.546091 31,600 75 512 -960
2022-08-08 13:42:19 GMT 49.770950 5.534941 31,600 75 512 -960
2022-08-08 13:42:17 GMT 49.769760 5.527858 31,750 75 512 -960
2022-08-08 13:42:14 GMT 49.767426 5.514053 31,725 75 511 -960
2022-08-08 13:42:11 GMT 49.765915 5.504945 31,775 75 511 -960
2022-08-08 13:42:08 GMT 49.763443 5.490490 31,825 75 510 -960
2022-08-08 13:42:05 GMT 49.762432 5.484627 31,900 75 510 -960
2022-08-08 13:42:01 GMT 49.758636 5.462301 31,925 75 510 -960
2022-08-08 13:41:59 GMT 49.758636 5.462301 31,925 75 509 -960
2022-08-08 13:41:56 GMT 49.755661 5.444737 32,025 75 509 -960
2022-08-08 13:41:53 GMT 49.755661 5.444737 32,050 75 508 -960
2022-08-08 13:41:51 GMT 49.754475 5.437490 32,050 75 508 -960
2022-08-08 13:41:48 GMT 49.752640 5.426812 32,175 75 508 -960
2022-08-08 13:41:45 GMT 49.748421 5.401785 32,250 75 507 -960
2022-08-08 13:41:42 GMT 49.748421 5.401785 32,375 75 506 -960
2022-08-08 13:41:39 GMT 49.747238 5.394938 32,275 75 505 -1024
2022-08-08 13:41:35 GMT 49.744995 5.381711 32,300 75 506 -960
2022-08-08 13:41:32 GMT 49.742432 5.366677 32,500 75 504 -960
2022-08-08 13:41:29 GMT 49.741253 5.359918 32,525 75 504 -960
2022-08-08 13:41:25 GMT 49.739044 5.346872 32,475 75 504 -960
2022-08-08 13:41:22 GMT 49.736645 5.332749 32,625 75 503 -960
2022-08-08 13:41:19 GMT 49.735336 5.325333 32,600 75 503 -960
2022-08-08 13:41:16 GMT 49.733620 5.315082 32,675 75 504 -960
2022-08-08 13:41:11 GMT 49.729057 5.288358 32,750 75 503 -960
2022-08-08 13:41:06 GMT 49.727287 5.277966 32,800 75 502 -960
2022-08-08 13:41:03 GMT 49.725677 5.268812 32,900 75 502 -960
2022-08-08 13:41:00 GMT 49.723846 5.258042 32,900 75 503 -960
2022-08-08 13:40:57 GMT 49.722214 5.248496 32,925 75 504 -960
2022-08-08 13:40:55 GMT 49.721233 5.242928 33,250 75 507 -1024
2022-08-08 13:40:52 GMT 49.719177 5.231010 33,025 75 504 -960
2022-08-08 13:40:50 GMT 49.717850 5.223349 33,075 75 504 -960
2022-08-08 13:40:47 GMT 49.716568 5.215687 33,100 75 505 -896
2022-08-08 13:40:44 GMT 49.713867 5.200003 33,250 75 507 -1024
2022-08-08 13:40:41 GMT 49.712391 5.191485 33,200 75 507 -1024
2022-08-08 13:40:39 GMT 49.711578 5.186776 33,275 75 507 -1024
2022-08-08 13:40:36 GMT 49.709366 5.174041 33,275 75 507 -1024
2022-08-08 13:40:33 GMT 49.708153 5.167063 33,300 75 509 -1024
2022-08-08 13:40:31 GMT 49.706432 5.156893 33,350 75 510 -1024
2022-08-08 13:40:26 GMT 49.703033 5.137222 33,525 75 510 -1024
2022-08-08 13:40:23 GMT 49.700043 5.119846 33,525 75 511 -1024
2022-08-08 13:40:20 GMT 49.700043 5.119846 33,525 75 511 -1024
2022-08-08 13:40:18 GMT 49.699127 5.114569 33,575 75 511 -960
2022-08-08 13:40:15 GMT 49.697067 5.102643 33,600 75 511 -960
2022-08-08 13:40:12 GMT 49.695259 5.091866 33,650 75 511 -960
2022-08-08 13:40:10 GMT 49.693676 5.082736 33,800 75 511 -960
2022-08-08 13:40:06 GMT 49.691757 5.071708 33,750 75 511 -960
2022-08-08 13:40:03 GMT 49.689671 5.059501 33,825 75 510 -1024
2022-08-08 13:40:00 GMT 49.688141 5.050603 33,900 74 508 -448
2022-08-08 13:39:57 GMT 49.685989 5.038316 33,975 74 508 0
2022-08-08 13:39:54 GMT 49.684132 5.027581 33,975 74 509 -832
2022-08-08 13:39:51 GMT 49.680634 5.007453 34,000 74 508 -256
2022-08-08 13:39:48 GMT 49.680634 5.007453 34,000 74 508 0
2022-08-08 13:39:45 GMT 49.678684 4.996478 34,000 74 508 0
2022-08-08 13:39:42 GMT 49.676544 4.984304 34,000 74 508 0
2022-08-08 13:39:39 GMT 49.674404 4.972056 34,000 74 508 0
2022-08-08 13:39:36 GMT 49.671249 4.953750 34,000 75 508 0
2022-08-08 13:39:33 GMT 49.671249 4.953750 34,000 74 508 0
2022-08-08 13:39:29 GMT 49.667404 4.931705 34,000 74 507 0
2022-08-08 13:39:24 GMT 49.665802 4.922670 34,000 74 507 0
2022-08-08 13:39:22 GMT 49.664520 4.915298 34,000 74 507 0
2022-08-08 13:39:20 GMT 49.663605 4.910094 34,000 74 507 0
2022-08-08 13:39:17 GMT 49.661602 4.898789 34,000 74 507 0
2022-08-08 13:39:14 GMT 49.659485 4.886748 34,000 74 507 0
2022-08-08 13:39:11 GMT 49.657784 4.877113 34,000 74 507 0
2022-08-08 13:39:09 GMT 49.656601 4.870340 34,000 74 507 0
2022-08-08 13:39:06 GMT 49.652477 4.847198 34,000 74 507 0
2022-08-08 13:39:03 GMT 49.652477 4.847198 34,000 74 507 0
2022-08-08 13:39:00 GMT 49.650604 4.836514 34,000 74 507 0
2022-08-08 13:38:57 GMT 49.649368 4.829575 34,000 74 507 0
2022-08-08 13:38:54 GMT 49.647079 4.816710 34,000 74 507 0
2022-08-08 13:38:51 GMT 49.645111 4.805579 34,000 74 507 0
2022-08-08 13:38:48 GMT 49.642181 4.789244 34,000 74 507 0
2022-08-08 13:38:45 GMT 49.639984 4.776668 34,000 74 507 0
2022-08-08 13:38:42 GMT 49.639984 4.776668 34,000 74 507 0
2022-08-08 13:38:39 GMT 49.638279 4.767101 34,000 74 507 0
2022-08-08 13:38:36 GMT 49.635765 4.753220 34,000 74 507 0
2022-08-08 13:38:33 GMT 49.633942 4.742913 34,000 74 507 0
2022-08-08 13:38:30 GMT 49.632111 4.732505 34,000 74 507 0
2022-08-08 13:38:26 GMT 49.630234 4.722097 34,000 75 498 0
2022-08-08 13:38:23 GMT 49.627121 4.704750 34,000 74 506 -64
2022-08-08 13:38:21 GMT 49.624592 4.690642 34,000 74 506 -64
2022-08-08 13:38:18 GMT 49.624592 4.690642 34,000 74 506 -64
2022-08-08 13:38:15 GMT 49.623367 4.683934 34,000 74 506 0
2022-08-08 13:38:12 GMT 49.621243 4.671936 34,000 74 506 0
2022-08-08 13:38:09 GMT 49.619659 4.663251 34,000 74 506 0
2022-08-08 13:38:06 GMT 49.617889 4.653230 34,000 74 505 0
2022-08-08 13:38:03 GMT 49.615932 4.642466 34,000 74 505 0
2022-08-08 13:38:01 GMT 49.614632 4.635191 34,000 74 505 0
2022-08-08 13:37:58 GMT 49.612198 4.621558 34,000 74 504 0
2022-08-08 13:37:55 GMT 49.611137 4.615520 34,000 74 504 0
2022-08-08 13:37:52 GMT 49.608719 4.602084 34,000 74 503 0
2022-08-08 13:37:49 GMT 49.607136 4.593399 34,000 74 502 0
2022-08-08 13:37:46 GMT 49.604965 4.581227 34,000 74 502 0
2022-08-08 13:37:42 GMT 49.602539 4.567783 34,000 74 500 0
2022-08-08 13:37:39 GMT 49.601086 4.559697 34,000 74 499 0
2022-08-08 13:37:34 GMT 49.598198 4.543589 34,000 74 499 0
2022-08-08 13:37:31 GMT 49.595764 4.529764 34,000 74 498 0
2022-08-08 13:37:28 GMT 49.594566 4.523101 34,000 75 497 0
2022-08-08 13:37:25 GMT 49.590656 4.500534 34,000 75 498 0
2022-08-08 13:37:22 GMT 49.590656 4.500534 34,000 75 498 0
2022-08-08 13:37:19 GMT 49.588715 4.489071 34,000 75 498 0
2022-08-08 13:37:15 GMT 49.586151 4.474327 34,000 75 498 0
2022-08-08 13:37:12 GMT 49.585255 4.469060 34,000 75 498 0
2022-08-08 13:37:09 GMT 49.582764 4.454811 34,000 74 498 -128
2022-08-08 13:37:05 GMT 49.580612 4.442886 34,000 74 498 0
2022-08-08 13:37:02 GMT 49.578140 4.428864 34,000 77 498 0
2022-08-08 13:36:59 GMT 49.576038 4.415687 34,000 85 500 0
2022-08-08 13:36:57 GMT 49.576038 4.415687 34,000 85 500 0
2022-08-08 13:36:54 GMT 49.574921 4.407373 34,000 85 500 0
2022-08-08 13:36:52 GMT 49.573105 4.389855 34,000 89 500 0
2022-08-08 13:36:50 GMT 49.572594 4.382431 34,000 89 500 0
2022-08-08 13:36:47 GMT 49.572594 4.382431 34,000 85 499 0
2022-08-08 13:36:44 GMT 49.571823 4.367788 34,000 90 501 0
2022-08-08 13:36:41 GMT 49.571617 4.358380 34,000 87 500 0
2022-08-08 13:36:39 GMT 49.571732 4.341479 34,000 92 501 0
2022-08-08 13:36:36 GMT 49.571732 4.341479 34,000 97 502 0
2022-08-08 13:36:32 GMT 49.572281 4.328686 34,000 97 502 0
2022-08-08 13:36:30 GMT 49.572922 4.319145 34,000 97 501 0
2022-08-08 13:36:28 GMT 49.574223 4.305156 34,000 101 503 0
2022-08-08 13:36:23 GMT 49.575623 4.293414 34,000 102 503 0
2022-08-08 13:36:20 GMT 49.578739 4.273756 34,000 109 505 0
2022-08-08 13:36:17 GMT 49.578739 4.273756 34,000 107 505 0
2022-08-08 13:36:14 GMT 49.582928 4.253268 34,000 111 506 0
2022-08-08 13:36:11 GMT 49.582928 4.253268 34,000 114 507 0
2022-08-08 13:36:08 GMT 49.587799 4.234796 34,000 113 506 0
2022-08-08 13:36:05 GMT 49.592834 4.218895 34,000 115 507 -64
2022-08-08 13:36:01 GMT 49.592834 4.218895 34,000 124 510 64
2022-08-08 13:35:58 GMT 49.595535 4.211305 34,000 124 510 64
2022-08-08 13:35:55 GMT 49.599243 4.201692 34,000 124 510 64
2022-08-08 13:35:52 GMT 49.603176 4.192398 34,000 126 511 128
2022-08-08 13:35:49 GMT 49.609772 4.178491 34,000 133 514 64
2022-08-08 13:35:47 GMT 49.609772 4.178491 34,000 133 514 64
2022-08-08 13:35:44 GMT 49.614899 4.168950 34,000 133 514 64
2022-08-08 13:35:41 GMT 49.618729 4.162259 34,000 133 514 64
2022-08-08 13:35:39 GMT 49.623802 4.154020 34,000 135 514 64
2022-08-08 13:35:36 GMT 49.631248 4.142736 34,000 135 514 64
2022-08-08 13:35:33 GMT 49.631248 4.142736 34,000 136 515 0
2022-08-08 13:35:32 GMT 49.633026 4.140039 34,000 136 515 0
2022-08-08 13:35:31 GMT 49.635269 4.136786 34,000 136 516 0
2022-08-08 13:35:29 GMT 49.643307 4.124995 34,000 136 517 0
2022-08-08 13:35:27 GMT 49.643307 4.124995 34,000 136 517 0
2022-08-08 13:35:25 GMT 49.646099 4.120987 34,000 136 517 0
2022-08-08 13:35:23 GMT 49.649590 4.115939 34,000 136 517 0
2022-08-08 13:35:21 GMT 49.657551 4.104359 34,000 136 517 0
2022-08-08 13:35:19 GMT 49.657551 4.104359 34,000 136 517 0
2022-08-08 13:35:17 GMT 49.660263 4.100430 34,000 136 517 0
2022-08-08 13:35:13 GMT 49.667953 4.089299 34,000 136 517 0
2022-08-08 13:35:11 GMT 49.670563 4.085468 34,000 136 517 0
2022-08-08 13:35:08 GMT 49.674728 4.079469 34,000 136 517 0
2022-08-08 13:35:06 GMT 49.679523 4.072513 34,000 136 517 0
2022-08-08 13:35:05 GMT 49.683792 4.066315 34,000 136 517 0
2022-08-08 13:35:01 GMT 49.687859 4.060339 34,000 136 517 0
2022-08-08 13:34:59 GMT 49.692047 4.054252 34,000 136 517 0
2022-08-08 13:34:56 GMT 49.700272 4.042246 34,000 136 517 0
2022-08-08 13:34:54 GMT 49.700272 4.042246 34,000 136 517 0
2022-08-08 13:34:51 GMT 49.704521 4.035991 34,000 136 517 0
2022-08-08 13:34:48 GMT 49.710251 4.027603 34,000 136 517 0
2022-08-08 13:34:46 GMT 49.713455 4.022948 34,000 136 517 0
2022-08-08 13:34:44 GMT 49.722107 4.010227 34,000 136 517 0
2022-08-08 13:34:41 GMT 49.722107 4.010227 34,000 136 517 0
2022-08-08 13:34:38 GMT 49.727600 4.002059 34,000 136 517 0
2022-08-08 13:34:36 GMT 49.730312 3.998133 34,000 136 517 0
2022-08-08 13:34:34 GMT 49.734783 3.991526 34,000 136 517 0
2022-08-08 13:34:30 GMT 49.741287 3.981966 34,000 136 517 0
2022-08-08 13:34:28 GMT 49.744839 3.976754 34,000 136 517 0
2022-08-08 13:34:26 GMT 49.748245 3.971847 34,000 136 517 0
2022-08-08 13:34:23 GMT 49.753868 3.963541 34,000 136 517 0
2022-08-08 13:34:21 GMT 49.756714 3.959343 34,000 136 517 0
2022-08-08 13:34:19 GMT 49.760880 3.953271 34,000 136 517 0
2022-08-08 13:34:17 GMT 49.764542 3.947923 34,000 136 517 0
2022-08-08 13:34:15 GMT 49.767040 3.944240 34,000 136 517 0
2022-08-08 13:34:12 GMT 49.779099 3.926600 34,000 136 517 0
2022-08-08 13:34:09 GMT 49.779099 3.926600 34,000 136 517 0
2022-08-08 13:34:07 GMT 49.781425 3.923158 34,000 136 517 0
2022-08-08 13:34:05 GMT 49.785057 3.917814 34,000 136 517 0
2022-08-08 13:34:03 GMT 49.787849 3.913731 34,000 136 517 0
2022-08-08 13:34:01 GMT 49.792179 3.907347 34,000 136 517 0
2022-08-08 13:33:59 GMT 49.795624 3.902225 34,000 136 517 0
2022-08-08 13:33:57 GMT 49.799194 3.897039 34,000 136 517 0
2022-08-08 13:33:56 GMT 49.800934 3.894509 34,000 136 517 0
2022-08-08 13:33:53 GMT 49.811733 3.878619 34,000 136 518 0
2022-08-08 13:33:49 GMT 49.811733 3.878619 34,000 136 518 0
2022-08-08 13:33:47 GMT 49.815308 3.873331 34,000 136 518 0
2022-08-08 13:33:45 GMT 49.818924 3.868055 34,000 136 518 0
2022-08-08 13:33:44 GMT 49.822403 3.862923 34,000 136 518 0
2022-08-08 13:33:42 GMT 49.824394 3.859987 34,000 136 518 0
2022-08-08 13:33:40 GMT 49.827621 3.855334 34,000 136 517 0
2022-08-08 13:33:38 GMT 49.831467 3.849696 34,000 136 517 0
2022-08-08 13:33:36 GMT 49.834579 3.845143 34,000 136 517 0
2022-08-08 13:33:35 GMT 49.840034 3.837124 34,000 136 517 0
2022-08-08 13:33:33 GMT 49.840034 3.837124 34,000 136 517 0
2022-08-08 13:33:32 GMT 49.845249 3.829478 34,000 136 517 0
2022-08-08 13:33:30 GMT 49.845249 3.829478 34,000 136 517 0
2022-08-08 13:33:29 GMT 49.848881 3.824133 34,000 136 518 0
2022-08-08 13:33:27 GMT 49.850739 3.821435 34,000 136 518 0
2022-08-08 13:33:25 GMT 49.853851 3.816882 34,000 136 518 0
2022-08-08 13:33:23 GMT 49.858017 3.810738 34,000 136 518 0
2022-08-08 13:33:22 GMT 49.861496 3.805679 34,000 136 517 0
2022-08-08 13:33:20 GMT 49.863499 3.802754 34,000 136 518 0
2022-08-08 13:33:19 GMT 49.867035 3.797511 34,000 136 518 0
2022-08-08 13:33:16 GMT 49.870331 3.792668 34,000 136 518 0
2022-08-08 13:33:14 GMT 49.873260 3.788332 34,000 136 517 0
2022-08-08 13:33:13 GMT 49.879349 3.779369 34,000 136 517 0
2022-08-08 13:33:11 GMT 49.879349 3.779369 34,000 136 517 0
2022-08-08 13:33:09 GMT 49.882095 3.775249 34,000 136 517 0
2022-08-08 13:33:08 GMT 49.883747 3.772839 34,000 136 517 0
2022-08-08 13:33:06 GMT 49.887314 3.767588 34,000 136 517 0
2022-08-08 13:33:05 GMT 49.891384 3.761630 34,000 136 517 0
2022-08-08 13:33:03 GMT 49.893105 3.759106 34,000 136 517 0
2022-08-08 13:33:02 GMT 49.896469 3.754072 34,000 136 517 0
2022-08-08 13:33:00 GMT 49.898319 3.751386 34,000 136 518 0
2022-08-08 13:32:59 GMT 49.903748 3.743374 34,000 136 518 0
2022-08-08 13:32:57 GMT 49.903748 3.743374 34,000 136 518 0
2022-08-08 13:32:55 GMT 49.907227 3.738243 34,000 136 518 0
2022-08-08 13:32:53 GMT 49.910339 3.733617 34,000 136 518 0
2022-08-08 13:32:52 GMT 49.911961 3.731195 34,000 136 518 0
2022-08-08 13:32:50 GMT 49.915451 3.726073 34,000 136 517 0
2022-08-08 13:32:48 GMT 49.918896 3.721025 34,000 136 517 0
2022-08-08 13:32:47 GMT 49.920803 3.718204 34,000 136 517 0
2022-08-08 13:32:46 GMT 49.924347 3.712945 34,000 136 517 0
2022-08-08 13:32:44 GMT 49.926086 3.710415 34,000 136 517 0
2022-08-08 13:32:42 GMT 49.929382 3.705573 34,000 136 517 0
2022-08-08 13:32:41 GMT 49.930939 3.703260 34,000 136 517 0
2022-08-08 13:32:40 GMT 49.934921 3.697333 34,000 136 518 0
2022-08-08 13:32:38 GMT 49.936726 3.694672 34,000 136 518 0
2022-08-08 13:32:37 GMT 49.942078 3.686730 34,000 136 517 0
2022-08-08 13:32:35 GMT 49.942078 3.686730 34,000 136 517 0
2022-08-08 13:32:33 GMT 49.944500 3.683167 34,000 136 517 0
2022-08-08 13:32:31 GMT 49.948132 3.677748 34,000 136 517 0
2022-08-08 13:32:29 GMT 49.950806 3.673843 34,000 136 517 0
2022-08-08 13:32:28 GMT 49.952682 3.671024 34,000 136 517 0
2022-08-08 13:32:26 GMT 49.956161 3.665892 34,000 136 517 0
2022-08-08 13:32:24 GMT 49.959961 3.660254 34,000 136 517 0
2022-08-08 13:32:22 GMT 49.962891 3.655918 34,000 136 517 0
2022-08-08 13:32:21 GMT 49.964630 3.653315 34,000 136 517 0
2022-08-08 13:32:20 GMT 49.968845 3.647090 34,000 136 517 0
2022-08-08 13:32:17 GMT 49.971592 3.643007 34,000 136 517 0
2022-08-08 13:32:15 GMT 49.979042 3.632021 34,000 136 517 0
2022-08-08 13:32:13 GMT 49.979042 3.632021 34,000 136 517 0
2022-08-08 13:32:11 GMT 49.982487 3.626899 34,000 136 517 0
2022-08-08 13:32:09 GMT 49.985092 3.623039 34,000 136 517 0
2022-08-08 13:32:08 GMT 49.987514 3.619475 34,000 136 517 0
2022-08-08 13:32:06 GMT 49.992680 3.611830 34,000 136 517 0
2022-08-08 13:32:05 GMT 49.994404 3.609231 34,000 136 516 0
2022-08-08 13:32:03 GMT 49.999695 3.601420 34,000 136 517 0
2022-08-08 13:32:01 GMT 49.999695 3.601420 34,000 136 517 0
2022-08-08 13:32:00 GMT 50.003017 3.596464 34,000 136 517 0
2022-08-08 13:31:56 GMT 50.010864 3.584796 34,000 136 517 0
2022-08-08 13:31:53 GMT 50.013535 3.580801 34,000 136 517 0
2022-08-08 13:31:51 GMT 50.016979 3.575679 34,000 136 516 0
2022-08-08 13:31:50 GMT 50.018517 3.573377 34,000 136 516 0
2022-08-08 13:31:48 GMT 50.022148 3.567959 34,000 136 516 0
2022-08-08 13:31:46 GMT 50.025330 3.563257 34,000 136 516 0
2022-08-08 13:31:45 GMT 50.028851 3.558011 34,000 136 516 0
2022-08-08 13:31:43 GMT 50.030457 3.555595 34,000 136 516 0
2022-08-08 13:31:41 GMT 50.036316 3.546849 34,000 136 516 0
2022-08-08 13:31:40 GMT 50.039188 3.542645 34,000 136 516 0
2022-08-08 13:31:37 GMT 50.040985 3.539983 34,000 136 515 0
2022-08-08 13:31:35 GMT 50.044418 3.534851 34,000 136 515 0
2022-08-08 13:31:34 GMT 50.046402 3.531882 34,000 136 515 0
2022-08-08 13:31:33 GMT 50.048126 3.529358 34,000 136 515 0
2022-08-08 13:31:32 GMT 50.049591 3.527117 34,000 136 515 0
2022-08-08 13:31:30 GMT 50.053345 3.521552 34,000 136 516 0
2022-08-08 13:31:28 GMT 50.057388 3.515477 34,000 136 516 0
2022-08-08 13:31:27 GMT 50.058414 3.513918 34,000 136 516 0
2022-08-08 13:31:25 GMT 50.066139 3.502412 34,000 136 516 0
2022-08-08 13:31:23 GMT 50.066139 3.502412 34,000 136 516 0
2022-08-08 13:31:21 GMT 50.069687 3.497194 34,000 136 516 0
2022-08-08 13:31:19 GMT 50.074753 3.489570 34,000 136 516 0
2022-08-08 13:31:17 GMT 50.076370 3.487147 34,000 136 516 0
2022-08-08 13:31:15 GMT 50.079548 3.482369 34,000 136 516 0
2022-08-08 13:31:13 GMT 50.081177 3.479919 34,000 136 516 0
2022-08-08 13:31:12 GMT 50.086578 3.471828 34,000 136 516 0
2022-08-08 13:31:10 GMT 50.086578 3.471828 34,000 136 516 0
2022-08-08 13:31:08 GMT 50.090160 3.466483 34,000 136 516 0
2022-08-08 13:31:06 GMT 50.094631 3.459803 34,000 136 516 0
2022-08-08 13:31:03 GMT 50.102463 3.448117 34,000 136 516 -64
2022-08-08 13:30:59 GMT 50.108643 3.438865 34,000 136 516 -64
2022-08-08 13:30:58 GMT 50.110130 3.436716 34,000 136 516 0
2022-08-08 13:30:54 GMT 50.115189 3.429108 34,000 136 516 0
2022-08-08 13:30:52 GMT 50.121258 3.420014 34,000 136 516 0
2022-08-08 13:30:50 GMT 50.123245 3.417037 34,000 136 515 0
2022-08-08 13:30:48 GMT 50.124889 3.414595 34,000 136 515 0
2022-08-08 13:30:46 GMT 50.128288 3.409399 34,000 136 515 0
2022-08-08 13:30:44 GMT 50.131485 3.404678 34,000 136 515 0
2022-08-08 13:30:43 GMT 50.132996 3.402365 34,000 136 515 0
2022-08-08 13:30:41 GMT 50.138168 3.394631 34,000 136 515 0
2022-08-08 13:30:39 GMT 50.140808 3.390618 34,000 136 515 0
2022-08-08 13:30:37 GMT 50.143742 3.386239 34,000 136 516 0
2022-08-08 13:30:35 GMT 50.147003 3.381414 34,000 136 516 0
2022-08-08 13:30:33 GMT 50.150261 3.376514 34,000 136 516 0
2022-08-08 13:30:31 GMT 50.155056 3.369314 34,000 136 516 0
2022-08-08 13:30:30 GMT 50.156776 3.366716 34,000 136 515 0
2022-08-08 13:30:28 GMT 50.160175 3.361594 34,000 136 515 0
2022-08-08 13:30:26 GMT 50.162018 3.358853 34,000 136 515 0
2022-08-08 13:30:24 GMT 50.167145 3.351191 34,000 136 515 0
2022-08-08 13:30:22 GMT 50.169891 3.346999 34,000 136 515 0
2022-08-08 13:30:21 GMT 50.171585 3.344470 34,000 136 515 0
2022-08-08 13:30:20 GMT 50.175117 3.339176 34,000 136 515 0
2022-08-08 13:30:18 GMT 50.180565 3.330936 34,000 136 515 0
2022-08-08 13:30:16 GMT 50.180565 3.330936 34,000 136 516 0
2022-08-08 13:30:14 GMT 50.183498 3.326556 34,000 136 516 0
2022-08-08 13:30:12 GMT 50.187012 3.321268 34,000 136 516 0
2022-08-08 13:30:11 GMT 50.192249 3.313417 34,000 136 516 0
2022-08-08 13:30:08 GMT 50.197815 3.305078 34,000 136 515 0
2022-08-08 13:30:06 GMT 50.197815 3.305078 34,000 136 515 0
2022-08-08 13:30:04 GMT 50.200302 3.301317 34,000 136 515 0
2022-08-08 13:30:02 GMT 50.208031 3.289737 34,000 135 516 0
2022-08-08 13:30:00 GMT 50.208031 3.289737 34,000 135 516 0
2022-08-08 13:29:57 GMT 50.216736 3.276598 34,000 135 515 0
2022-08-08 13:29:55 GMT 50.216736 3.276598 34,000 135 515 0
2022-08-08 13:29:54 GMT 50.219997 3.271699 34,000 135 516 0
2022-08-08 13:29:51 GMT 50.223999 3.265614 34,000 135 516 0
2022-08-08 13:29:49 GMT 50.226746 3.261422 34,000 135 516 0
2022-08-08 13:29:48 GMT 50.230316 3.256001 34,000 135 516 0
2022-08-08 13:29:46 GMT 50.232010 3.253399 34,000 135 516 0
2022-08-08 13:29:44 GMT 50.235443 3.248267 34,000 135 516 0
2022-08-08 13:29:42 GMT 50.238754 3.243194 34,000 135 516 0
2022-08-08 13:29:40 GMT 50.242340 3.237775 34,000 135 516 0
2022-08-08 13:29:38 GMT 50.245415 3.233098 34,000 135 516 0
2022-08-08 13:29:36 GMT 50.248020 3.229238 34,000 135 516 0
2022-08-08 13:29:34 GMT 50.252380 3.222608 34,000 135 516 0
2022-08-08 13:29:33 GMT 50.255630 3.217693 34,000 135 516 0
2022-08-08 13:29:31 GMT 50.257423 3.214986 34,000 135 516 0
2022-08-08 13:29:28 GMT 50.262817 3.206851 34,000 135 516 0
2022-08-08 13:29:27 GMT 50.264454 3.204370 34,000 135 516 0
2022-08-08 13:29:26 GMT 50.268127 3.198828 34,000 135 516 0
2022-08-08 13:29:23 GMT 50.271111 3.194275 34,000 135 516 0
2022-08-08 13:29:21 GMT 50.274811 3.188709 34,000 135 516 0
2022-08-08 13:29:19 GMT 50.277374 3.184879 34,000 135 516 0
2022-08-08 13:29:17 GMT 50.285385 3.172664 34,000 135 516 0
2022-08-08 13:29:13 GMT 50.287868 3.168888 34,000 135 516 0
2022-08-08 13:29:12 GMT 50.290512 3.164858 34,000 135 516 0
2022-08-08 13:29:10 GMT 50.293076 3.160955 34,000 135 516 0
2022-08-08 13:29:08 GMT 50.300217 3.150040 34,000 135 516 0
2022-08-08 13:29:04 GMT 50.302860 3.146024 34,000 135 516 0
2022-08-08 13:29:01 GMT 50.308273 3.137898 34,000 135 516 0
2022-08-08 13:28:59 GMT 50.312447 3.131549 34,000 135 516 0
2022-08-08 13:28:58 GMT 50.314499 3.128431 34,000 135 516 0
2022-08-08 13:28:56 GMT 50.316032 3.126130 34,000 135 516 0
2022-08-08 13:28:55 GMT 50.318527 3.122358 34,000 135 516 0
2022-08-08 13:28:54 GMT 50.325714 3.111444 34,000 135 516 0
2022-08-08 13:28:51 GMT 50.329067 3.106384 34,000 135 516 0
2022-08-08 13:28:49 GMT 50.329067 3.106384 34,000 135 516 0
2022-08-08 13:28:47 GMT 50.332279 3.101485 34,000 135 516 0
2022-08-08 13:28:45 GMT 50.335537 3.096511 34,000 135 516 0
2022-08-08 13:28:43 GMT 50.340008 3.089831 34,000 135 516 0
2022-08-08 13:28:42 GMT 50.340912 3.088387 34,000 135 516 0
2022-08-08 13:28:40 GMT 50.344528 3.082894 34,000 135 516 0
2022-08-08 13:28:38 GMT 50.347176 3.078918 34,000 135 516 0
2022-08-08 13:28:37 GMT 50.349548 3.075281 34,000 135 516 0
2022-08-08 13:28:36 GMT 50.352722 3.070462 34,000 135 516 0
2022-08-08 13:28:33 GMT 50.360489 3.058653 34,000 135 515 0
2022-08-08 13:28:31 GMT 50.360489 3.058653 34,000 135 515 0
2022-08-08 13:28:29 GMT 50.362473 3.055717 34,000 135 515 0
2022-08-08 13:28:27 GMT 50.366547 3.049429 34,000 135 515 0
2022-08-08 13:28:26 GMT 50.370731 3.043139 34,000 135 515 0
2022-08-08 13:28:24 GMT 50.372177 3.040900 34,000 135 515 0
2022-08-08 13:28:23 GMT 50.375340 3.036087 34,000 135 515 0
2022-08-08 13:28:20 GMT 50.377949 3.032227 34,000 135 515 0
2022-08-08 13:28:17 GMT 50.383209 3.024135 34,000 135 516 0
2022-08-08 13:28:16 GMT 50.384857 3.021746 34,000 135 516 0
2022-08-08 13:28:13 GMT 50.390305 3.013362 34,000 135 516 0
2022-08-08 13:28:12 GMT 50.391998 3.010760 34,000 135 516 0
2022-08-08 13:28:10 GMT 50.395496 3.005429 34,000 135 516 0
2022-08-08 13:28:08 GMT 50.399368 2.999629 34,000 135 516 0
2022-08-08 13:28:06 GMT 50.402939 2.994136 34,000 135 515 0
2022-08-08 13:28:05 GMT 50.404633 2.991534 34,000 135 515 0
2022-08-08 13:28:04 GMT 50.408161 2.986203 34,000 135 516 0
2022-08-08 13:28:01 GMT 50.411636 2.980909 34,000 135 516 0
2022-08-08 13:28:00 GMT 50.413422 2.978186 34,000 135 516 0
2022-08-08 13:27:58 GMT 50.416168 2.974029 34,000 135 516 0
2022-08-08 13:27:56 GMT 50.418865 2.969872 34,000 135 516 0
2022-08-08 13:27:55 GMT 50.420589 2.967274 34,000 135 515 0
2022-08-08 13:27:53 GMT 50.424873 2.960741 34,000 135 515 0
2022-08-08 13:27:52 GMT 50.427338 2.956985 34,000 135 515 0
2022-08-08 13:27:50 GMT 50.429108 2.954283 34,000 135 515 0
2022-08-08 13:27:48 GMT 50.432365 2.949309 34,000 135 514 -64
2022-08-08 13:27:46 GMT 50.435989 2.943685 34,000 135 514 -64
2022-08-08 13:27:45 GMT 50.441677 2.934983 34,000 135 514 0
2022-08-08 13:27:43 GMT 50.441677 2.934983 34,000 135 514 0
2022-08-08 13:27:40 GMT 50.446796 2.927114 34,000 135 514 0
2022-08-08 13:27:37 GMT 50.451221 2.920359 34,000 135 514 0
2022-08-08 13:27:36 GMT 50.455456 2.913827 34,000 135 514 0
2022-08-08 13:27:35 GMT 50.455456 2.913827 34,000 135 514 0
2022-08-08 13:27:33 GMT 50.458668 2.908853 34,000 135 514 0
2022-08-08 13:27:31 GMT 50.462311 2.903282 34,000 135 514 0
2022-08-08 13:27:29 GMT 50.465515 2.898295 34,000 135 514 0
2022-08-08 13:27:27 GMT 50.469654 2.891928 34,000 135 514 0
2022-08-08 13:27:25 GMT 50.472916 2.886955 34,000 135 514 0
2022-08-08 13:27:24 GMT 50.474670 2.884200 34,000 135 514 0
2022-08-08 13:27:23 GMT 50.479065 2.877406 34,000 135 514 0
2022-08-08 13:27:21 GMT 50.480804 2.874804 34,000 135 514 0
2022-08-08 13:27:18 GMT 50.484329 2.869383 34,000 135 514 0
2022-08-08 13:27:17 GMT 50.486275 2.866318 34,000 135 514 0
2022-08-08 13:27:15 GMT 50.492886 2.856148 34,000 135 514 0
2022-08-08 13:27:13 GMT 50.492886 2.856148 34,000 135 514 0
2022-08-08 13:27:12 GMT 50.496185 2.851097 34,000 135 514 0
2022-08-08 13:27:09 GMT 50.499573 2.845893 34,000 135 514 0
2022-08-08 13:27:06 GMT 50.503143 2.840399 34,000 135 514 0
2022-08-08 13:27:04 GMT 50.506531 2.835123 34,000 135 514 0
2022-08-08 13:27:03 GMT 50.508224 2.832521 34,000 135 514 0
2022-08-08 13:27:01 GMT 50.516464 2.819728 34,000 135 514 0
2022-08-08 13:26:59 GMT 50.516464 2.819728 34,000 135 514 0
2022-08-08 13:26:56 GMT 50.521362 2.812139 34,000 135 514 0
2022-08-08 13:26:55 GMT 50.523331 2.809160 34,000 135 514 0
2022-08-08 13:26:53 GMT 50.526764 2.803827 34,000 135 514 0
2022-08-08 13:26:50 GMT 50.531845 2.795948 34,000 135 514 0
2022-08-08 13:26:48 GMT 50.535049 2.790961 34,000 135 514 0
2022-08-08 13:26:47 GMT 50.536880 2.788142 34,000 135 514 0
2022-08-08 13:26:45 GMT 50.540451 2.782649 34,000 135 514 0
2022-08-08 13:26:44 GMT 50.542229 2.779912 34,000 135 514 0
2022-08-08 13:26:41 GMT 50.547302 2.772044 34,000 135 514 0
2022-08-08 13:26:39 GMT 50.550468 2.767070 34,000 135 513 0
2022-08-08 13:26:38 GMT 50.552193 2.764472 34,000 135 513 0
2022-08-08 13:26:36 GMT 50.555466 2.759375 34,000 135 513 0
2022-08-08 13:26:34 GMT 50.560867 2.750991 34,000 135 513 0
2022-08-08 13:26:32 GMT 50.562561 2.748389 34,000 135 513 0
2022-08-08 13:26:31 GMT 50.567413 2.740800 34,000 135 513 0
2022-08-08 13:26:29 GMT 50.567413 2.740800 34,000 135 513 0
2022-08-08 13:26:28 GMT 50.568924 2.738487 34,000 135 513 0
2022-08-08 13:26:25 GMT 50.572395 2.733072 34,000 135 512 0
2022-08-08 13:26:23 GMT 50.577286 2.725500 34,000 135 511 0
2022-08-08 13:26:21 GMT 50.580963 2.719784 34,000 135 511 0
2022-08-08 13:26:20 GMT 50.582565 2.717309 34,000 135 511 0
2022-08-08 13:26:19 GMT 50.584259 2.714707 34,000 135 511 0
2022-08-08 13:26:16 GMT 50.588287 2.708419 34,000 135 511 0
2022-08-08 13:26:15 GMT 50.590622 2.704805 34,000 135 511 0
2022-08-08 13:26:13 GMT 50.593826 2.699890 34,000 135 511 0
2022-08-08 13:26:12 GMT 50.597115 2.694768 34,000 135 511 0
2022-08-08 13:26:09 GMT 50.600555 2.689482 34,000 135 509 0
2022-08-08 13:26:07 GMT 50.603897 2.684278 34,000 135 509 0
2022-08-08 13:26:05 GMT 50.607494 2.678660 34,000 135 509 0
2022-08-08 13:26:03 GMT 50.610901 2.673364 34,000 135 509 0
2022-08-08 13:26:02 GMT 50.614426 2.667943 34,000 135 509 0
2022-08-08 13:25:59 GMT 50.617081 2.663751 34,000 135 509 0
2022-08-08 13:25:57 GMT 50.619919 2.659342 34,000 135 508 0
2022-08-08 13:25:56 GMT 50.621613 2.656740 34,000 135 508 0
2022-08-08 13:25:54 GMT 50.628353 2.646220 34,000 135 508 0
2022-08-08 13:25:52 GMT 50.630215 2.643400 34,000 135 508 0
2022-08-08 13:25:49 GMT 50.637196 2.632488 34,000 135 508 0
2022-08-08 13:25:47 GMT 50.637196 2.632488 34,000 135 508 0
2022-08-08 13:25:45 GMT 50.640503 2.627291 34,000 135 507 0
2022-08-08 13:25:43 GMT 50.645416 2.619589 34,000 135 507 0
2022-08-08 13:25:41 GMT 50.646927 2.617276 34,000 135 507 0
2022-08-08 13:25:39 GMT 50.650326 2.612000 34,000 135 507 0
2022-08-08 13:25:37 GMT 50.653748 2.606651 34,000 135 507 0
2022-08-08 13:25:36 GMT 50.655396 2.604049 34,000 135 507 0
2022-08-08 13:25:34 GMT 50.658611 2.599009 34,000 135 506 0
2022-08-08 13:25:32 GMT 50.661850 2.593930 34,000 135 506 0
2022-08-08 13:25:30 GMT 50.665329 2.588509 34,000 135 505 0
2022-08-08 13:25:28 GMT 50.668758 2.583198 34,000 135 505 0
2022-08-08 13:25:26 GMT 50.672066 2.577972 34,000 135 505 0
2022-08-08 13:25:24 GMT 50.675262 2.572954 34,000 135 504 0
2022-08-08 13:25:22 GMT 50.679325 2.566605 34,000 135 504 0
2022-08-08 13:25:21 GMT 50.683472 2.560120 34,000 135 504 0
2022-08-08 13:25:18 GMT 50.685013 2.557662 34,000 135 504 0
2022-08-08 13:25:16 GMT 50.688263 2.552643 34,000 135 504 0
2022-08-08 13:25:15 GMT 50.690643 2.548902 34,000 135 503 0
2022-08-08 13:25:13 GMT 50.695084 2.541925 34,000 135 503 0
2022-08-08 13:25:10 GMT 50.698380 2.536728 34,000 135 503 0
2022-08-08 13:25:09 GMT 50.700321 2.533798 34,000 135 502 0
2022-08-08 13:25:07 GMT 50.704010 2.527969 34,000 135 502 0
2022-08-08 13:25:05 GMT 50.706985 2.523367 34,000 135 502 0
2022-08-08 13:25:03 GMT 50.709866 2.518845 34,000 135 502 0
2022-08-08 13:25:01 GMT 50.714218 2.512083 34,000 135 500 0
2022-08-08 13:24:59 GMT 50.716755 2.508087 34,000 135 500 64
2022-08-08 13:24:58 GMT 50.718571 2.505341 34,000 135 499 64
2022-08-08 13:24:57 GMT 50.719986 2.503175 34,000 135 499 64
2022-08-08 13:24:55 GMT 50.723419 2.497757 34,000 135 498 0
2022-08-08 13:24:53 GMT 50.726715 2.492709 34,000 135 497 64
2022-08-08 13:24:52 GMT 50.728111 2.490540 34,000 135 497 64
2022-08-08 13:24:50 GMT 50.732025 2.484436 34,000 135 496 0
2022-08-08 13:24:48 GMT 50.735367 2.479273 34,000 135 496 0
2022-08-08 13:24:47 GMT 50.736374 2.477714 34,000 135 494 0
2022-08-08 13:24:45 GMT 50.739624 2.472666 34,000 135 494 0
2022-08-08 13:24:43 GMT 50.743698 2.466431 34,000 135 490 0
2022-08-08 13:24:40 GMT 50.748550 2.458859 34,000 135 490 0
2022-08-08 13:24:38 GMT 50.752899 2.452104 34,000 135 490 0
2022-08-08 13:24:36 GMT 50.757023 2.445679 34,000 135 490 0
2022-08-08 13:24:34 GMT 50.757023 2.445679 34,000 135 488 0
2022-08-08 13:24:33 GMT 50.761490 2.438660 34,000 134 487 0
2022-08-08 13:24:31 GMT 50.763153 2.435996 34,000 132 482 0
2022-08-08 13:24:29 GMT 50.764797 2.433319 34,000 132 482 0
2022-08-08 13:24:26 GMT 50.773407 2.419293 34,000 132 482 0
2022-08-08 13:24:24 GMT 50.773407 2.419293 34,000 132 482 0
2022-08-08 13:24:22 GMT 50.776527 2.414017 34,000 132 482 0
2022-08-08 13:24:20 GMT 50.781326 2.405486 34,000 130 479 0
2022-08-08 13:24:18 GMT 50.786209 2.396317 34,000 128 477 0
2022-08-08 13:24:15 GMT 50.786209 2.396317 34,000 128 477 0
2022-08-08 13:24:13 GMT 50.789291 2.390194 34,000 126 475 0
2022-08-08 13:24:11 GMT 50.791237 2.386169 34,000 126 475 0
2022-08-08 13:24:09 GMT 50.794418 2.379357 34,000 124 474 -64
2022-08-08 13:24:07 GMT 50.796780 2.374115 34,000 123 473 -64
2022-08-08 13:24:06 GMT 50.797989 2.371292 34,000 123 472 0
2022-08-08 13:24:04 GMT 50.800232 2.365921 34,000 121 471 64
2022-08-08 13:24:02 GMT 50.802658 2.359834 34,000 121 471 64
2022-08-08 13:24:00 GMT 50.805908 2.351297 34,000 117 470 0
2022-08-08 13:23:57 GMT 50.810326 2.338486 34,000 117 470 0
2022-08-08 13:23:55 GMT 50.810326 2.338486 34,000 117 470 0
2022-08-08 13:23:52 GMT 50.813210 2.328568 34,000 111 471 0
2022-08-08 13:23:50 GMT 50.814514 2.323456 34,000 110 472 0
2022-08-08 13:23:49 GMT 50.816803 2.313290 34,000 107 471 0
2022-08-08 13:23:47 GMT 50.816803 2.313290 34,000 104 471 0
2022-08-08 13:23:46 GMT 50.818565 2.303162 34,000 104 471 0
2022-08-08 13:23:44 GMT 50.818565 2.303162 34,000 102 472 0
2022-08-08 13:23:42 GMT 50.819595 2.295920 34,000 99 472 0
2022-08-08 13:23:40 GMT 50.820427 2.288666 34,000 97 472 0
2022-08-08 13:23:38 GMT 50.821030 2.281876 34,000 97 472 0
2022-08-08 13:23:36 GMT 50.821655 2.268231 34,000 91 474 0
2022-08-08 13:23:34 GMT 50.821655 2.268231 34,000 81 475 0
2022-08-08 13:23:32 GMT 50.821747 2.261699 34,000 81 475 0
2022-08-08 13:23:29 GMT 50.821335 2.247521 34,000 81 475 0
2022-08-08 13:23:26 GMT 50.821125 2.244263 34,000 81 475 0
2022-08-08 13:23:25 GMT 50.820740 2.239652 34,000 81 475 0
2022-08-08 13:23:23 GMT 50.820236 2.234159 34,000 76 476 0
2022-08-08 13:23:22 GMT 50.818863 2.223618 34,000 76 476 0
2022-08-08 13:23:20 GMT 50.818863 2.223618 34,000 76 476 0
2022-08-08 13:23:18 GMT 50.817764 2.216863 34,000 72 477 0
2022-08-08 13:23:16 GMT 50.816849 2.211889 34,000 71 478 0
2022-08-08 13:23:15 GMT 50.815796 2.206916 34,000 60 481 -64
2022-08-08 13:23:13 GMT 50.812637 2.194296 34,000 60 481 -64
2022-08-08 13:23:09 GMT 50.808838 2.182048 34,000 60 481 -64
2022-08-08 13:23:06 GMT 50.806599 2.175751 34,000 57 482 -64
2022-08-08 13:23:03 GMT 50.802795 2.166459 34,000 53 483 0
2022-08-08 13:23:01 GMT 50.798080 2.156448 34,000 52 483 0
2022-08-08 13:22:59 GMT 50.798080 2.156448 34,000 49 484 0
2022-08-08 13:22:57 GMT 50.794914 2.150497 34,000 44 485 0
2022-08-08 13:22:55 GMT 50.789017 2.140627 34,000 42 487 128
2022-08-08 13:22:53 GMT 50.789017 2.140627 34,000 42 487 128
2022-08-08 13:22:51 GMT 50.786545 2.136989 34,000 39 488 64
2022-08-08 13:22:50 GMT 50.780437 2.128830 34,000 38 488 64
2022-08-08 13:22:48 GMT 50.780437 2.128830 34,000 37 489 0
2022-08-08 13:22:46 GMT 50.776669 2.124405 34,000 32 492 -64
2022-08-08 13:22:44 GMT 50.773083 2.120514 34,000 28 492 0
2022-08-08 13:22:42 GMT 50.769451 2.116928 34,000 28 492 0
2022-08-08 13:22:41 GMT 50.763611 2.111750 34,000 26 492 0
2022-08-08 13:22:39 GMT 50.763611 2.111750 34,000 26 492 0
2022-08-08 13:22:36 GMT 50.758301 2.107668 34,000 23 491 -64
2022-08-08 13:22:34 GMT 50.753082 2.104105 34,000 22 492 -64
2022-08-08 13:22:33 GMT 50.750748 2.102694 34,000 19 491 -64
2022-08-08 13:22:31 GMT 50.746719 2.100467 34,000 16 491 64
2022-08-08 13:22:29 GMT 50.741913 2.098092 34,000 15 492 128
2022-08-08 13:22:27 GMT 50.732895 2.094603 34,000 11 491 128
2022-08-08 13:22:25 GMT 50.732895 2.094603 34,000 10 492 64
2022-08-08 13:22:23 GMT 50.730881 2.094009 34,000 0 493 -64
2022-08-08 13:22:20 GMT 50.722321 2.092227 34,000 0 493 -64
2022-08-08 13:22:17 GMT 50.716415 2.091782 34,000 0 493 -64
2022-08-08 13:22:15 GMT 50.710423 2.091904 34,000 357 492 -128
2022-08-08 13:22:13 GMT 50.705860 2.092361 34,000 354 492 -64
2022-08-08 13:22:10 GMT 50.697189 2.093786 34,000 353 492 0
2022-08-08 13:22:07 GMT 50.688080 2.095795 34,000 352 492 0
2022-08-08 13:22:05 GMT 50.688080 2.095795 34,000 352 492 0
2022-08-08 13:22:04 GMT 50.682541 2.097052 34,000 352 492 0
2022-08-08 13:22:00 GMT 50.677044 2.098312 34,000 352 492 0
2022-08-08 13:21:59 GMT 50.672653 2.099279 34,000 352 492 0
2022-08-08 13:21:56 GMT 50.667435 2.100412 34,000 352 492 0
2022-08-08 13:21:54 GMT 50.660381 2.102026 34,000 352 492 0
2022-08-08 13:21:53 GMT 50.660381 2.102026 34,000 352 492 0
2022-08-08 13:21:50 GMT 50.652466 2.103808 34,000 352 492 0
2022-08-08 13:21:48 GMT 50.647888 2.104821 34,000 352 492 0
2022-08-08 13:21:46 GMT 50.645370 2.105400 34,000 352 492 0
2022-08-08 13:21:44 GMT 50.640656 2.106412 34,000 352 492 0
2022-08-08 13:21:42 GMT 50.635799 2.107519 34,000 352 492 0
2022-08-08 13:21:40 GMT 50.632217 2.108336 34,000 352 492 0
2022-08-08 13:21:38 GMT 50.626465 2.109592 34,000 352 492 0
2022-08-08 13:21:36 GMT 50.624451 2.110098 34,000 352 492 0
2022-08-08 13:21:34 GMT 50.619461 2.111182 34,000 352 492 0
2022-08-08 13:21:32 GMT 50.611267 2.113012 34,000 353 492 0
2022-08-08 13:21:29 GMT 50.605499 2.114218 34,000 353 492 0
2022-08-08 13:21:27 GMT 50.602112 2.115013 34,000 353 492 0
2022-08-08 13:21:26 GMT 50.600002 2.115462 34,000 353 492 0
2022-08-08 13:21:25 GMT 50.597954 2.115907 34,000 352 492 0
2022-08-08 13:21:22 GMT 50.592087 2.117169 34,000 352 492 0
2022-08-08 13:21:20 GMT 50.583103 2.119174 34,000 352 492 0
2022-08-08 13:21:18 GMT 50.580917 2.119639 34,000 352 492 0
2022-08-08 13:21:15 GMT 50.574074 2.121178 34,000 352 492 0
2022-08-08 13:21:13 GMT 50.571793 2.121698 34,000 352 492 0
2022-08-08 13:21:11 GMT 50.566158 2.122959 34,000 352 492 0
2022-08-08 13:21:08 GMT 50.560524 2.124221 34,000 352 492 0
2022-08-08 13:21:07 GMT 50.558292 2.124741 34,000 352 492 0
2022-08-08 13:21:04 GMT 50.551727 2.126226 34,000 352 492 0
2022-08-08 13:21:02 GMT 50.547134 2.127228 34,000 352 492 0
2022-08-08 13:21:00 GMT 50.542603 2.128240 34,000 352 493 0
2022-08-08 13:20:58 GMT 50.537296 2.129492 34,000 352 493 0
2022-08-08 13:20:56 GMT 50.533585 2.130336 34,000 352 494 0
2022-08-08 13:20:54 GMT 50.524109 2.132432 34,000 352 494 0
2022-08-08 13:20:52 GMT 50.519932 2.133426 34,000 352 493 0
2022-08-08 13:20:50 GMT 50.519932 2.133426 34,000 352 493 0
2022-08-08 13:20:48 GMT 50.509689 2.135829 34,000 352 493 0
2022-08-08 13:20:46 GMT 50.507217 2.136407 34,000 352 493 0
2022-08-08 13:20:43 GMT 50.502800 2.137435 34,000 352 493 0
2022-08-08 13:20:41 GMT 50.495819 2.139142 34,000 352 494 -64
2022-08-08 13:20:38 GMT 50.492340 2.140021 34,000 351 494 -64
2022-08-08 13:20:35 GMT 50.484783 2.141889 34,000 351 494 -64
2022-08-08 13:20:34 GMT 50.482552 2.142482 34,000 351 494 -64
2022-08-08 13:20:32 GMT 50.478378 2.143490 34,000 352 494 -64
2022-08-08 13:20:30 GMT 50.473434 2.144719 34,000 352 493 -64
2022-08-08 13:20:28 GMT 50.471375 2.145225 34,000 352 494 0
2022-08-08 13:20:26 GMT 50.463272 2.147104 34,000 352 493 0
2022-08-08 13:20:23 GMT 50.455273 2.148941 34,000 352 493 128
2022-08-08 13:20:21 GMT 50.454025 2.149200 34,000 352 493 128
2022-08-08 13:20:19 GMT 50.445923 2.151224 34,000 349 494 64
2022-08-08 13:20:17 GMT 50.445923 2.151224 34,000 349 494 64
2022-08-08 13:20:15 GMT 50.439537 2.153172 34,000 343 493 -64
2022-08-08 13:20:13 GMT 50.434982 2.154910 34,000 343 493 -64
2022-08-08 13:20:11 GMT 50.426174 2.159110 34,000 340 493 0
2022-08-08 13:20:09 GMT 50.422852 2.161054 34,000 340 493 0
2022-08-08 13:20:07 GMT 50.422852 2.161054 34,000 337 492 0
2022-08-08 13:20:05 GMT 50.417519 2.164529 34,000 336 492 0
2022-08-08 13:20:01 GMT 50.410767 2.169726 34,000 330 493 0
2022-08-08 13:19:59 GMT 50.407883 2.172185 34,000 330 493 0
2022-08-08 13:19:57 GMT 50.403992 2.175871 34,000 328 492 0
2022-08-08 13:19:55 GMT 50.399826 2.180136 34,000 323 492 0
2022-08-08 13:19:53 GMT 50.396194 2.184201 34,000 320 492 0
2022-08-08 13:19:52 GMT 50.394516 2.186207 34,000 320 492 0
2022-08-08 13:19:50 GMT 50.386326 2.197191 34,000 316 491 0
2022-08-08 13:19:48 GMT 50.386326 2.197191 34,000 316 491 0
2022-08-08 13:19:46 GMT 50.383209 2.202108 34,000 313 491 0
2022-08-08 13:19:45 GMT 50.381531 2.204763 34,000 313 491 0
2022-08-08 13:19:43 GMT 50.378586 2.209914 34,000 311 491 0
2022-08-08 13:19:42 GMT 50.377064 2.212780 34,000 309 491 0
2022-08-08 13:19:39 GMT 50.372681 2.221623 34,000 298 490 0
2022-08-08 13:19:37 GMT 50.369980 2.227695 34,000 298 490 0
2022-08-08 13:19:35 GMT 50.368683 2.230818 34,000 298 490 0
2022-08-08 13:19:32 GMT 50.364914 2.240914 34,000 298 490 0
2022-08-08 13:19:31 GMT 50.363842 2.244032 34,000 297 491 0
2022-08-08 13:19:29 GMT 50.361889 2.250416 34,000 291 491 0
2022-08-08 13:19:27 GMT 50.360001 2.257112 34,000 291 491 0
2022-08-08 13:19:24 GMT 50.357464 2.267860 34,000 286 490 0
2022-08-08 13:19:21 GMT 50.355469 2.278218 34,000 274 490 0
2022-08-08 13:19:20 GMT 50.354919 2.281615 34,000 274 490 0
2022-08-08 13:19:18 GMT 50.353180 2.294955 34,000 274 490 0
2022-08-08 13:19:16 GMT 50.353180 2.294955 34,000 274 490 0
2022-08-08 13:19:14 GMT 50.352539 2.302142 34,000 274 490 0
2022-08-08 13:19:13 GMT 50.352264 2.306045 34,000 274 490 0
2022-08-08 13:19:10 GMT 50.351738 2.323163 34,000 270 490 0
2022-08-08 13:19:08 GMT 50.351738 2.323163 34,000 268 490 0
2022-08-08 13:19:06 GMT 50.351879 2.330586 34,000 266 489 0
2022-08-08 13:19:04 GMT 50.352158 2.337638 34,000 265 489 0
2022-08-08 13:19:02 GMT 50.352623 2.344616 34,000 261 489 0
2022-08-08 13:19:00 GMT 50.354416 2.360470 34,000 257 488 0
2022-08-08 13:18:58 GMT 50.355927 2.370011 34,000 257 488 0
2022-08-08 13:18:55 GMT 50.357254 2.376733 34,000 253 488 0
2022-08-08 13:18:53 GMT 50.357254 2.376733 34,000 246 488 -64
2022-08-08 13:18:52 GMT 50.359131 2.385045 34,000 246 488 -64
2022-08-08 13:18:50 GMT 50.360962 2.391912 34,000 246 488 -64
2022-08-08 13:18:48 GMT 50.360962 2.391912 34,000 245 488 -64
2022-08-08 13:18:47 GMT 50.363888 2.401626 34,000 243 488 0
2022-08-08 13:18:43 GMT 50.365082 2.405211 34,000 230 487 64
2022-08-08 13:18:40 GMT 50.370266 2.418625 34,000 230 487 64
2022-08-08 13:18:37 GMT 50.376225 2.431393 34,000 230 487 64
2022-08-08 13:18:35 GMT 50.376225 2.431393 34,000 230 487 64
2022-08-08 13:18:33 GMT 50.379364 2.437158 34,000 230 487 64
2022-08-08 13:18:31 GMT 50.381424 2.440844 34,000 227 487 64
2022-08-08 13:18:29 GMT 50.385628 2.447502 34,000 223 486 0
2022-08-08 13:18:27 GMT 50.387787 2.450819 34,000 222 487 0
2022-08-08 13:18:26 GMT 50.389400 2.453069 34,000 214 487 0
2022-08-08 13:18:24 GMT 50.394241 2.459304 34,000 214 487 0
2022-08-08 13:18:22 GMT 50.396194 2.461680 34,000 214 487 0
2022-08-08 13:18:18 GMT 50.403854 2.469972 34,000 212 486 0
2022-08-08 13:18:16 GMT 50.407787 2.473631 34,000 206 486 0
2022-08-08 13:18:14 GMT 50.412537 2.477640 34,000 206 486 0
2022-08-08 13:18:12 GMT 50.418030 2.481797 34,000 199 486 0
2022-08-08 13:18:09 GMT 50.422256 2.484645 34,000 199 486 0
2022-08-08 13:18:05 GMT 50.430367 2.489220 34,000 199 486 0
2022-08-08 13:18:03 GMT 50.434414 2.491150 34,000 194 486 64
2022-08-08 13:18:02 GMT 50.436722 2.492090 34,000 194 486 64
2022-08-08 13:18:01 GMT 50.438976 2.493006 34,000 193 486 64
2022-08-08 13:17:58 GMT 50.445923 2.495270 34,000 188 486 64
2022-08-08 13:17:57 GMT 50.450363 2.496354 34,000 181 488 0
2022-08-08 13:17:54 GMT 50.454346 2.497004 34,000 181 488 0
2022-08-08 13:17:52 GMT 50.458946 2.497534 34,000 181 488 0
2022-08-08 13:17:50 GMT 50.468079 2.497366 34,000 178 488 -128
2022-08-08 13:17:48 GMT 50.468079 2.497366 34,000 174 488 -64
2022-08-08 13:17:46 GMT 50.472565 2.496932 34,000 174 488 -64
2022-08-08 13:17:44 GMT 50.477051 2.496209 34,000 172 488 0
2022-08-08 13:17:42 GMT 50.483437 2.494936 34,000 172 488 0
2022-08-08 13:17:39 GMT 50.489719 2.493674 34,000 172 488 0
2022-08-08 13:17:37 GMT 50.494308 2.492668 34,000 172 488 0
2022-08-08 13:17:34 GMT 50.503464 2.490716 34,000 172 488 0
2022-08-08 13:17:32 GMT 50.503464 2.490716 34,000 172 488 0
2022-08-08 13:17:31 GMT 50.510376 2.489198 34,000 172 488 0
2022-08-08 13:17:29 GMT 50.510376 2.489198 34,000 172 488 0
2022-08-08 13:17:27 GMT 50.519989 2.487102 34,000 172 489 0
2022-08-08 13:17:25 GMT 50.519989 2.487102 34,000 172 489 0
2022-08-08 13:17:24 GMT 50.526947 2.485657 34,000 172 489 0
2022-08-08 13:17:22 GMT 50.526947 2.485657 34,000 172 489 0
2022-08-08 13:17:20 GMT 50.533756 2.484172 34,000 172 489 0
2022-08-08 13:17:18 GMT 50.536224 2.483652 34,000 172 489 0
2022-08-08 13:17:15 GMT 50.542374 2.482332 34,000 172 489 0
2022-08-08 13:17:13 GMT 50.547863 2.481129 34,000 172 489 0
2022-08-08 13:17:11 GMT 50.554333 2.479792 34,000 172 489 0
2022-08-08 13:17:09 GMT 50.561035 2.478308 34,000 172 489 0
2022-08-08 13:17:07 GMT 50.561035 2.478308 34,000 172 489 0
2022-08-08 13:17:03 GMT 50.570114 2.476405 34,000 172 489 0
2022-08-08 13:17:02 GMT 50.576614 2.475032 34,000 172 489 0
2022-08-08 13:17:00 GMT 50.576614 2.475032 34,000 172 489 0
2022-08-08 13:16:58 GMT 50.581329 2.474092 34,000 172 489 0
2022-08-08 13:16:56 GMT 50.585815 2.473153 34,000 172 489 0
2022-08-08 13:16:55 GMT 50.588131 2.472592 34,000 172 489 0
2022-08-08 13:16:53 GMT 50.591400 2.471924 34,000 172 489 0
2022-08-08 13:16:51 GMT 50.594646 2.471256 34,000 172 489 0
2022-08-08 13:16:49 GMT 50.600468 2.469994 34,000 172 489 0
2022-08-08 13:16:47 GMT 50.605865 2.468880 34,000 172 489 0
2022-08-08 13:16:45 GMT 50.611221 2.467693 34,000 172 490 0
2022-08-08 13:16:42 GMT 50.616852 2.466505 34,000 172 490 0
2022-08-08 13:16:40 GMT 50.619186 2.465997 34,000 171 491 0
2022-08-08 13:16:38 GMT 50.626144 2.464479 34,000 172 490 0
2022-08-08 13:16:35 GMT 50.632309 2.463090 34,000 172 490 0
2022-08-08 13:16:33 GMT 50.637131 2.462094 34,000 172 490 0
2022-08-08 13:16:32 GMT 50.644089 2.460576 34,000 172 490 0
2022-08-08 13:16:30 GMT 50.644089 2.460576 34,000 172 490 0
2022-08-08 13:16:28 GMT 50.647762 2.459750 34,000 172 490 0
2022-08-08 13:16:27 GMT 50.649902 2.459275 34,000 171 490 0
2022-08-08 13:16:25 GMT 50.654617 2.458191 34,000 171 490 0
2022-08-08 13:16:23 GMT 50.657776 2.457540 34,000 171 490 0
2022-08-08 13:16:22 GMT 50.665833 2.455733 34,000 171 491 0
2022-08-08 13:16:20 GMT 50.665833 2.455733 34,000 171 491 0
2022-08-08 13:16:18 GMT 50.670090 2.454722 34,000 171 491 0
2022-08-08 13:16:16 GMT 50.674252 2.453766 34,000 171 491 0
2022-08-08 13:16:15 GMT 50.678833 2.452698 34,000 171 491 0
2022-08-08 13:16:12 GMT 50.683472 2.451553 34,000 171 491 0
2022-08-08 13:16:10 GMT 50.688263 2.450397 34,000 171 491 0
2022-08-08 13:16:08 GMT 50.698227 2.447968 34,000 171 491 -64
2022-08-08 13:16:06 GMT 50.698227 2.447968 34,000 171 491 -64
2022-08-08 13:16:03 GMT 50.703049 2.446833 34,000 171 491 -64
2022-08-08 13:16:01 GMT 50.708794 2.445526 34,000 171 491 -64
2022-08-08 13:16:00 GMT 50.711151 2.444978 34,000 171 491 -64
2022-08-08 13:15:58 GMT 50.715080 2.444077 34,000 172 491 -64
2022-08-08 13:15:56 GMT 50.719780 2.443008 34,000 172 490 0
2022-08-08 13:15:54 GMT 50.724064 2.442093 34,000 171 490 128
2022-08-08 13:15:53 GMT 50.726528 2.441483 34,000 170 491 64
2022-08-08 13:15:49 GMT 50.735657 2.439041 34,000 168 491 0
2022-08-08 13:15:48 GMT 50.737888 2.438278 34,000 167 491 0
2022-08-08 13:15:46 GMT 50.741959 2.436812 34,000 166 491 0
2022-08-08 13:15:45 GMT 50.744034 2.435913 34,000 161 490 64
2022-08-08 13:15:43 GMT 50.747292 2.434387 34,000 161 490 64
2022-08-08 13:15:41 GMT 50.757347 2.428741 34,000 158 492 64
2022-08-08 13:15:39 GMT 50.761368 2.425900 34,000 154 492 0
2022-08-08 13:15:37 GMT 50.761368 2.425900 34,000 151 492 0
2022-08-08 13:15:33 GMT 50.769058 2.419739 34,000 149 492 0
2022-08-08 13:15:32 GMT 50.770844 2.418106 34,000 147 492 0
2022-08-08 13:15:30 GMT 50.774570 2.414474 34,000 142 492 0
2022-08-08 13:15:28 GMT 50.778442 2.410311 34,000 142 492 0
2022-08-08 13:15:26 GMT 50.782021 2.406235 34,000 142 492 0
2022-08-08 13:15:25 GMT 50.783890 2.403853 34,000 139 492 0
2022-08-08 13:15:23 GMT 50.787655 2.398911 34,000 136 492 0
2022-08-08 13:15:21 GMT 50.792774 2.391357 34,000 134 492 0
2022-08-08 13:15:18 GMT 50.795425 2.387151 34,000 113 493 0
2022-08-08 13:15:16 GMT 50.798630 2.381509 34,000 128 492 64
2022-08-08 13:15:14 GMT 50.802338 2.374309 34,000 126 492 0
2022-08-08 13:15:12 GMT 50.803711 2.371488 34,000 124 493 0
2022-08-08 13:15:09 GMT 50.807812 2.362213 34,000 117 493 0
2022-08-08 13:15:07 GMT 50.810394 2.355602 34,000 117 493 0
2022-08-08 13:15:05 GMT 50.812653 2.349167 34,000 108 494 0
2022-08-08 13:15:03 GMT 50.814701 2.342758 34,000 108 494 0
2022-08-08 13:15:01 GMT 50.816986 2.334743 34,000 108 494 0
2022-08-08 13:14:59 GMT 50.818222 2.330067 34,000 108 494 0
2022-08-08 13:14:57 GMT 50.819775 2.323151 34,000 108 494 0
2022-08-08 13:14:55 GMT 50.821449 2.314529 34,000 101 494 0
2022-08-08 13:14:53 GMT 50.822388 2.309133 34,000 101 494 0
2022-08-08 13:14:52 GMT 50.822895 2.305832 34,000 100 494 0
2022-08-08 13:14:50 GMT 50.823807 2.298963 34,000 99 495 0
2022-08-08 13:14:47 GMT 50.824860 2.287903 34,000 93 496 0
2022-08-08 13:14:45 GMT 50.825359 2.280579 34,000 93 496 0
2022-08-08 13:14:42 GMT 50.825684 2.269939 34,000 88 496 0
2022-08-08 13:14:40 GMT 50.825684 2.262664 34,000 82 496 0
2022-08-08 13:14:39 GMT 50.825638 2.259472 34,000 82 496 0
2022-08-08 13:14:37 GMT 50.825314 2.252045 34,000 82 496 0
2022-08-08 13:14:35 GMT 50.824848 2.244873 34,000 80 496 0
2022-08-08 13:14:33 GMT 50.824245 2.238083 34,000 80 496 0
2022-08-08 13:14:31 GMT 50.822800 2.226884 34,000 76 496 0
2022-08-08 13:14:28 GMT 50.821312 2.217941 34,000 73 497 0
2022-08-08 13:14:26 GMT 50.820518 2.213821 34,000 71 497 0
2022-08-08 13:14:25 GMT 50.817490 2.200680 34,000 68 497 0
2022-08-08 13:14:23 GMT 50.817490 2.200680 34,000 67 497 0
2022-08-08 13:14:22 GMT 50.816711 2.197711 34,000 65 497 0
2022-08-08 13:14:20 GMT 50.815723 2.194214 34,000 65 497 0
2022-08-08 13:14:17 GMT 50.812637 2.184275 34,000 59 498 0
2022-08-08 13:14:16 GMT 50.809067 2.174551 34,000 58 498 0
2022-08-08 13:14:14 GMT 50.805817 2.166608 34,000 53 498 0
2022-08-08 13:14:12 GMT 50.805817 2.166608 34,000 53 498 0
2022-08-08 13:14:11 GMT 50.804626 2.163935 34,000 53 498 0
2022-08-08 13:14:09 GMT 50.801285 2.157032 34,000 52 498 0
2022-08-08 13:14:07 GMT 50.800003 2.154434 34,000 50 499 0
2022-08-08 13:14:06 GMT 50.798592 2.151794 34,000 34 500 0
2022-08-08 13:14:04 GMT 50.795197 2.145920 34,000 34 500 0
2022-08-08 13:14:01 GMT 50.785721 2.131793 34,000 34 500 0
2022-08-08 13:13:59 GMT 50.785721 2.131793 34,000 34 500 0
2022-08-08 13:13:57 GMT 50.782394 2.127533 34,000 34 500 0
2022-08-08 13:13:55 GMT 50.779312 2.123999 34,000 34 500 0
2022-08-08 13:13:53 GMT 50.772400 2.116650 34,000 32 501 0
2022-08-08 13:13:51 GMT 50.772400 2.116650 34,000 27 502 0
2022-08-08 13:13:49 GMT 50.767822 2.112419 34,000 27 502 0
2022-08-08 13:13:47 GMT 50.759583 2.105812 34,000 24 502 -64
2022-08-08 13:13:45 GMT 50.757347 2.104263 34,000 21 503 64
2022-08-08 13:13:43 GMT 50.755096 2.102768 34,000 21 503 64
2022-08-08 13:13:41 GMT 50.750565 2.099948 34,000 17 504 64
2022-08-08 13:13:40 GMT 50.748505 2.098770 34,000 17 504 64
2022-08-08 13:13:39 GMT 50.740032 2.094879 34,000 12 505 128
2022-08-08 13:13:37 GMT 50.740032 2.094879 34,000 12 505 128
2022-08-08 13:13:35 GMT 50.737518 2.093964 34,000 12 505 128
2022-08-08 13:13:33 GMT 50.733307 2.092599 34,000 10 505 128
2022-08-08 13:13:31 GMT 50.728348 2.091370 33,975 1 508 -128
2022-08-08 13:13:29 GMT 50.721222 2.090372 33,975 1 508 -128
2022-08-08 13:13:26 GMT 50.715637 2.090223 34,000 355 507 -128
2022-08-08 13:13:24 GMT 50.710236 2.090520 34,000 355 507 -128
2022-08-08 13:13:22 GMT 50.706841 2.090912 34,000 353 507 0
2022-08-08 13:13:20 GMT 50.700897 2.091930 34,000 353 507 0
2022-08-08 13:13:18 GMT 50.691525 2.093887 34,000 352 507 0
2022-08-08 13:13:16 GMT 50.691525 2.093887 34,000 352 507 0
2022-08-08 13:13:14 GMT 50.688965 2.094498 34,000 352 507 0
2022-08-08 13:13:12 GMT 50.683044 2.095865 34,000 352 507 0
2022-08-08 13:13:11 GMT 50.680710 2.096384 34,000 352 507 0
2022-08-08 13:13:09 GMT 50.675629 2.097572 34,000 352 507 0
2022-08-08 13:13:07 GMT 50.671692 2.098463 34,000 352 507 0
2022-08-08 13:13:05 GMT 50.662521 2.100541 34,000 352 506 0
2022-08-08 13:13:03 GMT 50.662521 2.100541 34,000 352 506 0
2022-08-08 13:13:01 GMT 50.657448 2.101729 34,000 352 506 0
2022-08-08 13:13:00 GMT 50.655029 2.102292 34,000 352 506 0
2022-08-08 13:12:59 GMT 50.650043 2.103436 34,000 352 505 0
2022-08-08 13:12:56 GMT 50.645435 2.104550 34,000 352 505 0
2022-08-08 13:12:55 GMT 50.643108 2.105070 34,000 352 505 0
2022-08-08 13:12:53 GMT 50.634247 2.107062 34,000 352 505 0
2022-08-08 13:12:51 GMT 50.634247 2.107062 34,000 352 505 0
2022-08-08 13:12:48 GMT 50.622482 2.109809 34,000 352 504 0
2022-08-08 13:12:46 GMT 50.622482 2.109809 34,000 352 502 0
2022-08-08 13:12:44 GMT 50.615799 2.111327 34,000 352 502 0
2022-08-08 13:12:43 GMT 50.615799 2.111327 34,000 352 502 0
2022-08-08 13:12:41 GMT 50.608704 2.112917 34,000 352 502 0
2022-08-08 13:12:38 GMT 50.604004 2.113977 34,000 352 501 0
2022-08-08 13:12:37 GMT 50.598358 2.115302 34,000 352 501 0
2022-08-08 13:12:34 GMT 50.596184 2.115833 34,000 352 500 0
2022-08-08 13:12:33 GMT 50.593670 2.116427 34,000 352 497 0
2022-08-08 13:12:31 GMT 50.588333 2.117615 34,000 352 497 0
2022-08-08 13:12:30 GMT 50.585896 2.118209 34,000 352 499 0
2022-08-08 13:12:28 GMT 50.582611 2.118988 34,000 352 499 0
2022-08-08 13:12:27 GMT 50.580448 2.119471 34,000 352 498 0
2022-08-08 13:12:25 GMT 50.576118 2.120436 34,000 352 498 0
2022-08-08 13:12:23 GMT 50.569977 2.121920 34,000 352 498 0
2022-08-08 13:12:21 GMT 50.567596 2.122457 34,000 352 498 0
2022-08-08 13:12:20 GMT 50.564064 2.123256 34,000 352 497 0
2022-08-08 13:12:19 GMT 50.561783 2.123850 34,000 352 497 0
2022-08-08 13:12:18 GMT 50.557220 2.124889 34,000 352 497 0
2022-08-08 13:12:16 GMT 50.554184 2.125638 34,000 352 497 0
2022-08-08 13:12:14 GMT 50.550293 2.126505 34,000 352 497 0
2022-08-08 13:12:12 GMT 50.547256 2.127265 34,000 352 497 0
2022-08-08 13:12:10 GMT 50.541229 2.128673 34,000 352 497 0
2022-08-08 13:12:08 GMT 50.535202 2.130086 34,000 352 497 0
2022-08-08 13:12:07 GMT 50.533310 2.130553 34,000 352 497 0
2022-08-08 13:12:04 GMT 50.527287 2.132016 34,000 352 497 0
2022-08-08 13:12:03 GMT 50.523972 2.132793 34,000 352 497 0
2022-08-08 13:12:01 GMT 50.519558 2.133872 34,000 352 497 0
2022-08-08 13:11:59 GMT 50.516624 2.134540 34,000 352 497 0
2022-08-08 13:11:58 GMT 50.511978 2.135684 34,000 352 497 0
2022-08-08 13:11:56 GMT 50.509460 2.136263 34,000 352 497 0
2022-08-08 13:11:53 GMT 50.502522 2.137880 34,000 352 497 0
2022-08-08 13:11:51 GMT 50.497879 2.139009 34,000 352 497 0
2022-08-08 13:11:49 GMT 50.493576 2.140093 34,000 352 497 0
2022-08-08 13:11:48 GMT 50.491161 2.140627 34,000 352 497 0
2022-08-08 13:11:46 GMT 50.483898 2.142408 34,000 351 498 0
2022-08-08 13:11:43 GMT 50.479248 2.143490 34,000 351 498 0
2022-08-08 13:11:41 GMT 50.475288 2.144487 34,000 351 498 0
2022-08-08 13:11:40 GMT 50.468582 2.146165 34,000 351 498 0
2022-08-08 13:11:38 GMT 50.468582 2.146165 34,000 351 498 0
2022-08-08 13:11:36 GMT 50.463696 2.147382 34,000 351 498 0
2022-08-08 13:11:35 GMT 50.456669 2.149089 34,000 351 498 0
2022-08-08 13:11:33 GMT 50.452152 2.150277 34,000 351 498 0
2022-08-08 13:11:31 GMT 50.452152 2.150277 34,000 351 498 0
2022-08-08 13:11:28 GMT 50.443405 2.152453 34,000 351 498 64
2022-08-08 13:11:25 GMT 50.439102 2.153537 34,000 351 498 64
2022-08-08 13:11:24 GMT 50.436695 2.154137 34,000 351 498 64
2022-08-08 13:11:22 GMT 50.432831 2.155102 34,000 351 498 64
2022-08-08 13:11:20 GMT 50.427387 2.156512 34,000 351 498 0
2022-08-08 13:11:18 GMT 50.423103 2.157552 34,000 351 497 0
2022-08-08 13:11:16 GMT 50.418686 2.158741 34,000 351 497 0
2022-08-08 13:11:15 GMT 50.416626 2.159247 34,000 351 498 0
2022-08-08 13:11:14 GMT 50.411091 2.160744 34,000 351 498 0
2022-08-08 13:11:12 GMT 50.408707 2.161416 34,000 350 498 0
2022-08-08 13:11:10 GMT 50.405273 2.162355 34,000 350 498 0
2022-08-08 13:11:08 GMT 50.400787 2.163584 34,000 350 497 0
2022-08-08 13:11:06 GMT 50.394882 2.165246 34,000 350 498 0
2022-08-08 13:11:04 GMT 50.390121 2.166620 34,000 350 498 0
2022-08-08 13:11:02 GMT 50.386505 2.167631 34,000 350 498 0
2022-08-08 13:11:00 GMT 50.381626 2.169057 34,000 350 498 0
2022-08-08 13:10:59 GMT 50.379158 2.169800 34,000 350 498 0
2022-08-08 13:10:57 GMT 50.374512 2.171173 34,000 350 498 0
2022-08-08 13:10:54 GMT 50.367615 2.173289 34,000 350 499 0
2022-08-08 13:10:52 GMT 50.363983 2.174402 34,000 349 499 0
2022-08-08 13:10:50 GMT 50.358902 2.175943 34,000 349 498 0
2022-08-08 13:10:48 GMT 50.355648 2.177000 34,000 349 498 0
2022-08-08 13:10:46 GMT 50.351131 2.178411 34,000 349 499 0
2022-08-08 13:10:44 GMT 50.346851 2.179747 34,000 349 499 -64
2022-08-08 13:10:41 GMT 50.338806 2.182376 34,000 348 499 0
2022-08-08 13:10:39 GMT 50.335304 2.183533 34,000 348 499 0
2022-08-08 13:10:36 GMT 50.327774 2.185990 34,000 348 499 0
2022-08-08 13:10:34 GMT 50.324387 2.187147 34,000 349 500 64
2022-08-08 13:10:33 GMT 50.316360 2.189694 34,000 349 500 64
2022-08-08 13:10:31 GMT 50.316360 2.189694 34,000 350 499 0
2022-08-08 13:10:29 GMT 50.311707 2.191122 34,000 350 499 0
2022-08-08 13:10:27 GMT 50.308212 2.192218 34,000 350 500 0
2022-08-08 13:10:24 GMT 50.300205 2.194371 34,000 352 500 -64
2022-08-08 13:10:22 GMT 50.295876 2.195410 34,000 353 501 64
2022-08-08 13:10:20 GMT 50.292431 2.196152 34,000 353 501 64
2022-08-08 13:10:19 GMT 50.283493 2.198008 34,000 353 501 64
2022-08-08 13:10:17 GMT 50.283493 2.198008 34,000 351 500 64
2022-08-08 13:10:15 GMT 50.279938 2.198783 34,000 351 500 64
2022-08-08 13:10:13 GMT 50.270458 2.201126 34,000 351 500 64
2022-08-08 13:10:11 GMT 50.270458 2.201126 34,000 351 500 64
2022-08-08 13:10:09 GMT 50.266872 2.202165 34,000 349 500 64
2022-08-08 13:10:07 GMT 50.259979 2.204566 34,000 345 500 0
2022-08-08 13:10:04 GMT 50.254723 2.206693 34,000 343 500 0
2022-08-08 13:10:02 GMT 50.252380 2.207746 34,000 343 500 0
2022-08-08 13:10:00 GMT 50.245693 2.211221 34,000 339 500 0
2022-08-08 13:09:58 GMT 50.241409 2.213745 34,000 339 500 0
2022-08-08 13:09:57 GMT 50.239151 2.215191 34,000 334 499 0
2022-08-08 13:09:55 GMT 50.235809 2.217504 34,000 334 499 0
2022-08-08 13:09:52 GMT 50.229912 2.222059 34,000 334 499 0
2022-08-08 13:09:50 GMT 50.221985 2.228996 34,000 329 499 0
2022-08-08 13:09:48 GMT 50.218094 2.232899 34,000 327 498 0
2022-08-08 13:09:46 GMT 50.218094 2.232899 34,000 323 497 0
2022-08-08 13:09:44 GMT 50.215153 2.236015 34,000 323 497 0
2022-08-08 13:09:42 GMT 50.206032 2.246927 34,000 319 498 0
2022-08-08 13:09:40 GMT 50.206032 2.246927 34,000 319 498 0
2022-08-08 13:09:37 GMT 50.199745 2.255835 34,000 317 497 0
2022-08-08 13:09:34 GMT 50.195045 2.263184 34,000 312 496 0
2022-08-08 13:09:32 GMT 50.189941 2.272074 34,000 311 496 0
2022-08-08 13:09:30 GMT 50.189941 2.272074 34,000 310 495 0
2022-08-08 13:09:28 GMT 50.186966 2.277928 34,000 304 495 0
2022-08-08 13:09:26 GMT 50.183945 2.284217 34,000 304 495 0
2022-08-08 13:09:24 GMT 50.182709 2.287012 34,000 304 495 0
2022-08-08 13:09:22 GMT 50.179642 2.294263 34,000 302 494 0
2022-08-08 13:09:19 GMT 50.175705 2.304744 34,000 298 495 0
2022-08-08 13:09:18 GMT 50.172653 2.314032 34,000 295 494 0
2022-08-08 13:09:16 GMT 50.172653 2.314032 34,000 295 494 0
2022-08-08 13:09:14 GMT 50.170185 2.322495 34,000 293 493 0
2022-08-08 13:09:12 GMT 50.169342 2.325632 34,000 292 493 0
2022-08-08 13:09:10 GMT 50.167740 2.332210 34,000 291 494 0
2022-08-08 13:09:08 GMT 50.165955 2.340305 34,000 279 492 0
2022-08-08 13:09:06 GMT 50.164783 2.346546 34,000 279 492 0
2022-08-08 13:09:04 GMT 50.163620 2.353450 34,000 279 492 0
2022-08-08 13:09:02 GMT 50.161743 2.367481 34,000 279 492 0
2022-08-08 13:09:00 GMT 50.161743 2.367481 34,000 279 492 0
2022-08-08 13:08:58 GMT 50.160782 2.378323 34,000 276 492 0
2022-08-08 13:08:57 GMT 50.160782 2.378323 34,000 275 492 0
2022-08-08 13:08:55 GMT 50.160408 2.383811 34,000 274 492 0
2022-08-08 13:08:54 GMT 50.160233 2.387503 34,000 268 492 0
2022-08-08 13:08:51 GMT 50.159988 2.398954 34,000 268 492 0
2022-08-08 13:08:49 GMT 50.160049 2.406223 34,000 268 492 0
2022-08-08 13:08:47 GMT 50.160233 2.413306 34,000 267 491 0
2022-08-08 13:08:46 GMT 50.160408 2.416992 34,000 262 492 0
2022-08-08 13:08:45 GMT 50.161102 2.426678 34,000 262 492 0
2022-08-08 13:08:43 GMT 50.161102 2.426678 34,000 262 492 0
2022-08-08 13:08:42 GMT 50.161835 2.433978 34,000 260 491 0
2022-08-08 13:08:40 GMT 50.163116 2.444386 34,000 259 491 0
2022-08-08 13:08:38 GMT 50.163116 2.444386 34,000 251 492 -64
2022-08-08 13:08:36 GMT 50.164181 2.451065 34,000 251 492 -64
2022-08-08 13:08:34 GMT 50.165668 2.459230 34,000 251 492 -64
2022-08-08 13:08:32 GMT 50.166504 2.463106 34,000 251 492 -64
2022-08-08 13:08:30 GMT 50.169250 2.474670 34,000 248 492 0
2022-08-08 13:08:28 GMT 50.171310 2.482187 34,000 243 492 64
2022-08-08 13:08:25 GMT 50.172821 2.487319 34,000 243 492 64
2022-08-08 13:08:24 GMT 50.173908 2.490630 34,000 243 492 64
2022-08-08 13:08:22 GMT 50.176117 2.497004 34,000 242 492 64
2022-08-08 13:08:21 GMT 50.177261 2.500280 34,000 232 493 0
2022-08-08 13:08:20 GMT 50.178360 2.503148 34,000 232 493 0
2022-08-08 13:08:18 GMT 50.180752 2.508966 34,000 232 493 0
2022-08-08 13:08:17 GMT 50.182068 2.512111 34,000 232 493 0
2022-08-08 13:08:16 GMT 50.183453 2.515127 34,000 232 493 0
2022-08-08 13:08:14 GMT 50.188850 2.526113 34,000 232 493 0
2022-08-08 13:08:12 GMT 50.188850 2.526113 34,000 230 493 128
2022-08-08 13:08:10 GMT 50.191727 2.531409 34,000 229 493 128
2022-08-08 13:08:08 GMT 50.196255 2.539178 34,000 226 494 64
2022-08-08 13:08:06 GMT 50.197906 2.541817 34,000 222 494 -64
2022-08-08 13:08:04 GMT 50.201340 2.547021 34,000 222 494 -64
2022-08-08 13:08:02 GMT 50.204865 2.552081 34,000 222 494 -64
2022-08-08 13:08:00 GMT 50.207378 2.555509 34,000 220 494 -64
2022-08-08 13:07:58 GMT 50.211151 2.560631 34,000 219 495 0
2022-08-08 13:07:56 GMT 50.217957 2.569283 34,000 219 495 0
2022-08-08 13:07:53 GMT 50.219669 2.571395 34,000 219 494 0
2022-08-08 13:07:52 GMT 50.222397 2.574921 34,000 219 494 0
2022-08-08 13:07:50 GMT 50.228703 2.582826 34,000 220 494 -128
2022-08-08 13:07:48 GMT 50.232330 2.587497 34,000 220 494 -64
2022-08-08 13:07:46 GMT 50.234657 2.590621 34,000 222 493 64
2022-08-08 13:07:45 GMT 50.234657 2.590621 34,000 222 493 64
2022-08-08 13:07:43 GMT 50.238007 2.595159 34,000 222 493 64
2022-08-08 13:07:42 GMT 50.243134 2.602424 34,000 223 494 64
2022-08-08 13:07:40 GMT 50.243134 2.602424 34,000 226 494 0
2022-08-08 13:07:38 GMT 50.245514 2.606000 34,000 226 494 0
2022-08-08 13:07:35 GMT 50.251190 2.615324 34,000 230 494 0
2022-08-08 13:07:33 GMT 50.253513 2.619423 34,000 231 494 0
2022-08-08 13:07:31 GMT 50.257187 2.626527 34,000 233 494 0
2022-08-08 13:07:28 GMT 50.261490 2.635273 34,000 234 495 0
2022-08-08 13:07:26 GMT 50.264877 2.642429 34,000 234 494 0
2022-08-08 13:07:25 GMT 50.267487 2.647850 34,000 234 495 0
2022-08-08 13:07:22 GMT 50.269436 2.652011 34,000 234 495 0
2022-08-08 13:07:20 GMT 50.274323 2.662329 34,000 234 495 0
2022-08-08 13:07:16 GMT 50.277206 2.668342 34,000 234 495 0
2022-08-08 13:07:14 GMT 50.279907 2.674132 34,000 234 495 0
2022-08-08 13:07:13 GMT 50.284424 2.683559 34,000 234 496 0
2022-08-08 13:07:11 GMT 50.284424 2.683559 34,000 234 496 0
2022-08-08 13:07:09 GMT 50.287079 2.689121 34,000 234 495 0
2022-08-08 13:07:07 GMT 50.289871 2.694991 34,000 234 495 0
2022-08-08 13:07:05 GMT 50.292114 2.699746 34,000 234 496 0
2022-08-08 13:07:03 GMT 50.294804 2.705309 34,000 234 496 0
2022-08-08 13:07:02 GMT 50.299255 2.714635 34,000 234 496 0
2022-08-08 13:06:59 GMT 50.300671 2.717632 34,000 234 496 0
2022-08-08 13:06:58 GMT 50.302578 2.721640 34,000 234 496 0
2022-08-08 13:06:57 GMT 50.303879 2.724393 34,000 234 496 0
2022-08-08 13:06:55 GMT 50.306023 2.728841 34,000 234 496 0
2022-08-08 13:06:54 GMT 50.308823 2.734728 34,000 234 496 0
2022-08-08 13:06:51 GMT 50.310818 2.738862 34,000 234 496 0
2022-08-08 13:06:50 GMT 50.314358 2.746359 34,000 234 496 0
2022-08-08 13:06:49 GMT 50.315845 2.749477 34,000 234 496 0
2022-08-08 13:06:47 GMT 50.319431 2.756975 34,000 234 496 0
2022-08-08 13:06:44 GMT 50.321617 2.761503 34,000 234 496 0
2022-08-08 13:06:42 GMT 50.323109 2.764695 34,000 234 496 0
2022-08-08 13:06:41 GMT 50.324646 2.767812 34,000 234 496 0
2022-08-08 13:06:39 GMT 50.328045 2.775013 34,000 234 496 0
2022-08-08 13:06:37 GMT 50.332352 2.784095 34,000 234 496 0
2022-08-08 13:06:34 GMT 50.333817 2.787113 34,000 234 497 0
2022-08-08 13:06:33 GMT 50.335304 2.790230 34,000 234 497 0
2022-08-08 13:06:30 GMT 50.339493 2.799056 34,000 234 497 0
2022-08-08 13:06:28 GMT 50.342926 2.806212 34,000 234 497 0
2022-08-08 13:06:26 GMT 50.346153 2.813020 34,000 234 497 0
2022-08-08 13:06:24 GMT 50.351738 2.824823 34,000 234 498 0
2022-08-08 13:06:22 GMT 50.351738 2.824823 34,000 234 498 0
2022-08-08 13:06:20 GMT 50.354485 2.830538 34,000 234 498 0
2022-08-08 13:06:18 GMT 50.358440 2.838927 34,000 234 498 0
2022-08-08 13:06:16 GMT 50.359978 2.842119 34,000 234 498 0
2022-08-08 13:06:14 GMT 50.362679 2.847909 34,000 234 498 0
2022-08-08 13:06:13 GMT 50.364120 2.850952 34,000 234 498 0
2022-08-08 13:06:12 GMT 50.366867 2.856734 34,000 234 498 0
2022-08-08 13:06:10 GMT 50.368103 2.859336 34,000 234 498 0
2022-08-08 13:06:08 GMT 50.370300 2.863962 34,000 234 498 0
2022-08-08 13:06:06 GMT 50.372269 2.868174 34,000 234 498 0
2022-08-08 13:06:04 GMT 50.374924 2.873864 34,000 234 499 0
2022-08-08 13:06:03 GMT 50.376877 2.878047 34,000 234 499 0
2022-08-08 13:06:01 GMT 50.380135 2.885025 34,000 234 499 0
2022-08-08 13:05:59 GMT 50.385086 2.895693 34,000 235 499 64
2022-08-08 13:05:57 GMT 50.388428 2.903065 34,000 235 499 64
2022-08-08 13:05:55 GMT 50.388428 2.903065 34,000 235 499 64
2022-08-08 13:05:53 GMT 50.393078 2.913159 34,000 235 499 64
2022-08-08 13:05:51 GMT 50.393078 2.913159 34,000 235 499 64
2022-08-08 13:05:50 GMT 50.394882 2.917159 34,000 235 499 0
2022-08-08 13:05:46 GMT 50.399414 2.927206 34,000 235 500 0
2022-08-08 13:05:45 GMT 50.400604 2.929808 34,000 235 500 -64
2022-08-08 13:05:44 GMT 50.402016 2.932904 34,000 235 500 -64
2022-08-08 13:05:42 GMT 50.407471 2.944842 34,000 234 501 -64
2022-08-08 13:05:40 GMT 50.410393 2.951165 34,000 234 501 -64
2022-08-08 13:05:38 GMT 50.412231 2.955105 34,025 234 501 -64
2022-08-08 13:05:37 GMT 50.412231 2.955105 34,025 235 501 64
2022-08-08 13:05:35 GMT 50.416077 2.963273 34,025 235 501 64
2022-08-08 13:05:32 GMT 50.420261 2.972618 34,000 236 500 64
2022-08-08 13:05:29 GMT 50.422218 2.977072 34,000 240 500 0
2022-08-08 13:05:27 GMT 50.425289 2.984718 34,000 243 500 0
2022-08-08 13:05:25 GMT 50.427658 2.991172 34,000 243 500 0
2022-08-08 13:05:23 GMT 50.431389 3.002979 34,000 249 500 0
2022-08-08 13:05:21 GMT 50.431389 3.002979 34,000 249 500 0
2022-08-08 13:05:19 GMT 50.433655 3.011483 34,000 250 499 0
2022-08-08 13:05:18 GMT 50.434509 3.015005 34,000 251 499 0
2022-08-08 13:05:17 GMT 50.435207 3.018048 34,000 252 499 0
2022-08-08 13:05:16 GMT 50.437180 3.028251 34,000 254 499 0
2022-08-08 13:05:14 GMT 50.437180 3.028251 34,000 256 499 0
2022-08-08 13:05:13 GMT 50.438789 3.038536 34,000 264 498 0
2022-08-08 13:05:11 GMT 50.438789 3.038536 34,000 264 498 0
2022-08-08 13:05:09 GMT 50.439720 3.046331 34,000 264 498 0
2022-08-08 13:05:08 GMT 50.440063 3.049718 34,000 264 498 0
2022-08-08 13:05:07 GMT 50.440613 3.056874 34,000 268 498 0
2022-08-08 13:05:05 GMT 50.440792 3.060286 34,000 268 498 0
2022-08-08 13:05:03 GMT 50.441166 3.070679 34,000 270 498 0
2022-08-08 13:05:00 GMT 50.441162 3.077328 34,000 274 497 0
2022-08-08 13:04:59 GMT 50.440746 3.089014 34,000 275 497 0
2022-08-08 13:04:57 GMT 50.440746 3.089014 34,000 276 497 0
2022-08-08 13:04:56 GMT 50.440247 3.095976 34,000 279 496 -64
2022-08-08 13:04:54 GMT 50.439209 3.106087 34,000 283 496 0
2022-08-08 13:04:50 GMT 50.437820 3.116070 34,000 286 496 0
2022-08-08 13:04:47 GMT 50.436584 3.123008 34,000 287 495 0
2022-08-08 13:04:45 GMT 50.434433 3.133200 34,000 293 496 0
2022-08-08 13:04:41 GMT 50.431732 3.143825 34,000 302 495 64
2022-08-08 13:04:38 GMT 50.428738 3.153670 34,000 302 495 64
2022-08-08 13:04:36 GMT 50.425140 3.163846 34,000 302 495 64
2022-08-08 13:04:34 GMT 50.425140 3.163846 34,000 303 494 64
2022-08-08 13:04:33 GMT 50.423813 3.167170 34,000 304 495 64
2022-08-08 13:04:32 GMT 50.421295 3.173097 34,000 307 495 0
2022-08-08 13:04:29 GMT 50.417953 3.180325 34,000 310 494 0
2022-08-08 13:04:28 GMT 50.416397 3.183433 34,000 315 494 0
2022-08-08 13:04:27 GMT 50.411453 3.192323 34,000 315 494 0
2022-08-08 13:04:25 GMT 50.411453 3.192323 34,000 315 494 0
2022-08-08 13:04:23 GMT 50.408249 3.197455 34,000 316 494 0
2022-08-08 13:04:22 GMT 50.406857 3.199545 34,000 317 493 0
2022-08-08 13:04:21 GMT 50.403316 3.204593 34,000 320 494 0
2022-08-08 13:04:19 GMT 50.398384 3.210903 34,000 327 493 0
2022-08-08 13:04:17 GMT 50.398384 3.210903 34,000 327 493 0
2022-08-08 13:04:14 GMT 50.393372 3.216754 34,000 327 493 0
2022-08-08 13:04:13 GMT 50.390797 3.219365 34,000 328 494 0
2022-08-08 13:04:10 GMT 50.381058 3.228246 34,000 334 493 0
2022-08-08 13:04:08 GMT 50.381058 3.228246 34,000 338 493 0
2022-08-08 13:04:06 GMT 50.372589 3.234317 34,000 338 493 0
2022-08-08 13:04:03 GMT 50.370358 3.235771 34,000 341 493 64
2022-08-08 13:04:02 GMT 50.368332 3.236919 34,000 341 493 64
2022-08-08 13:04:00 GMT 50.363934 3.239334 34,000 344 492 64
2022-08-08 13:03:58 GMT 50.360779 3.240822 34,000 344 492 64
2022-08-08 13:03:57 GMT 50.358810 3.241690 34,000 347 493 0
2022-08-08 13:03:56 GMT 50.356533 3.242600 34,000 348 492 0
2022-08-08 13:03:54 GMT 50.352173 3.244075 34,000 352 492 0
2022-08-08 13:03:52 GMT 50.347782 3.245272 34,000 353 492 0
2022-08-08 13:03:51 GMT 50.345547 3.245792 34,000 354 493 -64
2022-08-08 13:03:48 GMT 50.338440 3.246966 34,000 358 492 0
2022-08-08 13:03:47 GMT 50.333908 3.247327 34,000 0 492 0
2022-08-08 13:03:45 GMT 50.331303 3.247351 34,000 0 492 0
2022-08-08 13:03:43 GMT 50.327087 3.247255 34,000 5 492 0
2022-08-08 13:03:41 GMT 50.321182 3.246677 34,000 6 492 0
2022-08-08 13:03:38 GMT 50.315430 3.245718 34,000 11 492 0
2022-08-08 13:03:36 GMT 50.309967 3.244292 34,000 11 492 0
2022-08-08 13:03:34 GMT 50.305420 3.242748 34,000 13 492 0
2022-08-08 13:03:33 GMT 50.300903 3.240967 34,000 16 491 0
2022-08-08 13:03:31 GMT 50.294479 3.237923 34,000 16 491 0
2022-08-08 13:03:29 GMT 50.294479 3.237923 34,000 19 492 0
2022-08-08 13:03:27 GMT 50.290329 3.235546 34,000 20 491 0
2022-08-08 13:03:26 GMT 50.288567 3.234434 34,000 22 492 0
2022-08-08 13:03:24 GMT 50.280094 3.228422 34,000 26 491 0
2022-08-08 13:03:22 GMT 50.280094 3.228422 34,000 29 491 0
2022-08-08 13:03:21 GMT 50.274033 3.223259 34,000 29 491 0
2022-08-08 13:03:19 GMT 50.274033 3.223259 34,000 33 491 0
2022-08-08 13:03:18 GMT 50.269958 3.219283 34,000 33 491 0
2022-08-08 13:03:16 GMT 50.268265 3.217549 34,000 34 491 0
2022-08-08 13:03:14 GMT 50.264191 3.213067 34,000 36 491 0
2022-08-08 13:03:12 GMT 50.262405 3.210971 34,000 38 491 0
2022-08-08 13:03:10 GMT 50.258774 3.206375 34,000 59 494 0
2022-08-08 13:03:08 GMT 50.253979 3.199842 34,000 45 491 -64
2022-08-08 13:03:06 GMT 50.250580 3.194720 34,000 45 491 -64
2022-08-08 13:03:04 GMT 50.247555 3.189821 34,000 50 492 64
2022-08-08 13:03:02 GMT 50.242722 3.181192 34,000 50 492 64
2022-08-08 13:03:00 GMT 50.241409 3.178538 34,000 59 494 0
2022-08-08 13:02:57 GMT 50.238663 3.172896 34,000 59 494 0
2022-08-08 13:02:56 GMT 50.237411 3.170134 34,000 59 494 0
2022-08-08 13:02:55 GMT 50.236267 3.167460 34,000 59 494 0
2022-08-08 13:02:53 GMT 50.233841 3.161460 34,000 61 494 0
2022-08-08 13:02:52 GMT 50.231735 3.155606 34,000 66 495 -64
2022-08-08 13:02:49 GMT 50.229538 3.148696 34,000 66 495 -64
2022-08-08 13:02:47 GMT 50.227722 3.142164 34,000 71 495 0
2022-08-08 13:02:45 GMT 50.226093 3.135557 34,000 71 495 0
2022-08-08 13:02:43 GMT 50.223347 3.123012 34,000 72 496 0
2022-08-08 13:02:41 GMT 50.222694 3.119598 34,000 73 496 0
2022-08-08 13:02:40 GMT 50.222031 3.116359 34,000 73 496 0
2022-08-08 13:02:37 GMT 50.219391 3.102524 34,000 73 496 0
2022-08-08 13:02:34 GMT 50.217995 3.095324 34,000 73 496 0
2022-08-08 13:02:32 GMT 50.216629 3.088315 34,000 73 496 0
2022-08-08 13:02:31 GMT 50.215897 3.084556 34,000 73 496 0
2022-08-08 13:02:30 GMT 50.214130 3.075504 34,000 73 496 0
2022-08-08 13:02:28 GMT 50.214130 3.075504 34,000 73 496 0
2022-08-08 13:02:26 GMT 50.213058 3.070011 34,000 73 496 0
2022-08-08 13:02:24 GMT 50.211365 3.061283 34,000 73 497 0
2022-08-08 13:02:22 GMT 50.210266 3.055789 34,000 73 497 0
2022-08-08 13:02:20 GMT 50.208591 3.047073 34,000 73 497 -64
2022-08-08 13:02:18 GMT 50.207520 3.041406 34,000 74 497 0
2022-08-08 13:02:17 GMT 50.206833 3.037647 34,000 74 497 0
2022-08-08 13:02:15 GMT 50.205193 3.028886 34,000 73 497 64
2022-08-08 13:02:13 GMT 50.204269 3.023915 34,000 73 496 64
2022-08-08 13:02:11 GMT 50.203003 3.017232 34,000 73 496 64
2022-08-08 13:02:10 GMT 50.202305 3.013817 34,000 72 497 0
2022-08-08 13:02:08 GMT 50.200928 3.007218 34,000 71 496 0
2022-08-08 13:02:07 GMT 50.200165 3.003647 34,000 68 496 0
2022-08-08 13:02:05 GMT 50.198547 2.996738 34,000 68 496 0
2022-08-08 13:02:03 GMT 50.196953 2.990286 34,000 68 496 0
2022-08-08 13:02:02 GMT 50.195755 2.985824 34,000 66 496 0
2022-08-08 13:02:00 GMT 50.194290 2.980547 34,000 65 496 64
2022-08-08 13:01:58 GMT 50.192299 2.973954 34,000 63 496 0
2022-08-08 13:01:56 GMT 50.190216 2.967393 34,000 63 496 0
2022-08-08 13:01:55 GMT 50.189163 2.964213 34,000 61 496 0
2022-08-08 13:01:54 GMT 50.187038 2.958069 34,000 60 495 0
2022-08-08 13:01:51 GMT 50.182522 2.946118 34,000 58 496 0
2022-08-08 13:01:49 GMT 50.182522 2.946118 34,000 57 495 0
2022-08-08 13:01:47 GMT 50.178749 2.937135 34,000 53 495 0
2022-08-08 13:01:44 GMT 50.176208 2.931470 34,000 53 495 0
2022-08-08 13:01:42 GMT 50.173397 2.925555 34,000 52 495 0
2022-08-08 13:01:41 GMT 50.168930 2.916798 34,000 50 495 0
2022-08-08 13:01:39 GMT 50.167580 2.914124 34,000 49 495 0
2022-08-08 13:01:37 GMT 50.165863 2.911016 34,000 47 495 0
2022-08-08 13:01:35 GMT 50.163063 2.906106 34,000 47 495 0
2022-08-08 13:01:33 GMT 50.160370 2.901475 34,000 42 496 0
2022-08-08 13:01:32 GMT 50.155930 2.894319 34,000 42 496 0
2022-08-08 13:01:28 GMT 50.151749 2.887994 34,000 42 496 0
2022-08-08 13:01:26 GMT 50.148102 2.882827 34,000 40 496 0
2022-08-08 13:01:24 GMT 50.145603 2.879383 34,000 40 496 0
2022-08-08 13:01:21 GMT 50.139416 2.871514 34,000 36 496 64
2022-08-08 13:01:18 GMT 50.134991 2.866318 34,000 35 496 64
2022-08-08 13:01:16 GMT 50.130569 2.861577 34,000 31 497 0
2022-08-08 13:01:13 GMT 50.125580 2.856518 34,000 29 497 0
2022-08-08 13:01:11 GMT 50.116093 2.848131 34,000 29 497 0
2022-08-08 13:01:09 GMT 50.116093 2.848131 34,000 23 498 128
2022-08-08 13:01:05 GMT 50.107849 2.841822 34,000 23 498 128
2022-08-08 13:01:02 GMT 50.098354 2.835438 34,000 22 499 64
2022-08-08 13:01:00 GMT 50.098354 2.835438 34,000 20 499 0
2022-08-08 13:00:58 GMT 50.094131 2.833027 34,000 18 499 -64
2022-08-08 13:00:56 GMT 50.090012 2.830714 34,000 18 499 -64
2022-08-08 13:00:54 GMT 50.085388 2.828401 34,000 16 500 -64
2022-08-08 13:00:53 GMT 50.083084 2.827272 34,000 16 500 -64
2022-08-08 13:00:51 GMT 50.078430 2.825045 34,000 16 500 -64
2022-08-08 13:00:49 GMT 50.072006 2.822224 34,000 15 500 0
2022-08-08 13:00:46 GMT 50.067902 2.820378 34,000 15 501 64
2022-08-08 13:00:45 GMT 50.064514 2.818933 34,000 15 501 64
2022-08-08 13:00:43 GMT 50.060181 2.817028 34,000 15 502 0
2022-08-08 13:00:41 GMT 50.056503 2.815463 34,000 15 502 0
2022-08-08 13:00:39 GMT 50.051941 2.813465 34,000 15 503 -64
2022-08-08 13:00:38 GMT 50.047577 2.811560 34,000 15 503 -64
2022-08-08 13:00:35 GMT 50.042404 2.809320 34,000 15 504 -64
2022-08-08 13:00:34 GMT 50.040070 2.808343 34,000 15 504 -64
2022-08-08 13:00:32 GMT 50.034760 2.805995 34,000 15 504 -64
2022-08-08 13:00:29 GMT 50.028946 2.803465 34,000 15 505 -64
2022-08-08 13:00:27 GMT 50.026703 2.802526 34,000 15 506 0
2022-08-08 13:00:25 GMT 50.021072 2.800068 34,000 15 506 0
2022-08-08 13:00:24 GMT 50.017586 2.798544 34,000 15 507 0
2022-08-08 13:00:22 GMT 50.013954 2.796986 34,000 15 507 0
2022-08-08 13:00:20 GMT 50.007980 2.794358 34,000 15 508 64
2022-08-08 13:00:19 GMT 50.004364 2.792768 34,000 15 509 64
2022-08-08 13:00:16 GMT 49.999603 2.790744 34,000 15 510 64
2022-08-08 13:00:15 GMT 49.997196 2.789711 34,000 15 510 0
2022-08-08 13:00:13 GMT 49.994915 2.788746 34,000 15 511 0
2022-08-08 13:00:11 GMT 49.990265 2.786769 34,000 15 511 0
2022-08-08 13:00:09 GMT 49.985371 2.784737 34,000 15 511 0
2022-08-08 13:00:08 GMT 49.982857 2.783698 34,000 15 511 0
2022-08-08 13:00:06 GMT 49.978294 2.781768 34,000 15 511 0
2022-08-08 13:00:05 GMT 49.975891 2.780770 34,000 15 512 0
2022-08-08 13:00:02 GMT 49.968155 2.777517 34,000 15 512 0
2022-08-08 13:00:00 GMT 49.964844 2.776126 34,000 15 512 0
2022-08-08 12:59:58 GMT 49.960144 2.774120 34,000 15 512 0
2022-08-08 12:59:56 GMT 49.954556 2.771747 34,000 15 513 0
2022-08-08 12:59:55 GMT 49.951904 2.770651 34,000 15 513 0
2022-08-08 12:59:53 GMT 49.948830 2.769371 34,000 15 513 0
2022-08-08 12:59:52 GMT 49.946548 2.768406 34,000 16 513 0
2022-08-08 12:59:51 GMT 49.938446 2.764941 34,000 16 513 0
2022-08-08 12:59:49 GMT 49.933792 2.762913 34,000 16 513 0
2022-08-08 12:59:47 GMT 49.933792 2.762913 34,000 16 513 0
2022-08-08 12:59:45 GMT 49.929230 2.760909 34,000 16 513 0
2022-08-08 12:59:43 GMT 49.925785 2.759350 34,000 16 512 -128
2022-08-08 12:59:41 GMT 49.914597 2.754099 34,000 16 512 -128
2022-08-08 12:59:39 GMT 49.914597 2.754099 34,000 18 511 0
2022-08-08 12:59:36 GMT 49.908188 2.750887 34,000 19 512 64
2022-08-08 12:59:34 GMT 49.903610 2.748389 34,000 20 511 0
2022-08-08 12:59:33 GMT 49.901299 2.747102 34,000 20 511 0
2022-08-08 12:59:31 GMT 49.898941 2.745715 34,000 21 512 0
2022-08-08 12:59:29 GMT 49.894547 2.743040 34,000 23 512 0
2022-08-08 12:59:27 GMT 49.888916 2.739354 34,000 24 511 0
2022-08-08 12:59:24 GMT 49.882401 2.734556 34,000 30 511 0
2022-08-08 12:59:21 GMT 49.872116 2.725910 34,000 30 511 0
2022-08-08 12:59:19 GMT 49.872116 2.725910 34,000 32 511 0
2022-08-08 12:59:17 GMT 49.865845 2.720056 34,000 34 512 0
2022-08-08 12:59:14 GMT 49.861725 2.715791 34,000 35 511 0
2022-08-08 12:59:13 GMT 49.859867 2.713846 34,000 36 511 0
2022-08-08 12:59:12 GMT 49.854446 2.707768 34,000 36 511 0
2022-08-08 12:59:10 GMT 49.854446 2.707768 34,000 38 511 0
2022-08-08 12:59:08 GMT 49.850975 2.703602 34,000 39 511 0
2022-08-08 12:59:06 GMT 49.846973 2.698554 34,000 39 511 0
2022-08-08 12:59:04 GMT 49.843277 2.693602 34,000 42 511 0
2022-08-08 12:59:02 GMT 49.839981 2.688976 34,000 46 511 0
2022-08-08 12:58:59 GMT 49.835587 2.682326 34,000 46 511 0
2022-08-08 12:58:56 GMT 49.830505 2.674159 34,000 48 511 0
2022-08-08 12:58:54 GMT 49.827282 2.668564 34,000 48 511 0
2022-08-08 12:58:51 GMT 49.821415 2.657578 34,000 53 512 -64
2022-08-08 12:58:48 GMT 49.818016 2.650526 34,000 54 511 -64
2022-08-08 12:58:47 GMT 49.814575 2.642935 34,000 55 512 -64
2022-08-08 12:58:45 GMT 49.811825 2.636348 34,000 56 512 -64
2022-08-08 12:58:43 GMT 49.811825 2.636348 34,000 62 513 64
2022-08-08 12:58:40 GMT 49.808147 2.626920 34,000 62 513 64
2022-08-08 12:58:38 GMT 49.805492 2.619571 34,000 62 513 64
2022-08-08 12:58:37 GMT 49.804283 2.616082 34,000 62 513 64
2022-08-08 12:58:35 GMT 49.802307 2.609976 34,000 64 513 64
2022-08-08 12:58:34 GMT 49.801212 2.606506 34,000 65 512 0
2022-08-08 12:58:33 GMT 49.798141 2.596026 34,000 67 512 0
2022-08-08 12:58:31 GMT 49.796417 2.589433 34,000 68 513 -64
2022-08-08 12:58:29 GMT 49.796417 2.589433 34,000 69 513 -64
2022-08-08 12:58:27 GMT 49.794800 2.583088 34,000 69 513 -64
2022-08-08 12:58:25 GMT 49.792969 2.575210 34,000 71 512 -64
2022-08-08 12:58:23 GMT 49.792191 2.571740 34,000 71 512 -64
2022-08-08 12:58:22 GMT 49.791016 2.566347 34,000 72 512 -64
2022-08-08 12:58:21 GMT 49.789490 2.559236 34,000 72 512 0
2022-08-08 12:58:19 GMT 49.788830 2.555880 34,000 72 513 0
2022-08-08 12:58:17 GMT 49.787338 2.548605 34,000 72 513 0
2022-08-08 12:58:16 GMT 49.786549 2.544745 34,000 72 512 0
2022-08-08 12:58:13 GMT 49.784729 2.535818 34,000 72 512 -64
2022-08-08 12:58:12 GMT 49.783997 2.532349 34,000 71 512 -64
2022-08-08 12:58:10 GMT 49.782684 2.526336 34,000 71 511 0
2022-08-08 12:58:09 GMT 49.780682 2.517354 34,000 70 512 0
2022-08-08 12:58:07 GMT 49.779099 2.510304 34,000 70 510 0
2022-08-08 12:58:04 GMT 49.776627 2.499679 34,000 70 510 0
2022-08-08 12:58:02 GMT 49.775795 2.496049 34,000 70 510 0
2022-08-08 12:57:59 GMT 49.773327 2.485434 34,000 70 509 0
2022-08-08 12:57:57 GMT 49.771744 2.478605 34,000 70 509 0
2022-08-08 12:57:56 GMT 49.770905 2.474960 34,000 70 509 0
2022-08-08 12:57:55 GMT 49.769371 2.468286 34,000 70 508 0
2022-08-08 12:57:53 GMT 49.768616 2.465057 34,000 70 508 0
2022-08-08 12:57:50 GMT 49.766190 2.454505 34,000 70 508 0
2022-08-08 12:57:49 GMT 49.765366 2.451108 34,000 70 507 0
2022-08-08 12:57:47 GMT 49.763783 2.444087 34,000 70 507 0
2022-08-08 12:57:46 GMT 49.761456 2.434214 34,000 70 506 0
2022-08-08 12:57:44 GMT 49.760742 2.431014 34,000 70 506 0
2022-08-08 12:57:41 GMT 49.759129 2.424044 34,000 70 505 0
2022-08-08 12:57:40 GMT 49.758270 2.420462 34,000 70 505 0
2022-08-08 12:57:39 GMT 49.756714 2.413667 34,000 70 504 0
2022-08-08 12:57:37 GMT 49.755936 2.410343 34,000 70 504 0
2022-08-08 12:57:36 GMT 49.754333 2.403408 34,000 70 503 0
2022-08-08 12:57:33 GMT 49.752869 2.397116 34,000 70 502 0
2022-08-08 12:57:31 GMT 49.750534 2.387069 34,000 70 501 0
2022-08-08 12:57:29 GMT 49.749771 2.383811 34,000 70 499 0
2022-08-08 12:57:27 GMT 49.748329 2.377501 34,000 70 495 0
2022-08-08 12:57:24 GMT 49.745815 2.366737 34,000 70 495 0
2022-08-08 12:57:22 GMT 49.744629 2.361555 34,000 70 495 0
2022-08-08 12:57:20 GMT 49.742981 2.354544 34,000 70 495 0
2022-08-08 12:57:18 GMT 49.741241 2.346882 34,000 70 495 0
2022-08-08 12:57:16 GMT 49.740181 2.342463 34,000 70 494 0
2022-08-08 12:57:14 GMT 49.738041 2.333110 34,000 70 493 0
2022-08-08 12:57:12 GMT 49.736877 2.328137 34,000 70 493 0
2022-08-08 12:57:10 GMT 49.735291 2.321368 34,000 70 492 0
2022-08-08 12:57:08 GMT 49.733780 2.314790 34,000 70 492 0
2022-08-08 12:57:06 GMT 49.732594 2.309653 34,000 70 491 0
2022-08-08 12:57:05 GMT 49.731754 2.306015 34,000 70 491 0
2022-08-08 12:57:03 GMT 49.729988 2.298444 34,000 70 492 0
2022-08-08 12:57:00 GMT 49.727783 2.289059 34,000 70 492 0
2022-08-08 12:56:59 GMT 49.726589 2.283969 34,000 70 492 0
2022-08-08 12:56:57 GMT 49.725037 2.277206 34,000 70 491 0
2022-08-08 12:56:54 GMT 49.722244 2.265280 34,000 70 491 0
2022-08-08 12:56:53 GMT 49.720398 2.257245 34,000 70 490 0
2022-08-08 12:56:51 GMT 49.719559 2.253608 34,000 70 490 0
2022-08-08 12:56:48 GMT 49.718674 2.250045 34,000 70 490 0
2022-08-08 12:56:46 GMT 49.715183 2.234901 34,000 70 490 0
2022-08-08 12:56:44 GMT 49.715183 2.234901 34,000 70 490 0
2022-08-08 12:56:42 GMT 49.714157 2.230596 34,000 70 490 0
2022-08-08 12:56:40 GMT 49.712631 2.223864 34,000 70 490 0
2022-08-08 12:56:38 GMT 49.711132 2.217457 34,000 70 490 0
2022-08-08 12:56:37 GMT 49.709969 2.212483 34,000 70 490 0
2022-08-08 12:56:35 GMT 49.708714 2.206916 34,000 70 490 0
2022-08-08 12:56:33 GMT 49.707230 2.200446 34,000 70 491 0
2022-08-08 12:56:31 GMT 49.705734 2.194074 34,000 70 491 0
2022-08-08 12:56:29 GMT 49.703918 2.186131 34,000 70 491 0
2022-08-08 12:56:27 GMT 49.702423 2.179702 34,000 70 491 -64
2022-08-08 12:56:25 GMT 49.701279 2.174787 34,000 70 491 -64
2022-08-08 12:56:23 GMT 49.699631 2.167559 34,000 70 490 -64
2022-08-08 12:56:22 GMT 49.697021 2.156356 34,000 70 490 -64
2022-08-08 12:56:20 GMT 49.697021 2.156356 34,000 69 490 0
2022-08-08 12:56:19 GMT 49.694515 2.145674 34,000 69 490 0
2022-08-08 12:56:17 GMT 49.693398 2.141072 34,000 69 491 0
2022-08-08 12:56:14 GMT 49.691349 2.132610 34,000 68 490 0
2022-08-08 12:56:11 GMT 49.689743 2.126216 34,000 68 490 0
2022-08-08 12:56:09 GMT 49.688461 2.121178 34,000 68 490 0
2022-08-08 12:56:08 GMT 49.687531 2.117615 34,000 67 490 64
2022-08-08 12:56:05 GMT 49.684830 2.107668 34,000 66 490 64
2022-08-08 12:56:03 GMT 49.681850 2.097498 34,000 63 489 0
2022-08-08 12:56:00 GMT 49.680222 2.092317 34,000 63 489 0
2022-08-08 12:55:58 GMT 49.677570 2.084433 34,000 61 490 0
2022-08-08 12:55:56 GMT 49.675369 2.078512 34,000 58 490 0
2022-08-08 12:55:55 GMT 49.674076 2.075080 34,000 58 490 0
2022-08-08 12:55:53 GMT 49.672169 2.070255 34,000 52 490 0
2022-08-08 12:55:51 GMT 49.669510 2.064056 34,000 52 490 0
2022-08-08 12:55:50 GMT 49.668304 2.061273 34,000 52 490 0
2022-08-08 12:55:48 GMT 49.665619 2.055455 34,000 52 490 0
2022-08-08 12:55:46 GMT 49.663559 2.051263 34,000 52 490 0
2022-08-08 12:55:45 GMT 49.662323 2.048806 34,000 50 489 0
2022-08-08 12:55:44 GMT 49.660252 2.044867 34,000 50 489 0
2022-08-08 12:55:42 GMT 49.657925 2.040636 34,000 48 490 0
2022-08-08 12:55:40 GMT 49.651035 2.029130 34,000 45 489 0
2022-08-08 12:55:38 GMT 49.648006 2.024454 34,000 41 488 0
2022-08-08 12:55:36 GMT 49.648006 2.024454 34,000 41 488 0
2022-08-08 12:55:34 GMT 49.644562 2.019480 34,000 41 488 0
2022-08-08 12:55:32 GMT 49.641167 2.014878 34,000 39 488 0
2022-08-08 12:55:30 GMT 49.637718 2.010424 34,000 36 487 64
2022-08-08 12:55:28 GMT 49.631424 2.002837 34,000 36 487 64
2022-08-08 12:55:25 GMT 49.628735 1.999957 34,000 34 486 64
2022-08-08 12:55:23 GMT 49.625107 1.996187 34,000 32 486 64
2022-08-08 12:55:21 GMT 49.621426 1.992534 34,000 32 486 64
2022-08-08 12:55:19 GMT 49.613651 1.985630 34,000 28 484 0
2022-08-08 12:55:17 GMT 49.613651 1.985630 34,000 23 483 -64
2022-08-08 12:55:15 GMT 49.610596 1.983105 34,000 23 483 -64
2022-08-08 12:55:13 GMT 49.601120 1.976093 34,000 23 483 -64
2022-08-08 12:55:11 GMT 49.601120 1.976093 34,000 23 483 -64
2022-08-08 12:55:10 GMT 49.595764 1.972552 34,000 22 483 -64
2022-08-08 12:55:08 GMT 49.595764 1.972552 34,000 21 482 -64
2022-08-08 12:55:06 GMT 49.592194 1.970339 34,000 21 482 -64
2022-08-08 12:55:04 GMT 49.586884 1.967131 34,000 20 482 0
2022-08-08 12:55:02 GMT 49.582489 1.964601 34,000 20 481 0
2022-08-08 12:55:00 GMT 49.579376 1.962794 34,000 20 480 0
2022-08-08 12:54:59 GMT 49.577316 1.961638 34,000 20 480 0
2022-08-08 12:54:56 GMT 49.570965 1.958016 34,000 20 480 0
2022-08-08 12:54:55 GMT 49.568985 1.956867 34,000 20 479 0
2022-08-08 12:54:54 GMT 49.567005 1.955715 34,000 20 479 0
2022-08-08 12:54:52 GMT 49.563171 1.953543 34,000 20 479 0
2022-08-08 12:54:50 GMT 49.554703 1.948628 34,000 20 478 0
2022-08-08 12:54:48 GMT 49.554703 1.948628 34,000 20 478 0
2022-08-08 12:54:46 GMT 49.550354 1.946098 34,000 20 479 0
2022-08-08 12:54:45 GMT 49.548386 1.944951 34,000 20 479 0
2022-08-08 12:54:42 GMT 49.540009 1.940099 34,000 20 479 0
2022-08-08 12:54:40 GMT 49.537632 1.938716 34,000 20 479 0
2022-08-08 12:54:38 GMT 49.533371 1.936196 34,000 20 479 0
2022-08-08 12:54:37 GMT 49.531311 1.935039 34,000 20 479 0
2022-08-08 12:54:36 GMT 49.527252 1.932703 34,000 20 479 0
2022-08-08 12:54:33 GMT 49.519382 1.928175 34,000 19 479 0
2022-08-08 12:54:31 GMT 49.519382 1.928175 34,000 19 479 0
2022-08-08 12:54:29 GMT 49.515007 1.925799 34,000 19 479 0
2022-08-08 12:54:27 GMT 49.510445 1.923276 34,000 19 478 0
2022-08-08 12:54:26 GMT 49.508469 1.922174 34,000 19 479 0
2022-08-08 12:54:25 GMT 49.502300 1.918970 34,000 18 478 0
2022-08-08 12:54:23 GMT 49.502300 1.918970 34,000 16 478 0
2022-08-08 12:54:21 GMT 49.498482 1.917114 34,000 16 478 0
2022-08-08 12:54:19 GMT 49.494141 1.915090 34,000 16 478 0
2022-08-08 12:54:17 GMT 49.489929 1.913211 34,000 13 478 0
2022-08-08 12:54:15 GMT 49.483292 1.910609 34,000 12 478 0
2022-08-08 12:54:12 GMT 49.478989 1.909164 34,000 10 478 0
2022-08-08 12:54:10 GMT 49.473953 1.907790 34,000 9 478 0
2022-08-08 12:54:09 GMT 49.471802 1.907212 34,000 8 478 0
2022-08-08 12:54:08 GMT 49.465439 1.905911 34,000 6 478 0
2022-08-08 12:54:06 GMT 49.465439 1.905911 34,000 6 478 0
2022-08-08 12:54:04 GMT 49.460861 1.905188 34,000 3 477 0
2022-08-08 12:54:03 GMT 49.458618 1.904971 34,000 2 478 0
2022-08-08 12:54:02 GMT 49.454350 1.904569 34,000 1 478 0
2022-08-08 12:54:00 GMT 49.451931 1.904495 34,000 1 478 0
2022-08-08 12:53:58 GMT 49.447273 1.904421 34,000 0 478 0
2022-08-08 12:53:56 GMT 49.442852 1.904569 34,000 357 477 0
2022-08-08 12:53:55 GMT 49.441547 1.904643 34,000 355 478 0
2022-08-08 12:53:53 GMT 49.436829 1.905044 34,000 355 478 0
2022-08-08 12:53:52 GMT 49.434402 1.905333 34,000 354 477 0
2022-08-08 12:53:50 GMT 49.425720 1.906923 34,000 351 477 0
2022-08-08 12:53:48 GMT 49.425720 1.906923 34,000 351 477 0
2022-08-08 12:53:46 GMT 49.422134 1.907748 34,000 350 477 0
2022-08-08 12:53:45 GMT 49.416180 1.909525 34,000 345 477 0
2022-08-08 12:53:43 GMT 49.410690 1.911410 34,000 345 477 0
2022-08-08 12:53:41 GMT 49.410690 1.911410 34,000 345 477 0
2022-08-08 12:53:39 GMT 49.406544 1.913139 34,000 345 477 0
2022-08-08 12:53:38 GMT 49.404446 1.914079 34,000 341 476 0
2022-08-08 12:53:36 GMT 49.400528 1.915847 34,000 341 476 0
2022-08-08 12:53:34 GMT 49.397324 1.917548 34,000 341 476 0
2022-08-08 12:53:32 GMT 49.390060 1.921740 34,000 338 476 0
2022-08-08 12:53:29 GMT 49.386108 1.924298 34,000 335 476 0
2022-08-08 12:53:27 GMT 49.383034 1.926438 34,000 335 476 0
2022-08-08 12:53:26 GMT 49.378967 1.929439 34,000 333 476 0
2022-08-08 12:53:24 GMT 49.376999 1.930988 34,000 333 476 0
2022-08-08 12:53:23 GMT 49.373024 1.934244 34,000 330 475 0
2022-08-08 12:53:21 GMT 49.371117 1.935907 34,000 330 476 0
2022-08-08 12:53:19 GMT 49.367432 1.939298 34,000 328 476 0
2022-08-08 12:53:17 GMT 49.363541 1.943031 34,000 326 475 0
2022-08-08 12:53:15 GMT 49.359192 1.947608 34,000 326 475 0
2022-08-08 12:53:14 GMT 49.357590 1.949369 34,000 324 475 0
2022-08-08 12:53:11 GMT 49.351562 1.956434 34,000 321 476 0
2022-08-08 12:53:10 GMT 49.348114 1.960848 34,000 318 475 0
2022-08-08 12:53:07 GMT 49.345512 1.964240 34,000 318 475 0
2022-08-08 12:53:05 GMT 49.342159 1.969010 34,000 316 475 0
2022-08-08 12:53:03 GMT 49.339600 1.972769 34,000 315 475 0
2022-08-08 12:53:00 GMT 49.334152 1.981514 34,000 311 476 64
2022-08-08 12:52:58 GMT 49.331635 1.985920 34,000 311 476 64
2022-08-08 12:52:56 GMT 49.328613 1.991489 34,000 308 476 64
2022-08-08 12:52:54 GMT 49.326599 1.995286 34,000 308 476 64
2022-08-08 12:52:53 GMT 49.324493 1.999582 34,000 306 475 0
2022-08-08 12:52:52 GMT 49.321350 2.006234 34,000 304 476 -64
2022-08-08 12:52:49 GMT 49.320053 2.009160 34,000 303 475 -128
2022-08-08 12:52:48 GMT 49.319366 2.010850 34,000 303 475 -128
2022-08-08 12:52:45 GMT 49.315487 2.020472 34,000 300 476 -128
2022-08-08 12:52:43 GMT 49.313530 2.025749 34,000 299 476 -128
2022-08-08 12:52:40 GMT 49.310806 2.033598 34,025 297 477 -192
2022-08-08 12:52:37 GMT 49.307510 2.044302 34,050 293 479 -640
2022-08-08 12:52:34 GMT 49.304626 2.055288 34,100 291 479 -960
2022-08-08 12:52:32 GMT 49.303383 2.060515 34,100 290 480 -1024
2022-08-08 12:52:30 GMT 49.302292 2.065500 34,150 288 479 -1088
2022-08-08 12:52:29 GMT 49.301243 2.070489 34,175 287 479 -1088
2022-08-08 12:52:28 GMT 49.300598 2.073951 34,200 285 479 -1088
2022-08-08 12:52:26 GMT 49.299332 2.081259 34,225 283 480 -1024
2022-08-08 12:52:25 GMT 49.298813 2.084726 34,250 283 480 -1024
2022-08-08 12:52:23 GMT 49.297897 2.091064 34,275 282 480 -960
2022-08-08 12:52:21 GMT 49.296982 2.098037 34,325 280 481 -960
2022-08-08 12:52:19 GMT 49.296585 2.101569 34,325 279 480 -960
2022-08-08 12:52:18 GMT 49.296158 2.105431 34,350 279 480 -960
2022-08-08 12:52:16 GMT 49.295513 2.111977 34,400 278 481 -960
2022-08-08 12:52:14 GMT 49.294739 2.121559 34,425 276 481 -960
2022-08-08 12:52:10 GMT 49.294006 2.134798 34,500 273 482 -896
2022-08-08 12:52:07 GMT 49.293652 2.145876 34,625 271 483 -960
2022-08-08 12:52:05 GMT 49.293560 2.155706 34,600 270 483 -960
2022-08-08 12:52:02 GMT 49.293594 2.162053 34,650 269 483 -1024
2022-08-08 12:52:00 GMT 49.293697 2.168354 34,650 268 482 -1024
2022-08-08 12:51:59 GMT 49.294025 2.178546 34,700 267 482 -960
2022-08-08 12:51:57 GMT 49.294189 2.182124 34,725 266 482 -960
2022-08-08 12:51:55 GMT 49.294327 2.185505 34,750 266 482 -960
2022-08-08 12:51:53 GMT 49.294693 2.192336 34,750 265 481 -960
2022-08-08 12:51:51 GMT 49.295097 2.199579 34,800 265 481 -960
2022-08-08 12:51:47 GMT 49.295929 2.213604 34,875 265 479 -1024
2022-08-08 12:51:45 GMT 49.296432 2.222760 34,900 265 478 -1024
2022-08-08 12:51:44 GMT 49.296432 2.222760 34,925 265 478 -1024
2022-08-08 12:51:43 GMT 49.296844 2.229520 34,975 265 477 -896
2022-08-08 12:51:40 GMT 49.297211 2.236211 34,975 265 477 -768
2022-08-08 12:51:39 GMT 49.297562 2.241789 35,000 265 476 -512
2022-08-08 12:51:37 GMT 49.297749 2.245475 35,000 265 476 -256
2022-08-08 12:51:36 GMT 49.298172 2.252690 35,000 265 476 -128
2022-08-08 12:51:34 GMT 49.298401 2.256173 35,000 265 476 -64
2022-08-08 12:51:32 GMT 49.298775 2.262894 35,000 265 476 0
2022-08-08 12:51:31 GMT 49.298962 2.266219 35,000 265 476 0
2022-08-08 12:51:29 GMT 49.299332 2.272652 35,000 265 476 0
2022-08-08 12:51:28 GMT 49.299545 2.276142 35,000 265 476 0
2022-08-08 12:51:27 GMT 49.299728 2.279170 35,000 265 476 0
2022-08-08 12:51:25 GMT 49.300121 2.286024 35,000 265 476 0
2022-08-08 12:51:23 GMT 49.300598 2.294241 35,000 265 476 0
2022-08-08 12:51:22 GMT 49.300735 2.296283 35,000 265 476 0
2022-08-08 12:51:20 GMT 49.301193 2.304165 35,000 265 476 0
2022-08-08 12:51:18 GMT 49.301605 2.311002 35,000 265 476 0
2022-08-08 12:51:16 GMT 49.301788 2.314735 35,000 265 476 0
2022-08-08 12:51:15 GMT 49.302109 2.319735 35,000 265 476 0
2022-08-08 12:51:13 GMT 49.302872 2.333005 35,000 265 476 0
2022-08-08 12:51:09 GMT 49.303196 2.338353 35,000 265 476 0
2022-08-08 12:51:08 GMT 49.303482 2.343257 35,000 265 476 0
2022-08-08 12:51:07 GMT 49.303848 2.349773 35,000 265 476 0
2022-08-08 12:51:04 GMT 49.304359 2.357796 35,000 265 476 0
2022-08-08 12:51:02 GMT 49.304733 2.364229 35,000 265 477 0
2022-08-08 12:51:00 GMT 49.305038 2.369737 35,000 265 477 0
2022-08-08 12:50:58 GMT 49.305450 2.376779 35,000 265 477 0
2022-08-08 12:50:56 GMT 49.306316 2.390683 35,000 265 477 0
2022-08-08 12:50:54 GMT 49.306316 2.390683 35,000 265 477 0
2022-08-08 12:50:52 GMT 49.306782 2.398055 35,000 265 477 0
2022-08-08 12:50:51 GMT 49.306961 2.400935 35,000 265 477 0
2022-08-08 12:50:50 GMT 49.307098 2.403611 35,000 265 477 0
2022-08-08 12:50:48 GMT 49.307571 2.410849 35,000 265 477 0
2022-08-08 12:50:47 GMT 49.307758 2.413812 35,000 265 477 0
2022-08-08 12:50:45 GMT 49.308178 2.420895 35,000 265 477 0
2022-08-08 12:50:44 GMT 49.308609 2.427415 35,000 265 477 0
2022-08-08 12:50:42 GMT 49.308830 2.430942 35,000 265 477 0
2022-08-08 12:50:40 GMT 49.309155 2.436291 35,000 265 477 0
2022-08-08 12:50:38 GMT 49.310131 2.452047 35,000 265 477 0
2022-08-08 12:50:36 GMT 49.310131 2.452047 35,000 265 477 0
2022-08-08 12:50:33 GMT 49.310669 2.460938 35,000 265 477 0
2022-08-08 12:50:32 GMT 49.311295 2.471201 35,000 265 477 0
2022-08-08 12:50:30 GMT 49.311493 2.474389 35,000 265 477 0
2022-08-08 12:50:27 GMT 49.311859 2.479741 35,000 265 477 0
2022-08-08 12:50:25 GMT 49.312225 2.486079 35,000 265 477 0
2022-08-08 12:50:24 GMT 49.312462 2.489632 35,000 265 477 0
2022-08-08 12:50:22 GMT 49.312912 2.496854 35,000 265 477 0
2022-08-08 12:50:21 GMT 49.313110 2.500329 35,000 265 477 0
2022-08-08 12:50:20 GMT 49.313461 2.505517 35,000 265 477 0
2022-08-08 12:50:18 GMT 49.313736 2.510235 35,000 265 477 0
2022-08-08 12:50:17 GMT 49.313950 2.513050 35,000 265 477 0
2022-08-08 12:50:15 GMT 49.314369 2.520134 35,000 265 477 0
2022-08-08 12:50:14 GMT 49.314739 2.526494 35,000 265 477 0
2022-08-08 12:50:12 GMT 49.314972 2.530180 35,000 265 477 0
2022-08-08 12:50:11 GMT 49.315205 2.533505 35,000 265 476 0
2022-08-08 12:50:09 GMT 49.315624 2.540588 35,000 265 476 0
2022-08-08 12:50:08 GMT 49.315857 2.543913 35,000 265 476 0
2022-08-08 12:50:06 GMT 49.316254 2.550448 35,000 265 476 0
2022-08-08 12:50:05 GMT 49.316437 2.553476 35,000 265 476 0
2022-08-08 12:50:04 GMT 49.316849 2.560167 35,000 265 476 0
2022-08-08 12:50:02 GMT 49.317066 2.563284 35,000 265 476 0
2022-08-08 12:50:00 GMT 49.317486 2.570006 35,000 265 476 0
2022-08-08 12:49:59 GMT 49.317673 2.573692 35,000 265 476 0
2022-08-08 12:49:58 GMT 49.318130 2.580590 35,000 265 476 0
2022-08-08 12:49:56 GMT 49.318325 2.583739 35,000 265 476 0
2022-08-08 12:49:55 GMT 49.318745 2.590099 35,000 265 476 0
2022-08-08 12:49:53 GMT 49.318909 2.593266 35,000 265 476 0
2022-08-08 12:49:51 GMT 49.319412 2.601013 35,000 265 476 0
2022-08-08 12:49:49 GMT 49.319817 2.607880 35,000 265 476 0
2022-08-08 12:49:47 GMT 49.320145 2.613056 35,000 265 476 0
2022-08-08 12:49:45 GMT 49.320786 2.623056 35,000 265 476 0
2022-08-08 12:49:42 GMT 49.322113 2.644184 35,000 265 476 0
2022-08-08 12:49:39 GMT 49.322113 2.644184 35,000 265 476 0
2022-08-08 12:49:36 GMT 49.322559 2.651391 35,000 265 476 0
2022-08-08 12:49:34 GMT 49.323029 2.658402 35,000 265 476 0
2022-08-08 12:49:31 GMT 49.323681 2.668449 35,000 265 476 0
2022-08-08 12:49:29 GMT 49.324127 2.675664 35,000 265 476 0
2022-08-08 12:49:27 GMT 49.325043 2.689678 35,000 265 476 0
2022-08-08 12:49:25 GMT 49.325043 2.689678 35,000 265 476 0
2022-08-08 12:49:22 GMT 49.325455 2.696369 35,000 265 476 0
2022-08-08 12:49:20 GMT 49.325958 2.704588 35,000 265 476 0
2022-08-08 12:49:18 GMT 49.326599 2.714750 35,000 265 475 0
2022-08-08 12:49:15 GMT 49.327011 2.721440 35,000 265 475 0
2022-08-08 12:49:12 GMT 49.327835 2.734187 35,000 265 475 0
2022-08-08 12:49:09 GMT 49.328888 2.751582 35,000 265 475 0
2022-08-08 12:49:06 GMT 49.328888 2.751582 35,000 265 475 0
2022-08-08 12:49:03 GMT 49.329498 2.761399 35,000 265 475 0
2022-08-08 12:49:00 GMT 49.330009 2.770073 35,000 265 475 0
2022-08-08 12:48:58 GMT 49.330582 2.779611 35,000 265 475 0
2022-08-08 12:48:56 GMT 49.330902 2.784682 35,000 265 475 0
2022-08-08 12:48:53 GMT 49.331593 2.796165 35,000 265 475 0
2022-08-08 12:48:50 GMT 49.332047 2.803063 35,000 265 475 0
2022-08-08 12:48:48 GMT 49.332664 2.813223 35,000 265 475 0
2022-08-08 12:48:45 GMT 49.333221 2.821896 35,000 265 475 0
2022-08-08 12:48:42 GMT 49.333832 2.832078 35,000 265 475 0
2022-08-08 12:48:40 GMT 49.334248 2.838593 35,000 265 475 0
2022-08-08 12:48:38 GMT 49.335133 2.852325 35,000 265 474 0
2022-08-08 12:48:33 GMT 49.335548 2.858975 35,000 265 474 0
2022-08-08 12:48:30 GMT 49.336433 2.872347 35,000 265 474 0
2022-08-08 12:48:28 GMT 49.336945 2.880297 35,000 265 474 0
2022-08-08 12:48:24 GMT 49.337677 2.892151 35,000 265 474 0
2022-08-08 12:48:22 GMT 49.338112 2.899017 35,000 265 474 0
2022-08-08 12:48:20 GMT 49.338947 2.912389 35,000 265 474 0
2022-08-08 12:48:16 GMT 49.339188 2.915532 35,000 265 474 0
2022-08-08 12:48:14 GMT 49.339828 2.926237 35,000 265 474 0
2022-08-08 12:48:11 GMT 49.340515 2.936589 35,000 265 474 0
2022-08-08 12:48:08 GMT 49.341110 2.945885 35,000 265 474 0
2022-08-08 12:48:06 GMT 49.341476 2.952224 35,000 265 474 0
2022-08-08 12:48:02 GMT 49.342392 2.966590 35,000 265 474 0
2022-08-08 12:48:00 GMT 49.342579 2.969778 35,000 265 474 0
2022-08-08 12:47:58 GMT 49.342999 2.976428 35,000 265 474 0
2022-08-08 12:47:56 GMT 49.343369 2.982427 35,000 265 474 0
2022-08-08 12:47:54 GMT 49.344021 2.992401 35,000 265 474 0
2022-08-08 12:47:51 GMT 49.344772 3.004620 35,000 265 474 0
2022-08-08 12:47:48 GMT 49.345280 3.012784 35,000 265 474 0
2022-08-08 12:47:46 GMT 49.346603 3.033283 35,000 265 474 0
2022-08-08 12:47:42 GMT 49.347061 3.040255 35,000 265 473 0
2022-08-08 12:47:39 GMT 49.347061 3.040255 35,000 265 473 0
2022-08-08 12:47:37 GMT 49.348679 3.065764 35,000 265 474 0
2022-08-08 12:47:32 GMT 49.349144 3.072775 35,000 265 473 0
2022-08-08 12:47:29 GMT 49.349144 3.072775 35,000 265 473 0
2022-08-08 12:47:27 GMT 49.349609 3.080075 35,000 265 473 0
2022-08-08 12:47:25 GMT 49.350025 3.087086 35,000 265 473 0
2022-08-08 12:47:23 GMT 49.350494 3.093919 35,000 265 473 0
2022-08-08 12:47:21 GMT 49.351776 3.114906 35,000 265 473 0
2022-08-08 12:47:17 GMT 49.351776 3.114906 35,000 265 474 0
2022-08-08 12:47:11 GMT 49.353008 3.134717 35,000 265 473 0
2022-08-08 12:47:09 GMT 49.353378 3.141245 35,000 265 473 0
2022-08-08 12:47:07 GMT 49.353844 3.148378 35,000 265 473 0
2022-08-08 12:47:05 GMT 49.355240 3.171363 35,000 265 473 0
2022-08-08 12:47:00 GMT 49.355240 3.171363 35,000 265 473 0
2022-08-08 12:46:58 GMT 49.356079 3.184734 35,000 265 473 0
2022-08-08 12:46:53 GMT 49.356686 3.194709 35,000 265 473 0
2022-08-08 12:46:51 GMT 49.357151 3.201358 35,000 265 473 0
2022-08-08 12:46:48 GMT 49.357727 3.211177 35,000 265 473 0
2022-08-08 12:46:46 GMT 49.358185 3.217867 35,000 265 473 0
2022-08-08 12:46:43 GMT 49.358780 3.227668 35,000 265 473 0
2022-08-08 12:46:40 GMT 49.359432 3.238003 35,000 265 473 0
2022-08-08 12:46:37 GMT 49.360107 3.248502 35,000 265 473 0
2022-08-08 12:46:32 GMT 49.361115 3.264489 35,000 265 473 0
2022-08-08 12:46:29 GMT 49.362076 3.280123 35,000 265 473 0
2022-08-08 12:46:25 GMT 49.363155 3.296983 35,000 265 473 0
2022-08-08 12:46:22 GMT 49.363155 3.296983 35,000 265 473 0
2022-08-08 12:46:19 GMT 49.363953 3.309420 35,000 265 473 0
2022-08-08 12:46:16 GMT 49.364597 3.319895 35,000 265 473 0
2022-08-08 12:46:13 GMT 49.365005 3.326745 35,000 265 473 0
2022-08-08 12:46:11 GMT 49.365528 3.334929 35,000 265 473 0
2022-08-08 12:46:09 GMT 49.366039 3.343241 35,000 265 473 0
2022-08-08 12:46:06 GMT 49.366600 3.352203 35,000 265 473 0
2022-08-08 12:46:03 GMT 49.367157 3.360690 35,000 265 473 0
2022-08-08 12:46:00 GMT 49.367996 3.373526 35,000 265 473 0
2022-08-08 12:45:58 GMT 49.368530 3.381676 35,000 265 473 0
2022-08-08 12:45:55 GMT 49.368881 3.386825 35,000 265 473 0
2022-08-08 12:45:52 GMT 49.369537 3.397311 35,000 265 473 0
2022-08-08 12:45:49 GMT 49.370373 3.410098 35,000 265 473 0
2022-08-08 12:45:47 GMT 49.370834 3.416748 35,000 265 473 0
2022-08-08 12:45:45 GMT 49.371048 3.419917 35,000 265 473 0
2022-08-08 12:45:42 GMT 49.372559 3.443580 35,000 265 473 0
2022-08-08 12:45:39 GMT 49.372559 3.443580 35,000 265 473 0
2022-08-08 12:45:35 GMT 49.373291 3.454566 35,000 265 473 0
2022-08-08 12:45:30 GMT 49.374435 3.472525 35,000 265 473 0
2022-08-08 12:45:26 GMT 49.375305 3.486469 35,000 265 473 0
2022-08-08 12:45:23 GMT 49.376423 3.503988 35,000 265 473 0
2022-08-08 12:45:20 GMT 49.377136 3.514428 35,000 265 473 0
2022-08-08 12:45:17 GMT 49.377136 3.514428 35,000 265 473 0
2022-08-08 12:45:15 GMT 49.377586 3.521263 35,000 265 473 0
2022-08-08 12:45:11 GMT 49.378471 3.535285 35,000 265 473 0
2022-08-08 12:45:08 GMT 49.379837 3.555415 35,000 265 473 0
2022-08-08 12:45:05 GMT 49.379837 3.555415 35,000 265 473 0
2022-08-08 12:45:03 GMT 49.380386 3.563373 35,000 265 473 0
2022-08-08 12:45:00 GMT 49.380936 3.572036 35,000 265 473 0
2022-08-08 12:44:58 GMT 49.381496 3.580170 35,000 265 473 0
2022-08-08 12:44:55 GMT 49.382053 3.588482 35,000 265 473 0
2022-08-08 12:44:52 GMT 49.382812 3.600346 35,000 265 473 0
2022-08-08 12:44:49 GMT 49.383408 3.609009 35,000 265 473 0
2022-08-08 12:44:47 GMT 49.383732 3.613779 35,000 265 473 0
2022-08-08 12:44:44 GMT 49.384506 3.625629 35,000 265 473 0
2022-08-08 12:44:42 GMT 49.384872 3.631615 35,000 265 473 0
2022-08-08 12:44:38 GMT 49.385651 3.643306 35,000 265 473 0
2022-08-08 12:44:35 GMT 49.386383 3.654996 35,000 265 473 0
2022-08-08 12:44:32 GMT 49.387035 3.665458 35,000 265 474 0
2022-08-08 12:44:29 GMT 49.387501 3.672469 35,000 265 474 0
2022-08-08 12:44:27 GMT 49.388443 3.687322 35,000 265 474 -128
2022-08-08 12:44:25 GMT 49.388851 3.693791 35,000 265 474 -64
2022-08-08 12:44:23 GMT 49.388851 3.693791 35,000 265 474 -64
2022-08-08 12:44:20 GMT 49.389771 3.707674 35,025 265 474 -128
2022-08-08 12:44:18 GMT 49.389969 3.710849 35,025 265 474 128
2022-08-08 12:44:14 GMT 49.392017 3.741929 34,975 265 474 448
2022-08-08 12:44:09 GMT 49.392017 3.741929 34,925 265 474 512
2022-08-08 12:44:07 GMT 49.392624 3.750602 34,950 265 474 512
2022-08-08 12:44:04 GMT 49.393066 3.757747 34,875 265 474 512
2022-08-08 12:44:02 GMT 49.394157 3.774310 34,900 265 474 576
2022-08-08 12:43:59 GMT 49.394157 3.774310 34,875 265 475 576
2022-08-08 12:43:57 GMT 49.394669 3.781480 34,825 265 475 512
2022-08-08 12:43:54 GMT 49.395355 3.791833 34,825 265 475 448
2022-08-08 12:43:50 GMT 49.396362 3.807608 34,725 265 476 448
2022-08-08 12:43:47 GMT 49.396858 3.814786 34,775 265 476 448
2022-08-08 12:43:44 GMT 49.397652 3.827218 34,750 265 476 448
2022-08-08 12:43:41 GMT 49.398193 3.835074 34,700 265 476 448
2022-08-08 12:43:38 GMT 49.398907 3.846299 34,700 265 479 448
2022-08-08 12:43:36 GMT 49.399338 3.852891 34,700 265 477 448
2022-08-08 12:43:33 GMT 49.399979 3.862128 34,675 265 477 448
2022-08-08 12:43:31 GMT 49.400398 3.868489 34,650 265 479 448
2022-08-08 12:43:28 GMT 49.400894 3.876765 34,600 265 479 448
2022-08-08 12:43:26 GMT 49.402073 3.894436 34,450 265 479 448
2022-08-08 12:43:23 GMT 49.402073 3.894436 34,600 265 481 384
2022-08-08 12:43:20 GMT 49.402954 3.908175 34,575 265 481 384
2022-08-08 12:43:17 GMT 49.403702 3.918867 34,550 265 482 384
2022-08-08 12:43:13 GMT 49.404373 3.929514 34,525 265 483 384
2022-08-08 12:43:08 GMT 49.405472 3.945500 34,475 265 484 448
2022-08-08 12:43:06 GMT 49.406799 3.965360 34,475 265 485 448
2022-08-08 12:43:03 GMT 49.406799 3.965360 34,425 265 486 448
2022-08-08 12:43:00 GMT 49.407379 3.974087 34,425 265 486 448
2022-08-08 12:42:57 GMT 49.408821 3.995988 34,400 265 487 512
2022-08-08 12:42:54 GMT 49.409569 4.006974 34,375 265 490 64
2022-08-08 12:42:50 GMT 49.409569 4.006974 34,350 265 487 512
2022-08-08 12:42:47 GMT 49.411152 4.030681 34,325 265 487 512
2022-08-08 12:42:44 GMT 49.411152 4.030681 34,300 265 487 512
2022-08-08 12:42:40 GMT 49.412155 4.046349 34,275 265 487 448
2022-08-08 12:42:37 GMT 49.412613 4.052828 34,250 265 487 448
2022-08-08 12:42:35 GMT 49.413071 4.060082 34,200 264 487 448
2022-08-08 12:42:32 GMT 49.413757 4.069856 34,200 264 487 448
2022-08-08 12:42:29 GMT 49.414352 4.078604 34,100 264 487 448
2022-08-08 12:42:25 GMT 49.415771 4.099520 34,150 265 488 448
2022-08-08 12:42:22 GMT 49.416691 4.113079 34,050 265 489 448
2022-08-08 12:42:19 GMT 49.416691 4.113079 34,075 265 488 448
2022-08-08 12:42:16 GMT 49.417328 4.122197 34,075 265 489 448
2022-08-08 12:42:13 GMT 49.418133 4.134112 34,025 265 489 448
2022-08-08 12:42:09 GMT 49.419067 4.148043 34,025 265 490 384
2022-08-08 12:42:06 GMT 49.419891 4.160508 34,025 265 490 384
2022-08-08 12:42:03 GMT 49.420555 4.170323 34,000 265 491 0
2022-08-08 12:42:00 GMT 49.421207 4.180370 34,000 265 491 0
2022-08-08 12:41:56 GMT 49.422043 4.192974 34,000 265 491 0
2022-08-08 12:41:53 GMT 49.422604 4.201837 34,000 265 491 0
2022-08-08 12:41:50 GMT 49.423370 4.214102 34,000 265 491 0
2022-08-08 12:41:47 GMT 49.424194 4.226567 34,000 265 490 0
2022-08-08 12:41:43 GMT 49.425064 4.240018 34,000 265 490 0
2022-08-08 12:41:39 GMT 49.425980 4.253892 34,000 265 490 0
2022-08-08 12:41:35 GMT 49.427444 4.274766 34,000 264 490 0
2022-08-08 12:41:33 GMT 49.427444 4.274766 34,000 264 491 0
2022-08-08 12:41:31 GMT 49.427677 4.277874 34,000 264 491 0
2022-08-08 12:41:28 GMT 49.428452 4.288065 34,000 263 491 0
2022-08-08 12:41:26 GMT 49.429214 4.296842 34,000 259 493 0
2022-08-08 12:41:24 GMT 49.430050 4.305824 34,000 262 491 0
2022-08-08 12:41:22 GMT 49.430740 4.312567 34,000 259 493 0
2022-08-08 12:41:19 GMT 49.431866 4.322304 34,000 259 493 0
2022-08-08 12:41:15 GMT 49.433624 4.335552 34,000 259 493 0
2022-08-08 12:41:13 GMT 49.434998 4.344370 34,000 256 495 -128
2022-08-08 12:41:10 GMT 49.436371 4.352899 34,000 255 496 -64
2022-08-08 12:41:07 GMT 49.438290 4.363502 34,000 255 496 0
2022-08-08 12:41:04 GMT 49.439594 4.370629 34,000 255 496 64
2022-08-08 12:41:01 GMT 49.441589 4.381666 34,000 255 497 0
2022-08-08 12:40:58 GMT 49.443504 4.392007 34,000 255 498 448
2022-08-08 12:40:56 GMT 49.446110 4.406260 33,950 255 498 640
2022-08-08 12:40:54 GMT 49.446110 4.406260 33,975 255 498 896
2022-08-08 12:40:51 GMT 49.448067 4.416801 33,900 255 498 896
2022-08-08 12:40:48 GMT 49.449604 4.425263 33,925 255 498 960
2022-08-08 12:40:46 GMT 49.451138 4.433800 33,875 255 498 960
2022-08-08 12:40:42 GMT 49.453674 4.447584 33,475 255 498 960
2022-08-08 12:40:39 GMT 49.455746 4.458965 33,750 255 498 960
2022-08-08 12:40:37 GMT 49.457062 4.465942 33,625 255 498 960
2022-08-08 12:40:33 GMT 49.458939 4.476134 33,675 255 497 1472
2022-08-08 12:40:30 GMT 49.461182 4.488421 33,600 255 498 1024
2022-08-08 12:40:27 GMT 49.462738 4.496878 33,550 255 498 960
2022-08-08 12:40:24 GMT 49.464825 4.508329 33,475 255 498 1024
2022-08-08 12:40:20 GMT 49.470505 4.539284 33,425 255 498 960
2022-08-08 12:40:15 GMT 49.470505 4.539284 33,275 255 498 960
2022-08-08 12:40:13 GMT 49.471809 4.546410 33,325 255 498 1024
2022-08-08 12:40:11 GMT 49.474648 4.561702 32,925 255 497 1152
2022-08-08 12:40:08 GMT 49.476509 4.571871 33,250 255 497 1344
2022-08-08 12:40:05 GMT 49.476509 4.571871 33,050 255 497 1664
2022-08-08 12:40:03 GMT 49.477707 4.578480 33,125 255 497 1664
2022-08-08 12:39:58 GMT 49.481827 4.600886 32,850 255 498 1408
2022-08-08 12:39:55 GMT 49.484425 4.615371 32,850 255 498 1152
2022-08-08 12:39:52 GMT 49.485821 4.622869 32,825 255 498 1152
2022-08-08 12:39:50 GMT 49.487354 4.631405 32,775 255 497 1408
2022-08-08 12:39:48 GMT 49.487354 4.631405 32,775 255 498 1280
2022-08-08 12:39:46 GMT 49.488567 4.638160 32,700 255 497 1408
2022-08-08 12:39:43 GMT 49.490429 4.648330 32,450 255 497 1536
2022-08-08 12:39:40 GMT 49.492035 4.657336 32,600 255 497 1536
2022-08-08 12:39:38 GMT 49.493317 4.664290 32,400 255 497 1728
2022-08-08 12:39:33 GMT 49.496613 4.682489 32,275 255 498 1664
2022-08-08 12:39:30 GMT 49.498489 4.692680 32,050 255 497 1728
2022-08-08 12:39:27 GMT 49.501373 4.708654 32,150 255 498 1664
2022-08-08 12:39:25 GMT 49.501373 4.708654 32,150 255 498 1664
2022-08-08 12:39:23 GMT 49.504898 4.728024 31,950 255 498 1728
2022-08-08 12:39:20 GMT 49.504898 4.728024 32,000 255 498 1728
2022-08-08 12:39:17 GMT 49.506908 4.739116 31,725 255 498 1792
2022-08-08 12:39:12 GMT 49.509613 4.753900 30,400 255 498 1408
2022-08-08 12:39:08 GMT 49.513458 4.775367 31,625 255 498 1408
2022-08-08 12:39:06 GMT 49.516296 4.791051 31,575 255 498 1344
2022-08-08 12:39:01 GMT 49.516296 4.791051 31,525 255 496 1664
2022-08-08 12:38:59 GMT 49.519852 4.810898 31,425 255 496 1472
2022-08-08 12:38:55 GMT 49.519852 4.810898 31,325 255 496 1472
2022-08-08 12:38:53 GMT 49.521435 4.819732 31,250 255 496 1792
2022-08-08 12:38:50 GMT 49.522659 4.826684 31,075 255 496 1856
2022-08-08 12:38:47 GMT 49.526230 4.846416 30,400 255 492 1536
2022-08-08 12:38:45 GMT 49.526230 4.846416 31,075 255 496 1088
2022-08-08 12:38:40 GMT 49.529251 4.863232 30,250 255 496 1088
2022-08-08 12:38:38 GMT 49.530487 4.870196 30,350 255 493 1536
2022-08-08 12:38:35 GMT 49.531998 4.878652 30,850 255 493 1472
2022-08-08 12:38:31 GMT 49.534748 4.893741 30,800 255 493 1536
2022-08-08 12:38:28 GMT 49.536804 4.905323 30,600 255 493 1536
2022-08-08 12:38:25 GMT 49.540512 4.925995 30,525 255 490 1280
2022-08-08 12:38:22 GMT 49.540512 4.925995 30,550 255 493 1536
2022-08-08 12:38:17 GMT 49.542847 4.939150 30,400 255 492 1536
2022-08-08 12:38:14 GMT 49.544952 4.950931 30,275 255 492 1536
2022-08-08 12:38:10 GMT 49.547607 4.966109 30,200 255 490 1152
2022-08-08 12:38:07 GMT 49.549164 4.974855 30,175 255 491 1408
2022-08-08 12:38:02 GMT 49.553600 4.999893 29,475 255 486 1472
2022-08-08 12:37:59 GMT 49.553600 4.999893 30,000 255 488 1152
2022-08-08 12:37:57 GMT 49.555138 5.008652 29,950 255 488 1088
2022-08-08 12:37:54 GMT 49.556671 5.017337 29,900 255 488 1152
2022-08-08 12:37:50 GMT 49.559093 5.031070 29,650 255 486 1408
2022-08-08 12:37:47 GMT 49.560791 5.040556 29,750 255 486 1472
2022-08-08 12:37:45 GMT 49.561886 5.046733 29,750 255 486 1472
2022-08-08 12:37:42 GMT 49.565186 5.065492 29,575 255 483 832
2022-08-08 12:37:39 GMT 49.565186 5.065492 29,500 255 483 1088
2022-08-08 12:37:36 GMT 49.567287 5.077317 29,525 255 484 1280
2022-08-08 12:37:33 GMT 49.569103 5.087561 29,450 255 481 768
2022-08-08 12:37:31 GMT 49.570862 5.097656 29,375 255 481 768
2022-08-08 12:37:28 GMT 49.572052 5.104306 29,350 255 481 768
2022-08-08 12:37:25 GMT 49.573700 5.113847 29,350 255 479 768
2022-08-08 12:37:20 GMT 49.576355 5.129025 29,175 255 481 768
2022-08-08 12:37:16 GMT 49.578926 5.143680 29,125 255 481 768
2022-08-08 12:37:11 GMT 49.581764 5.159491 29,100 255 483 768
2022-08-08 12:37:08 GMT 49.584000 5.171666 29,100 255 483 832
2022-08-08 12:37:05 GMT 49.585209 5.178272 29,100 255 483 832
2022-08-08 12:37:02 GMT 49.587212 5.189184 29,000 254 485 768
2022-08-08 12:36:59 GMT 49.589630 5.201882 29,000 254 485 320
2022-08-08 12:36:56 GMT 49.591278 5.210555 29,000 254 486 0
2022-08-08 12:36:52 GMT 49.593822 5.223925 29,000 254 486 0
2022-08-08 12:36:48 GMT 49.596615 5.238103 29,000 254 486 0
2022-08-08 12:36:45 GMT 49.597965 5.245081 29,000 253 485 0
2022-08-08 12:36:42 GMT 49.600338 5.256958 29,000 253 485 0
2022-08-08 12:36:39 GMT 49.602062 5.265569 29,000 253 486 0
2022-08-08 12:36:36 GMT 49.603878 5.274403 29,000 253 486 0
2022-08-08 12:36:33 GMT 49.605972 5.284496 29,000 253 486 0
2022-08-08 12:36:30 GMT 49.608307 5.295699 29,000 252 486 0
2022-08-08 12:36:27 GMT 49.610733 5.307192 29,000 252 486 0
2022-08-08 12:36:25 GMT 49.611511 5.310805 29,000 252 486 0
2022-08-08 12:36:21 GMT 49.614258 5.323599 29,000 252 486 0
2022-08-08 12:36:18 GMT 49.616447 5.333565 29,000 251 486 0
2022-08-08 12:36:15 GMT 49.619053 5.344997 29,000 250 487 0
2022-08-08 12:36:09 GMT 49.624329 5.367616 29,000 250 487 0
2022-08-08 12:36:05 GMT 49.626968 5.378847 29,000 250 487 0
2022-08-08 12:36:02 GMT 49.628494 5.385180 29,000 250 487 0
2022-08-08 12:35:59 GMT 49.632042 5.400374 29,000 250 487 0
2022-08-08 12:35:56 GMT 49.633347 5.405779 29,000 250 487 0
2022-08-08 12:35:54 GMT 49.634720 5.411562 29,000 250 487 0
2022-08-08 12:35:51 GMT 49.637440 5.423163 29,000 250 487 0
2022-08-08 12:35:48 GMT 49.639801 5.433101 29,000 251 488 0
2022-08-08 12:35:45 GMT 49.642181 5.443220 29,000 251 491 576
2022-08-08 12:35:42 GMT 49.644142 5.451520 29,000 251 489 64
2022-08-08 12:35:38 GMT 49.649731 5.475348 29,000 251 489 0
2022-08-08 12:35:35 GMT 49.650570 5.478986 29,000 251 489 64
2022-08-08 12:35:30 GMT 49.655182 5.498802 29,000 251 489 0
2022-08-08 12:35:27 GMT 49.655182 5.498802 29,000 251 489 0
2022-08-08 12:35:24 GMT 49.658390 5.512316 29,000 251 489 0
2022-08-08 12:35:20 GMT 49.661461 5.525455 29,000 251 489 0
2022-08-08 12:35:17 GMT 49.664070 5.536590 29,000 251 489 0
2022-08-08 12:35:14 GMT 49.665573 5.542964 29,000 251 489 0
2022-08-08 12:35:11 GMT 49.667652 5.551956 29,000 251 490 64
2022-08-08 12:35:07 GMT 49.673195 5.575636 29,000 251 490 0
2022-08-08 12:35:04 GMT 49.673195 5.575636 29,000 251 490 0
2022-08-08 12:35:01 GMT 49.675964 5.587632 29,000 251 491 0
2022-08-08 12:34:57 GMT 49.680504 5.606813 29,000 251 491 0
2022-08-08 12:34:52 GMT 49.682236 5.614231 29,000 251 492 -64
2022-08-08 12:34:49 GMT 49.684982 5.626084 29,000 251 491 0
2022-08-08 12:34:46 GMT 49.688141 5.639600 29,000 251 491 0
2022-08-08 12:34:43 GMT 49.690155 5.648129 29,000 251 491 0
2022-08-08 12:34:40 GMT 49.692627 5.658682 29,000 251 491 0
2022-08-08 12:34:37 GMT 49.693817 5.663958 29,000 251 493 -64
2022-08-08 12:34:34 GMT 49.696198 5.674149 29,000 251 493 -64
2022-08-08 12:34:31 GMT 49.698990 5.686075 29,000 251 493 -64
2022-08-08 12:34:26 GMT 49.703403 5.705022 29,025 250 492 0
2022-08-08 12:34:23 GMT 49.705360 5.713262 29,025 251 490 640
2022-08-08 12:34:20 GMT 49.707966 5.724471 29,000 250 491 320
2022-08-08 12:34:16 GMT 49.712669 5.744217 28,975 251 491 576
2022-08-08 12:34:13 GMT 49.714554 5.752282 28,950 251 490 704
2022-08-08 12:34:10 GMT 49.714554 5.752282 28,850 251 490 960
2022-08-08 12:34:07 GMT 49.717323 5.764259 28,850 251 489 960
2022-08-08 12:34:04 GMT 49.719559 5.773835 28,750 251 490 960
2022-08-08 12:34:01 GMT 49.722565 5.786832 28,750 250 490 960
2022-08-08 12:33:58 GMT 49.724167 5.793507 28,750 250 490 960
2022-08-08 12:33:55 GMT 49.726822 5.804270 28,400 248 491 896
2022-08-08 12:33:52 GMT 49.729103 5.813104 28,400 236 491 960
2022-08-08 12:33:49 GMT 49.732826 5.826614 27,575 247 474 1024
2022-08-08 12:33:46 GMT 49.734558 5.832512 28,200 242 493 1088
2022-08-08 12:33:43 GMT 49.737030 5.840751 28,450 245 491 960
2022-08-08 12:33:39 GMT 49.741470 5.854990 28,400 243 492 1024
2022-08-08 12:33:36 GMT 49.743671 5.861726 27,900 240 492 1088
2022-08-08 12:33:33 GMT 49.751026 5.883104 28,300 241 493 1088
2022-08-08 12:33:30 GMT 49.751026 5.883104 28,300 241 492 1088
2022-08-08 12:33:27 GMT 49.755478 5.895177 28,200 239 492 960
2022-08-08 12:33:24 GMT 49.758430 5.902924 28,100 239 493 960
2022-08-08 12:33:21 GMT 49.760696 5.908765 28,125 238 492 960
2022-08-08 12:33:18 GMT 49.764954 5.919173 28,025 237 492 896
2022-08-08 12:33:15 GMT 49.768295 5.927124 28,050 237 492 896
2022-08-08 12:33:13 GMT 49.770905 5.933063 27,925 235 490 1408
2022-08-08 12:33:10 GMT 49.774586 5.941080 27,825 235 491 1152
2022-08-08 12:33:07 GMT 49.782543 5.958524 27,550 235 490 1344
2022-08-08 12:33:04 GMT 49.782543 5.958524 27,550 235 490 1536
2022-08-08 12:33:02 GMT 49.788528 5.971503 27,650 235 489 1536
2022-08-08 12:32:56 GMT 49.792969 5.981188 27,550 235 489 1472
2022-08-08 12:32:53 GMT 49.797440 5.991038 27,475 235 488 1472
2022-08-08 12:32:50 GMT 49.800838 5.998387 27,450 236 486 1472
2022-08-08 12:32:47 GMT 49.805832 6.009377 27,375 236 486 1472
2022-08-08 12:32:43 GMT 49.811455 6.021770 27,275 235 486 1472
2022-08-08 12:32:40 GMT 49.813362 6.026075 27,250 235 484 1728
2022-08-08 12:32:36 GMT 49.819321 6.039066 26,925 235 484 1664
2022-08-08 12:32:33 GMT 49.822674 6.046415 26,925 235 483 1984
2022-08-08 12:32:30 GMT 49.827469 6.056881 26,300 236 483 2176
2022-08-08 12:32:26 GMT 49.832214 6.067348 26,725 236 483 2048
2022-08-08 12:32:23 GMT 49.835999 6.076018 26,625 237 482 1920
2022-08-08 12:32:21 GMT 49.839340 6.083824 26,625 238 481 1920
2022-08-08 12:32:18 GMT 49.841805 6.089692 26,575 238 481 1920
2022-08-08 12:32:15 GMT 49.845901 6.099936 26,450 239 480 1984
2022-08-08 12:32:12 GMT 49.849777 6.109699 26,275 241 479 2304
2022-08-08 12:32:09 GMT 49.852295 6.116205 26,100 241 479 0
2022-08-08 12:32:06 GMT 49.855026 6.123468 26,050 242 478 2496
2022-08-08 12:32:03 GMT 49.859261 6.135048 25,975 241 478 2496
2022-08-08 12:32:01 GMT 49.862057 6.142842 25,075 242 479 2560
2022-08-08 12:31:58 GMT 49.863693 6.147501 25,750 243 478 2496
2022-08-08 12:31:55 GMT 49.867218 6.157765 25,600 247 474 1024
2022-08-08 12:31:53 GMT 49.872711 6.174533 25,400 244 478 2496
2022-08-08 12:31:50 GMT 49.872711 6.174533 25,375 245 478 2304
2022-08-08 12:31:47 GMT 49.875549 6.183423 25,275 246 477 2048
2022-08-08 12:31:44 GMT 49.878937 6.194554 25,125 246 477 2112
2022-08-08 12:31:41 GMT 49.880348 6.199407 24,975 246 477 2048
2022-08-08 12:31:39 GMT 49.882874 6.207926 24,975 245 475 2432
2022-08-08 12:31:36 GMT 49.888275 6.225851 24,900 245 475 2432
2022-08-08 12:31:31 GMT 49.890636 6.233702 24,625 246 475 2624
2022-08-08 12:31:29 GMT 49.892624 6.240307 24,625 246 475 2624
2022-08-08 12:31:25 GMT 49.898849 6.261701 24,350 247 475 2112
2022-08-08 12:31:22 GMT 49.898849 6.261701 24,350 247 475 2112
2022-08-08 12:31:18 GMT 49.902370 6.274010 24,175 247 475 1856
2022-08-08 12:31:15 GMT 49.904617 6.281939 24,000 247 474 1408
2022-08-08 12:31:12 GMT 49.907303 6.291454 24,075 247 474 64
2022-08-08 12:31:09 GMT 49.909882 6.300587 24,050 247 474 256
2022-08-08 12:31:06 GMT 49.911774 6.307340 24,000 247 474 0
2022-08-08 12:31:03 GMT 49.915264 6.319737 24,000 247 474 128
2022-08-08 12:31:00 GMT 49.917389 6.327402 24,000 247 475 64
2022-08-08 12:30:58 GMT 49.919495 6.334847 24,000 247 474 64
2022-08-08 12:30:55 GMT 49.922340 6.344976 24,000 247 475 0
2022-08-08 12:30:52 GMT 49.924942 6.354145 24,000 247 475 64
2022-08-08 12:30:50 GMT 49.928345 6.366132 24,000 247 474 64
2022-08-08 12:30:48 GMT 49.928345 6.366132 24,000 247 474 0
2022-08-08 12:30:44 GMT 49.930939 6.375323 24,000 247 474 0
2022-08-08 12:30:42 GMT 49.933182 6.383346 24,000 247 475 0
2022-08-08 12:30:39 GMT 49.935795 6.392558 24,000 247 475 0
2022-08-08 12:30:36 GMT 49.940781 6.410522 24,000 247 474 0
2022-08-08 12:30:33 GMT 49.940781 6.410522 24,000 247 474 0
2022-08-08 12:30:30 GMT 49.944214 6.423027 24,000 247 476 0
2022-08-08 12:30:27 GMT 49.946548 6.431483 24,000 247 475 0
2022-08-08 12:30:24 GMT 49.949154 6.441032 24,000 247 475 0
2022-08-08 12:30:22 GMT 49.951061 6.447935 24,000 247 476 0
2022-08-08 12:30:19 GMT 49.953369 6.456275 24,000 247 476 0
2022-08-08 12:30:16 GMT 49.955624 6.464192 24,000 247 476 64
2022-08-08 12:30:13 GMT 49.959351 6.477331 24,000 247 477 0
2022-08-08 12:30:10 GMT 49.961563 6.485331 24,000 248 477 0
2022-08-08 12:30:07 GMT 49.964539 6.496389 24,000 249 478 0
2022-08-08 12:30:04 GMT 49.966461 6.504051 24,000 250 479 0
2022-08-08 12:30:02 GMT 49.968430 6.512363 24,000 251 479 -64
2022-08-08 12:29:59 GMT 49.970242 6.520386 24,000 253 480 0
2022-08-08 12:29:56 GMT 49.974197 6.540262 24,000 260 479 448
2022-08-08 12:29:53 GMT 49.974197 6.540262 24,000 260 479 448
2022-08-08 12:29:51 GMT 49.975735 6.548668 23,950 256 481 -64
2022-08-08 12:29:48 GMT 49.978409 6.565632 24,000 257 481 -256
2022-08-08 12:29:45 GMT 49.980251 6.578584 24,000 258 481 -256
2022-08-08 12:29:42 GMT 49.981461 6.588382 23,850 267 474 1024
2022-08-08 12:29:39 GMT 49.981461 6.588382 24,000 261 478 768
2022-08-08 12:29:36 GMT 49.982578 6.598849 23,900 264 476 896
2022-08-08 12:29:32 GMT 49.983742 6.611023 23,900 264 476 896
2022-08-08 12:29:30 GMT 49.984161 6.616442 23,725 267 474 1024
2022-08-08 12:29:27 GMT 49.984818 6.626852 23,650 268 473 1024
2022-08-08 12:29:24 GMT 49.985371 6.638489 23,500 277 459 1024
2022-08-08 12:29:21 GMT 49.985653 6.647025 23,500 277 459 1024
2022-08-08 12:29:18 GMT 49.986099 6.660751 23,600 268 472 1024
2022-08-08 12:29:15 GMT 49.986282 6.667472 23,575 268 472 1024
2022-08-08 12:29:12 GMT 49.986557 6.675640 23,625 268 472 1024
2022-08-08 12:29:09 GMT 49.986969 6.689156 23,475 268 471 1024
2022-08-08 12:29:06 GMT 49.987564 6.708382 23,475 268 471 1024
2022-08-08 12:29:03 GMT 49.987564 6.708382 23,450 268 471 1024
2022-08-08 12:29:00 GMT 49.987793 6.716284 23,300 268 470 1024
2022-08-08 12:28:57 GMT 49.988213 6.730462 23,300 268 470 1024
2022-08-08 12:28:54 GMT 49.988445 6.738553 23,100 268 470 1024
2022-08-08 12:28:51 GMT 49.988678 6.746942 23,175 268 469 1024
2022-08-08 12:28:48 GMT 49.989143 6.765797 23,175 268 469 1024
2022-08-08 12:28:46 GMT 49.989143 6.765797 23,150 268 469 1024
2022-08-08 12:28:43 GMT 49.989441 6.777408 23,075 268 468 1024
2022-08-08 12:28:40 GMT 49.989655 6.785320 23,075 268 468 1024
2022-08-08 12:28:37 GMT 49.990028 6.796974 22,975 268 467 1088
2022-08-08 12:28:33 GMT 49.990444 6.810707 22,850 274 462 960
2022-08-08 12:28:29 GMT 49.991043 6.832990 22,850 268 466 1088
2022-08-08 12:28:26 GMT 49.991043 6.832990 22,775 270 466 1024
2022-08-08 12:28:22 GMT 49.991192 6.846487 22,750 280 459 960
2022-08-08 12:28:20 GMT 49.991005 6.865416 22,675 271 464 960
2022-08-08 12:28:17 GMT 49.991005 6.865416 22,625 272 463 960
2022-08-08 12:28:14 GMT 49.990444 6.884939 22,575 274 461 960
2022-08-08 12:28:11 GMT 49.990444 6.884939 22,525 274 461 960
2022-08-08 12:28:08 GMT 49.989746 6.900156 22,000 283 463 0
2022-08-08 12:28:05 GMT 49.989746 6.900156 22,425 276 461 1024
2022-08-08 12:28:02 GMT 49.988956 6.913964 22,375 276 460 1024
2022-08-08 12:27:58 GMT 49.988117 6.925469 22,175 282 460 960
2022-08-08 12:27:55 GMT 49.987328 6.934897 22,225 279 460 960
2022-08-08 12:27:52 GMT 49.986351 6.945364 22,225 280 459 960
2022-08-08 12:27:49 GMT 49.985325 6.954791 22,125 281 460 960
2022-08-08 12:27:46 GMT 49.982857 6.974166 22,125 283 463 64
2022-08-08 12:27:43 GMT 49.982857 6.974166 22,075 283 461 960
2022-08-08 12:27:40 GMT 49.981228 6.985449 22,000 283 462 704
2022-08-08 12:27:37 GMT 49.978134 7.006314 22,000 283 463 128
2022-08-08 12:27:33 GMT 49.978134 7.006314 22,000 283 463 0
2022-08-08 12:27:31 GMT 49.977219 7.012819 22,000 283 463 0
2022-08-08 12:27:29 GMT 49.976303 7.018963 22,000 283 463 0
2022-08-08 12:27:26 GMT 49.973282 7.039345 22,000 283 463 0
2022-08-08 12:27:23 GMT 49.972641 7.043826 22,000 284 464 0
2022-08-08 12:27:21 GMT 49.971542 7.050982 22,000 284 464 0
2022-08-08 12:27:19 GMT 49.971542 7.050982 22,000 284 464 0
2022-08-08 12:27:16 GMT 49.970215 7.060017 22,000 284 464 0
2022-08-08 12:27:13 GMT 49.968475 7.071654 22,000 284 464 0
2022-08-08 12:27:11 GMT 49.967743 7.076496 22,000 284 464 0
2022-08-08 12:27:09 GMT 49.966751 7.083138 22,000 284 464 0
2022-08-08 12:27:07 GMT 49.965492 7.091229 22,000 284 464 0
2022-08-08 12:27:04 GMT 49.964127 7.100493 22,000 284 464 0
2022-08-08 12:27:01 GMT 49.961678 7.116839 22,000 284 464 0
2022-08-08 12:26:58 GMT 49.960236 7.126490 22,000 284 464 0
2022-08-08 12:26:55 GMT 49.960236 7.126490 22,000 283 463 0
2022-08-08 12:26:52 GMT 49.958496 7.138005 22,000 283 463 0
2022-08-08 12:26:50 GMT 49.957722 7.143340 22,000 283 463 0
2022-08-08 12:26:48 GMT 49.956482 7.151594 22,000 283 463 0
2022-08-08 12:26:45 GMT 49.955338 7.159400 22,000 283 463 0
2022-08-08 12:26:43 GMT 49.954147 7.167495 22,000 284 464 0
2022-08-08 12:26:41 GMT 49.952957 7.175301 22,000 284 465 896
2022-08-08 12:26:39 GMT 49.951622 7.184168 22,000 284 464 0
2022-08-08 12:26:35 GMT 49.949295 7.199682 22,000 284 465 0
2022-08-08 12:26:30 GMT 49.947830 7.209272 22,000 284 464 0
2022-08-08 12:26:28 GMT 49.946869 7.215705 22,000 284 464 0
2022-08-08 12:26:25 GMT 49.943207 7.239701 22,000 284 465 -64
2022-08-08 12:26:21 GMT 49.943207 7.239701 22,000 284 465 -128
2022-08-08 12:26:19 GMT 49.941566 7.250605 22,025 284 465 -128
2022-08-08 12:26:14 GMT 49.939590 7.263698 22,000 284 465 448
2022-08-08 12:26:11 GMT 49.938034 7.274106 21,950 284 464 960
2022-08-08 12:26:08 GMT 49.937050 7.280744 21,800 284 464 1024
2022-08-08 12:26:05 GMT 49.935287 7.292537 21,900 284 463 960
2022-08-08 12:26:02 GMT 49.933960 7.301282 21,850 284 464 960
2022-08-08 12:26:00 GMT 49.931465 7.317934 21,800 284 464 960
2022-08-08 12:25:57 GMT 49.931465 7.317934 21,525 284 464 960
2022-08-08 12:25:54 GMT 49.930347 7.324986 21,725 284 463 960
2022-08-08 12:25:51 GMT 49.928391 7.337902 21,675 284 464 960
2022-08-08 12:25:48 GMT 49.925972 7.353788 21,600 284 464 960
2022-08-08 12:25:46 GMT 49.925972 7.353788 21,550 284 464 960
2022-08-08 12:25:42 GMT 49.923691 7.368708 21,500 284 465 896
2022-08-08 12:25:39 GMT 49.922527 7.376429 21,450 284 465 896
2022-08-08 12:25:36 GMT 49.921005 7.386354 21,450 284 465 896
2022-08-08 12:25:34 GMT 49.918991 7.399653 21,375 284 466 960
2022-08-08 12:25:31 GMT 49.918991 7.399653 21,250 284 466 1088
2022-08-08 12:25:28 GMT 49.917313 7.410872 21,300 284 466 1024
2022-08-08 12:25:25 GMT 49.916149 7.418667 21,250 284 466 1088
2022-08-08 12:25:21 GMT 49.914001 7.432757 21,200 284 467 1088
2022-08-08 12:25:18 GMT 49.912170 7.444827 21,125 284 466 960
2022-08-08 12:25:15 GMT 49.910095 7.458232 21,075 284 464 1024
2022-08-08 12:25:13 GMT 49.910095 7.458232 21,025 284 464 1024
2022-08-08 12:25:10 GMT 49.908371 7.469402 20,425 284 461 1344
2022-08-08 12:25:07 GMT 49.906883 7.479240 20,875 284 457 2048
2022-08-08 12:25:04 GMT 49.905396 7.488990 20,775 284 458 1984
2022-08-08 12:25:01 GMT 49.903656 7.500120 20,675 284 457 1984
2022-08-08 12:24:58 GMT 49.902462 7.507893 20,650 284 455 1984
2022-08-08 12:24:53 GMT 49.900085 7.523250 20,425 284 452 1984
2022-08-08 12:24:50 GMT 49.898319 7.534765 20,350 284 453 1984
2022-08-08 12:24:46 GMT 49.896652 7.545945 20,250 284 452 1984
2022-08-08 12:24:43 GMT 49.895142 7.555703 20,150 284 448 2048
2022-08-08 12:24:40 GMT 49.893711 7.565200 20,025 284 447 2112
2022-08-08 12:24:37 GMT 49.891846 7.577242 19,900 284 447 2112
2022-08-08 12:24:34 GMT 49.890686 7.584872 19,775 284 445 2304
2022-08-08 12:24:31 GMT 49.889427 7.592889 19,300 284 444 2368
2022-08-08 12:24:28 GMT 49.886169 7.614031 19,400 284 443 2304
2022-08-08 12:24:24 GMT 49.886169 7.614031 19,375 284 442 2304
2022-08-08 12:24:21 GMT 49.883980 7.628075 19,175 284 440 2368
2022-08-08 12:24:16 GMT 49.882771 7.636018 19,050 284 439 2496
2022-08-08 12:24:14 GMT 49.881420 7.644926 19,050 284 439 2624
2022-08-08 12:24:11 GMT 49.880070 7.653462 18,875 284 438 2432
2022-08-08 12:24:09 GMT 49.878906 7.661108 18,800 284 438 2624
2022-08-08 12:24:05 GMT 49.875320 7.684431 18,500 284 436 2304
2022-08-08 12:24:01 GMT 49.875320 7.684431 18,475 284 436 2304
2022-08-08 12:23:59 GMT 49.874313 7.690791 18,250 284 434 2368
2022-08-08 12:23:56 GMT 49.873043 7.698744 18,250 284 434 2368
2022-08-08 12:23:54 GMT 49.872250 7.703940 18,200 284 434 2432
2022-08-08 12:23:51 GMT 49.869549 7.720791 18,025 284 432 2624
2022-08-08 12:23:49 GMT 49.867950 7.730833 17,525 284 432 2688
2022-08-08 12:23:45 GMT 49.867950 7.730833 17,850 284 432 2624
2022-08-08 12:23:43 GMT 49.865662 7.745506 17,575 284 430 2496
2022-08-08 12:23:40 GMT 49.865662 7.745506 17,625 284 430 2496
2022-08-08 12:23:38 GMT 49.864803 7.751077 17,450 284 430 2496
2022-08-08 12:23:36 GMT 49.862457 7.766105 17,400 284 429 2560
2022-08-08 12:23:34 GMT 49.862457 7.766105 17,325 284 428 2816
2022-08-08 12:23:32 GMT 49.861729 7.770674 17,050 284 427 3136
2022-08-08 12:23:29 GMT 49.860123 7.780922 17,125 284 427 3008
2022-08-08 12:23:26 GMT 49.857697 7.796101 16,775 284 427 3264
2022-08-08 12:23:23 GMT 49.857697 7.796101 16,725 284 427 3264
2022-08-08 12:23:20 GMT 49.856049 7.806603 16,650 284 427 3136
2022-08-08 12:23:18 GMT 49.853767 7.820781 16,500 284 426 3008
2022-08-08 12:23:15 GMT 49.853767 7.820781 16,375 284 426 2944
2022-08-08 12:23:13 GMT 49.852844 7.826602 16,300 284 426 2880
2022-08-08 12:23:11 GMT 49.851673 7.834143 15,700 284 424 2944
2022-08-08 12:23:09 GMT 49.848999 7.851105 15,950 284 423 3072
2022-08-08 12:23:06 GMT 49.847439 7.861237 15,725 284 424 3072
2022-08-08 12:23:02 GMT 49.847439 7.861237 15,700 284 423 2944
2022-08-08 12:23:00 GMT 49.846786 7.865394 15,625 284 423 2944
2022-08-08 12:22:58 GMT 49.845810 7.871556 15,475 284 422 2752
2022-08-08 12:22:55 GMT 49.843994 7.883284 15,250 284 421 2624
2022-08-08 12:22:51 GMT 49.842503 7.892638 15,200 284 421 2624
2022-08-08 12:22:49 GMT 49.841713 7.897908 15,125 284 418 2496
2022-08-08 12:22:45 GMT 49.839935 7.909144 14,900 284 417 2496
2022-08-08 12:22:43 GMT 49.838974 7.915216 14,875 284 416 2432
2022-08-08 12:22:40 GMT 49.837570 7.924112 14,725 284 415 2432
2022-08-08 12:22:38 GMT 49.836872 7.928714 14,675 284 414 2496
2022-08-08 12:22:35 GMT 49.835312 7.938923 14,275 284 411 3520
2022-08-08 12:22:33 GMT 49.834396 7.944994 14,450 284 411 3200
2022-08-08 12:22:30 GMT 49.833054 7.953730 13,775 284 411 3456
2022-08-08 12:22:28 GMT 49.832077 7.960263 13,950 284 412 3456
2022-08-08 12:22:24 GMT 49.830780 7.968774 13,975 284 411 3520
2022-08-08 12:22:22 GMT 49.829636 7.976508 13,875 284 412 3200
2022-08-08 12:22:19 GMT 49.827896 7.988000 13,625 284 411 2688
2022-08-08 12:22:15 GMT 49.824875 8.007443 13,275 284 411 2624
2022-08-08 12:22:12 GMT 49.824142 8.012213 13,150 284 410 2432
2022-08-08 12:22:09 GMT 49.824142 8.012213 13,275 284 409 2240
2022-08-08 12:22:06 GMT 49.822861 8.020525 13,175 284 407 1920
2022-08-08 12:22:03 GMT 49.821259 8.030934 13,050 284 405 1856
2022-08-08 12:22:01 GMT 49.820393 8.036425 13,000 284 403 1856
2022-08-08 12:21:59 GMT 49.819645 8.040953 12,750 285 399 1728
2022-08-08 12:21:57 GMT 49.818741 8.046690 12,900 285 400 1792
2022-08-08 12:21:54 GMT 49.817364 8.055131 12,800 284 398 1728
2022-08-08 12:21:51 GMT 49.816433 8.060921 12,750 284 398 1664
2022-08-08 12:21:49 GMT 49.815315 8.068122 12,675 284 396 1664
2022-08-08 12:21:47 GMT 49.812988 8.082597 12,600 284 394 1664
2022-08-08 12:21:44 GMT 49.811920 8.089262 12,500 284 391 1728
2022-08-08 12:21:42 GMT 49.811920 8.089262 12,400 285 388 1792
2022-08-08 12:21:39 GMT 49.810989 8.095068 12,400 285 388 1792
2022-08-08 12:21:36 GMT 49.809406 8.105015 12,275 285 384 1792
2022-08-08 12:21:34 GMT 49.808521 8.110360 12,200 285 384 1792
2022-08-08 12:21:32 GMT 49.806423 8.123425 12,150 285 383 1728
2022-08-08 12:21:29 GMT 49.805725 8.127582 12,000 285 379 1664
2022-08-08 12:21:24 GMT 49.803165 8.143096 11,725 285 375 1472
2022-08-08 12:21:22 GMT 49.803165 8.143096 11,875 285 374 1472
2022-08-08 12:21:19 GMT 49.802078 8.149687 11,800 285 369 1408
2022-08-08 12:21:17 GMT 49.800980 8.156120 11,700 285 370 1408
2022-08-08 12:21:14 GMT 49.799057 8.167901 11,675 285 367 1408
2022-08-08 12:21:12 GMT 49.799057 8.167901 11,650 285 367 1408
2022-08-08 12:21:09 GMT 49.796883 8.181177 11,550 284 363 1408
2022-08-08 12:21:07 GMT 49.796883 8.181177 11,525 285 362 1472
2022-08-08 12:21:04 GMT 49.795906 8.187487 11,450 285 360 1536
2022-08-08 12:21:02 GMT 49.795021 8.192757 11,400 285 358 1536
2022-08-08 12:20:59 GMT 49.793793 8.200282 11,325 285 356 1472
2022-08-08 12:20:56 GMT 49.791046 8.217484 11,200 284 352 1408
2022-08-08 12:20:52 GMT 49.791046 8.217484 11,150 284 351 1472
2022-08-08 12:20:49 GMT 49.789856 8.225001 11,075 284 348 1408
2022-08-08 12:20:46 GMT 49.788876 8.231135 11,025 284 346 1472
2022-08-08 12:20:42 GMT 49.787109 8.241987 10,925 284 342 1344
2022-08-08 12:20:39 GMT 49.785553 8.251961 10,825 284 339 1216
2022-08-08 12:20:35 GMT 49.784683 8.257093 10,775 285 337 1088
2022-08-08 12:20:33 GMT 49.783939 8.261867 10,750 285 334 960
2022-08-08 12:20:31 GMT 49.782990 8.267501 10,725 285 331 832
2022-08-08 12:20:28 GMT 49.782211 8.272344 10,650 285 329 768
2022-08-08 12:20:25 GMT 49.780838 8.280511 10,650 285 323 768
2022-08-08 12:20:22 GMT 49.779510 8.288534 10,600 285 322 768
2022-08-08 12:20:20 GMT 49.778820 8.292599 10,550 285 318 960
2022-08-08 12:20:18 GMT 49.778446 8.294826 10,550 285 317 1024
2022-08-08 12:20:16 GMT 49.777191 8.302472 10,400 285 311 1344
2022-08-08 12:20:13 GMT 49.776398 8.307182 10,425 285 312 1280
2022-08-08 12:20:10 GMT 49.775143 8.314572 10,350 285 309 1600
2022-08-08 12:20:07 GMT 49.774303 8.319471 10,275 285 307 1792
2022-08-08 12:20:05 GMT 49.773418 8.324816 10,200 285 306 1856
2022-08-08 12:20:01 GMT 49.772163 8.332610 10,075 285 305 1984
2022-08-08 12:19:58 GMT 49.771137 8.338772 10,000 285 303 1984
2022-08-08 12:19:55 GMT 49.770172 8.344694 9,900 285 301 1984
2022-08-08 12:19:51 GMT 49.768616 8.353946 9,675 285 299 2240
2022-08-08 12:19:48 GMT 49.767601 8.360002 9,675 285 299 2176
2022-08-08 12:19:45 GMT 49.766464 8.366523 9,600 286 298 2368
2022-08-08 12:19:42 GMT 49.765549 8.371871 9,100 285 297 2432
2022-08-08 12:19:40 GMT 49.764946 8.375294 9,350 285 298 2432
2022-08-08 12:19:38 GMT 49.764175 8.379677 9,225 285 298 2432
2022-08-08 12:19:36 GMT 49.763489 8.383797 9,175 285 298 2368
2022-08-08 12:19:34 GMT 49.762802 8.387917 9,100 285 297 2112
2022-08-08 12:19:31 GMT 49.761520 8.395723 8,975 280 294 2304
2022-08-08 12:19:28 GMT 49.760712 8.400978 8,900 282 294 2304
2022-08-08 12:19:24 GMT 49.759594 8.411296 8,700 275 293 2304
2022-08-08 12:19:21 GMT 49.759277 8.416395 8,650 275 293 2304
2022-08-08 12:19:18 GMT 49.759415 8.427887 8,425 263 292 1920
2022-08-08 12:19:15 GMT 49.759415 8.427887 8,425 263 292 1920
2022-08-08 12:19:12 GMT 49.760010 8.434031 8,300 258 290 1536
2022-08-08 12:19:10 GMT 49.760468 8.437283 8,275 251 287 1472
2022-08-08 12:19:07 GMT 49.762253 8.446101 8,225 251 287 1472
2022-08-08 12:19:04 GMT 49.765648 8.456800 8,075 243 284 1472
2022-08-08 12:19:00 GMT 49.765648 8.456800 8,025 237 282 1472
2022-08-08 12:18:58 GMT 49.767040 8.460141 7,975 226 277 1472
2022-08-08 12:18:56 GMT 49.768532 8.463258 7,925 229 279 1408
2022-08-08 12:18:54 GMT 49.770721 8.467279 7,875 228 278 1408
2022-08-08 12:18:51 GMT 49.773056 8.470965 7,800 223 275 1536
2022-08-08 12:18:49 GMT 49.775116 8.473856 7,750 220 274 1472
2022-08-08 12:18:47 GMT 49.776764 8.475952 7,700 219 273 1472
2022-08-08 12:18:43 GMT 49.782074 8.481662 7,575 212 267 1792
2022-08-08 12:18:40 GMT 49.786453 8.485305 7,450 208 266 2176
2022-08-08 12:18:38 GMT 49.786453 8.485305 7,425 206 264 2432
2022-08-08 12:18:36 GMT 49.788132 8.486493 7,350 203 263 2624
2022-08-08 12:18:34 GMT 49.791000 8.488384 7,250 202 263 2624
2022-08-08 12:18:31 GMT 49.793762 8.490056 7,150 201 263 2432
2022-08-08 12:18:29 GMT 49.796356 8.491564 7,050 201 263 2432
2022-08-08 12:18:27 GMT 49.798233 8.492580 7,000 200 261 2496
2022-08-08 12:18:25 GMT 49.801712 8.494528 6,625 200 261 2432
2022-08-08 12:18:21 GMT 49.805264 8.496514 6,725 201 259 2432
2022-08-08 12:18:18 GMT 49.809219 8.498741 6,575 200 259 2368
2022-08-08 12:18:16 GMT 49.813271 8.500968 6,525 200 258 2368
2022-08-08 12:18:14 GMT 49.813271 8.500968 6,425 201 257 2368
2022-08-08 12:18:11 GMT 49.817001 8.503129 6,050 200 255 2880
2022-08-08 12:18:08 GMT 49.820297 8.504977 6,175 201 255 2816
2022-08-08 12:18:06 GMT 49.822624 8.506313 6,075 200 255 3008
2022-08-08 12:18:04 GMT 49.824326 8.507249 5,875 201 255 2944
2022-08-08 12:18:00 GMT 49.828629 8.509706 5,725 201 255 2560
2022-08-08 12:17:57 GMT 49.831833 8.511585 5,600 201 255 2432
2022-08-08 12:17:53 GMT 49.835815 8.513898 5,525 201 255 2432
2022-08-08 12:17:49 GMT 49.840805 8.516789 5,400 201 254 1344
2022-08-08 12:17:46 GMT 49.843899 8.518561 5,350 201 249 960
2022-08-08 12:17:43 GMT 49.848137 8.520937 5,300 200 244 1024
2022-08-08 12:17:39 GMT 49.851242 8.522716 5,250 201 241 1472
2022-08-08 12:17:37 GMT 49.857285 8.526113 5,050 200 238 1408
2022-08-08 12:17:33 GMT 49.857285 8.526113 4,800 199 236 1728
2022-08-08 12:17:30 GMT 49.861172 8.528211 4,875 195 234 1984
2022-08-08 12:17:27 GMT 49.868271 8.531101 4,725 191 233 2304
2022-08-08 12:17:24 GMT 49.868271 8.531101 4,725 193 233 2240
2022-08-08 12:17:20 GMT 49.872070 8.532257 4,600 190 232 2496
2022-08-08 12:17:16 GMT 49.876419 8.533197 4,425 186 231 2432
2022-08-08 12:17:13 GMT 49.878906 8.533556 4,100 179 226 2560
2022-08-08 12:17:10 GMT 49.882679 8.533779 4,025 178 226 2688
2022-08-08 12:17:07 GMT 49.885750 8.533779 3,975 178 226 2688
2022-08-08 12:17:05 GMT 49.887287 8.533705 4,000 177 225 2752
2022-08-08 12:17:03 GMT 49.889420 8.533558 3,250 177 232 2752
2022-08-08 12:17:00 GMT 49.895248 8.533259 3,675 177 227 3072
2022-08-08 12:16:58 GMT 49.897934 8.533052 3,525 177 229 3200
2022-08-08 12:16:56 GMT 49.897934 8.533052 3,500 177 230 3200
2022-08-08 12:16:53 GMT 49.899902 8.532962 3,400 177 231 3072
2022-08-08 12:16:47 GMT 49.910748 8.532072 2,925 177 227 1920
2022-08-08 12:16:43 GMT 49.910748 8.532072 2,775 177 225 2368
2022-08-08 12:16:40 GMT 49.914055 8.531849 2,950 177 227 1856
2022-08-08 12:16:37 GMT 49.920338 8.531329 2,775 177 225 2368
2022-08-08 12:16:34 GMT 49.920338 8.531329 2,725 177 225 2368
2022-08-08 12:16:32 GMT 49.921875 8.531245 2,575 176 223 2432
2022-08-08 12:16:29 GMT 49.927139 8.530812 2,075 176 223 2688
2022-08-08 12:16:27 GMT 49.929230 8.530587 2,075 176 224 2752
2022-08-08 12:16:23 GMT 49.932220 8.530378 2,075 177 226 2496
2022-08-08 12:16:19 GMT 49.935837 8.530089 2,075 177 227 1984
2022-08-08 12:16:17 GMT 49.937981 8.529919 2,000 177 225 1344
2022-08-08 12:16:15 GMT 49.940079 8.529770 2,000 177 225 1216
2022-08-08 12:16:13 GMT 49.942703 8.529583 1,975 176 221 960
2022-08-08 12:16:10 GMT 49.945862 8.529366 1,925 177 218 1024
2022-08-08 12:16:09 GMT 49.946365 8.529294 1,900 177 216 1024
2022-08-08 12:16:07 GMT 49.948410 8.529176 1,875 177 214 1024
2022-08-08 12:16:06 GMT 49.949432 8.529077 1,850 177 213 1088
2022-08-08 12:16:04 GMT 49.951675 8.528932 1,800 177 210 1088
2022-08-08 12:16:03 GMT 49.952740 8.528880 1,800 177 210 1024
2022-08-08 12:16:00 GMT 49.955063 8.528715 1,775 177 207 896
2022-08-08 12:15:59 GMT 49.956024 8.528643 1,725 177 205 1152
2022-08-08 12:15:57 GMT 49.958092 8.528508 1,675 177 204 1216
2022-08-08 12:15:56 GMT 49.959023 8.528434 1,675 177 202 1408
2022-08-08 12:15:55 GMT 49.960922 8.528282 1,625 177 201 1216
2022-08-08 12:15:53 GMT 49.961769 8.528211 1,600 177 199 960
2022-08-08 12:15:52 GMT 49.963539 8.528063 1,575 176 198 832
2022-08-08 12:15:50 GMT 49.964401 8.527993 1,575 176 196 832
2022-08-08 12:15:48 GMT 49.966194 8.527840 1,525 176 193 832
2022-08-08 12:15:47 GMT 49.968018 8.527704 1,500 177 192 768
2022-08-08 12:15:44 GMT 49.969452 8.527618 1,475 176 189 640
2022-08-08 12:15:43 GMT 49.970661 8.527469 1,475 176 188 640
2022-08-08 12:15:42 GMT 49.971588 8.527414 1,450 176 186 768
2022-08-08 12:15:41 GMT 49.972431 8.527321 1,450 176 185 832
2022-08-08 12:15:40 GMT 49.973236 8.527270 1,425 176 184 1024
2022-08-08 12:15:38 GMT 49.975159 8.527125 1,375 176 182 1216
2022-08-08 12:15:35 GMT 49.977226 8.526949 1,325 176 181 1344
2022-08-08 12:15:34 GMT 49.978546 8.526836 1,300 177 180 1856
2022-08-08 12:15:33 GMT 49.979370 8.526764 1,250 177 180 2176
2022-08-08 12:15:31 GMT 49.981018 8.526619 1,175 177 180 2304
2022-08-08 12:15:30 GMT 49.981880 8.526578 1,150 177 180 2240
2022-08-08 12:15:29 GMT 49.984085 8.526403 1,050 177 181 2176

Making use of Plane Finder data

You are free to use the raw flight data, aircraft information and images provided in this report for your own purposes provided the data is correctly attributed to Plane Finder. We ask that you please credit Plane Finder and link to planefinder.net in close proximity to the content.

Optionally one of the following logos (no smaller then 150x24px) can be used and must link to planefinder.net

Embedding the Plane Finder map

You are welcome to embed the Plane Finder playback map on your website to offer visitors a more interactive experience. We suggest using the following HTML code:

<iframe src="//planefinder.net/data/report/LH420-D-ABVW-7700-squawk-2022-08-08/map" width="800" height="600" seamless="seamless"></iframe>

Where our data comes from

Plane Finder has a global network of data feeds and antenna radars that receive data broadcast directly from aircraft. The primary technologies used are ADS-B and MLAT. We also show feeds from the FAA and a FLARM glider feed.

Click here to find out more about the Plane Finder network.

How we collect our data